<?xml version='1.0' encoding='UTF-8'?><gpx version="1.1" creator="JPX - https://github.com/jenetics/jpx" xmlns="http://www.topografix.com/GPX/1/1"><trk><trkseg><trkpt lat="43.52239174892148" lon="11.491277401221975"><ele>294.0</ele><time>2026-04-26T13:08:35Z</time></trkpt><trkpt lat="43.522450149973544" lon="11.4912144685597"><ele>294.0</ele><time>2026-04-26T13:11:44.999Z</time></trkpt><trkpt lat="43.52250554229463" lon="11.49129079807858"><ele>294.0</ele><time>2026-04-26T13:11:47.999Z</time></trkpt><trkpt lat="43.52256448377347" lon="11.491387835417132"><ele>294.0</ele><time>2026-04-26T13:11:50.999Z</time></trkpt><trkpt lat="43.522622026785825" lon="11.491512436688268"><ele>294.0</ele><time>2026-04-26T13:11:52.999Z</time></trkpt><trkpt lat="43.522660527577386" lon="11.491603658993597"><ele>294.0</ele><time>2026-04-26T13:11:54.999Z</time></trkpt><trkpt lat="43.52273192462072" lon="11.49173825035025"><ele>294.0</ele><time>2026-04-26T13:11:56.999Z</time></trkpt><trkpt lat="43.52277203458566" lon="11.491829788314329"><ele>294.0</ele><time>2026-04-26T13:11:57.999Z</time></trkpt><trkpt lat="43.52280956608943" lon="11.491922723702158"><ele>294.0</ele><time>2026-04-26T13:11:58.999Z</time></trkpt><trkpt lat="43.522845536099304" lon="11.492013908271645"><ele>294.0</ele><time>2026-04-26T13:11:59.999Z</time></trkpt><trkpt lat="43.52287941869328" lon="11.49211814386269"><ele>294.0</ele><time>2026-04-26T13:12:00.999Z</time></trkpt><trkpt lat="43.5229156352133" lon="11.492221132111725"><ele>294.0</ele><time>2026-04-26T13:12:01.999Z</time></trkpt><trkpt lat="43.52294922396024" lon="11.49232458033564"><ele>294.0</ele><time>2026-04-26T13:12:02.999Z</time></trkpt><trkpt lat="43.52298488043241" lon="11.492427216237338"><ele>294.0</ele><time>2026-04-26T13:12:03.999Z</time></trkpt><trkpt lat="43.52302065161098" lon="11.492525817207598"><ele>294.0</ele><time>2026-04-26T13:12:04.999Z</time></trkpt><trkpt lat="43.523047295733285" lon="11.492626483389946"><ele>294.0</ele><time>2026-04-26T13:12:06.999Z</time></trkpt><trkpt lat="43.52303920202831" lon="11.4927174318088"><ele>294.0</ele><time>2026-04-26T13:12:10.999Z</time></trkpt><trkpt lat="43.5229063620069" lon="11.492834024733112"><ele>294.1666666666667</ele><time>2026-04-26T13:12:11.999Z</time></trkpt><trkpt lat="43.52286281713322" lon="11.492913404304858"><ele>294.3333333333333</ele><time>2026-04-26T13:12:12.999Z</time></trkpt><trkpt lat="43.52282044962316" lon="11.493006810105719"><ele>294.5</ele><time>2026-04-26T13:12:13.999Z</time></trkpt><trkpt lat="43.522776414686625" lon="11.493111750278796"><ele>294.66666666666663</ele><time>2026-04-26T13:12:14.999Z</time></trkpt><trkpt lat="43.522734580469226" lon="11.49322241407539"><ele>294.8333333333333</ele><time>2026-04-26T13:12:15.999Z</time></trkpt><trkpt lat="43.522688166418114" lon="11.493315166262864"><ele>295.0</ele><time>2026-04-26T13:12:16.999Z</time></trkpt><trkpt lat="43.522650329790416" lon="11.493427886665106"><ele>295.0</ele><time>2026-04-26T13:12:17.999Z</time></trkpt><trkpt lat="43.52262445103676" lon="11.493555784849633"><ele>295.0</ele><time>2026-04-26T13:12:18.999Z</time></trkpt><trkpt lat="43.52255920404765" lon="11.493662953049924"><ele>295.0</ele><time>2026-04-26T13:12:19.999Z</time></trkpt><trkpt lat="43.522518758870625" lon="11.493788943732376"><ele>295.0</ele><time>2026-04-26T13:12:20.999Z</time></trkpt><trkpt lat="43.522463638178536" lon="11.493897883758613"><ele>295.0</ele><time>2026-04-26T13:12:21.999Z</time></trkpt><trkpt lat="43.52241190189563" lon="11.494013146043214"><ele>294.0</ele><time>2026-04-26T13:12:22.999Z</time></trkpt><trkpt lat="43.52236890178157" lon="11.494124434574186"><ele>293.0</ele><time>2026-04-26T13:12:23.999Z</time></trkpt><trkpt lat="43.52233437965731" lon="11.494234551478996"><ele>292.0</ele><time>2026-04-26T13:12:24.999Z</time></trkpt><trkpt lat="43.52231441460323" lon="11.49433905654616"><ele>291.0</ele><time>2026-04-26T13:12:25.999Z</time></trkpt><trkpt lat="43.52230187623132" lon="11.494436638270297"><ele>290.0</ele><time>2026-04-26T13:12:26.999Z</time></trkpt><trkpt lat="43.522344368914695" lon="11.494523248883777"><ele>289.0</ele><time>2026-04-26T13:12:27.999Z</time></trkpt><trkpt lat="43.5223811340996" lon="11.494607414763937"><ele>289.0</ele><time>2026-04-26T13:12:28.999Z</time></trkpt><trkpt lat="43.52241596953911" lon="11.49470184425027"><ele>289.0</ele><time>2026-04-26T13:12:29.999Z</time></trkpt><trkpt lat="43.5224280162309" lon="11.494807517732756"><ele>289.0</ele><time>2026-04-26T13:12:30.999Z</time></trkpt><trkpt lat="43.52237558715208" lon="11.49490655180823"><ele>289.0</ele><time>2026-04-26T13:12:31.999Z</time></trkpt><trkpt lat="43.5223432597023" lon="11.495024355345974"><ele>289.0</ele><time>2026-04-26T13:12:32.999Z</time></trkpt><trkpt lat="43.52232398100506" lon="11.495147359850128"><ele>289.0</ele><time>2026-04-26T13:12:33.999Z</time></trkpt><trkpt lat="43.5222916763056" lon="11.495273028659742"><ele>289.0</ele><time>2026-04-26T13:12:34.999Z</time></trkpt><trkpt lat="43.522260404717485" lon="11.495408940941257"><ele>289.0</ele><time>2026-04-26T13:12:35.999Z</time></trkpt><trkpt lat="43.5222252181411" lon="11.495550409089073"><ele>289.0</ele><time>2026-04-26T13:12:37Z</time></trkpt><trkpt lat="43.52219028864705" lon="11.495692738606877"><ele>289.0</ele><time>2026-04-26T13:12:38Z</time></trkpt><trkpt lat="43.52215851596934" lon="11.49583182962031"><ele>289.0</ele><time>2026-04-26T13:12:39Z</time></trkpt><trkpt lat="43.52212479289446" lon="11.495957761390022"><ele>289.8333333333333</ele><time>2026-04-26T13:12:40Z</time></trkpt><trkpt lat="43.52209492435435" lon="11.49606937769274"><ele>290.66666666666663</ele><time>2026-04-26T13:12:41Z</time></trkpt><trkpt lat="43.522068241364174" lon="11.49615627113827"><ele>291.5</ele><time>2026-04-26T13:12:42Z</time></trkpt><trkpt lat="43.52203182987171" lon="11.496248646126224"><ele>292.3333333333333</ele><time>2026-04-26T13:12:44Z</time></trkpt><trkpt lat="43.521971439432114" lon="11.496350509056672"><ele>293.1666666666667</ele><time>2026-04-26T13:12:47Z</time></trkpt><trkpt lat="43.521905798016974" lon="11.496364585808797"><ele>294.0</ele><time>2026-04-26T13:13:05Z</time></trkpt><trkpt lat="43.52186068476392" lon="11.496445486351504"><ele>294.8333333333333</ele><time>2026-04-26T13:13:08Z</time></trkpt><trkpt lat="43.52189999655278" lon="11.496586001344356"><ele>295.6666666666667</ele><time>2026-04-26T13:13:09Z</time></trkpt><trkpt lat="43.52185668516536" lon="11.496666419135263"><ele>296.5</ele><time>2026-04-26T13:13:11Z</time></trkpt><trkpt lat="43.52180604027422" lon="11.496740621694762"><ele>297.33333333333337</ele><time>2026-04-26T13:13:13Z</time></trkpt><trkpt lat="43.52174495641643" lon="11.496827510439367"><ele>298.1666666666667</ele><time>2026-04-26T13:13:16Z</time></trkpt><trkpt lat="43.5216950666394" lon="11.496892384559091"><ele>299.0</ele><time>2026-04-26T13:13:19Z</time></trkpt><trkpt lat="43.521646629826265" lon="11.496951331341547"><ele>299.0</ele><time>2026-04-26T13:13:23Z</time></trkpt><trkpt lat="43.521597550953835" lon="11.497022536115425"><ele>299.0</ele><time>2026-04-26T13:13:27Z</time></trkpt><trkpt lat="43.521583638345696" lon="11.49713205833047"><ele>299.0</ele><time>2026-04-26T13:13:31Z</time></trkpt><trkpt lat="43.52163116691059" lon="11.497227108655173"><ele>299.0</ele><time>2026-04-26T13:13:34Z</time></trkpt><trkpt lat="43.52168695834982" lon="11.497276411542446"><ele>299.0</ele><time>2026-04-26T13:13:36.997Z</time></trkpt><trkpt lat="43.52162596188939" lon="11.497192157460562"><ele>299.0</ele><time>2026-04-26T13:14:04.999Z</time></trkpt><trkpt lat="43.52158783855693" lon="11.497110455969603"><ele>299.0</ele><time>2026-04-26T13:14:07.999Z</time></trkpt><trkpt lat="43.52175477699984" lon="11.496828972931796"><ele>299.0</ele><time>2026-04-26T13:14:13.999Z</time></trkpt><trkpt lat="43.52181988872819" lon="11.496744898389673"><ele>299.0</ele><time>2026-04-26T13:14:15.999Z</time></trkpt><trkpt lat="43.521879797272625" lon="11.496628146553311"><ele>299.0</ele><time>2026-04-26T13:14:17.999Z</time></trkpt><trkpt lat="43.521925986815575" lon="11.496510404679764"><ele>299.0</ele><time>2026-04-26T13:14:19.999Z</time></trkpt><trkpt lat="43.52192274661948" lon="11.496418536502292"><ele>299.0</ele><time>2026-04-26T13:14:21.999Z</time></trkpt><trkpt lat="43.521967565713936" lon="11.496354899247738"><ele>299.0</ele><time>2026-04-26T13:17:03Z</time></trkpt><trkpt lat="43.52200504456533" lon="11.496255413355868"><ele>299.0</ele><time>2026-04-26T13:17:07Z</time></trkpt><trkpt lat="43.522088821738755" lon="11.496169537816893"><ele>299.0</ele><time>2026-04-26T13:17:09Z</time></trkpt><trkpt lat="43.52213015456668" lon="11.496035966351993"><ele>298.2857142857143</ele><time>2026-04-26T13:17:11Z</time></trkpt><trkpt lat="43.52216691379206" lon="11.495881469338187"><ele>297.57142857142856</ele><time>2026-04-26T13:17:13Z</time></trkpt><trkpt lat="43.52218708999026" lon="11.495799140885197"><ele>296.8571428571429</ele><time>2026-04-26T13:17:14Z</time></trkpt><trkpt lat="43.52220792131121" lon="11.49571276651091"><ele>296.1428571428571</ele><time>2026-04-26T13:17:15Z</time></trkpt><trkpt lat="43.52222902816303" lon="11.495625249652385"><ele>295.42857142857144</ele><time>2026-04-26T13:17:16Z</time></trkpt><trkpt lat="43.52224921077401" lon="11.49554156503994"><ele>294.7142857142857</ele><time>2026-04-26T13:17:17Z</time></trkpt><trkpt lat="43.5222692416106" lon="11.495458509793195"><ele>294.0</ele><time>2026-04-26T13:17:18Z</time></trkpt><trkpt lat="43.52228991511566" lon="11.495372789727169"><ele>293.1666666666667</ele><time>2026-04-26T13:17:19Z</time></trkpt><trkpt lat="43.5222940578943" lon="11.495285343213771"><ele>292.3333333333333</ele><time>2026-04-26T13:17:20Z</time></trkpt><trkpt lat="43.522329861083705" lon="11.495207158903993"><ele>291.5</ele><time>2026-04-26T13:17:21Z</time></trkpt><trkpt lat="43.52235198348034" lon="11.495121804892825"><ele>290.66666666666663</ele><time>2026-04-26T13:17:22Z</time></trkpt><trkpt lat="43.52239643788244" lon="11.494962762763993"><ele>289.8333333333333</ele><time>2026-04-26T13:17:24Z</time></trkpt><trkpt lat="43.5224153676689" lon="11.494804138342676"><ele>289.0</ele><time>2026-04-26T13:17:26Z</time></trkpt><trkpt lat="43.522439955074184" lon="11.494661571069397"><ele>289.0</ele><time>2026-04-26T13:17:28Z</time></trkpt><trkpt lat="43.52239017567979" lon="11.494569627490671"><ele>289.0</ele><time>2026-04-26T13:17:29Z</time></trkpt><trkpt lat="43.522340712627184" lon="11.494411743574748"><ele>289.0</ele><time>2026-04-26T13:17:31Z</time></trkpt><trkpt lat="43.52231824349716" lon="11.49432553739789"><ele>289.0</ele><time>2026-04-26T13:17:32Z</time></trkpt><trkpt lat="43.52235367887915" lon="11.494240019649457"><ele>289.0</ele><time>2026-04-26T13:17:33Z</time></trkpt><trkpt lat="43.522401110400246" lon="11.494110160041362"><ele>289.0</ele><time>2026-04-26T13:17:35Z</time></trkpt><trkpt lat="43.52246089914619" lon="11.4939676348275"><ele>289.0</ele><time>2026-04-26T13:17:37Z</time></trkpt><trkpt lat="43.52252247586995" lon="11.49382512796409"><ele>289.0</ele><time>2026-04-26T13:17:39Z</time></trkpt><trkpt lat="43.522577908031835" lon="11.493708166951905"><ele>289.0</ele><time>2026-04-26T13:17:41Z</time></trkpt><trkpt lat="43.522637947721314" lon="11.493573353011932"><ele>290.2</ele><time>2026-04-26T13:17:43Z</time></trkpt><trkpt lat="43.52268479442859" lon="11.493445349881599"><ele>291.4</ele><time>2026-04-26T13:17:45Z</time></trkpt><trkpt lat="43.52272538747545" lon="11.493313916080789"><ele>292.6</ele><time>2026-04-26T13:17:46.999Z</time></trkpt><trkpt lat="43.52274615093963" lon="11.493209602339789"><ele>293.8</ele><time>2026-04-26T13:17:47.999Z</time></trkpt><trkpt lat="43.522783633299476" lon="11.493121607596631"><ele>295.0</ele><time>2026-04-26T13:17:48.999Z</time></trkpt><trkpt lat="43.52282740359883" lon="11.493009896686912"><ele>294.8333333333333</ele><time>2026-04-26T13:17:49.999Z</time></trkpt><trkpt lat="43.5228750570606" lon="11.492901446782012"><ele>294.66666666666663</ele><time>2026-04-26T13:17:50.999Z</time></trkpt><trkpt lat="43.52291440743896" lon="11.492826553372643"><ele>294.5</ele><time>2026-04-26T13:17:51.999Z</time></trkpt><trkpt lat="43.522961671526396" lon="11.492758207832257"><ele>294.3333333333333</ele><time>2026-04-26T13:17:52.999Z</time></trkpt><trkpt lat="43.52301775269723" lon="11.492682327023136"><ele>294.1666666666667</ele><time>2026-04-26T13:17:54.999Z</time></trkpt><trkpt lat="43.523087520353805" lon="11.4926259255379"><ele>294.0</ele><time>2026-04-26T13:18:00.999Z</time></trkpt><trkpt lat="43.523026549044324" lon="11.492476078656528"><ele>294.0</ele><time>2026-04-26T13:18:01.999Z</time></trkpt><trkpt lat="43.52298762185362" lon="11.492398283639211"><ele>294.0</ele><time>2026-04-26T13:18:02.999Z</time></trkpt><trkpt lat="43.52295737844383" lon="11.492310645218344"><ele>294.0</ele><time>2026-04-26T13:18:03.999Z</time></trkpt><trkpt lat="43.522925142505805" lon="11.492213725785211"><ele>294.0</ele><time>2026-04-26T13:18:04.999Z</time></trkpt><trkpt lat="43.522887922848376" lon="11.492107945219576"><ele>294.0</ele><time>2026-04-26T13:18:05.999Z</time></trkpt><trkpt lat="43.52284985262549" lon="11.492001431388234"><ele>294.0</ele><time>2026-04-26T13:18:06.999Z</time></trkpt><trkpt lat="43.52280886160793" lon="11.4918966777747"><ele>294.0</ele><time>2026-04-26T13:18:07.999Z</time></trkpt><trkpt lat="43.52276263806383" lon="11.491793388323021"><ele>294.0</ele><time>2026-04-26T13:18:08.999Z</time></trkpt><trkpt lat="43.52272793895876" lon="11.491674246813298"><ele>294.0</ele><time>2026-04-26T13:18:09.999Z</time></trkpt><trkpt lat="43.522680208584504" lon="11.49157014779948"><ele>294.0</ele><time>2026-04-26T13:18:11Z</time></trkpt><trkpt lat="43.522617834464754" lon="11.491485560455864"><ele>294.0</ele><time>2026-04-26T13:18:12Z</time></trkpt><trkpt lat="43.52257830041601" lon="11.491400245703646"><ele>294.0</ele><time>2026-04-26T13:18:13Z</time></trkpt><trkpt lat="43.52253924087159" lon="11.491324297339915"><ele>294.0</ele><time>2026-04-26T13:18:14Z</time></trkpt><trkpt lat="43.52246898701241" lon="11.49122607801269"><ele>294.0</ele><time>2026-04-26T13:18:16Z</time></trkpt><trkpt lat="43.52242631111946" lon="11.491150935687855"><ele>294.0</ele><time>2026-04-26T13:18:18Z</time></trkpt><trkpt lat="43.52232786024604" lon="11.491211759974572"><ele>294.0</ele><time>2026-04-26T13:18:20Z</time></trkpt><trkpt lat="43.52226803496218" lon="11.491349501354586"><ele>294.0</ele><time>2026-04-26T13:18:22Z</time></trkpt><trkpt lat="43.522230677679815" lon="11.491426003417075"><ele>294.0</ele><time>2026-04-26T13:18:23Z</time></trkpt><trkpt lat="43.52218888277653" lon="11.491511061459741"><ele>294.0</ele><time>2026-04-26T13:18:24Z</time></trkpt><trkpt lat="43.522146818058516" lon="11.49158905591158"><ele>294.0</ele><time>2026-04-26T13:18:25Z</time></trkpt><trkpt lat="43.522063006063306" lon="11.49164092855793"><ele>294.0</ele><time>2026-04-26T13:18:27Z</time></trkpt><trkpt lat="43.5219681029769" lon="11.491587162554241"><ele>294.0</ele><time>2026-04-26T13:18:29Z</time></trkpt><trkpt lat="43.52191140185072" lon="11.491547847117626"><ele>294.0</ele><time>2026-04-26T13:18:30Z</time></trkpt><trkpt lat="43.52180728352786" lon="11.491460463074455"><ele>294.3333333333333</ele><time>2026-04-26T13:18:32Z</time></trkpt><trkpt lat="43.521747188624815" lon="11.491417303210573"><ele>294.6666666666667</ele><time>2026-04-26T13:18:33Z</time></trkpt><trkpt lat="43.52168399638406" lon="11.491376427555327"><ele>295.0</ele><time>2026-04-26T13:18:34Z</time></trkpt><trkpt lat="43.52161472509096" lon="11.491356316425646"><ele>295.33333333333337</ele><time>2026-04-26T13:18:35Z</time></trkpt><trkpt lat="43.521547684848684" lon="11.491370786887618"><ele>295.6666666666667</ele><time>2026-04-26T13:18:36Z</time></trkpt><trkpt lat="43.52144894007884" lon="11.491465348396913"><ele>296.0</ele><time>2026-04-26T13:18:38Z</time></trkpt><trkpt lat="43.52140701109692" lon="11.491630357024889"><ele>296.0</ele><time>2026-04-26T13:18:40Z</time></trkpt><trkpt lat="43.521415481533616" lon="11.491720540778578"><ele>296.0</ele><time>2026-04-26T13:18:41Z</time></trkpt><trkpt lat="43.52143602530602" lon="11.491810986566046"><ele>296.0</ele><time>2026-04-26T13:18:42Z</time></trkpt><trkpt lat="43.5214607576591" lon="11.491899091434748"><ele>296.0</ele><time>2026-04-26T13:18:43Z</time></trkpt><trkpt lat="43.52147903093664" lon="11.491988269782384"><ele>296.0</ele><time>2026-04-26T13:18:44Z</time></trkpt><trkpt lat="43.52152787062647" lon="11.49214725913177"><ele>296.0</ele><time>2026-04-26T13:18:46Z</time></trkpt><trkpt lat="43.52157409814863" lon="11.492217412751279"><ele>296.6666666666667</ele><time>2026-04-26T13:18:47Z</time></trkpt><trkpt lat="43.52162875895959" lon="11.49226939453924"><ele>297.33333333333337</ele><time>2026-04-26T13:18:48Z</time></trkpt><trkpt lat="43.5216907266784" lon="11.492307906922381"><ele>298.0</ele><time>2026-04-26T13:18:49Z</time></trkpt><trkpt lat="43.52175637459083" lon="11.492353268259953"><ele>298.6666666666667</ele><time>2026-04-26T13:18:50Z</time></trkpt><trkpt lat="43.52182279809242" lon="11.492401194574095"><ele>299.3333333333333</ele><time>2026-04-26T13:18:51Z</time></trkpt><trkpt lat="43.52189380379977" lon="11.492436897562566"><ele>300.0</ele><time>2026-04-26T13:18:52Z</time></trkpt><trkpt lat="43.52199892746763" lon="11.492506517884499"><ele>299.6</ele><time>2026-04-26T13:18:54Z</time></trkpt><trkpt lat="43.5221035646068" lon="11.492519250064653"><ele>299.2</ele><time>2026-04-26T13:18:56Z</time></trkpt><trkpt lat="43.522202227400975" lon="11.492433137686794"><ele>298.8</ele><time>2026-04-26T13:18:58Z</time></trkpt><trkpt lat="43.52223384872295" lon="11.492355857598485"><ele>298.4</ele><time>2026-04-26T13:18:59Z</time></trkpt><trkpt lat="43.52222932897574" lon="11.492190588849793"><ele>298.0</ele><time>2026-04-26T13:19:01Z</time></trkpt><trkpt lat="43.522183562268985" lon="11.492047077948207"><ele>297.2</ele><time>2026-04-26T13:19:03Z</time></trkpt><trkpt lat="43.52213441323726" lon="11.491905889227725"><ele>296.4</ele><time>2026-04-26T13:19:05Z</time></trkpt><trkpt lat="43.52210520056462" lon="11.491763790415401"><ele>295.59999999999997</ele><time>2026-04-26T13:19:07Z</time></trkpt><trkpt lat="43.52215804631578" lon="11.491630475141802"><ele>294.8</ele><time>2026-04-26T13:19:09Z</time></trkpt><trkpt lat="43.5221999863742" lon="11.491552313029807"><ele>294.0</ele><time>2026-04-26T13:19:10Z</time></trkpt><trkpt lat="43.52227264608566" lon="11.49140805080944"><ele>294.0</ele><time>2026-04-26T13:19:12.001Z</time></trkpt><trkpt lat="43.52233682154307" lon="11.491273228517104"><ele>294.0</ele><time>2026-04-26T13:19:14.001Z</time></trkpt><trkpt lat="43.522399464809375" lon="11.491217998456047"><ele>294.0</ele><time>2026-04-26T13:19:16.001Z</time></trkpt><trkpt lat="43.52249796153351" lon="11.491296145466915"><ele>294.0</ele><time>2026-04-26T13:19:18.001Z</time></trkpt><trkpt lat="43.52253746308628" lon="11.491363974423953"><ele>294.0</ele><time>2026-04-26T13:19:19.001Z</time></trkpt><trkpt lat="43.5225731996458" lon="11.491436874118765"><ele>294.0</ele><time>2026-04-26T13:19:20.001Z</time></trkpt><trkpt lat="43.52264629541673" lon="11.491576735096501"><ele>294.0</ele><time>2026-04-26T13:19:22.001Z</time></trkpt><trkpt lat="43.5226827012695" lon="11.491654038613417"><ele>294.0</ele><time>2026-04-26T13:19:23.001Z</time></trkpt><trkpt lat="43.52272120447969" lon="11.491731597507474"><ele>294.0</ele><time>2026-04-26T13:19:24.001Z</time></trkpt><trkpt lat="43.522766934739074" lon="11.491822612239869"><ele>294.0</ele><time>2026-04-26T13:19:25.001Z</time></trkpt><trkpt lat="43.522810738473524" lon="11.491922990090382"><ele>294.0</ele><time>2026-04-26T13:19:26.001Z</time></trkpt><trkpt lat="43.5228436442269" lon="11.492016871366896"><ele>294.0</ele><time>2026-04-26T13:19:27.001Z</time></trkpt><trkpt lat="43.52288210007227" lon="11.492124680823768"><ele>294.0</ele><time>2026-04-26T13:19:28.001Z</time></trkpt><trkpt lat="43.52291876770881" lon="11.492238049646067"><ele>294.0</ele><time>2026-04-26T13:19:29.001Z</time></trkpt><trkpt lat="43.5229574508302" lon="11.492360145310634"><ele>294.0</ele><time>2026-04-26T13:19:30.001Z</time></trkpt><trkpt lat="43.522991472475134" lon="11.492471428695602"><ele>294.0</ele><time>2026-04-26T13:19:31.001Z</time></trkpt><trkpt lat="43.52303654340014" lon="11.492601236261073"><ele>294.0</ele><time>2026-04-26T13:19:32.001Z</time></trkpt><trkpt lat="43.52308008684685" lon="11.492727598096774"><ele>294.0</ele><time>2026-04-26T13:19:33.001Z</time></trkpt><trkpt lat="43.523127480835846" lon="11.492858307213211"><ele>294.0</ele><time>2026-04-26T13:19:34.001Z</time></trkpt><trkpt lat="43.52317632847415" lon="11.49299572659846"><ele>294.0</ele><time>2026-04-26T13:19:35.001Z</time></trkpt><trkpt lat="43.52322751489447" lon="11.493123337231465"><ele>294.0</ele><time>2026-04-26T13:19:36.001Z</time></trkpt><trkpt lat="43.5232810479123" lon="11.493229148380763"><ele>294.0</ele><time>2026-04-26T13:19:37.001Z</time></trkpt><trkpt lat="43.52334286463956" lon="11.493332600241034"><ele>294.0</ele><time>2026-04-26T13:19:38.001Z</time></trkpt><trkpt lat="43.52341342607801" lon="11.4934327004337"><ele>294.0</ele><time>2026-04-26T13:19:39.001Z</time></trkpt><trkpt lat="43.52349410561904" lon="11.493521231274471"><ele>294.0</ele><time>2026-04-26T13:19:40.001Z</time></trkpt><trkpt lat="43.52358606124733" lon="11.493597594862749"><ele>294.0</ele><time>2026-04-26T13:19:41.001Z</time></trkpt><trkpt lat="43.5236826744022" lon="11.493665558911214"><ele>294.0</ele><time>2026-04-26T13:19:42.001Z</time></trkpt><trkpt lat="43.52378288661639" lon="11.493728101195178"><ele>293.5</ele><time>2026-04-26T13:19:43.001Z</time></trkpt><trkpt lat="43.523886286233854" lon="11.49378737639087"><ele>293.0</ele><time>2026-04-26T13:19:44.001Z</time></trkpt><trkpt lat="43.52398928019379" lon="11.49384170699558"><ele>292.5</ele><time>2026-04-26T13:19:45.001Z</time></trkpt><trkpt lat="43.52409215697091" lon="11.493891206652478"><ele>292.0</ele><time>2026-04-26T13:19:46.001Z</time></trkpt><trkpt lat="43.5242058907067" lon="11.493938124244234"><ele>292.0</ele><time>2026-04-26T13:19:47.001Z</time></trkpt><trkpt lat="43.52432144382531" lon="11.49397956242925"><ele>292.0</ele><time>2026-04-26T13:19:48.001Z</time></trkpt><trkpt lat="43.5244343540887" lon="11.494031119407119"><ele>292.0</ele><time>2026-04-26T13:19:49.001Z</time></trkpt><trkpt lat="43.52453587664053" lon="11.49408142052604"><ele>292.0</ele><time>2026-04-26T13:19:50.001Z</time></trkpt><trkpt lat="43.52462873889823" lon="11.494124112124867"><ele>292.0</ele><time>2026-04-26T13:19:51.001Z</time></trkpt><trkpt lat="43.52472363261107" lon="11.494167413568944"><ele>291.3333333333333</ele><time>2026-04-26T13:19:52.001Z</time></trkpt><trkpt lat="43.52481586092483" lon="11.494210684736355"><ele>290.66666666666663</ele><time>2026-04-26T13:19:52.999Z</time></trkpt><trkpt lat="43.52490229623615" lon="11.494252552235295"><ele>290.0</ele><time>2026-04-26T13:19:53.999Z</time></trkpt><trkpt lat="43.52497766299449" lon="11.494291672453306"><ele>289.3333333333333</ele><time>2026-04-26T13:19:54.999Z</time></trkpt><trkpt lat="43.5250358110801" lon="11.494335521457318"><ele>288.6666666666667</ele><time>2026-04-26T13:19:55.999Z</time></trkpt><trkpt lat="43.52514136118385" lon="11.49438485779272"><ele>288.0</ele><time>2026-04-26T13:19:57.999Z</time></trkpt><trkpt lat="43.52516908523849" lon="11.494598829654986"><ele>288.0</ele><time>2026-04-26T13:19:58.999Z</time></trkpt><trkpt lat="43.525231613083214" lon="11.49468327014195"><ele>288.0</ele><time>2026-04-26T13:19:59.999Z</time></trkpt><trkpt lat="43.525296640258915" lon="11.494720509604289"><ele>288.0</ele><time>2026-04-26T13:20:00.999Z</time></trkpt><trkpt lat="43.52536006158255" lon="11.494716803930016"><ele>288.0</ele><time>2026-04-26T13:20:01.999Z</time></trkpt><trkpt lat="43.525446209228605" lon="11.494649981870555"><ele>288.0</ele><time>2026-04-26T13:20:03.999Z</time></trkpt><trkpt lat="43.52550396746675" lon="11.494538062240892"><ele>288.0</ele><time>2026-04-26T13:20:05.999Z</time></trkpt><trkpt lat="43.525534788132695" lon="11.494430028351296"><ele>287.2</ele><time>2026-04-26T13:20:07.999Z</time></trkpt><trkpt lat="43.52548737902641" lon="11.494297371351944"><ele>286.4</ele><time>2026-04-26T13:20:09.999Z</time></trkpt><trkpt lat="43.525437950646285" lon="11.494149715666051"><ele>285.59999999999997</ele><time>2026-04-26T13:20:11.999Z</time></trkpt><trkpt lat="43.52537986911495" lon="11.493991975145732"><ele>284.8</ele><time>2026-04-26T13:20:13.999Z</time></trkpt><trkpt lat="43.52535519620166" lon="11.493908755735552"><ele>284.0</ele><time>2026-04-26T13:20:14.999Z</time></trkpt><trkpt lat="43.52532921030744" lon="11.493819585344172"><ele>283.0</ele><time>2026-04-26T13:20:15.999Z</time></trkpt><trkpt lat="43.52529864563254" lon="11.493729788774163"><ele>282.0</ele><time>2026-04-26T13:20:16.999Z</time></trkpt><trkpt lat="43.52526088552167" lon="11.493640311629017"><ele>281.0</ele><time>2026-04-26T13:20:18Z</time></trkpt><trkpt lat="43.525221314863316" lon="11.493560022451605"><ele>280.0</ele><time>2026-04-26T13:20:19Z</time></trkpt><trkpt lat="43.52516981912296" lon="11.493465033031255"><ele>279.0</ele><time>2026-04-26T13:20:20Z</time></trkpt><trkpt lat="43.52510963151999" lon="11.493361364946024"><ele>278.0</ele><time>2026-04-26T13:20:21Z</time></trkpt><trkpt lat="43.525042744773714" lon="11.493255328717177"><ele>278.0</ele><time>2026-04-26T13:20:22Z</time></trkpt><trkpt lat="43.52495464798887" lon="11.493138049383374"><ele>278.0</ele><time>2026-04-26T13:20:23Z</time></trkpt><trkpt lat="43.52486585198321" lon="11.493031763432578"><ele>278.0</ele><time>2026-04-26T13:20:24Z</time></trkpt><trkpt lat="43.52478270194236" lon="11.49292410155746"><ele>278.0</ele><time>2026-04-26T13:20:25Z</time></trkpt><trkpt lat="43.52470444654915" lon="11.492813146698019"><ele>278.2</ele><time>2026-04-26T13:20:26Z</time></trkpt><trkpt lat="43.5246375653266" lon="11.49270318639413"><ele>278.4</ele><time>2026-04-26T13:20:27Z</time></trkpt><trkpt lat="43.52457903898696" lon="11.492591590707928"><ele>278.59999999999997</ele><time>2026-04-26T13:20:28Z</time></trkpt><trkpt lat="43.524533569869625" lon="11.492473107311842"><ele>278.8</ele><time>2026-04-26T13:20:29Z</time></trkpt><trkpt lat="43.52450549995042" lon="11.492342280910133"><ele>279.0</ele><time>2026-04-26T13:20:30Z</time></trkpt><trkpt lat="43.524502776507504" lon="11.49220168733303"><ele>278.59999999999997</ele><time>2026-04-26T13:20:31Z</time></trkpt><trkpt lat="43.52453919835089" lon="11.492066210688016"><ele>278.2</ele><time>2026-04-26T13:20:32Z</time></trkpt><trkpt lat="43.52458650553203" lon="11.491936071322082"><ele>277.79999999999995</ele><time>2026-04-26T13:20:33Z</time></trkpt><trkpt lat="43.52466105021643" lon="11.491834626530531"><ele>277.4</ele><time>2026-04-26T13:20:34Z</time></trkpt><trkpt lat="43.52474996490027" lon="11.491740705788922"><ele>277.0</ele><time>2026-04-26T13:20:35Z</time></trkpt><trkpt lat="43.524849525016094" lon="11.491637572044556"><ele>276.25</ele><time>2026-04-26T13:20:36Z</time></trkpt><trkpt lat="43.524952062627214" lon="11.491534525966424"><ele>275.5</ele><time>2026-04-26T13:20:37Z</time></trkpt><trkpt lat="43.5250597040953" lon="11.49142713954679"><ele>274.75</ele><time>2026-04-26T13:20:38Z</time></trkpt><trkpt lat="43.52516619703273" lon="11.491321784616268"><ele>274.0</ele><time>2026-04-26T13:20:39Z</time></trkpt><trkpt lat="43.52526905443242" lon="11.491220265351952"><ele>274.0</ele><time>2026-04-26T13:20:40Z</time></trkpt><trkpt lat="43.52537798188858" lon="11.4911133022317"><ele>274.0</ele><time>2026-04-26T13:20:41Z</time></trkpt><trkpt lat="43.52548836435355" lon="11.491005586291742"><ele>274.0</ele><time>2026-04-26T13:20:42Z</time></trkpt><trkpt lat="43.52560200025742" lon="11.490894695063055"><ele>274.0</ele><time>2026-04-26T13:20:43Z</time></trkpt><trkpt lat="43.525709932159074" lon="11.490764424892507"><ele>273.75</ele><time>2026-04-26T13:20:44Z</time></trkpt><trkpt lat="43.52582372308157" lon="11.490652820738608"><ele>273.5</ele><time>2026-04-26T13:20:45Z</time></trkpt><trkpt lat="43.525941575426046" lon="11.490539729320068"><ele>273.25</ele><time>2026-04-26T13:20:46Z</time></trkpt><trkpt lat="43.526048397930516" lon="11.490420074571196"><ele>273.0</ele><time>2026-04-26T13:20:47Z</time></trkpt><trkpt lat="43.52613584061954" lon="11.490277217001147"><ele>274.5</ele><time>2026-04-26T13:20:48Z</time></trkpt><trkpt lat="43.52619755921876" lon="11.490110932233959"><ele>276.0</ele><time>2026-04-26T13:20:49Z</time></trkpt><trkpt lat="43.52623175215981" lon="11.489935712282284"><ele>277.5</ele><time>2026-04-26T13:20:50Z</time></trkpt><trkpt lat="43.52625131170003" lon="11.48976678705474"><ele>279.0</ele><time>2026-04-26T13:20:51Z</time></trkpt><trkpt lat="43.526261487703906" lon="11.489622347346566"><ele>279.8333333333333</ele><time>2026-04-26T13:20:52Z</time></trkpt><trkpt lat="43.526284067788524" lon="11.489498046771034"><ele>280.6666666666667</ele><time>2026-04-26T13:20:53Z</time></trkpt><trkpt lat="43.52635641074815" lon="11.489416454015686"><ele>281.5</ele><time>2026-04-26T13:20:54Z</time></trkpt><trkpt lat="43.5263892614727" lon="11.489313927476784"><ele>282.33333333333337</ele><time>2026-04-26T13:20:55Z</time></trkpt><trkpt lat="43.52642830732111" lon="11.48921677692741"><ele>283.1666666666667</ele><time>2026-04-26T13:20:56Z</time></trkpt><trkpt lat="43.5264275688483" lon="11.48910605595547"><ele>284.0</ele><time>2026-04-26T13:20:57Z</time></trkpt><trkpt lat="43.526392999432765" lon="11.489006000391614"><ele>284.0</ele><time>2026-04-26T13:20:58.001Z</time></trkpt><trkpt lat="43.526340393640425" lon="11.48891971102872"><ele>284.0</ele><time>2026-04-26T13:20:59.001Z</time></trkpt><trkpt lat="43.52631217008123" lon="11.48883802535549"><ele>284.0</ele><time>2026-04-26T13:21:00.001Z</time></trkpt><trkpt lat="43.526242240034215" lon="11.488796244350594"><ele>284.0</ele><time>2026-04-26T13:21:01.001Z</time></trkpt><trkpt lat="43.52605570099323" lon="11.489037990024073"><ele>284.0</ele><time>2026-04-26T13:21:03.001Z</time></trkpt><trkpt lat="43.52600103768575" lon="11.489123158164336"><ele>284.0</ele><time>2026-04-26T13:21:04.001Z</time></trkpt><trkpt lat="43.52603517141433" lon="11.489200152652911"><ele>284.0</ele><time>2026-04-26T13:21:07.001Z</time></trkpt><trkpt lat="43.52609405000572" lon="11.489348305677808"><ele>284.0</ele><time>2026-04-26T13:21:14.001Z</time></trkpt><trkpt lat="43.52615014482128" lon="11.489405480771655"><ele>284.0</ele><time>2026-04-26T13:21:15.001Z</time></trkpt><trkpt lat="43.52626083661024" lon="11.489430985919338"><ele>284.0</ele><time>2026-04-26T13:21:17.001Z</time></trkpt><trkpt lat="43.52638194385921" lon="11.489348585929855"><ele>284.0</ele><time>2026-04-26T13:21:19.001Z</time></trkpt><trkpt lat="43.52642494657539" lon="11.489255938850997"><ele>284.0</ele><time>2026-04-26T13:21:20.001Z</time></trkpt><trkpt lat="43.526437878178804" lon="11.48914943549266"><ele>284.0</ele><time>2026-04-26T13:21:21.001Z</time></trkpt><trkpt lat="43.52641284520677" lon="11.48903880319021"><ele>284.0</ele><time>2026-04-26T13:21:22.001Z</time></trkpt><trkpt lat="43.526357593962764" lon="11.488973725093727"><ele>284.0</ele><time>2026-04-26T13:21:23.001Z</time></trkpt><trkpt lat="43.52628051838699" lon="11.488848853091493"><ele>284.0</ele><time>2026-04-26T13:21:25.001Z</time></trkpt><trkpt lat="43.526164662855955" lon="11.488913508731807"><ele>284.0</ele><time>2026-04-26T13:21:26.001Z</time></trkpt><trkpt lat="43.52608417359166" lon="11.488961239604128"><ele>284.0</ele><time>2026-04-26T13:21:27.001Z</time></trkpt><trkpt lat="43.526000456871365" lon="11.489036800727392"><ele>284.0</ele><time>2026-04-26T13:21:28.001Z</time></trkpt><trkpt lat="43.525912704701966" lon="11.489100400204167"><ele>284.25</ele><time>2026-04-26T13:21:29.001Z</time></trkpt><trkpt lat="43.525808737905656" lon="11.48913628785614"><ele>284.5</ele><time>2026-04-26T13:21:30.001Z</time></trkpt><trkpt lat="43.525694588390515" lon="11.489119997657651"><ele>284.75</ele><time>2026-04-26T13:21:31.001Z</time></trkpt><trkpt lat="43.52557791483503" lon="11.489138065789403"><ele>285.0</ele><time>2026-04-26T13:21:32.001Z</time></trkpt><trkpt lat="43.52545743781925" lon="11.489132336628542"><ele>285.8</ele><time>2026-04-26T13:21:33.001Z</time></trkpt><trkpt lat="43.52534053990971" lon="11.489129737496079"><ele>286.6</ele><time>2026-04-26T13:21:34.001Z</time></trkpt><trkpt lat="43.525228893555926" lon="11.4891316754019"><ele>287.4</ele><time>2026-04-26T13:21:35.001Z</time></trkpt><trkpt lat="43.525128404190525" lon="11.489133873749777"><ele>288.2</ele><time>2026-04-26T13:21:36.001Z</time></trkpt><trkpt lat="43.52503884551479" lon="11.489142503611538"><ele>289.0</ele><time>2026-04-26T13:21:37.001Z</time></trkpt><trkpt lat="43.5249534056055" lon="11.489146312496105"><ele>289.0</ele><time>2026-04-26T13:21:38.001Z</time></trkpt><trkpt lat="43.52487320715962" lon="11.489154445912531"><ele>289.0</ele><time>2026-04-26T13:21:39.001Z</time></trkpt><trkpt lat="43.52478883012668" lon="11.489161580834695"><ele>289.0</ele><time>2026-04-26T13:21:40.001Z</time></trkpt><trkpt lat="43.52469895241404" lon="11.489162763717934"><ele>289.0</ele><time>2026-04-26T13:21:41.001Z</time></trkpt><trkpt lat="43.52460348752688" lon="11.489161614994364"><ele>289.0</ele><time>2026-04-26T13:21:42.001Z</time></trkpt><trkpt lat="43.52450421809573" lon="11.489154358679448"><ele>288.8333333333333</ele><time>2026-04-26T13:21:43.001Z</time></trkpt><trkpt lat="43.52441190801306" lon="11.489146928706562"><ele>288.66666666666663</ele><time>2026-04-26T13:21:44.001Z</time></trkpt><trkpt lat="43.52431933123111" lon="11.48913276000471"><ele>288.5</ele><time>2026-04-26T13:21:45.001Z</time></trkpt><trkpt lat="43.52422974258497" lon="11.489120190381366"><ele>288.3333333333333</ele><time>2026-04-26T13:21:46.001Z</time></trkpt><trkpt lat="43.524141960911656" lon="11.489107723679101"><ele>288.1666666666667</ele><time>2026-04-26T13:21:47.001Z</time></trkpt><trkpt lat="43.52405766280168" lon="11.489091109877918"><ele>288.0</ele><time>2026-04-26T13:21:48.001Z</time></trkpt><trkpt lat="43.52397057790451" lon="11.489079361937524"><ele>288.0</ele><time>2026-04-26T13:21:49.001Z</time></trkpt><trkpt lat="43.523894002014785" lon="11.489063491252262"><ele>288.0</ele><time>2026-04-26T13:21:50.001Z</time></trkpt><trkpt lat="43.52381823663676" lon="11.489050059311422"><ele>288.0</ele><time>2026-04-26T13:21:51.001Z</time></trkpt><trkpt lat="43.523733527030444" lon="11.489036113874267"><ele>288.0</ele><time>2026-04-26T13:21:52.001Z</time></trkpt><trkpt lat="43.52365244784837" lon="11.489023798394802"><ele>288.0</ele><time>2026-04-26T13:21:53.001Z</time></trkpt><trkpt lat="43.523573551742444" lon="11.48900959412716"><ele>288.0</ele><time>2026-04-26T13:21:54.001Z</time></trkpt><trkpt lat="43.52349059019614" lon="11.488996504959212"><ele>287.6666666666667</ele><time>2026-04-26T13:21:55.001Z</time></trkpt><trkpt lat="43.52340178105606" lon="11.488980478221157"><ele>287.3333333333333</ele><time>2026-04-26T13:21:56.001Z</time></trkpt><trkpt lat="43.52331419262804" lon="11.488959673659348"><ele>287.0</ele><time>2026-04-26T13:21:57.001Z</time></trkpt><trkpt lat="43.52323262416838" lon="11.488943627673157"><ele>286.66666666666663</ele><time>2026-04-26T13:21:58.001Z</time></trkpt><trkpt lat="43.52315521425094" lon="11.488928667874973"><ele>286.3333333333333</ele><time>2026-04-26T13:21:58.999Z</time></trkpt><trkpt lat="43.52307655828552" lon="11.488917699121723"><ele>286.0</ele><time>2026-04-26T13:21:59.999Z</time></trkpt><trkpt lat="43.522996080346054" lon="11.488906849633057"><ele>286.0</ele><time>2026-04-26T13:22:00.999Z</time></trkpt><trkpt lat="43.52291257167856" lon="11.488890837107792"><ele>286.0</ele><time>2026-04-26T13:22:01.999Z</time></trkpt><trkpt lat="43.522824582694106" lon="11.488875886756276"><ele>286.0</ele><time>2026-04-26T13:22:02.999Z</time></trkpt><trkpt lat="43.52273471311941" lon="11.488860874987218"><ele>286.0</ele><time>2026-04-26T13:22:03.999Z</time></trkpt><trkpt lat="43.522646045084066" lon="11.488845464792373"><ele>286.0</ele><time>2026-04-26T13:22:04.999Z</time></trkpt><trkpt lat="43.522572832231525" lon="11.48883196200959"><ele>286.0</ele><time>2026-04-26T13:22:05.999Z</time></trkpt><trkpt lat="43.522495249342256" lon="11.48881992170217"><ele>285.85714285714283</ele><time>2026-04-26T13:22:06.999Z</time></trkpt><trkpt lat="43.52241740038115" lon="11.48880819578079"><ele>285.7142857142857</ele><time>2026-04-26T13:22:07.999Z</time></trkpt><trkpt lat="43.522353005350986" lon="11.488794760909656"><ele>285.57142857142856</ele><time>2026-04-26T13:22:08.999Z</time></trkpt><trkpt lat="43.52228581494358" lon="11.488781711730567"><ele>285.42857142857144</ele><time>2026-04-26T13:22:09.999Z</time></trkpt><trkpt lat="43.5222145236705" lon="11.48877179959047"><ele>285.2857142857143</ele><time>2026-04-26T13:22:10.999Z</time></trkpt><trkpt lat="43.522150159717185" lon="11.488761459571121"><ele>285.1428571428571</ele><time>2026-04-26T13:22:12Z</time></trkpt><trkpt lat="43.52208565175723" lon="11.488748001491377"><ele>285.0</ele><time>2026-04-26T13:22:13Z</time></trkpt><trkpt lat="43.52196078358707" lon="11.488721875666158"><ele>285.0</ele><time>2026-04-26T13:22:15Z</time></trkpt><trkpt lat="43.52183831018835" lon="11.48868796643599"><ele>285.0</ele><time>2026-04-26T13:22:17Z</time></trkpt><trkpt lat="43.5217287883284" lon="11.488660835300788"><ele>285.0</ele><time>2026-04-26T13:22:19Z</time></trkpt><trkpt lat="43.52163335666023" lon="11.488729233251199"><ele>285.0</ele><time>2026-04-26T13:22:21Z</time></trkpt><trkpt lat="43.521580942973" lon="11.488850421895581"><ele>285.0</ele><time>2026-04-26T13:22:23Z</time></trkpt><trkpt lat="43.52153661051223" lon="11.488976609699469"><ele>284.4</ele><time>2026-04-26T13:22:25Z</time></trkpt><trkpt lat="43.52148197782056" lon="11.489069000581772"><ele>283.8</ele><time>2026-04-26T13:22:27Z</time></trkpt><trkpt lat="43.521409987826495" lon="11.489114876212305"><ele>283.2</ele><time>2026-04-26T13:22:29Z</time></trkpt><trkpt lat="43.521319168324894" lon="11.489164226722966"><ele>282.6</ele><time>2026-04-26T13:22:31Z</time></trkpt><trkpt lat="43.521275190941026" lon="11.489229822331508"><ele>282.0</ele><time>2026-04-26T13:22:33Z</time></trkpt><trkpt lat="43.52130887373257" lon="11.48940855187034"><ele>282.0</ele><time>2026-04-26T13:22:36Z</time></trkpt><trkpt lat="43.52133460712036" lon="11.489581973957215"><ele>282.0</ele><time>2026-04-26T13:22:38Z</time></trkpt><trkpt lat="43.52134167965182" lon="11.48968671131816"><ele>282.0</ele><time>2026-04-26T13:22:39Z</time></trkpt><trkpt lat="43.52134835228219" lon="11.489800192087044"><ele>282.0</ele><time>2026-04-26T13:22:40Z</time></trkpt><trkpt lat="43.521357012754024" lon="11.489914123793339"><ele>282.0</ele><time>2026-04-26T13:22:41Z</time></trkpt><trkpt lat="43.5213663428311" lon="11.490031982748928"><ele>282.1666666666667</ele><time>2026-04-26T13:22:42Z</time></trkpt><trkpt lat="43.52137373752846" lon="11.490142378731615"><ele>282.3333333333333</ele><time>2026-04-26T13:22:43Z</time></trkpt><trkpt lat="43.521381454245585" lon="11.490252140190876"><ele>282.5</ele><time>2026-04-26T13:22:44Z</time></trkpt><trkpt lat="43.52138295576867" lon="11.490365376574779"><ele>282.66666666666663</ele><time>2026-04-26T13:22:45Z</time></trkpt><trkpt lat="43.521405436698736" lon="11.490459393176677"><ele>282.8333333333333</ele><time>2026-04-26T13:22:46Z</time></trkpt><trkpt lat="43.521358221756536" lon="11.490565829827357"><ele>283.0</ele><time>2026-04-26T13:22:47Z</time></trkpt><trkpt lat="43.521339079899" lon="11.490668394034364"><ele>283.8333333333333</ele><time>2026-04-26T13:22:48Z</time></trkpt><trkpt lat="43.52132142299195" lon="11.490772553507163"><ele>284.66666666666663</ele><time>2026-04-26T13:22:49Z</time></trkpt><trkpt lat="43.52129875027719" lon="11.490878894150157"><ele>285.5</ele><time>2026-04-26T13:22:50Z</time></trkpt><trkpt lat="43.5212695498913" lon="11.49098720259729"><ele>286.3333333333333</ele><time>2026-04-26T13:22:51Z</time></trkpt><trkpt lat="43.52123048012682" lon="11.491092413518277"><ele>287.1666666666667</ele><time>2026-04-26T13:22:52Z</time></trkpt><trkpt lat="43.521177358811194" lon="11.491192099374006"><ele>288.0</ele><time>2026-04-26T13:22:53.001Z</time></trkpt><trkpt lat="43.52110912116578" lon="11.49127545320233"><ele>289.8</ele><time>2026-04-26T13:22:54.001Z</time></trkpt><trkpt lat="43.52102701093017" lon="11.491346607488456"><ele>291.6</ele><time>2026-04-26T13:22:55.001Z</time></trkpt><trkpt lat="43.52093727503758" lon="11.491397089197298"><ele>293.4</ele><time>2026-04-26T13:22:56.001Z</time></trkpt><trkpt lat="43.52084344110194" lon="11.491436710148529"><ele>295.2</ele><time>2026-04-26T13:22:57.001Z</time></trkpt><trkpt lat="43.52074755759662" lon="11.49145417583618"><ele>297.0</ele><time>2026-04-26T13:22:58.001Z</time></trkpt><trkpt lat="43.52064701214199" lon="11.491471252013097"><ele>297.0</ele><time>2026-04-26T13:22:59.001Z</time></trkpt><trkpt lat="43.52054608458414" lon="11.491493358692393"><ele>297.0</ele><time>2026-04-26T13:23:00.001Z</time></trkpt><trkpt lat="43.52044039321446" lon="11.49151817423114"><ele>297.0</ele><time>2026-04-26T13:23:01.001Z</time></trkpt><trkpt lat="43.5203331325386" lon="11.491542868059085"><ele>297.0</ele><time>2026-04-26T13:23:02.001Z</time></trkpt><trkpt lat="43.52022835920856" lon="11.491589122311764"><ele>297.0</ele><time>2026-04-26T13:23:03.001Z</time></trkpt><trkpt lat="43.52013066556207" lon="11.491674846662049"><ele>298.5</ele><time>2026-04-26T13:23:04.001Z</time></trkpt><trkpt lat="43.52004598772323" lon="11.491786386280989"><ele>300.0</ele><time>2026-04-26T13:23:05.001Z</time></trkpt><trkpt lat="43.519949638462535" lon="11.491923894876903"><ele>301.5</ele><time>2026-04-26T13:23:06.001Z</time></trkpt><trkpt lat="43.51984739449928" lon="11.492058013212786"><ele>303.0</ele><time>2026-04-26T13:23:07.001Z</time></trkpt><trkpt lat="43.51974931203203" lon="11.492185670024586"><ele>303.5</ele><time>2026-04-26T13:23:08.001Z</time></trkpt><trkpt lat="43.51964279709076" lon="11.49230808885764"><ele>304.0</ele><time>2026-04-26T13:23:09.001Z</time></trkpt><trkpt lat="43.519538263947915" lon="11.492434865900455"><ele>304.5</ele><time>2026-04-26T13:23:10.001Z</time></trkpt><trkpt lat="43.51943624403254" lon="11.49256307863173"><ele>305.0</ele><time>2026-04-26T13:23:11.001Z</time></trkpt><trkpt lat="43.519330764647606" lon="11.492698331796547"><ele>307.33333333333337</ele><time>2026-04-26T13:23:12.001Z</time></trkpt><trkpt lat="43.51921657094564" lon="11.492834474978121"><ele>309.6666666666667</ele><time>2026-04-26T13:23:13.001Z</time></trkpt><trkpt lat="43.51909083586306" lon="11.49296763292039"><ele>312.0</ele><time>2026-04-26T13:23:14.001Z</time></trkpt><trkpt lat="43.518956663770005" lon="11.493089910854366"><ele>313.0</ele><time>2026-04-26T13:23:15.001Z</time></trkpt><trkpt lat="43.51881578977165" lon="11.49319241983501"><ele>314.0</ele><time>2026-04-26T13:23:16.001Z</time></trkpt><trkpt lat="43.518664938960974" lon="11.493291053175113"><ele>315.0</ele><time>2026-04-26T13:23:17.001Z</time></trkpt><trkpt lat="43.518517974802755" lon="11.493381559083218"><ele>318.0</ele><time>2026-04-26T13:23:18.001Z</time></trkpt><trkpt lat="43.5183699172461" lon="11.493453484346185"><ele>321.0</ele><time>2026-04-26T13:23:19.001Z</time></trkpt><trkpt lat="43.5182190390788" lon="11.493506788432478"><ele>324.0</ele><time>2026-04-26T13:23:20.001Z</time></trkpt><trkpt lat="43.51806931257218" lon="11.493547863967688"><ele>324.0</ele><time>2026-04-26T13:23:21.001Z</time></trkpt><trkpt lat="43.51792429612183" lon="11.4935846888909"><ele>324.0</ele><time>2026-04-26T13:23:22.001Z</time></trkpt><trkpt lat="43.517784624177196" lon="11.493626097404722"><ele>324.0</ele><time>2026-04-26T13:23:23.001Z</time></trkpt><trkpt lat="43.517641379016446" lon="11.493666661352908"><ele>324.0</ele><time>2026-04-26T13:23:24.001Z</time></trkpt><trkpt lat="43.51749577332711" lon="11.493710062737122"><ele>324.75</ele><time>2026-04-26T13:23:25.001Z</time></trkpt><trkpt lat="43.51735101843126" lon="11.493744567162224"><ele>325.5</ele><time>2026-04-26T13:23:26.001Z</time></trkpt><trkpt lat="43.51720055570532" lon="11.493775822629996"><ele>326.25</ele><time>2026-04-26T13:23:27.001Z</time></trkpt><trkpt lat="43.51706916037382" lon="11.493796398236976"><ele>327.0</ele><time>2026-04-26T13:23:28.001Z</time></trkpt><trkpt lat="43.51694393325227" lon="11.493810935717772"><ele>327.0</ele><time>2026-04-26T13:23:29.001Z</time></trkpt><trkpt lat="43.51681021933453" lon="11.49381840576728"><ele>327.0</ele><time>2026-04-26T13:23:30.001Z</time></trkpt><trkpt lat="43.51667244629375" lon="11.493823358155797"><ele>327.0</ele><time>2026-04-26T13:23:31.001Z</time></trkpt><trkpt lat="43.516542837136086" lon="11.49383026549506"><ele>327.0</ele><time>2026-04-26T13:23:32.001Z</time></trkpt><trkpt lat="43.516427010387204" lon="11.493840327458647"><ele>327.0</ele><time>2026-04-26T13:23:33.001Z</time></trkpt><trkpt lat="43.5163302645662" lon="11.493859416027552"><ele>327.0</ele><time>2026-04-26T13:23:34.001Z</time></trkpt><trkpt lat="43.51625184221763" lon="11.493885187738364"><ele>327.0</ele><time>2026-04-26T13:23:35.001Z</time></trkpt><trkpt lat="43.51618094616534" lon="11.493918494485895"><ele>327.0</ele><time>2026-04-26T13:23:36.001Z</time></trkpt><trkpt lat="43.51608416452404" lon="11.493982305073013"><ele>327.0</ele><time>2026-04-26T13:23:38.001Z</time></trkpt><trkpt lat="43.51602729546954" lon="11.494024553011064"><ele>327.0</ele><time>2026-04-26T13:23:40.001Z</time></trkpt><trkpt lat="43.51596108765807" lon="11.494072092302142"><ele>327.0</ele><time>2026-04-26T13:23:42.001Z</time></trkpt><trkpt lat="43.51585512897468" lon="11.494116586742196"><ele>327.0</ele><time>2026-04-26T13:23:44.001Z</time></trkpt><trkpt lat="43.51580132067156" lon="11.494203121576732"><ele>327.0</ele><time>2026-04-26T13:23:45.001Z</time></trkpt><trkpt lat="43.51572499081394" lon="11.494238927416445"><ele>327.0</ele><time>2026-04-26T13:23:46.001Z</time></trkpt><trkpt lat="43.51564759542378" lon="11.494269145811673"><ele>327.0</ele><time>2026-04-26T13:23:47.001Z</time></trkpt><trkpt lat="43.51556138873638" lon="11.4942991631436"><ele>327.0</ele><time>2026-04-26T13:23:48.001Z</time></trkpt><trkpt lat="43.51546653565612" lon="11.49432213389548"><ele>325.5</ele><time>2026-04-26T13:23:49.001Z</time></trkpt><trkpt lat="43.515371298678424" lon="11.494333468022926"><ele>324.0</ele><time>2026-04-26T13:23:50.002Z</time></trkpt><trkpt lat="43.51528044887066" lon="11.49431624674978"><ele>322.5</ele><time>2026-04-26T13:23:51.002Z</time></trkpt><trkpt lat="43.515200424470024" lon="11.49427287025337"><ele>321.0</ele><time>2026-04-26T13:23:52.002Z</time></trkpt><trkpt lat="43.51512982768517" lon="11.494208196978773"><ele>319.5</ele><time>2026-04-26T13:23:53.002Z</time></trkpt><trkpt lat="43.5150708499079" lon="11.494117571000334"><ele>318.0</ele><time>2026-04-26T13:23:54.002Z</time></trkpt><trkpt lat="43.51499935267066" lon="11.494045565047793"><ele>318.0</ele><time>2026-04-26T13:23:55.002Z</time></trkpt><trkpt lat="43.51492796262576" lon="11.493977604692446"><ele>318.0</ele><time>2026-04-26T13:23:56.002Z</time></trkpt><trkpt lat="43.51485236652858" lon="11.493917540488942"><ele>318.0</ele><time>2026-04-26T13:23:57.002Z</time></trkpt><trkpt lat="43.51475596239543" lon="11.493897305915654"><ele>318.0</ele><time>2026-04-26T13:23:58.002Z</time></trkpt><trkpt lat="43.51466394464568" lon="11.493865571792199"><ele>318.0</ele><time>2026-04-26T13:23:59.002Z</time></trkpt><trkpt lat="43.51457324636847" lon="11.493841071086031"><ele>316.8</ele><time>2026-04-26T13:24:00.002Z</time></trkpt><trkpt lat="43.51449349416621" lon="11.493774136118097"><ele>315.6</ele><time>2026-04-26T13:24:01.002Z</time></trkpt><trkpt lat="43.51440508957563" lon="11.493757762208066"><ele>314.4</ele><time>2026-04-26T13:24:02.002Z</time></trkpt><trkpt lat="43.514310062266134" lon="11.493741351918416"><ele>313.2</ele><time>2026-04-26T13:24:03.002Z</time></trkpt><trkpt lat="43.51421763225443" lon="11.493767908745424"><ele>312.0</ele><time>2026-04-26T13:24:04.002Z</time></trkpt><trkpt lat="43.514128852514546" lon="11.493796185730714"><ele>311.5</ele><time>2026-04-26T13:24:05Z</time></trkpt><trkpt lat="43.514048486920416" lon="11.493808046522094"><ele>311.0</ele><time>2026-04-26T13:24:06Z</time></trkpt><trkpt lat="43.51396121401259" lon="11.493817878857321"><ele>310.5</ele><time>2026-04-26T13:24:07Z</time></trkpt><trkpt lat="43.513876132883524" lon="11.493821650864295"><ele>310.0</ele><time>2026-04-26T13:24:08Z</time></trkpt><trkpt lat="43.513794327989835" lon="11.493812898066649"><ele>309.5</ele><time>2026-04-26T13:24:09Z</time></trkpt><trkpt lat="43.51371478313095" lon="11.49380415662807"><ele>309.0</ele><time>2026-04-26T13:24:10Z</time></trkpt><trkpt lat="43.51364112476418" lon="11.493804774187032"><ele>307.5</ele><time>2026-04-26T13:24:11Z</time></trkpt><trkpt lat="43.513573941429655" lon="11.493825748086339"><ele>306.0</ele><time>2026-04-26T13:24:12Z</time></trkpt><trkpt lat="43.513518417359755" lon="11.493881999169833"><ele>304.5</ele><time>2026-04-26T13:24:13Z</time></trkpt><trkpt lat="43.51348387908871" lon="11.493969208884126"><ele>303.0</ele><time>2026-04-26T13:24:14Z</time></trkpt><trkpt lat="43.51349802922754" lon="11.494084022899564"><ele>301.5</ele><time>2026-04-26T13:24:15Z</time></trkpt><trkpt lat="43.513536383373754" lon="11.494198987019677"><ele>300.0</ele><time>2026-04-26T13:24:16Z</time></trkpt><trkpt lat="43.51357826009813" lon="11.494322087882802"><ele>300.0</ele><time>2026-04-26T13:24:17Z</time></trkpt><trkpt lat="43.51360816065604" lon="11.494462791902073"><ele>300.0</ele><time>2026-04-26T13:24:18Z</time></trkpt><trkpt lat="43.51362477532734" lon="11.494606227975796"><ele>300.0</ele><time>2026-04-26T13:24:19Z</time></trkpt><trkpt lat="43.51364097833788" lon="11.494745949151902"><ele>300.0</ele><time>2026-04-26T13:24:20Z</time></trkpt><trkpt lat="43.51365584150517" lon="11.494878592978395"><ele>300.0</ele><time>2026-04-26T13:24:21Z</time></trkpt><trkpt lat="43.51366348698087" lon="11.495010091767032"><ele>299.2</ele><time>2026-04-26T13:24:22Z</time></trkpt><trkpt lat="43.51365858861038" lon="11.4951446941952"><ele>298.4</ele><time>2026-04-26T13:24:23Z</time></trkpt><trkpt lat="43.51364103766304" lon="11.495269148186393"><ele>297.6</ele><time>2026-04-26T13:24:24Z</time></trkpt><trkpt lat="43.51361154431926" lon="11.49539451713729"><ele>296.8</ele><time>2026-04-26T13:24:25Z</time></trkpt><trkpt lat="43.51357480175132" lon="11.495514622598687"><ele>296.0</ele><time>2026-04-26T13:24:26Z</time></trkpt><trkpt lat="43.513536015310535" lon="11.495625365602343"><ele>295.40000000000003</ele><time>2026-04-26T13:24:27Z</time></trkpt><trkpt lat="43.51350502178847" lon="11.495739803479557"><ele>294.8</ele><time>2026-04-26T13:24:28Z</time></trkpt><trkpt lat="43.51348847082811" lon="11.495858445339827"><ele>294.20000000000005</ele><time>2026-04-26T13:24:29Z</time></trkpt><trkpt lat="43.51349455668286" lon="11.495981096628183"><ele>293.6</ele><time>2026-04-26T13:24:30Z</time></trkpt><trkpt lat="43.51352176206163" lon="11.496105116617908"><ele>293.0</ele><time>2026-04-26T13:24:31Z</time></trkpt><trkpt lat="43.51355566511776" lon="11.496222423806454"><ele>292.6666666666667</ele><time>2026-04-26T13:24:32Z</time></trkpt><trkpt lat="43.513584802661924" lon="11.496331389038422"><ele>292.33333333333337</ele><time>2026-04-26T13:24:33Z</time></trkpt><trkpt lat="43.51359958847223" lon="11.496427214840777"><ele>292.0</ele><time>2026-04-26T13:24:34Z</time></trkpt><trkpt lat="43.51357029888031" lon="11.496558862413918"><ele>291.6666666666667</ele><time>2026-04-26T13:24:36Z</time></trkpt><trkpt lat="43.51351508998642" lon="11.496602450992171"><ele>291.3333333333333</ele><time>2026-04-26T13:24:37Z</time></trkpt><trkpt lat="43.51344838396465" lon="11.496601588520093"><ele>291.0</ele><time>2026-04-26T13:24:38Z</time></trkpt><trkpt lat="43.51337483929416" lon="11.496538386366236"><ele>291.0</ele><time>2026-04-26T13:24:39Z</time></trkpt><trkpt lat="43.51328782467411" lon="11.496532780791835"><ele>291.0</ele><time>2026-04-26T13:24:40Z</time></trkpt><trkpt lat="43.513200011333424" lon="11.496523945677831"><ele>291.0</ele><time>2026-04-26T13:24:41Z</time></trkpt><trkpt lat="43.513105347064716" lon="11.496535248525412"><ele>291.0</ele><time>2026-04-26T13:24:42Z</time></trkpt><trkpt lat="43.51301536416513" lon="11.496559163096139"><ele>291.0</ele><time>2026-04-26T13:24:43Z</time></trkpt><trkpt lat="43.51292580020493" lon="11.496574965418883"><ele>289.2</ele><time>2026-04-26T13:24:44.001Z</time></trkpt><trkpt lat="43.512828166588406" lon="11.496563748975973"><ele>287.40000000000003</ele><time>2026-04-26T13:24:45.001Z</time></trkpt><trkpt lat="43.512736587459834" lon="11.496490418136826"><ele>285.6</ele><time>2026-04-26T13:24:46.001Z</time></trkpt><trkpt lat="43.512658321316074" lon="11.4963991295147"><ele>283.8</ele><time>2026-04-26T13:24:47.001Z</time></trkpt><trkpt lat="43.51260112171494" lon="11.49628123622284"><ele>282.0</ele><time>2026-04-26T13:24:48.001Z</time></trkpt><trkpt lat="43.51252537216059" lon="11.496178999185858"><ele>282.0</ele><time>2026-04-26T13:24:49.001Z</time></trkpt><trkpt lat="43.51245579677625" lon="11.496074688387303"><ele>282.0</ele><time>2026-04-26T13:24:50.001Z</time></trkpt><trkpt lat="43.51236964193029" lon="11.495992205226568"><ele>282.0</ele><time>2026-04-26T13:24:51.001Z</time></trkpt><trkpt lat="43.51227268025972" lon="11.495931089850519"><ele>282.0</ele><time>2026-04-26T13:24:52.001Z</time></trkpt><trkpt lat="43.51217358868111" lon="11.495889434851199"><ele>282.0</ele><time>2026-04-26T13:24:53.001Z</time></trkpt><trkpt lat="43.512080911464594" lon="11.495851980143213"><ele>282.8333333333333</ele><time>2026-04-26T13:24:54.001Z</time></trkpt><trkpt lat="43.51198228180964" lon="11.49582169268279"><ele>283.6666666666667</ele><time>2026-04-26T13:24:55.001Z</time></trkpt><trkpt lat="43.511893498907696" lon="11.49579942909901"><ele>284.5</ele><time>2026-04-26T13:24:56.001Z</time></trkpt><trkpt lat="43.511808521298406" lon="11.49579600532696"><ele>285.33333333333337</ele><time>2026-04-26T13:24:57.001Z</time></trkpt><trkpt lat="43.51173076800193" lon="11.495832259160084"><ele>286.1666666666667</ele><time>2026-04-26T13:24:58.001Z</time></trkpt><trkpt lat="43.51167814615306" lon="11.49593412190028"><ele>287.0</ele><time>2026-04-26T13:24:59.001Z</time></trkpt><trkpt lat="43.51164237881495" lon="11.496037053684224"><ele>287.0</ele><time>2026-04-26T13:25:00.001Z</time></trkpt><trkpt lat="43.51161673254907" lon="11.496157637866887"><ele>287.0</ele><time>2026-04-26T13:25:01.001Z</time></trkpt><trkpt lat="43.511583654072744" lon="11.496299138138546"><ele>287.0</ele><time>2026-04-26T13:25:02.001Z</time></trkpt><trkpt lat="43.51153914706309" lon="11.496441883788165"><ele>287.0</ele><time>2026-04-26T13:25:03.001Z</time></trkpt><trkpt lat="43.51148376726765" lon="11.496590763097371"><ele>287.0</ele><time>2026-04-26T13:25:04.001Z</time></trkpt><trkpt lat="43.51142601240841" lon="11.496742086305844"><ele>286.75</ele><time>2026-04-26T13:25:05.001Z</time></trkpt><trkpt lat="43.511359648493055" lon="11.496894398234026"><ele>286.5</ele><time>2026-04-26T13:25:06.001Z</time></trkpt><trkpt lat="43.511282108006796" lon="11.49704935651484"><ele>286.25</ele><time>2026-04-26T13:25:07.001Z</time></trkpt><trkpt lat="43.51118504102166" lon="11.497226178004519"><ele>286.0</ele><time>2026-04-26T13:25:08.001Z</time></trkpt><trkpt lat="43.51108915139399" lon="11.497411645506059"><ele>286.0</ele><time>2026-04-26T13:25:09.001Z</time></trkpt><trkpt lat="43.51103086099636" lon="11.497566034435932"><ele>286.0</ele><time>2026-04-26T13:25:12.001Z</time></trkpt><trkpt lat="43.510970883176014" lon="11.497665748652521"><ele>286.0</ele><time>2026-04-26T13:25:14.001Z</time></trkpt><trkpt lat="43.510931708321024" lon="11.497736638630212"><ele>286.0</ele><time>2026-04-26T13:25:27.001Z</time></trkpt><trkpt lat="43.51097155613267" lon="11.497889983882914"><ele>286.0</ele><time>2026-04-26T13:25:29.001Z</time></trkpt><trkpt lat="43.510962301729975" lon="11.498008692851268"><ele>286.0</ele><time>2026-04-26T13:25:31.001Z</time></trkpt><trkpt lat="43.51092970964263" lon="11.498095260568238"><ele>286.0</ele><time>2026-04-26T13:25:33.001Z</time></trkpt><trkpt lat="43.51086683911911" lon="11.498159940992755"><ele>286.0</ele><time>2026-04-26T13:25:35.001Z</time></trkpt><trkpt lat="43.510782134336814" lon="11.498215923332431"><ele>286.0</ele><time>2026-04-26T13:25:37.002Z</time></trkpt><trkpt lat="43.51071052478387" lon="11.498239554852143"><ele>286.0</ele><time>2026-04-26T13:25:39.002Z</time></trkpt><trkpt lat="43.51062731507721" lon="11.498304140470566"><ele>286.0</ele><time>2026-04-26T13:25:42.002Z</time></trkpt><trkpt lat="43.51056372162743" lon="11.498294400427449"><ele>286.0</ele><time>2026-04-26T13:25:44.002Z</time></trkpt><trkpt lat="43.51047474730622" lon="11.498278922397478"><ele>286.0</ele><time>2026-04-26T13:25:46.002Z</time></trkpt><trkpt lat="43.51037286541049" lon="11.498257028178616"><ele>286.0</ele><time>2026-04-26T13:25:48.002Z</time></trkpt><trkpt lat="43.51027664987354" lon="11.498290172283252"><ele>286.0</ele><time>2026-04-26T13:25:50.002Z</time></trkpt><trkpt lat="43.51018411289302" lon="11.498313355012474"><ele>286.0</ele><time>2026-04-26T13:25:52.002Z</time></trkpt><trkpt lat="43.5100934845334" lon="11.498335483884288"><ele>286.3333333333333</ele><time>2026-04-26T13:25:54.002Z</time></trkpt><trkpt lat="43.51000201360973" lon="11.498348850766556"><ele>286.66666666666663</ele><time>2026-04-26T13:25:56.002Z</time></trkpt><trkpt lat="43.509922333377624" lon="11.498379388694007"><ele>287.0</ele><time>2026-04-26T13:25:58.002Z</time></trkpt><trkpt lat="43.50984314878075" lon="11.498438327693933"><ele>287.3333333333333</ele><time>2026-04-26T13:26:00.002Z</time></trkpt><trkpt lat="43.509796513024476" lon="11.498520982162894"><ele>287.6666666666667</ele><time>2026-04-26T13:26:02.002Z</time></trkpt><trkpt lat="43.50982582701882" lon="11.498659083271495"><ele>288.0</ele><time>2026-04-26T13:26:04.002Z</time></trkpt><trkpt lat="43.50987128616336" lon="11.498803722373472"><ele>289.0</ele><time>2026-04-26T13:26:06.002Z</time></trkpt><trkpt lat="43.50991896805124" lon="11.498932564169573"><ele>290.0</ele><time>2026-04-26T13:26:08.002Z</time></trkpt><trkpt lat="43.50995435637523" lon="11.499028123845129"><ele>291.0</ele><time>2026-04-26T13:26:10.002Z</time></trkpt><trkpt lat="43.50997901421587" lon="11.499115439926324"><ele>292.0</ele><time>2026-04-26T13:26:13.001Z</time></trkpt><trkpt lat="43.50999140141433" lon="11.499200826955965"><ele>293.0</ele><time>2026-04-26T13:26:18.001Z</time></trkpt><trkpt lat="43.509775077351556" lon="11.499115616654832"><ele>293.0</ele><time>2026-04-26T13:26:19.001Z</time></trkpt><trkpt lat="43.50966659780816" lon="11.49915432557566"><ele>293.0</ele><time>2026-04-26T13:26:21.001Z</time></trkpt><trkpt lat="43.50954894087234" lon="11.49923972593517"><ele>293.0</ele><time>2026-04-26T13:26:23.001Z</time></trkpt><trkpt lat="43.50947329986557" lon="11.499280763639982"><ele>293.0</ele><time>2026-04-26T13:26:24.001Z</time></trkpt><trkpt lat="43.50935480222753" lon="11.499320794927643"><ele>293.0</ele><time>2026-04-26T13:26:26.001Z</time></trkpt><trkpt lat="43.50925969578262" lon="11.499362991351513"><ele>295.6666666666667</ele><time>2026-04-26T13:26:28.001Z</time></trkpt><trkpt lat="43.50918793265295" lon="11.499407964816413"><ele>298.33333333333337</ele><time>2026-04-26T13:26:31.001Z</time></trkpt><trkpt lat="43.50917755374999" lon="11.499507129888244"><ele>301.0</ele><time>2026-04-26T13:26:33.001Z</time></trkpt><trkpt lat="43.50921834329697" lon="11.499648643521384"><ele>303.6666666666667</ele><time>2026-04-26T13:26:35.001Z</time></trkpt><trkpt lat="43.509240711034046" lon="11.499793000676894"><ele>306.3333333333333</ele><time>2026-04-26T13:26:37.001Z</time></trkpt><trkpt lat="43.50923030766551" lon="11.499897502722733"><ele>309.0</ele><time>2026-04-26T13:26:39.001Z</time></trkpt><trkpt lat="43.50918762176644" lon="11.500009888562653"><ele>309.0</ele><time>2026-04-26T13:26:41.001Z</time></trkpt><trkpt lat="43.50914237564427" lon="11.500113655480076"><ele>309.0</ele><time>2026-04-26T13:26:43.001Z</time></trkpt><trkpt lat="43.50909263053399" lon="11.500193514380387"><ele>309.0</ele><time>2026-04-26T13:26:45.001Z</time></trkpt><trkpt lat="43.50904291458724" lon="11.5002751567261"><ele>309.0</ele><time>2026-04-26T13:26:47.001Z</time></trkpt><trkpt lat="43.508992958906695" lon="11.500349879336913"><ele>309.0</ele><time>2026-04-26T13:26:50.001Z</time></trkpt><trkpt lat="43.508941667473636" lon="11.500415138914974"><ele>309.0</ele><time>2026-04-26T13:41:05Z</time></trkpt><trkpt lat="43.50889758974214" lon="11.500518851772565"><ele>308.3333333333333</ele><time>2026-04-26T13:41:07Z</time></trkpt><trkpt lat="43.50884107220239" lon="11.500618342806508"><ele>307.6666666666667</ele><time>2026-04-26T13:41:09Z</time></trkpt><trkpt lat="43.508778856082714" lon="11.500682249075988"><ele>307.0</ele><time>2026-04-26T13:41:10Z</time></trkpt><trkpt lat="43.508729384836165" lon="11.500750737689799"><ele>306.33333333333337</ele><time>2026-04-26T13:41:11Z</time></trkpt><trkpt lat="43.50871004981414" lon="11.50087153552676"><ele>305.6666666666667</ele><time>2026-04-26T13:41:13Z</time></trkpt><trkpt lat="43.50872900281674" lon="11.50101403388936"><ele>305.0</ele><time>2026-04-26T13:41:15Z</time></trkpt><trkpt lat="43.50871067771619" lon="11.501106620159298"><ele>307.33333333333337</ele><time>2026-04-26T13:41:17Z</time></trkpt><trkpt lat="43.50864260622319" lon="11.501210608130881"><ele>309.6666666666667</ele><time>2026-04-26T13:41:20Z</time></trkpt><trkpt lat="43.508586807385115" lon="11.501302526541448"><ele>312.0</ele><time>2026-04-26T13:41:22Z</time></trkpt><trkpt lat="43.5085496102004" lon="11.501392533003472"><ele>314.3333333333333</ele><time>2026-04-26T13:41:24Z</time></trkpt><trkpt lat="43.508499342710024" lon="11.501482517016992"><ele>316.66666666666663</ele><time>2026-04-26T13:41:27Z</time></trkpt><trkpt lat="43.508449268475594" lon="11.501559157807812"><ele>319.0</ele><time>2026-04-26T13:41:30Z</time></trkpt><trkpt lat="43.50836977543663" lon="11.501629763236744"><ele>319.0</ele><time>2026-04-26T13:42:22Z</time></trkpt><trkpt lat="43.508299633256094" lon="11.501686329727761"><ele>319.0</ele><time>2026-04-26T13:42:24Z</time></trkpt><trkpt lat="43.50820294072408" lon="11.501749875173056"><ele>319.0</ele><time>2026-04-26T13:42:26Z</time></trkpt><trkpt lat="43.50814228976815" lon="11.501851873472926"><ele>319.0</ele><time>2026-04-26T13:42:28Z</time></trkpt><trkpt lat="43.50809359562709" lon="11.50199623165769"><ele>319.0</ele><time>2026-04-26T13:42:30Z</time></trkpt><trkpt lat="43.5080692164203" lon="11.502081280756562"><ele>318.2</ele><time>2026-04-26T13:42:31Z</time></trkpt><trkpt lat="43.5080505292005" lon="11.50223055405999"><ele>317.4</ele><time>2026-04-26T13:42:33.001Z</time></trkpt><trkpt lat="43.50804115713329" lon="11.502376567527573"><ele>316.6</ele><time>2026-04-26T13:42:35.001Z</time></trkpt><trkpt lat="43.50803797555286" lon="11.502467065579536"><ele>315.8</ele><time>2026-04-26T13:42:36.001Z</time></trkpt><trkpt lat="43.5080317564474" lon="11.502613629872055"><ele>315.0</ele><time>2026-04-26T13:42:38.001Z</time></trkpt><trkpt lat="43.50802731439976" lon="11.502765741875626"><ele>315.0</ele><time>2026-04-26T13:42:40.001Z</time></trkpt><trkpt lat="43.508021529268305" lon="11.50290067029141"><ele>315.0</ele><time>2026-04-26T13:42:42.001Z</time></trkpt><trkpt lat="43.50800499779419" lon="11.502993167501065"><ele>315.0</ele><time>2026-04-26T13:42:43.001Z</time></trkpt><trkpt lat="43.50797951764792" lon="11.503098909857217"><ele>315.0</ele><time>2026-04-26T13:42:44.001Z</time></trkpt><trkpt lat="43.507955542638804" lon="11.503189867488212"><ele>315.0</ele><time>2026-04-26T13:42:45.001Z</time></trkpt><trkpt lat="43.50789953599523" lon="11.503280440396587"><ele>315.0</ele><time>2026-04-26T13:43:23.999Z</time></trkpt><trkpt lat="43.50784319288272" lon="11.503355274115968"><ele>315.1666666666667</ele><time>2026-04-26T13:43:25.999Z</time></trkpt><trkpt lat="43.507791033305864" lon="11.503446300919066"><ele>315.3333333333333</ele><time>2026-04-26T13:43:28.999Z</time></trkpt><trkpt lat="43.507752886946236" lon="11.503532203516592"><ele>315.5</ele><time>2026-04-26T13:43:30.999Z</time></trkpt><trkpt lat="43.50770550345352" lon="11.50362794302663"><ele>315.66666666666663</ele><time>2026-04-26T13:43:33.999Z</time></trkpt><trkpt lat="43.50764279940926" lon="11.503733781111071"><ele>315.8333333333333</ele><time>2026-04-26T13:43:36.999Z</time></trkpt><trkpt lat="43.50759892092386" lon="11.503814891606282"><ele>316.0</ele><time>2026-04-26T13:43:38.999Z</time></trkpt><trkpt lat="43.50755013606735" lon="11.50389698818275"><ele>316.0</ele><time>2026-04-26T13:43:40.999Z</time></trkpt><trkpt lat="43.50750662224572" lon="11.503978907633373"><ele>316.0</ele><time>2026-04-26T13:43:43Z</time></trkpt><trkpt lat="43.507451641356965" lon="11.504063083134326"><ele>316.0</ele><time>2026-04-26T13:43:45Z</time></trkpt><trkpt lat="43.50739733489732" lon="11.504152413852497"><ele>316.0</ele><time>2026-04-26T13:43:47Z</time></trkpt><trkpt lat="43.507348288063724" lon="11.50423598794523"><ele>316.0</ele><time>2026-04-26T13:43:49Z</time></trkpt><trkpt lat="43.50729250132973" lon="11.50433342731277"><ele>316.0</ele><time>2026-04-26T13:43:51Z</time></trkpt><trkpt lat="43.50724129465711" lon="11.504421901519978"><ele>316.0</ele><time>2026-04-26T13:43:53Z</time></trkpt><trkpt lat="43.50718755553041" lon="11.504507028536455"><ele>316.0</ele><time>2026-04-26T13:43:55Z</time></trkpt><trkpt lat="43.50711526823596" lon="11.504588239219382"><ele>316.0</ele><time>2026-04-26T13:43:57Z</time></trkpt><trkpt lat="43.50704759698584" lon="11.504676112086528"><ele>316.0</ele><time>2026-04-26T13:43:59Z</time></trkpt><trkpt lat="43.50700174404168" lon="11.504767111168334"><ele>316.0</ele><time>2026-04-26T13:44:01Z</time></trkpt><trkpt lat="43.50698437052313" lon="11.504862108446611"><ele>316.0</ele><time>2026-04-26T13:44:03Z</time></trkpt><trkpt lat="43.50698775584112" lon="11.504983400426617"><ele>313.16666666666663</ele><time>2026-04-26T13:44:05Z</time></trkpt><trkpt lat="43.506992041129536" lon="11.50508542777652"><ele>310.3333333333333</ele><time>2026-04-26T13:44:07Z</time></trkpt><trkpt lat="43.50700082859147" lon="11.505208211763241"><ele>307.5</ele><time>2026-04-26T13:44:09Z</time></trkpt><trkpt lat="43.507003783371914" lon="11.505302066080201"><ele>304.6666666666667</ele><time>2026-04-26T13:44:11Z</time></trkpt><trkpt lat="43.50700439423509" lon="11.505396484096972"><ele>301.83333333333337</ele><time>2026-04-26T13:44:13Z</time></trkpt><trkpt lat="43.506973904850746" lon="11.505485360938469"><ele>299.0</ele><time>2026-04-26T13:44:15Z</time></trkpt><trkpt lat="43.506897402810836" lon="11.50554420234291"><ele>297.0</ele><time>2026-04-26T13:44:17Z</time></trkpt><trkpt lat="43.506776529978914" lon="11.505580255247857"><ele>295.0</ele><time>2026-04-26T13:44:19Z</time></trkpt><trkpt lat="43.506669740639545" lon="11.505616658919177"><ele>293.0</ele><time>2026-04-26T13:44:21Z</time></trkpt><trkpt lat="43.50657182711748" lon="11.505675759321598"><ele>291.0</ele><time>2026-04-26T13:44:23Z</time></trkpt><trkpt lat="43.50646955741027" lon="11.505738306839897"><ele>291.0</ele><time>2026-04-26T13:44:25Z</time></trkpt><trkpt lat="43.506367406056135" lon="11.505804020832974"><ele>291.0</ele><time>2026-04-26T13:44:27Z</time></trkpt><trkpt lat="43.50628301555854" lon="11.505858252122724"><ele>291.0</ele><time>2026-04-26T13:44:29Z</time></trkpt><trkpt lat="43.50623487538318" lon="11.505947684702377"><ele>291.0</ele><time>2026-04-26T13:44:31Z</time></trkpt><trkpt lat="43.506233078165614" lon="11.506144827920394"><ele>291.0</ele><time>2026-04-26T13:44:33Z</time></trkpt><trkpt lat="43.506234582639266" lon="11.506267081673323"><ele>291.6</ele><time>2026-04-26T13:44:34Z</time></trkpt><trkpt lat="43.50623364748335" lon="11.506384659297378"><ele>292.20000000000005</ele><time>2026-04-26T13:44:36Z</time></trkpt><trkpt lat="43.5062266436044" lon="11.506530025806596"><ele>292.79999999999995</ele><time>2026-04-26T13:44:38Z</time></trkpt><trkpt lat="43.50619801767111" lon="11.5066575108397"><ele>293.4</ele><time>2026-04-26T13:44:40Z</time></trkpt><trkpt lat="43.506165665278495" lon="11.506787048016731"><ele>294.0</ele><time>2026-04-26T13:44:42Z</time></trkpt><trkpt lat="43.50616167180171" lon="11.50694359910571"><ele>294.0</ele><time>2026-04-26T13:44:44Z</time></trkpt><trkpt lat="43.50614883922108" lon="11.507036378703488"><ele>294.0</ele><time>2026-04-26T13:44:46Z</time></trkpt><trkpt lat="43.50611230430676" lon="11.507182135235627"><ele>294.0</ele><time>2026-04-26T13:44:48Z</time></trkpt><trkpt lat="43.506123715438534" lon="11.50730593431255"><ele>294.0</ele><time>2026-04-26T13:44:50Z</time></trkpt><trkpt lat="43.506150246821946" lon="11.507391995299145"><ele>294.0</ele><time>2026-04-26T13:44:53Z</time></trkpt><trkpt lat="43.50621700829319" lon="11.50752178342948"><ele>292.57142857142856</ele><time>2026-04-26T13:45:22.999Z</time></trkpt><trkpt lat="43.50626498133212" lon="11.507594044180907"><ele>291.1428571428571</ele><time>2026-04-26T13:45:23.999Z</time></trkpt><trkpt lat="43.506309838250246" lon="11.50766637245607"><ele>289.7142857142857</ele><time>2026-04-26T13:45:24.999Z</time></trkpt><trkpt lat="43.506349218847475" lon="11.507750003258444"><ele>288.2857142857143</ele><time>2026-04-26T13:45:25.999Z</time></trkpt><trkpt lat="43.50638166682228" lon="11.507842069837887"><ele>286.85714285714283</ele><time>2026-04-26T13:45:26.999Z</time></trkpt><trkpt lat="43.506408845320784" lon="11.507933748437452"><ele>285.42857142857144</ele><time>2026-04-26T13:45:27.999Z</time></trkpt><trkpt lat="43.50643350134318" lon="11.508030606528944"><ele>284.0</ele><time>2026-04-26T13:45:28.999Z</time></trkpt><trkpt lat="43.50645920911094" lon="11.508132846189815"><ele>283.5</ele><time>2026-04-26T13:45:29.999Z</time></trkpt><trkpt lat="43.50649113265039" lon="11.508260363816683"><ele>283.0</ele><time>2026-04-26T13:45:30.999Z</time></trkpt><trkpt lat="43.506525411726194" lon="11.508388147177705"><ele>282.5</ele><time>2026-04-26T13:45:31.999Z</time></trkpt><trkpt lat="43.50655474214226" lon="11.508542120315031"><ele>282.0</ele><time>2026-04-26T13:45:32.999Z</time></trkpt><trkpt lat="43.50659567548114" lon="11.508738275741749"><ele>281.0</ele><time>2026-04-26T13:45:33.999Z</time></trkpt><trkpt lat="43.50663074099972" lon="11.508976587762195"><ele>280.0</ele><time>2026-04-26T13:45:34.999Z</time></trkpt><trkpt lat="43.506663449278776" lon="11.509222845974582"><ele>279.0</ele><time>2026-04-26T13:45:35.999Z</time></trkpt><trkpt lat="43.50668046001171" lon="11.509437224478683"><ele>278.5</ele><time>2026-04-26T13:45:36.999Z</time></trkpt><trkpt lat="43.50670144365815" lon="11.50961302954047"><ele>278.0</ele><time>2026-04-26T13:45:37.999Z</time></trkpt><trkpt lat="43.506716931997275" lon="11.50976721205237"><ele>277.5</ele><time>2026-04-26T13:45:38.999Z</time></trkpt><trkpt lat="43.50672519756213" lon="11.509936040876719"><ele>277.0</ele><time>2026-04-26T13:45:39.999Z</time></trkpt><trkpt lat="43.50672351649417" lon="11.51010127007286"><ele>277.0</ele><time>2026-04-26T13:45:40.999Z</time></trkpt><trkpt lat="43.506718008896236" lon="11.510260753772105"><ele>277.0</ele><time>2026-04-26T13:45:41.999Z</time></trkpt><trkpt lat="43.5067152461997" lon="11.510420592503102"><ele>277.0</ele><time>2026-04-26T13:45:42.999Z</time></trkpt><trkpt lat="43.50671792821233" lon="11.51057611445837"><ele>277.0</ele><time>2026-04-26T13:45:43.999Z</time></trkpt><trkpt lat="43.50672233453919" lon="11.510731258617126"><ele>276.2</ele><time>2026-04-26T13:45:44.999Z</time></trkpt><trkpt lat="43.506724055759314" lon="11.510888181876249"><ele>275.4</ele><time>2026-04-26T13:45:45.999Z</time></trkpt><trkpt lat="43.506730877595544" lon="11.511045187588085"><ele>274.6</ele><time>2026-04-26T13:45:46.999Z</time></trkpt><trkpt lat="43.50674130291162" lon="11.511197709988162"><ele>273.8</ele><time>2026-04-26T13:45:47.999Z</time></trkpt><trkpt lat="43.506754538167264" lon="11.511342330793951"><ele>273.0</ele><time>2026-04-26T13:45:48.999Z</time></trkpt><trkpt lat="43.50676459744058" lon="11.511487239556363"><ele>272.2</ele><time>2026-04-26T13:45:49.999Z</time></trkpt><trkpt lat="43.506775471122324" lon="11.511616862666344"><ele>271.4</ele><time>2026-04-26T13:45:50.999Z</time></trkpt><trkpt lat="43.50678790800029" lon="11.51174483911729"><ele>270.59999999999997</ele><time>2026-04-26T13:45:51.999Z</time></trkpt><trkpt lat="43.50682511850369" lon="11.511868073699802"><ele>269.8</ele><time>2026-04-26T13:45:52.999Z</time></trkpt><trkpt lat="43.506873342705354" lon="11.511977730628558"><ele>269.0</ele><time>2026-04-26T13:45:53.999Z</time></trkpt><trkpt lat="43.50692732949485" lon="11.512081853038715"><ele>268.33333333333337</ele><time>2026-04-26T13:45:54.999Z</time></trkpt><trkpt lat="43.50699111123125" lon="11.512171076710882"><ele>267.6666666666667</ele><time>2026-04-26T13:45:55.999Z</time></trkpt><trkpt lat="43.50706320765839" lon="11.512239432260014"><ele>267.0</ele><time>2026-04-26T13:45:56.999Z</time></trkpt><trkpt lat="43.50714405817468" lon="11.512283637104476"><ele>266.3333333333333</ele><time>2026-04-26T13:45:57.999Z</time></trkpt><trkpt lat="43.507206878915945" lon="11.512342825361467"><ele>265.66666666666663</ele><time>2026-04-26T13:45:59Z</time></trkpt><trkpt lat="43.507265661065745" lon="11.512383934228414"><ele>265.0</ele><time>2026-04-26T13:46:00Z</time></trkpt><trkpt lat="43.50731206068046" lon="11.512489017075064"><ele>264.8</ele><time>2026-04-26T13:46:01Z</time></trkpt><trkpt lat="43.507344196799785" lon="11.51260644367039"><ele>264.6</ele><time>2026-04-26T13:46:02Z</time></trkpt><trkpt lat="43.507370453412946" lon="11.512718873661356"><ele>264.4</ele><time>2026-04-26T13:46:03Z</time></trkpt><trkpt lat="43.50739137268806" lon="11.512809671988526"><ele>264.2</ele><time>2026-04-26T13:46:04Z</time></trkpt><trkpt lat="43.50744887853269" lon="11.512943418675693"><ele>264.0</ele><time>2026-04-26T13:46:06Z</time></trkpt><trkpt lat="43.507487032161194" lon="11.513070550041277"><ele>264.0</ele><time>2026-04-26T13:46:08Z</time></trkpt><trkpt lat="43.50749783936344" lon="11.513157505303045"><ele>264.0</ele><time>2026-04-26T13:46:09Z</time></trkpt><trkpt lat="43.50752163724868" lon="11.513241933612775"><ele>264.0</ele><time>2026-04-26T13:46:10Z</time></trkpt><trkpt lat="43.507549605789805" lon="11.513319866770502"><ele>264.0</ele><time>2026-04-26T13:46:11Z</time></trkpt><trkpt lat="43.50758536477169" lon="11.513398078725443"><ele>264.0</ele><time>2026-04-26T13:46:12Z</time></trkpt><trkpt lat="43.50762693001647" lon="11.513475837279277"><ele>264.0</ele><time>2026-04-26T13:46:13Z</time></trkpt><trkpt lat="43.50767972892924" lon="11.513565735861055"><ele>264.0</ele><time>2026-04-26T13:46:14Z</time></trkpt><trkpt lat="43.507740202891284" lon="11.513654093323218"><ele>264.0</ele><time>2026-04-26T13:46:15Z</time></trkpt><trkpt lat="43.507814373667294" lon="11.513734979369993"><ele>264.0</ele><time>2026-04-26T13:46:16Z</time></trkpt><trkpt lat="43.507892140146176" lon="11.513810016980747"><ele>264.0</ele><time>2026-04-26T13:46:17Z</time></trkpt><trkpt lat="43.50797522928272" lon="11.513888203649758"><ele>264.0</ele><time>2026-04-26T13:46:18Z</time></trkpt><trkpt lat="43.50804979794824" lon="11.513972580444433"><ele>264.0</ele><time>2026-04-26T13:46:19Z</time></trkpt><trkpt lat="43.50811867938658" lon="11.51405873929904"><ele>263.1666666666667</ele><time>2026-04-26T13:46:20Z</time></trkpt><trkpt lat="43.50817945730554" lon="11.514131588688457"><ele>262.3333333333333</ele><time>2026-04-26T13:46:21Z</time></trkpt><trkpt lat="43.50824293163465" lon="11.514197083505136"><ele>261.5</ele><time>2026-04-26T13:46:22Z</time></trkpt><trkpt lat="43.50830719557482" lon="11.514259048231823"><ele>260.66666666666663</ele><time>2026-04-26T13:46:23Z</time></trkpt><trkpt lat="43.50836705933285" lon="11.514329629625164"><ele>259.8333333333333</ele><time>2026-04-26T13:46:24Z</time></trkpt><trkpt lat="43.50842381885059" lon="11.514406510996825"><ele>259.0</ele><time>2026-04-26T13:46:25Z</time></trkpt><trkpt lat="43.508482982616286" lon="11.514488210282327"><ele>259.0</ele><time>2026-04-26T13:46:26Z</time></trkpt><trkpt lat="43.50855566813672" lon="11.514543142602864"><ele>259.0</ele><time>2026-04-26T13:46:27Z</time></trkpt><trkpt lat="43.50863298936334" lon="11.514590788073246"><ele>259.0</ele><time>2026-04-26T13:46:28Z</time></trkpt><trkpt lat="43.5087059942307" lon="11.514636088917605"><ele>259.0</ele><time>2026-04-26T13:46:29Z</time></trkpt><trkpt lat="43.50877773272124" lon="11.514690834401941"><ele>259.0</ele><time>2026-04-26T13:46:30Z</time></trkpt><trkpt lat="43.50883789826023" lon="11.514769083891412"><ele>259.0</ele><time>2026-04-26T13:46:31Z</time></trkpt><trkpt lat="43.50888051843955" lon="11.514863851922984"><ele>260.16666666666663</ele><time>2026-04-26T13:46:32Z</time></trkpt><trkpt lat="43.50891713503634" lon="11.51497217151446"><ele>261.3333333333333</ele><time>2026-04-26T13:46:33Z</time></trkpt><trkpt lat="43.50894265518999" lon="11.51507765887755"><ele>262.5</ele><time>2026-04-26T13:46:34Z</time></trkpt><trkpt lat="43.508964948864296" lon="11.51518653435279"><ele>263.6666666666667</ele><time>2026-04-26T13:46:35Z</time></trkpt><trkpt lat="43.5089845873129" lon="11.515304043031357"><ele>264.83333333333337</ele><time>2026-04-26T13:46:36Z</time></trkpt><trkpt lat="43.50900694277498" lon="11.515424084704565"><ele>266.0</ele><time>2026-04-26T13:46:37Z</time></trkpt><trkpt lat="43.50902923796823" lon="11.515548519346126"><ele>266.83333333333337</ele><time>2026-04-26T13:46:38Z</time></trkpt><trkpt lat="43.50905113709743" lon="11.515670461215269"><ele>267.6666666666667</ele><time>2026-04-26T13:46:39Z</time></trkpt><trkpt lat="43.50906666213973" lon="11.515780963379548"><ele>268.5</ele><time>2026-04-26T13:46:40Z</time></trkpt><trkpt lat="43.50907392049193" lon="11.515901035610602"><ele>269.3333333333333</ele><time>2026-04-26T13:46:41Z</time></trkpt><trkpt lat="43.50906981463107" lon="11.516029693978302"><ele>270.16666666666663</ele><time>2026-04-26T13:46:42Z</time></trkpt><trkpt lat="43.50904755011288" lon="11.516153696460396"><ele>271.0</ele><time>2026-04-26T13:46:43Z</time></trkpt><trkpt lat="43.50902705899275" lon="11.516270302701066"><ele>271.3333333333333</ele><time>2026-04-26T13:46:44Z</time></trkpt><trkpt lat="43.50900615192594" lon="11.516361205998473"><ele>271.66666666666663</ele><time>2026-04-26T13:46:45Z</time></trkpt><trkpt lat="43.50899046716234" lon="11.516457640379478"><ele>272.0</ele><time>2026-04-26T13:46:46Z</time></trkpt><trkpt lat="43.50897391335325" lon="11.516551366775579"><ele>272.3333333333333</ele><time>2026-04-26T13:46:47Z</time></trkpt><trkpt lat="43.50896071762129" lon="11.51663668723004"><ele>272.6666666666667</ele><time>2026-04-26T13:46:48Z</time></trkpt><trkpt lat="43.50895543148416" lon="11.516781670421288"><ele>273.0</ele><time>2026-04-26T13:46:50Z</time></trkpt><trkpt lat="43.50894754492806" lon="11.516888067431488"><ele>273.0</ele><time>2026-04-26T13:46:53Z</time></trkpt><trkpt lat="43.50880580199384" lon="11.51685256301442"><ele>273.0</ele><time>2026-04-26T13:46:57Z</time></trkpt><trkpt lat="43.50873982386321" lon="11.51682681497331"><ele>273.0</ele><time>2026-04-26T13:46:58Z</time></trkpt><trkpt lat="43.508674298765435" lon="11.516833231378317"><ele>273.0</ele><time>2026-04-26T13:46:59Z</time></trkpt><trkpt lat="43.50860290994794" lon="11.516838852363007"><ele>273.0</ele><time>2026-04-26T13:47:00Z</time></trkpt><trkpt lat="43.50853242406537" lon="11.516873418107355"><ele>273.0</ele><time>2026-04-26T13:47:01Z</time></trkpt><trkpt lat="43.50846146036979" lon="11.516937820164888"><ele>273.4</ele><time>2026-04-26T13:47:02Z</time></trkpt><trkpt lat="43.50839523088259" lon="11.517029145282779"><ele>273.8</ele><time>2026-04-26T13:47:03Z</time></trkpt><trkpt lat="43.50832859854899" lon="11.517136580938379"><ele>274.2</ele><time>2026-04-26T13:47:04Z</time></trkpt><trkpt lat="43.50825993712841" lon="11.517254577696011"><ele>274.6</ele><time>2026-04-26T13:47:05Z</time></trkpt><trkpt lat="43.50818168861018" lon="11.517357179403444"><ele>275.0</ele><time>2026-04-26T13:47:06Z</time></trkpt><trkpt lat="43.50810117528323" lon="11.51741806453324"><ele>275.0</ele><time>2026-04-26T13:47:07Z</time></trkpt><trkpt lat="43.50800295107867" lon="11.517439928435971"><ele>275.0</ele><time>2026-04-26T13:47:08Z</time></trkpt><trkpt lat="43.50789499842205" lon="11.517421696139658"><ele>275.0</ele><time>2026-04-26T13:47:09Z</time></trkpt><trkpt lat="43.50777163760489" lon="11.517371921602116"><ele>275.0</ele><time>2026-04-26T13:47:09.998Z</time></trkpt><trkpt lat="43.507620981759985" lon="11.51731085361809"><ele>276.0</ele><time>2026-04-26T13:47:10.998Z</time></trkpt><trkpt lat="43.50747475632728" lon="11.517252332406137"><ele>277.0</ele><time>2026-04-26T13:47:11.998Z</time></trkpt><trkpt lat="43.50730716773982" lon="11.517153912654953"><ele>278.0</ele><time>2026-04-26T13:47:12.998Z</time></trkpt><trkpt lat="43.50715673525423" lon="11.517048532753078"><ele>280.33333333333337</ele><time>2026-04-26T13:47:13.998Z</time></trkpt><trkpt lat="43.506966840268376" lon="11.51693309800829"><ele>282.6666666666667</ele><time>2026-04-26T13:47:14.999Z</time></trkpt><trkpt lat="43.50683444952068" lon="11.516857825953002"><ele>285.0</ele><time>2026-04-26T13:47:15.999Z</time></trkpt><trkpt lat="43.50668832923728" lon="11.516825696270649"><ele>285.0</ele><time>2026-04-26T13:47:16.999Z</time></trkpt><trkpt lat="43.506531331819765" lon="11.516821258503597"><ele>285.0</ele><time>2026-04-26T13:47:17.999Z</time></trkpt><trkpt lat="43.50637516820387" lon="11.51676610386396"><ele>285.0</ele><time>2026-04-26T13:47:18.999Z</time></trkpt><trkpt lat="43.50623720709833" lon="11.516694141734355"><ele>286.75</ele><time>2026-04-26T13:47:19.999Z</time></trkpt><trkpt lat="43.506122338131036" lon="11.51659502332715"><ele>288.5</ele><time>2026-04-26T13:47:20.999Z</time></trkpt><trkpt lat="43.50602593231089" lon="11.516475705616303"><ele>290.25</ele><time>2026-04-26T13:47:21.999Z</time></trkpt><trkpt lat="43.505927063388036" lon="11.516339389333304"><ele>292.0</ele><time>2026-04-26T13:47:22.999Z</time></trkpt><trkpt lat="43.50584732697709" lon="11.516192049428817"><ele>292.3333333333333</ele><time>2026-04-26T13:47:23.999Z</time></trkpt><trkpt lat="43.50577405810611" lon="11.516040427990887"><ele>292.6666666666667</ele><time>2026-04-26T13:47:24.999Z</time></trkpt><trkpt lat="43.5056912141988" lon="11.515858051628095"><ele>293.0</ele><time>2026-04-26T13:47:25.999Z</time></trkpt><trkpt lat="43.505596764985036" lon="11.51566605085245"><ele>293.0</ele><time>2026-04-26T13:47:26.999Z</time></trkpt><trkpt lat="43.505512810930725" lon="11.51550098021605"><ele>293.0</ele><time>2026-04-26T13:47:27.999Z</time></trkpt><trkpt lat="43.5054381324308" lon="11.515356725380123"><ele>293.0</ele><time>2026-04-26T13:47:28.999Z</time></trkpt><trkpt lat="43.50537106934134" lon="11.515227181090419"><ele>293.0</ele><time>2026-04-26T13:47:29.999Z</time></trkpt><trkpt lat="43.50530246319086" lon="11.515140761983073"><ele>293.8</ele><time>2026-04-26T13:47:30.999Z</time></trkpt><trkpt lat="43.50524537898912" lon="11.51504125742112"><ele>294.6</ele><time>2026-04-26T13:47:32.999Z</time></trkpt><trkpt lat="43.50508821298998" lon="11.515115262252616"><ele>295.4</ele><time>2026-04-26T13:47:36.999Z</time></trkpt><trkpt lat="43.5050316590888" lon="11.51519497882079"><ele>296.2</ele><time>2026-04-26T13:47:37.999Z</time></trkpt><trkpt lat="43.50498179182518" lon="11.515276835891836"><ele>297.0</ele><time>2026-04-26T13:47:38.999Z</time></trkpt><trkpt lat="43.504917876381135" lon="11.515366103232463"><ele>297.0</ele><time>2026-04-26T13:47:39.999Z</time></trkpt><trkpt lat="43.504849545263376" lon="11.515449894897841"><ele>297.0</ele><time>2026-04-26T13:47:40.999Z</time></trkpt><trkpt lat="43.50478590165099" lon="11.515530817531566"><ele>297.0</ele><time>2026-04-26T13:47:41.999Z</time></trkpt><trkpt lat="43.50469345760244" lon="11.515648344674775"><ele>297.0</ele><time>2026-04-26T13:47:42.999Z</time></trkpt><trkpt lat="43.50459998842265" lon="11.515767999908213"><ele>297.0</ele><time>2026-04-26T13:47:43.999Z</time></trkpt><trkpt lat="43.50450946761168" lon="11.515887895157194"><ele>295.25</ele><time>2026-04-26T13:47:44.999Z</time></trkpt><trkpt lat="43.504424443098245" lon="11.516001693588521"><ele>293.5</ele><time>2026-04-26T13:47:45.999Z</time></trkpt><trkpt lat="43.50434554745117" lon="11.51612529331908"><ele>291.75</ele><time>2026-04-26T13:47:46.999Z</time></trkpt><trkpt lat="43.504280284573255" lon="11.516243878565254"><ele>290.0</ele><time>2026-04-26T13:47:47.999Z</time></trkpt><trkpt lat="43.5042120812786" lon="11.516380944685435"><ele>288.75</ele><time>2026-04-26T13:47:48.999Z</time></trkpt><trkpt lat="43.50414938878914" lon="11.516516376910428"><ele>287.5</ele><time>2026-04-26T13:47:49.999Z</time></trkpt><trkpt lat="43.50408673989652" lon="11.516648731645324"><ele>286.25</ele><time>2026-04-26T13:47:50.999Z</time></trkpt><trkpt lat="43.504020412848675" lon="11.516775934548008"><ele>285.0</ele><time>2026-04-26T13:47:51.999Z</time></trkpt><trkpt lat="43.50395320693786" lon="11.516915645258138"><ele>285.0</ele><time>2026-04-26T13:47:52.999Z</time></trkpt><trkpt lat="43.503880512707674" lon="11.517064120020079"><ele>285.0</ele><time>2026-04-26T13:47:53.999Z</time></trkpt><trkpt lat="43.50380366644547" lon="11.517219837387984"><ele>285.0</ele><time>2026-04-26T13:47:54.999Z</time></trkpt><trkpt lat="43.50372456049521" lon="11.517384627010758"><ele>285.0</ele><time>2026-04-26T13:47:55.999Z</time></trkpt><trkpt lat="43.503638788580965" lon="11.517561540456878"><ele>283.6666666666667</ele><time>2026-04-26T13:47:56.999Z</time></trkpt><trkpt lat="43.503537987430995" lon="11.517768248123305"><ele>282.33333333333337</ele><time>2026-04-26T13:47:57.999Z</time></trkpt><trkpt lat="43.50342173801247" lon="11.51800322537085"><ele>281.0</ele><time>2026-04-26T13:47:58.999Z</time></trkpt><trkpt lat="43.503325931126085" lon="11.518215913341242"><ele>280.0</ele><time>2026-04-26T13:47:59.999Z</time></trkpt><trkpt lat="43.503222455614825" lon="11.518410959359217"><ele>279.0</ele><time>2026-04-26T13:48:01Z</time></trkpt><trkpt lat="43.503132056464445" lon="11.51859338307459"><ele>278.0</ele><time>2026-04-26T13:48:02Z</time></trkpt><trkpt lat="43.503055806665316" lon="11.518760227821597"><ele>278.0</ele><time>2026-04-26T13:48:03Z</time></trkpt><trkpt lat="43.502984980882665" lon="11.518910636371366"><ele>278.0</ele><time>2026-04-26T13:48:04Z</time></trkpt><trkpt lat="43.50291696526921" lon="11.51904276106951"><ele>278.0</ele><time>2026-04-26T13:48:05Z</time></trkpt><trkpt lat="43.50285227453523" lon="11.519174663076557"><ele>278.0</ele><time>2026-04-26T13:48:06Z</time></trkpt><trkpt lat="43.50280128644577" lon="11.51932135341801"><ele>279.0</ele><time>2026-04-26T13:48:07Z</time></trkpt><trkpt lat="43.50277006015084" lon="11.519481273973428"><ele>280.0</ele><time>2026-04-26T13:48:08Z</time></trkpt><trkpt lat="43.502759816295324" lon="11.519647683457945"><ele>281.0</ele><time>2026-04-26T13:48:09Z</time></trkpt><trkpt lat="43.50276470177939" lon="11.51981466924643"><ele>282.0</ele><time>2026-04-26T13:48:10Z</time></trkpt><trkpt lat="43.50278443557026" lon="11.519978176585218"><ele>283.0</ele><time>2026-04-26T13:48:11Z</time></trkpt><trkpt lat="43.502815858602084" lon="11.520143817301777"><ele>284.0</ele><time>2026-04-26T13:48:12Z</time></trkpt><trkpt lat="43.50284915499315" lon="11.520306563635947"><ele>285.0</ele><time>2026-04-26T13:48:13Z</time></trkpt><trkpt lat="43.502879299511335" lon="11.520477862858927"><ele>286.0</ele><time>2026-04-26T13:48:14Z</time></trkpt><trkpt lat="43.50290949179099" lon="11.520653970607723"><ele>285.0</ele><time>2026-04-26T13:48:15Z</time></trkpt><trkpt lat="43.50294245477326" lon="11.520835768551278"><ele>284.0</ele><time>2026-04-26T13:48:16Z</time></trkpt><trkpt lat="43.502976317652475" lon="11.52101857778326"><ele>283.0</ele><time>2026-04-26T13:48:17Z</time></trkpt><trkpt lat="43.503010535265766" lon="11.521205018653102"><ele>282.0</ele><time>2026-04-26T13:48:18Z</time></trkpt><trkpt lat="43.5030435660029" lon="11.521393375704934"><ele>282.0</ele><time>2026-04-26T13:48:19Z</time></trkpt><trkpt lat="43.50307171180806" lon="11.52157804549912"><ele>282.0</ele><time>2026-04-26T13:48:20Z</time></trkpt><trkpt lat="43.5031026131103" lon="11.521748822509744"><ele>282.0</ele><time>2026-04-26T13:48:21Z</time></trkpt><trkpt lat="43.50313078016084" lon="11.521923817397381"><ele>282.0</ele><time>2026-04-26T13:48:22Z</time></trkpt><trkpt lat="43.50315850118369" lon="11.522081715735524"><ele>282.75</ele><time>2026-04-26T13:48:23Z</time></trkpt><trkpt lat="43.50317175326206" lon="11.522255764805326"><ele>283.5</ele><time>2026-04-26T13:48:24Z</time></trkpt><trkpt lat="43.50316337961958" lon="11.522442019220026"><ele>284.25</ele><time>2026-04-26T13:48:25Z</time></trkpt><trkpt lat="43.50314099232618" lon="11.5226422155617"><ele>285.0</ele><time>2026-04-26T13:48:26Z</time></trkpt><trkpt lat="43.5031108266397" lon="11.52284632547431"><ele>286.6666666666667</ele><time>2026-04-26T13:48:27Z</time></trkpt><trkpt lat="43.50308806393898" lon="11.52306304155709"><ele>288.33333333333337</ele><time>2026-04-26T13:48:28Z</time></trkpt><trkpt lat="43.50305855317358" lon="11.523270292359785"><ele>290.0</ele><time>2026-04-26T13:48:29Z</time></trkpt><trkpt lat="43.50302909988115" lon="11.523469830144546"><ele>290.0</ele><time>2026-04-26T13:48:30Z</time></trkpt><trkpt lat="43.50300504227298" lon="11.523644927943423"><ele>290.0</ele><time>2026-04-26T13:48:31Z</time></trkpt><trkpt lat="43.50297421082325" lon="11.523809889489227"><ele>290.0</ele><time>2026-04-26T13:48:32Z</time></trkpt><trkpt lat="43.50292488646292" lon="11.523959044210873"><ele>290.0</ele><time>2026-04-26T13:48:33Z</time></trkpt><trkpt lat="43.50284257009126" lon="11.524089336077717"><ele>289.0</ele><time>2026-04-26T13:48:34Z</time></trkpt><trkpt lat="43.502754363953485" lon="11.524227295738676"><ele>288.0</ele><time>2026-04-26T13:48:35Z</time></trkpt><trkpt lat="43.502663300521725" lon="11.524375487798384"><ele>287.0</ele><time>2026-04-26T13:48:36Z</time></trkpt><trkpt lat="43.502558254982695" lon="11.524498293793908"><ele>286.0</ele><time>2026-04-26T13:48:37Z</time></trkpt><trkpt lat="43.50245250427604" lon="11.524628278666594"><ele>284.5</ele><time>2026-04-26T13:48:38Z</time></trkpt><trkpt lat="43.50235349844103" lon="11.524750501761627"><ele>283.0</ele><time>2026-04-26T13:48:39Z</time></trkpt><trkpt lat="43.50226075438486" lon="11.524869462741696"><ele>281.5</ele><time>2026-04-26T13:48:40Z</time></trkpt><trkpt lat="43.50218627801984" lon="11.524986911985653"><ele>280.0</ele><time>2026-04-26T13:48:41Z</time></trkpt><trkpt lat="43.502139350172264" lon="11.52512110465041"><ele>280.0</ele><time>2026-04-26T13:48:42Z</time></trkpt><trkpt lat="43.50211551479795" lon="11.525284803350711"><ele>280.0</ele><time>2026-04-26T13:48:43Z</time></trkpt><trkpt lat="43.50210827853716" lon="11.525461309913082"><ele>280.0</ele><time>2026-04-26T13:48:44Z</time></trkpt><trkpt lat="43.50212635186204" lon="11.525639861081297"><ele>280.0</ele><time>2026-04-26T13:48:45Z</time></trkpt><trkpt lat="43.50216631508882" lon="11.52580307908743"><ele>280.25</ele><time>2026-04-26T13:48:46Z</time></trkpt><trkpt lat="43.50222860026739" lon="11.525936204373068"><ele>280.5</ele><time>2026-04-26T13:48:47Z</time></trkpt><trkpt lat="43.50231407391589" lon="11.526048487273771"><ele>280.75</ele><time>2026-04-26T13:48:48Z</time></trkpt><trkpt lat="43.502414199475176" lon="11.526162787708405"><ele>281.0</ele><time>2026-04-26T13:48:49Z</time></trkpt><trkpt lat="43.502514298455935" lon="11.526282531533122"><ele>282.0</ele><time>2026-04-26T13:48:50Z</time></trkpt><trkpt lat="43.502614452904695" lon="11.526415039180012"><ele>283.0</ele><time>2026-04-26T13:48:51Z</time></trkpt><trkpt lat="43.502702117563274" lon="11.526555193658307"><ele>284.0</ele><time>2026-04-26T13:48:52Z</time></trkpt><trkpt lat="43.5027713793933" lon="11.526703166006403"><ele>285.0</ele><time>2026-04-26T13:48:53Z</time></trkpt><trkpt lat="43.502829076291924" lon="11.52686707392555"><ele>285.0</ele><time>2026-04-26T13:48:54Z</time></trkpt><trkpt lat="43.5028874244579" lon="11.527049917402062"><ele>285.0</ele><time>2026-04-26T13:48:55Z</time></trkpt><trkpt lat="43.502945559989215" lon="11.527237551199862"><ele>285.0</ele><time>2026-04-26T13:48:56Z</time></trkpt><trkpt lat="43.503022093928465" lon="11.527399390563021"><ele>285.0</ele><time>2026-04-26T13:48:57Z</time></trkpt><trkpt lat="43.50311750782897" lon="11.527537442927688"><ele>284.25</ele><time>2026-04-26T13:48:58Z</time></trkpt><trkpt lat="43.50323184960984" lon="11.527659843654478"><ele>283.5</ele><time>2026-04-26T13:48:59Z</time></trkpt><trkpt lat="43.50334274299879" lon="11.527772868582769"><ele>282.75</ele><time>2026-04-26T13:49:00Z</time></trkpt><trkpt lat="43.50343535119061" lon="11.527884664652548"><ele>282.0</ele><time>2026-04-26T13:49:01Z</time></trkpt><trkpt lat="43.50350586027189" lon="11.52800553111553"><ele>283.2</ele><time>2026-04-26T13:49:02Z</time></trkpt><trkpt lat="43.503552021674075" lon="11.528151597619274"><ele>284.4</ele><time>2026-04-26T13:49:03Z</time></trkpt><trkpt lat="43.50357072499231" lon="11.528306107242022"><ele>285.6</ele><time>2026-04-26T13:49:04Z</time></trkpt><trkpt lat="43.50355118901423" lon="11.528450804534678"><ele>286.8</ele><time>2026-04-26T13:49:05Z</time></trkpt><trkpt lat="43.50350044591859" lon="11.528585437292907"><ele>288.0</ele><time>2026-04-26T13:49:06Z</time></trkpt><trkpt lat="43.503424552938725" lon="11.528699295090481"><ele>287.5</ele><time>2026-04-26T13:49:07Z</time></trkpt><trkpt lat="43.50332776514818" lon="11.528774692789092"><ele>287.0</ele><time>2026-04-26T13:49:08Z</time></trkpt><trkpt lat="43.50321232148942" lon="11.528789314405765"><ele>286.5</ele><time>2026-04-26T13:49:09Z</time></trkpt><trkpt lat="43.503091814882126" lon="11.528835048333907"><ele>286.0</ele><time>2026-04-26T13:49:10Z</time></trkpt><trkpt lat="43.50295965051615" lon="11.528862996966636"><ele>287.5</ele><time>2026-04-26T13:49:11Z</time></trkpt><trkpt lat="43.502820822266045" lon="11.528901763951737"><ele>289.0</ele><time>2026-04-26T13:49:12.001Z</time></trkpt><trkpt lat="43.50268224440073" lon="11.528954176003499"><ele>290.5</ele><time>2026-04-26T13:49:13.001Z</time></trkpt><trkpt lat="43.50254310245889" lon="11.5290180830999"><ele>292.0</ele><time>2026-04-26T13:49:14.001Z</time></trkpt><trkpt lat="43.502402907784514" lon="11.529085980757996"><ele>292.0</ele><time>2026-04-26T13:49:15.001Z</time></trkpt><trkpt lat="43.50226563820638" lon="11.529171410895058"><ele>292.0</ele><time>2026-04-26T13:49:15.999Z</time></trkpt><trkpt lat="43.50214273198163" lon="11.529266708383624"><ele>292.0</ele><time>2026-04-26T13:49:16.999Z</time></trkpt><trkpt lat="43.50202448523729" lon="11.529326520764643"><ele>292.0</ele><time>2026-04-26T13:49:17.999Z</time></trkpt><trkpt lat="43.50192030564375" lon="11.529376590955989"><ele>292.0</ele><time>2026-04-26T13:49:18.999Z</time></trkpt><trkpt lat="43.501816071256435" lon="11.529409359451241"><ele>292.0</ele><time>2026-04-26T13:49:19.999Z</time></trkpt><trkpt lat="43.50170917635211" lon="11.529385713455923"><ele>292.0</ele><time>2026-04-26T13:49:20.999Z</time></trkpt><trkpt lat="43.501619517192225" lon="11.529305010929798"><ele>292.0</ele><time>2026-04-26T13:49:21.999Z</time></trkpt><trkpt lat="43.50154372123315" lon="11.529202821706388"><ele>292.0</ele><time>2026-04-26T13:49:22.999Z</time></trkpt><trkpt lat="43.50145576029069" lon="11.529109303542269"><ele>292.0</ele><time>2026-04-26T13:49:23.999Z</time></trkpt><trkpt lat="43.50139169401022" lon="11.528989053294103"><ele>292.0</ele><time>2026-04-26T13:49:24.999Z</time></trkpt><trkpt lat="43.50132585049968" lon="11.528888533753838"><ele>292.0</ele><time>2026-04-26T13:49:25.999Z</time></trkpt><trkpt lat="43.501241661401316" lon="11.528805578861112"><ele>292.0</ele><time>2026-04-26T13:49:26.999Z</time></trkpt><trkpt lat="43.50114950520309" lon="11.528756286817128"><ele>292.0</ele><time>2026-04-26T13:49:27.999Z</time></trkpt><trkpt lat="43.50105132648023" lon="11.528719239325566"><ele>292.4</ele><time>2026-04-26T13:49:28.999Z</time></trkpt><trkpt lat="43.50094583540678" lon="11.528707616521048"><ele>292.79999999999995</ele><time>2026-04-26T13:49:29.999Z</time></trkpt><trkpt lat="43.50083905061686" lon="11.528721639105639"><ele>293.2</ele><time>2026-04-26T13:49:30.999Z</time></trkpt><trkpt lat="43.50073446680494" lon="11.528790882457644"><ele>293.59999999999997</ele><time>2026-04-26T13:49:31.999Z</time></trkpt><trkpt lat="43.500643206861675" lon="11.528891023698124"><ele>294.0</ele><time>2026-04-26T13:49:32.999Z</time></trkpt><trkpt lat="43.50056759185151" lon="11.529012015914093"><ele>292.0</ele><time>2026-04-26T13:49:33.999Z</time></trkpt><trkpt lat="43.500519296707004" lon="11.529155685262134"><ele>290.0</ele><time>2026-04-26T13:49:34.999Z</time></trkpt><trkpt lat="43.50049730289714" lon="11.529316631297977"><ele>288.0</ele><time>2026-04-26T13:49:35.999Z</time></trkpt><trkpt lat="43.500494509699024" lon="11.52949565085855"><ele>286.0</ele><time>2026-04-26T13:49:36.999Z</time></trkpt><trkpt lat="43.500489050803395" lon="11.52967152700017"><ele>284.75</ele><time>2026-04-26T13:49:37.999Z</time></trkpt><trkpt lat="43.50047458814598" lon="11.529850760440413"><ele>283.5</ele><time>2026-04-26T13:49:38.999Z</time></trkpt><trkpt lat="43.50045940814961" lon="11.530033527258785"><ele>282.25</ele><time>2026-04-26T13:49:39.999Z</time></trkpt><trkpt lat="43.500443678632955" lon="11.530212855562674"><ele>281.0</ele><time>2026-04-26T13:49:40.999Z</time></trkpt><trkpt lat="43.500437056734185" lon="11.530396872014098"><ele>280.25</ele><time>2026-04-26T13:49:41.999Z</time></trkpt><trkpt lat="43.500432688299085" lon="11.530569440318443"><ele>279.5</ele><time>2026-04-26T13:49:42.999Z</time></trkpt><trkpt lat="43.500416092240435" lon="11.530729299991771"><ele>278.75</ele><time>2026-04-26T13:49:43.999Z</time></trkpt><trkpt lat="43.500400612439826" lon="11.530893391028165"><ele>278.0</ele><time>2026-04-26T13:49:44.999Z</time></trkpt><trkpt lat="43.500379315265995" lon="11.531064701368242"><ele>277.0</ele><time>2026-04-26T13:49:45.999Z</time></trkpt><trkpt lat="43.50035245602225" lon="11.531239732836802"><ele>276.0</ele><time>2026-04-26T13:49:46.999Z</time></trkpt><trkpt lat="43.50030926155844" lon="11.531406112027156"><ele>275.0</ele><time>2026-04-26T13:49:47.999Z</time></trkpt><trkpt lat="43.50024775430509" lon="11.5315645510264"><ele>274.0</ele><time>2026-04-26T13:49:48.999Z</time></trkpt><trkpt lat="43.50018066822506" lon="11.531710380629432"><ele>274.0</ele><time>2026-04-26T13:49:49.999Z</time></trkpt><trkpt lat="43.5001127447985" lon="11.531847906003705"><ele>274.0</ele><time>2026-04-26T13:49:50.999Z</time></trkpt><trkpt lat="43.50004253359629" lon="11.531980465156732"><ele>274.0</ele><time>2026-04-26T13:49:51.999Z</time></trkpt><trkpt lat="43.499981205090805" lon="11.53211149738434"><ele>274.0</ele><time>2026-04-26T13:49:53Z</time></trkpt><trkpt lat="43.49994789286343" lon="11.532253410541568"><ele>274.5</ele><time>2026-04-26T13:49:54Z</time></trkpt><trkpt lat="43.49995106193044" lon="11.532413813454305"><ele>275.0</ele><time>2026-04-26T13:49:55Z</time></trkpt><trkpt lat="43.499979445833254" lon="11.532570732405734"><ele>275.5</ele><time>2026-04-26T13:49:56Z</time></trkpt><trkpt lat="43.500037188614584" lon="11.532712813488905"><ele>276.0</ele><time>2026-04-26T13:49:57Z</time></trkpt><trkpt lat="43.50012555713537" lon="11.532821791669322"><ele>276.75</ele><time>2026-04-26T13:49:58Z</time></trkpt><trkpt lat="43.50023307653336" lon="11.53290359893008"><ele>277.5</ele><time>2026-04-26T13:49:59Z</time></trkpt><trkpt lat="43.50035447522642" lon="11.532978606963484"><ele>278.25</ele><time>2026-04-26T13:50:00Z</time></trkpt><trkpt lat="43.50047456948075" lon="11.533063264977525"><ele>279.0</ele><time>2026-04-26T13:50:01Z</time></trkpt><trkpt lat="43.50059341034169" lon="11.533160586663532"><ele>279.0</ele><time>2026-04-26T13:50:02Z</time></trkpt><trkpt lat="43.50070956875077" lon="11.533248672075148"><ele>279.0</ele><time>2026-04-26T13:50:03Z</time></trkpt><trkpt lat="43.50081048068742" lon="11.533316938546838"><ele>279.0</ele><time>2026-04-26T13:50:04Z</time></trkpt><trkpt lat="43.50091989456127" lon="11.533357943865921"><ele>279.0</ele><time>2026-04-26T13:50:05Z</time></trkpt><trkpt lat="43.50103624317256" lon="11.533357289039811"><ele>279.0</ele><time>2026-04-26T13:50:06Z</time></trkpt><trkpt lat="43.501157263889766" lon="11.533317374648378"><ele>279.0</ele><time>2026-04-26T13:50:07Z</time></trkpt><trkpt lat="43.501264100209106" lon="11.533300842988492"><ele>279.0</ele><time>2026-04-26T13:50:08Z</time></trkpt><trkpt lat="43.50136690183657" lon="11.533292023674163"><ele>279.0</ele><time>2026-04-26T13:50:09Z</time></trkpt><trkpt lat="43.50147381918496" lon="11.533280215316271"><ele>279.0</ele><time>2026-04-26T13:50:10Z</time></trkpt><trkpt lat="43.501571470369115" lon="11.533344280605295"><ele>279.25</ele><time>2026-04-26T13:50:11Z</time></trkpt><trkpt lat="43.50165430519711" lon="11.533437312532397"><ele>279.5</ele><time>2026-04-26T13:50:12Z</time></trkpt><trkpt lat="43.50172821335388" lon="11.533557529518607"><ele>279.75</ele><time>2026-04-26T13:50:13Z</time></trkpt><trkpt lat="43.50177972320016" lon="11.533696531050401"><ele>280.0</ele><time>2026-04-26T13:50:14Z</time></trkpt><trkpt lat="43.501807285962485" lon="11.533851317075493"><ele>280.0</ele><time>2026-04-26T13:50:15Z</time></trkpt><trkpt lat="43.501808955485956" lon="11.534011205116439"><ele>280.0</ele><time>2026-04-26T13:50:16Z</time></trkpt><trkpt lat="43.50179860485406" lon="11.534173356080483"><ele>280.0</ele><time>2026-04-26T13:50:17Z</time></trkpt><trkpt lat="43.50178239647966" lon="11.534323968760713"><ele>280.0</ele><time>2026-04-26T13:50:18Z</time></trkpt><trkpt lat="43.50175914558328" lon="11.534467890703473"><ele>279.6</ele><time>2026-04-26T13:50:19Z</time></trkpt><trkpt lat="43.501713602079256" lon="11.534589517024784"><ele>279.2</ele><time>2026-04-26T13:50:20Z</time></trkpt><trkpt lat="43.50163707737444" lon="11.534701181963984"><ele>278.8</ele><time>2026-04-26T13:50:21Z</time></trkpt><trkpt lat="43.501539292636394" lon="11.534781412158162"><ele>278.4</ele><time>2026-04-26T13:50:22Z</time></trkpt><trkpt lat="43.50141880575465" lon="11.534814431084941"><ele>278.0</ele><time>2026-04-26T13:50:23Z</time></trkpt><trkpt lat="43.501294376466504" lon="11.534838255686724"><ele>279.75</ele><time>2026-04-26T13:50:24Z</time></trkpt><trkpt lat="43.501167399562604" lon="11.53486391854151"><ele>281.5</ele><time>2026-04-26T13:50:25Z</time></trkpt><trkpt lat="43.50104476075778" lon="11.534884301904414"><ele>283.25</ele><time>2026-04-26T13:50:26Z</time></trkpt><trkpt lat="43.50092536408752" lon="11.534878750434338"><ele>285.0</ele><time>2026-04-26T13:50:27Z</time></trkpt><trkpt lat="43.50079663687567" lon="11.534857808590946"><ele>285.0</ele><time>2026-04-26T13:50:28Z</time></trkpt><trkpt lat="43.500671072510244" lon="11.534794103587462"><ele>285.0</ele><time>2026-04-26T13:50:29Z</time></trkpt><trkpt lat="43.50055339820764" lon="11.534723845119073"><ele>285.0</ele><time>2026-04-26T13:50:30Z</time></trkpt><trkpt lat="43.500440912671394" lon="11.53465842448753"><ele>285.0</ele><time>2026-04-26T13:50:31Z</time></trkpt><trkpt lat="43.500333589637414" lon="11.53461091606208"><ele>288.25</ele><time>2026-04-26T13:50:32Z</time></trkpt><trkpt lat="43.50022654215008" lon="11.534600384789542"><ele>291.5</ele><time>2026-04-26T13:50:33Z</time></trkpt><trkpt lat="43.500117210233775" lon="11.53463086793006"><ele>294.75</ele><time>2026-04-26T13:50:34Z</time></trkpt><trkpt lat="43.50000836355879" lon="11.534700688907117"><ele>298.0</ele><time>2026-04-26T13:50:35Z</time></trkpt><trkpt lat="43.49989832839077" lon="11.534782596947949"><ele>298.0</ele><time>2026-04-26T13:50:36Z</time></trkpt><trkpt lat="43.49978417687924" lon="11.534865605998869"><ele>298.0</ele><time>2026-04-26T13:50:37Z</time></trkpt><trkpt lat="43.499668653828714" lon="11.53494516209753"><ele>298.0</ele><time>2026-04-26T13:50:38Z</time></trkpt><trkpt lat="43.49955247651987" lon="11.53501974904666"><ele>298.0</ele><time>2026-04-26T13:50:39Z</time></trkpt><trkpt lat="43.49942891232276" lon="11.535080595633962"><ele>300.0</ele><time>2026-04-26T13:50:40Z</time></trkpt><trkpt lat="43.49929524822225" lon="11.535122043593375"><ele>302.0</ele><time>2026-04-26T13:50:41Z</time></trkpt><trkpt lat="43.49915608979615" lon="11.535155326075644"><ele>304.0</ele><time>2026-04-26T13:50:42Z</time></trkpt><trkpt lat="43.499012192971485" lon="11.53518064560076"><ele>306.0</ele><time>2026-04-26T13:50:43Z</time></trkpt><trkpt lat="43.49886177673862" lon="11.535204675841564"><ele>309.6666666666667</ele><time>2026-04-26T13:50:44Z</time></trkpt><trkpt lat="43.49870995457034" lon="11.535234985192986"><ele>313.33333333333337</ele><time>2026-04-26T13:50:45Z</time></trkpt><trkpt lat="43.49856223056075" lon="11.535274562090494"><ele>317.0</ele><time>2026-04-26T13:50:46Z</time></trkpt><trkpt lat="43.498421319057464" lon="11.535327225683488"><ele>315.5</ele><time>2026-04-26T13:50:47Z</time></trkpt><trkpt lat="43.49828372367132" lon="11.535395680065761"><ele>314.0</ele><time>2026-04-26T13:50:48Z</time></trkpt><trkpt lat="43.49815734003286" lon="11.535469534020233"><ele>312.5</ele><time>2026-04-26T13:50:49Z</time></trkpt><trkpt lat="43.49805203984691" lon="11.535536721532582"><ele>311.0</ele><time>2026-04-26T13:50:50Z</time></trkpt><trkpt lat="43.497958711867334" lon="11.535589526534242"><ele>312.57142857142856</ele><time>2026-04-26T13:50:51Z</time></trkpt><trkpt lat="43.49787556385725" lon="11.535636366964539"><ele>314.14285714285717</ele><time>2026-04-26T13:50:52Z</time></trkpt><trkpt lat="43.49779823949862" lon="11.535680066675573"><ele>315.7142857142857</ele><time>2026-04-26T13:50:53Z</time></trkpt><trkpt lat="43.49773256033551" lon="11.535717903878739"><ele>317.2857142857143</ele><time>2026-04-26T13:50:54Z</time></trkpt><trkpt lat="43.49766888130887" lon="11.535738768966711"><ele>318.8571428571429</ele><time>2026-04-26T13:50:55Z</time></trkpt><trkpt lat="43.49760332777955" lon="11.535742930127158"><ele>320.42857142857144</ele><time>2026-04-26T13:50:56.001Z</time></trkpt><trkpt lat="43.49753973823084" lon="11.5357562145704"><ele>322.0</ele><time>2026-04-26T13:50:57.001Z</time></trkpt><trkpt lat="43.497463071239444" lon="11.53568250209204"><ele>322.0</ele><time>2026-04-26T13:50:58.001Z</time></trkpt><trkpt lat="43.4973852163451" lon="11.535637396558972"><ele>322.0</ele><time>2026-04-26T13:50:59.001Z</time></trkpt><trkpt lat="43.49729480061513" lon="11.535616111477752"><ele>322.0</ele><time>2026-04-26T13:51:00.001Z</time></trkpt><trkpt lat="43.4971965310307" lon="11.535657963576691"><ele>322.0</ele><time>2026-04-26T13:51:01.001Z</time></trkpt><trkpt lat="43.497085662525116" lon="11.535732133313594"><ele>322.0</ele><time>2026-04-26T13:51:02.001Z</time></trkpt><trkpt lat="43.49697731720055" lon="11.53580353078948"><ele>324.6</ele><time>2026-04-26T13:51:03.001Z</time></trkpt><trkpt lat="43.49687529692269" lon="11.535862326464612"><ele>327.20000000000005</ele><time>2026-04-26T13:51:04.001Z</time></trkpt><trkpt lat="43.496782772340616" lon="11.53591277740889"><ele>329.8</ele><time>2026-04-26T13:51:05.001Z</time></trkpt><trkpt lat="43.496698615313434" lon="11.535965968995622"><ele>332.4</ele><time>2026-04-26T13:51:06.001Z</time></trkpt><trkpt lat="43.49662554899572" lon="11.536016722593704"><ele>335.0</ele><time>2026-04-26T13:51:07.001Z</time></trkpt><trkpt lat="43.496537973891904" lon="11.536122856036489"><ele>335.0</ele><time>2026-04-26T13:51:09.001Z</time></trkpt><trkpt lat="43.496500891938986" lon="11.536194297665876"><ele>335.0</ele><time>2026-04-26T13:51:10.001Z</time></trkpt><trkpt lat="43.496487265412505" lon="11.536280567836837"><ele>335.0</ele><time>2026-04-26T13:51:11.001Z</time></trkpt><trkpt lat="43.496507118531376" lon="11.536384250337935"><ele>335.0</ele><time>2026-04-26T13:51:12.001Z</time></trkpt><trkpt lat="43.496484397552855" lon="11.536507844130226"><ele>335.0</ele><time>2026-04-26T13:51:13.001Z</time></trkpt><trkpt lat="43.4964816032322" lon="11.536635720008539"><ele>335.0</ele><time>2026-04-26T13:51:14.001Z</time></trkpt><trkpt lat="43.49647450509641" lon="11.536775183254422"><ele>333.6</ele><time>2026-04-26T13:51:15.001Z</time></trkpt><trkpt lat="43.49645551654363" lon="11.53691002039057"><ele>332.2</ele><time>2026-04-26T13:51:16.001Z</time></trkpt><trkpt lat="43.49642496093108" lon="11.537040227850042"><ele>330.79999999999995</ele><time>2026-04-26T13:51:17.001Z</time></trkpt><trkpt lat="43.49638203965461" lon="11.537160176655826"><ele>329.4</ele><time>2026-04-26T13:51:18.001Z</time></trkpt><trkpt lat="43.49633420568052" lon="11.537279777757723"><ele>328.0</ele><time>2026-04-26T13:51:19.001Z</time></trkpt><trkpt lat="43.49628375758357" lon="11.537405285829983"><ele>327.4</ele><time>2026-04-26T13:51:20.001Z</time></trkpt><trkpt lat="43.496233331188456" lon="11.537534296242642"><ele>326.79999999999995</ele><time>2026-04-26T13:51:21.001Z</time></trkpt><trkpt lat="43.496180617666745" lon="11.537665047659766"><ele>326.2</ele><time>2026-04-26T13:51:21.999Z</time></trkpt><trkpt lat="43.49612708627839" lon="11.537795713213809"><ele>325.6</ele><time>2026-04-26T13:51:22.999Z</time></trkpt><trkpt lat="43.496068689919255" lon="11.537923262697007"><ele>325.0</ele><time>2026-04-26T13:51:23.999Z</time></trkpt><trkpt lat="43.4959983196404" lon="11.53804603851785"><ele>324.75</ele><time>2026-04-26T13:51:24.999Z</time></trkpt><trkpt lat="43.4959212054482" lon="11.538161166835122"><ele>324.5</ele><time>2026-04-26T13:51:25.999Z</time></trkpt><trkpt lat="43.49583935809201" lon="11.53827135582139"><ele>324.25</ele><time>2026-04-26T13:51:26.999Z</time></trkpt><trkpt lat="43.49575627388283" lon="11.538379645519203"><ele>324.0</ele><time>2026-04-26T13:51:27.999Z</time></trkpt><trkpt lat="43.49567242671059" lon="11.538486359196401"><ele>324.0</ele><time>2026-04-26T13:51:28.999Z</time></trkpt><trkpt lat="43.49558885882338" lon="11.538590725373444"><ele>324.0</ele><time>2026-04-26T13:51:29.999Z</time></trkpt><trkpt lat="43.4955033147028" lon="11.538695503316257"><ele>324.0</ele><time>2026-04-26T13:51:30.999Z</time></trkpt><trkpt lat="43.49541758726445" lon="11.53879858733223"><ele>324.0</ele><time>2026-04-26T13:51:31.999Z</time></trkpt><trkpt lat="43.49533067433933" lon="11.53890058235611"><ele>322.25</ele><time>2026-04-26T13:51:32.999Z</time></trkpt><trkpt lat="43.49524388689894" lon="11.53900418288392"><ele>320.5</ele><time>2026-04-26T13:51:33.999Z</time></trkpt><trkpt lat="43.495157593380654" lon="11.53910743974301"><ele>318.75</ele><time>2026-04-26T13:51:34.999Z</time></trkpt><trkpt lat="43.495071096593264" lon="11.539212297641033"><ele>317.0</ele><time>2026-04-26T13:51:35.999Z</time></trkpt><trkpt lat="43.49498933710683" lon="11.539311945793589"><ele>317.0</ele><time>2026-04-26T13:51:36.999Z</time></trkpt><trkpt lat="43.494905120037195" lon="11.539405443498746"><ele>317.0</ele><time>2026-04-26T13:51:37.999Z</time></trkpt><trkpt lat="43.49481771721197" lon="11.539499018144888"><ele>317.0</ele><time>2026-04-26T13:51:38.999Z</time></trkpt><trkpt lat="43.494735764168595" lon="11.53959656299313"><ele>317.0</ele><time>2026-04-26T13:51:39.999Z</time></trkpt><trkpt lat="43.494661955332525" lon="11.539706532933899"><ele>317.0</ele><time>2026-04-26T13:51:41Z</time></trkpt><trkpt lat="43.49459813862137" lon="11.539829961638615"><ele>318.75</ele><time>2026-04-26T13:51:42Z</time></trkpt><trkpt lat="43.494548407322526" lon="11.539970478424868"><ele>320.5</ele><time>2026-04-26T13:51:43Z</time></trkpt><trkpt lat="43.49450467043026" lon="11.540113336507506"><ele>322.25</ele><time>2026-04-26T13:51:44Z</time></trkpt><trkpt lat="43.49446887949036" lon="11.540260067868113"><ele>324.0</ele><time>2026-04-26T13:51:45Z</time></trkpt><trkpt lat="43.49443302609292" lon="11.540414037541366"><ele>324.0</ele><time>2026-04-26T13:51:46Z</time></trkpt><trkpt lat="43.494387200943365" lon="11.540564485827069"><ele>324.0</ele><time>2026-04-26T13:51:47Z</time></trkpt><trkpt lat="43.49433449790712" lon="11.540711239226411"><ele>324.0</ele><time>2026-04-26T13:51:48Z</time></trkpt><trkpt lat="43.49428165914176" lon="11.540855382957256"><ele>324.0</ele><time>2026-04-26T13:51:49Z</time></trkpt><trkpt lat="43.494233023882366" lon="11.540984828876976"><ele>324.0</ele><time>2026-04-26T13:51:50Z</time></trkpt><trkpt lat="43.49418775603068" lon="11.541099747987394"><ele>324.0</ele><time>2026-04-26T13:51:51Z</time></trkpt><trkpt lat="43.49414030273026" lon="11.541215626246027"><ele>324.0</ele><time>2026-04-26T13:51:52Z</time></trkpt><trkpt lat="43.494081515110054" lon="11.541335544952238"><ele>324.0</ele><time>2026-04-26T13:51:53Z</time></trkpt><trkpt lat="43.49400389183712" lon="11.541426429414066"><ele>324.0</ele><time>2026-04-26T13:51:54Z</time></trkpt><trkpt lat="43.493899732530025" lon="11.541458639773499"><ele>324.6</ele><time>2026-04-26T13:51:55Z</time></trkpt><trkpt lat="43.493810072335364" lon="11.541519292321235"><ele>325.2</ele><time>2026-04-26T13:51:56Z</time></trkpt><trkpt lat="43.49373575201861" lon="11.541593856200336"><ele>325.8</ele><time>2026-04-26T13:51:57Z</time></trkpt><trkpt lat="43.4936795728531" lon="11.541708035052292"><ele>326.40000000000003</ele><time>2026-04-26T13:51:58Z</time></trkpt><trkpt lat="43.49365066507955" lon="11.541848737103185"><ele>327.0</ele><time>2026-04-26T13:51:59Z</time></trkpt><trkpt lat="43.49364901884034" lon="11.542006028182767"><ele>324.6</ele><time>2026-04-26T13:52:00Z</time></trkpt><trkpt lat="43.493662735715134" lon="11.54215780331075"><ele>322.20000000000005</ele><time>2026-04-26T13:52:01Z</time></trkpt><trkpt lat="43.493667507103744" lon="11.542308786127915"><ele>319.8</ele><time>2026-04-26T13:52:02Z</time></trkpt><trkpt lat="43.49366132914293" lon="11.542446820133616"><ele>317.4</ele><time>2026-04-26T13:52:03Z</time></trkpt><trkpt lat="43.493649072921336" lon="11.542574609155295"><ele>315.0</ele><time>2026-04-26T13:52:04Z</time></trkpt><trkpt lat="43.49361625324633" lon="11.542689118976128"><ele>315.0</ele><time>2026-04-26T13:52:05Z</time></trkpt><trkpt lat="43.49359503636659" lon="11.542789464220629"><ele>315.0</ele><time>2026-04-26T13:52:06Z</time></trkpt><trkpt lat="43.49353573567565" lon="11.542851065449751"><ele>315.0</ele><time>2026-04-26T13:52:07Z</time></trkpt><trkpt lat="43.49346309846376" lon="11.542877672882314"><ele>315.0</ele><time>2026-04-26T13:52:08Z</time></trkpt><trkpt lat="43.493379787413915" lon="11.542851129265458"><ele>315.0</ele><time>2026-04-26T13:52:09Z</time></trkpt><trkpt lat="43.4932954866005" lon="11.54281244899405"><ele>315.0</ele><time>2026-04-26T13:52:10Z</time></trkpt><trkpt lat="43.49319563949718" lon="11.54278716328785"><ele>315.0</ele><time>2026-04-26T13:52:11Z</time></trkpt><trkpt lat="43.49310250052908" lon="11.542752331506733"><ele>315.0</ele><time>2026-04-26T13:52:12Z</time></trkpt><trkpt lat="43.4930140942658" lon="11.54272004708064"><ele>315.0</ele><time>2026-04-26T13:52:13Z</time></trkpt><trkpt lat="43.49293370459237" lon="11.542686652781688"><ele>315.0</ele><time>2026-04-26T13:52:14Z</time></trkpt><trkpt lat="43.49284824052718" lon="11.542672052945843"><ele>315.0</ele><time>2026-04-26T13:52:15Z</time></trkpt><trkpt lat="43.4927751335059" lon="11.542646408121854"><ele>315.0</ele><time>2026-04-26T13:52:16Z</time></trkpt><trkpt lat="43.49269493329718" lon="11.54270160699006"><ele>314.3333333333333</ele><time>2026-04-26T13:52:17Z</time></trkpt><trkpt lat="43.492621015097804" lon="11.542761433902887"><ele>313.6666666666667</ele><time>2026-04-26T13:52:18Z</time></trkpt><trkpt lat="43.49255648229024" lon="11.54285468587277"><ele>313.0</ele><time>2026-04-26T13:52:19Z</time></trkpt><trkpt lat="43.492493404501865" lon="11.542941197017122"><ele>312.33333333333337</ele><time>2026-04-26T13:52:20Z</time></trkpt><trkpt lat="43.49243618514445" lon="11.54303534015981"><ele>311.6666666666667</ele><time>2026-04-26T13:52:21Z</time></trkpt><trkpt lat="43.49238584161309" lon="11.543127674097883"><ele>311.0</ele><time>2026-04-26T13:52:22Z</time></trkpt><trkpt lat="43.49230314035168" lon="11.54316876250081"><ele>308.6</ele><time>2026-04-26T13:52:23Z</time></trkpt><trkpt lat="43.492215976251806" lon="11.543170242107562"><ele>306.20000000000005</ele><time>2026-04-26T13:52:24Z</time></trkpt><trkpt lat="43.49213361830608" lon="11.543131932235408"><ele>303.79999999999995</ele><time>2026-04-26T13:52:25Z</time></trkpt><trkpt lat="43.49204515585878" lon="11.543071762216083"><ele>301.4</ele><time>2026-04-26T13:52:26Z</time></trkpt><trkpt lat="43.49194861505274" lon="11.543008979157612"><ele>299.0</ele><time>2026-04-26T13:52:27Z</time></trkpt><trkpt lat="43.49184545725779" lon="11.542945109099417"><ele>300.0</ele><time>2026-04-26T13:52:28Z</time></trkpt><trkpt lat="43.49173729305983" lon="11.542880071463843"><ele>301.0</ele><time>2026-04-26T13:52:29Z</time></trkpt><trkpt lat="43.49162922016216" lon="11.542812230274285"><ele>302.0</ele><time>2026-04-26T13:52:30Z</time></trkpt><trkpt lat="43.491526955356" lon="11.542745428948937"><ele>303.0</ele><time>2026-04-26T13:52:31Z</time></trkpt><trkpt lat="43.491437447060044" lon="11.542663744159215"><ele>303.0</ele><time>2026-04-26T13:52:32Z</time></trkpt><trkpt lat="43.491337568374455" lon="11.54262371019767"><ele>303.0</ele><time>2026-04-26T13:52:33Z</time></trkpt><trkpt lat="43.49125394782784" lon="11.54255944415668"><ele>303.0</ele><time>2026-04-26T13:52:34Z</time></trkpt><trkpt lat="43.49116812079317" lon="11.542512869923243"><ele>303.0</ele><time>2026-04-26T13:52:35Z</time></trkpt><trkpt lat="43.491087945685145" lon="11.542452239623538"><ele>303.0</ele><time>2026-04-26T13:52:36Z</time></trkpt><trkpt lat="43.49100759288697" lon="11.542384801148353"><ele>301.4</ele><time>2026-04-26T13:52:37Z</time></trkpt><trkpt lat="43.49094506002818" lon="11.542284663051412"><ele>299.8</ele><time>2026-04-26T13:52:38Z</time></trkpt><trkpt lat="43.49088854666054" lon="11.542167164473366"><ele>298.2</ele><time>2026-04-26T13:52:39Z</time></trkpt><trkpt lat="43.49082956755598" lon="11.54203771738158"><ele>296.6</ele><time>2026-04-26T13:52:40.001Z</time></trkpt><trkpt lat="43.49077159834623" lon="11.541893799051504"><ele>295.0</ele><time>2026-04-26T13:52:41.001Z</time></trkpt><trkpt lat="43.49071228902314" lon="11.541746755561421"><ele>295.0</ele><time>2026-04-26T13:52:42.001Z</time></trkpt><trkpt lat="43.49066984033127" lon="11.5415844127496"><ele>295.0</ele><time>2026-04-26T13:52:43.001Z</time></trkpt><trkpt lat="43.49061605690632" lon="11.54144124794369"><ele>295.0</ele><time>2026-04-26T13:52:44.001Z</time></trkpt><trkpt lat="43.49056278882173" lon="11.541306604752382"><ele>295.0</ele><time>2026-04-26T13:52:45.001Z</time></trkpt><trkpt lat="43.49051362410706" lon="11.541182333096165"><ele>295.0</ele><time>2026-04-26T13:52:46.001Z</time></trkpt><trkpt lat="43.490452970212885" lon="11.541073735784154"><ele>295.0</ele><time>2026-04-26T13:52:47.001Z</time></trkpt><trkpt lat="43.490409044415756" lon="11.540958673835668"><ele>295.0</ele><time>2026-04-26T13:52:48.001Z</time></trkpt><trkpt lat="43.490364996678636" lon="11.540850022071771"><ele>295.0</ele><time>2026-04-26T13:52:49.001Z</time></trkpt><trkpt lat="43.49032294568858" lon="11.540764857000081"><ele>295.0</ele><time>2026-04-26T13:52:50.001Z</time></trkpt><trkpt lat="43.49022403160611" lon="11.540688349665695"><ele>292.6</ele><time>2026-04-26T13:52:52.001Z</time></trkpt><trkpt lat="43.49015061917503" lon="11.540705682115515"><ele>290.2</ele><time>2026-04-26T13:52:53.001Z</time></trkpt><trkpt lat="43.49007646972374" lon="11.540936550309949"><ele>287.8</ele><time>2026-04-26T13:52:54.001Z</time></trkpt><trkpt lat="43.49001936722844" lon="11.541016005328833"><ele>285.4</ele><time>2026-04-26T13:52:55.001Z</time></trkpt><trkpt lat="43.48996047038362" lon="11.541098891512904"><ele>283.0</ele><time>2026-04-26T13:52:56.001Z</time></trkpt><trkpt lat="43.4899536690041" lon="11.541224765161719"><ele>282.6</ele><time>2026-04-26T13:52:57.001Z</time></trkpt><trkpt lat="43.489951321940374" lon="11.541352886150074"><ele>282.20000000000005</ele><time>2026-04-26T13:52:58.001Z</time></trkpt><trkpt lat="43.48997307550928" lon="11.5415042160346"><ele>281.8</ele><time>2026-04-26T13:52:59.001Z</time></trkpt><trkpt lat="43.48997654185558" lon="11.541658401382795"><ele>281.40000000000003</ele><time>2026-04-26T13:53:00.001Z</time></trkpt><trkpt lat="43.489992765918295" lon="11.54181735335086"><ele>281.0</ele><time>2026-04-26T13:53:01.001Z</time></trkpt><trkpt lat="43.49002189806514" lon="11.54197940229905"><ele>281.0</ele><time>2026-04-26T13:53:02.001Z</time></trkpt><trkpt lat="43.49003320581875" lon="11.542151211886287"><ele>281.0</ele><time>2026-04-26T13:53:03.001Z</time></trkpt><trkpt lat="43.49004840987292" lon="11.542324000257203"><ele>281.0</ele><time>2026-04-26T13:53:04.001Z</time></trkpt><trkpt lat="43.49006730339249" lon="11.54250066757495"><ele>281.0</ele><time>2026-04-26T13:53:05.001Z</time></trkpt><trkpt lat="43.49008582618352" lon="11.542680488472394"><ele>281.0</ele><time>2026-04-26T13:53:06.001Z</time></trkpt><trkpt lat="43.4901025988735" lon="11.542860909590853"><ele>281.0</ele><time>2026-04-26T13:53:07.001Z</time></trkpt><trkpt lat="43.490112735679716" lon="11.54304401726858"><ele>281.0</ele><time>2026-04-26T13:53:08.001Z</time></trkpt><trkpt lat="43.49011768339293" lon="11.543227355142335"><ele>281.0</ele><time>2026-04-26T13:53:09.001Z</time></trkpt><trkpt lat="43.490109950049636" lon="11.543396649374424"><ele>280.75</ele><time>2026-04-26T13:53:10.001Z</time></trkpt><trkpt lat="43.49008636948057" lon="11.543556315236485"><ele>280.5</ele><time>2026-04-26T13:53:11.001Z</time></trkpt><trkpt lat="43.49004308819897" lon="11.543700006995579"><ele>280.25</ele><time>2026-04-26T13:53:12.001Z</time></trkpt><trkpt lat="43.48998721926345" lon="11.543840905678964"><ele>280.0</ele><time>2026-04-26T13:53:13.001Z</time></trkpt><trkpt lat="43.48992154814607" lon="11.543982010304587"><ele>279.0</ele><time>2026-04-26T13:53:14.001Z</time></trkpt><trkpt lat="43.48985588212579" lon="11.544115000029716"><ele>278.0</ele><time>2026-04-26T13:53:15.001Z</time></trkpt><trkpt lat="43.48979965547788" lon="11.5442538991184"><ele>277.0</ele><time>2026-04-26T13:53:16.001Z</time></trkpt><trkpt lat="43.48976355607275" lon="11.544410157924185"><ele>276.0</ele><time>2026-04-26T13:53:17.001Z</time></trkpt><trkpt lat="43.48975932522232" lon="11.544574150775262"><ele>275.6</ele><time>2026-04-26T13:53:18.001Z</time></trkpt><trkpt lat="43.489777426871655" lon="11.54473096891225"><ele>275.20000000000005</ele><time>2026-04-26T13:53:19.001Z</time></trkpt><trkpt lat="43.489804768151636" lon="11.544877951892058"><ele>274.79999999999995</ele><time>2026-04-26T13:53:20.001Z</time></trkpt><trkpt lat="43.489803083537204" lon="11.545016160178564"><ele>274.4</ele><time>2026-04-26T13:53:21.001Z</time></trkpt><trkpt lat="43.48981036299225" lon="11.545147506538992"><ele>274.0</ele><time>2026-04-26T13:53:22.001Z</time></trkpt><trkpt lat="43.489784271933665" lon="11.545289275432733"><ele>273.8</ele><time>2026-04-26T13:53:23.001Z</time></trkpt><trkpt lat="43.489742745484605" lon="11.545431096386334"><ele>273.59999999999997</ele><time>2026-04-26T13:53:24.001Z</time></trkpt><trkpt lat="43.48968629356023" lon="11.545549471869863"><ele>273.4</ele><time>2026-04-26T13:53:25.001Z</time></trkpt><trkpt lat="43.48961787198753" lon="11.54563108923886"><ele>273.2</ele><time>2026-04-26T13:53:26.001Z</time></trkpt><trkpt lat="43.489534188775316" lon="11.54568043435364"><ele>273.0</ele><time>2026-04-26T13:53:26.999Z</time></trkpt><trkpt lat="43.48943201397487" lon="11.545715713732378"><ele>274.2</ele><time>2026-04-26T13:53:27.999Z</time></trkpt><trkpt lat="43.48933156032998" lon="11.545756195470085"><ele>275.4</ele><time>2026-04-26T13:53:28.999Z</time></trkpt><trkpt lat="43.4892508441616" lon="11.5458047136633"><ele>276.59999999999997</ele><time>2026-04-26T13:53:29.999Z</time></trkpt><trkpt lat="43.4891773089864" lon="11.54587713897639"><ele>277.8</ele><time>2026-04-26T13:53:30.999Z</time></trkpt><trkpt lat="43.489107475313865" lon="11.545973451981398"><ele>279.0</ele><time>2026-04-26T13:53:31.999Z</time></trkpt><trkpt lat="43.48905015619326" lon="11.546089693412382"><ele>278.0</ele><time>2026-04-26T13:53:32.999Z</time></trkpt><trkpt lat="43.48902123316851" lon="11.546220825346301"><ele>277.0</ele><time>2026-04-26T13:53:33.999Z</time></trkpt><trkpt lat="43.48901593066572" lon="11.546359333026267"><ele>276.0</ele><time>2026-04-26T13:53:34.999Z</time></trkpt><trkpt lat="43.4890188524175" lon="11.546512113773032"><ele>275.0</ele><time>2026-04-26T13:53:35.999Z</time></trkpt><trkpt lat="43.489026409834594" lon="11.546674338430675"><ele>274.0</ele><time>2026-04-26T13:53:36.999Z</time></trkpt><trkpt lat="43.48903398701043" lon="11.54684603367194"><ele>274.0</ele><time>2026-04-26T13:53:37.999Z</time></trkpt><trkpt lat="43.48903510679613" lon="11.547022999861404"><ele>274.0</ele><time>2026-04-26T13:53:38.999Z</time></trkpt><trkpt lat="43.489024201729954" lon="11.547205748181312"><ele>274.0</ele><time>2026-04-26T13:53:39.999Z</time></trkpt><trkpt lat="43.488999743974425" lon="11.547391132635289"><ele>274.0</ele><time>2026-04-26T13:53:40.999Z</time></trkpt><trkpt lat="43.488979204622595" lon="11.547592687066158"><ele>274.0</ele><time>2026-04-26T13:53:41.999Z</time></trkpt><trkpt lat="43.488963062039865" lon="11.547794220228205"><ele>274.0</ele><time>2026-04-26T13:53:43Z</time></trkpt><trkpt lat="43.48894457945943" lon="11.547996006748344"><ele>274.0</ele><time>2026-04-26T13:53:44Z</time></trkpt><trkpt lat="43.48892918024036" lon="11.548194662181425"><ele>274.0</ele><time>2026-04-26T13:53:45Z</time></trkpt><trkpt lat="43.48890816388607" lon="11.54839503651919"><ele>274.0</ele><time>2026-04-26T13:53:46Z</time></trkpt><trkpt lat="43.48890029750967" lon="11.548595820892196"><ele>274.0</ele><time>2026-04-26T13:53:47Z</time></trkpt><trkpt lat="43.48890722245975" lon="11.548797228008782"><ele>274.0</ele><time>2026-04-26T13:53:48Z</time></trkpt><trkpt lat="43.48893011164652" lon="11.548998937614694"><ele>274.0</ele><time>2026-04-26T13:53:49Z</time></trkpt><trkpt lat="43.48895270527578" lon="11.54920818888948"><ele>275.3333333333333</ele><time>2026-04-26T13:53:50Z</time></trkpt><trkpt lat="43.48897053715796" lon="11.549423696294433"><ele>276.6666666666667</ele><time>2026-04-26T13:53:51Z</time></trkpt><trkpt lat="43.48898637533688" lon="11.549645078076846"><ele>278.0</ele><time>2026-04-26T13:53:52Z</time></trkpt><trkpt lat="43.489002746591915" lon="11.549867308381945"><ele>279.25</ele><time>2026-04-26T13:53:53Z</time></trkpt><trkpt lat="43.48902827335854" lon="11.550075643507878"><ele>280.5</ele><time>2026-04-26T13:53:54Z</time></trkpt><trkpt lat="43.48906093379351" lon="11.55026805810274"><ele>281.75</ele><time>2026-04-26T13:53:55Z</time></trkpt><trkpt lat="43.489094945600286" lon="11.550450027041116"><ele>283.0</ele><time>2026-04-26T13:53:56Z</time></trkpt><trkpt lat="43.48912310309616" lon="11.550624020122953"><ele>283.0</ele><time>2026-04-26T13:53:57Z</time></trkpt><trkpt lat="43.48915224665002" lon="11.550789455876975"><ele>283.0</ele><time>2026-04-26T13:53:58Z</time></trkpt><trkpt lat="43.489172895638895" lon="11.550938853553339"><ele>283.0</ele><time>2026-04-26T13:53:59Z</time></trkpt><trkpt lat="43.4891816290536" lon="11.551088040001092"><ele>283.0</ele><time>2026-04-26T13:54:00Z</time></trkpt><trkpt lat="43.48918702484233" lon="11.551251171843871"><ele>283.0</ele><time>2026-04-26T13:54:01Z</time></trkpt><trkpt lat="43.48919453157903" lon="11.551431865219831"><ele>283.0</ele><time>2026-04-26T13:54:02Z</time></trkpt><trkpt lat="43.48920453179676" lon="11.551626127746484"><ele>283.0</ele><time>2026-04-26T13:54:03Z</time></trkpt><trkpt lat="43.48922216801459" lon="11.551817923890862"><ele>283.0</ele><time>2026-04-26T13:54:04Z</time></trkpt><trkpt lat="43.48924298811656" lon="11.551996980300663"><ele>282.6</ele><time>2026-04-26T13:54:05Z</time></trkpt><trkpt lat="43.48926108483665" lon="11.55216708926669"><ele>282.20000000000005</ele><time>2026-04-26T13:54:06Z</time></trkpt><trkpt lat="43.48926934954228" lon="11.552318262710042"><ele>281.8</ele><time>2026-04-26T13:54:07Z</time></trkpt><trkpt lat="43.489252698904934" lon="11.552452970270714"><ele>281.40000000000003</ele><time>2026-04-26T13:54:08Z</time></trkpt><trkpt lat="43.48920682297023" lon="11.55258625416703"><ele>281.0</ele><time>2026-04-26T13:54:09Z</time></trkpt><trkpt lat="43.48912990321706" lon="11.552710100031035"><ele>281.0</ele><time>2026-04-26T13:54:10Z</time></trkpt><trkpt lat="43.48904232424841" lon="11.552833794138145"><ele>281.0</ele><time>2026-04-26T13:54:11Z</time></trkpt><trkpt lat="43.488958501622626" lon="11.552951242466643"><ele>281.0</ele><time>2026-04-26T13:54:12Z</time></trkpt><trkpt lat="43.48886311284453" lon="11.553028211092805"><ele>281.0</ele><time>2026-04-26T13:54:13Z</time></trkpt><trkpt lat="43.48877285429882" lon="11.553092120142486"><ele>281.40000000000003</ele><time>2026-04-26T13:54:14Z</time></trkpt><trkpt lat="43.48866441786852" lon="11.553120502497373"><ele>281.8</ele><time>2026-04-26T13:54:15Z</time></trkpt><trkpt lat="43.488541623172296" lon="11.55311621558211"><ele>282.20000000000005</ele><time>2026-04-26T13:54:16Z</time></trkpt><trkpt lat="43.488425278353645" lon="11.553120797289166"><ele>282.6</ele><time>2026-04-26T13:54:17Z</time></trkpt><trkpt lat="43.488329375579134" lon="11.553105049206154"><ele>283.0</ele><time>2026-04-26T13:54:18Z</time></trkpt><trkpt lat="43.48824613875262" lon="11.553091632520385"><ele>283.0</ele><time>2026-04-26T13:54:19Z</time></trkpt><trkpt lat="43.48817325844208" lon="11.553085188145715"><ele>283.0</ele><time>2026-04-26T13:54:20Z</time></trkpt><trkpt lat="43.48810418571091" lon="11.553087918957669"><ele>283.0</ele><time>2026-04-26T13:54:21Z</time></trkpt><trkpt lat="43.488032817527866" lon="11.553112066435622"><ele>283.0</ele><time>2026-04-26T13:54:22Z</time></trkpt><trkpt lat="43.48796749688692" lon="11.55317266999229"><ele>283.0</ele><time>2026-04-26T13:54:23Z</time></trkpt><trkpt lat="43.487913292948484" lon="11.553266489662601"><ele>283.0</ele><time>2026-04-26T13:54:24Z</time></trkpt><trkpt lat="43.4878710830504" lon="11.553386543460553"><ele>282.8</ele><time>2026-04-26T13:54:25Z</time></trkpt><trkpt lat="43.487840213458476" lon="11.553524790626982"><ele>282.6</ele><time>2026-04-26T13:54:26Z</time></trkpt><trkpt lat="43.48781487585764" lon="11.553673501682285"><ele>282.4</ele><time>2026-04-26T13:54:27Z</time></trkpt><trkpt lat="43.48778593708915" lon="11.55381127462078"><ele>282.2</ele><time>2026-04-26T13:54:28Z</time></trkpt><trkpt lat="43.487753683494965" lon="11.553942355348779"><ele>282.0</ele><time>2026-04-26T13:54:29Z</time></trkpt><trkpt lat="43.48772498801864" lon="11.554070711952798"><ele>280.8</ele><time>2026-04-26T13:54:30Z</time></trkpt><trkpt lat="43.48769786510885" lon="11.554198925680087"><ele>279.6</ele><time>2026-04-26T13:54:31Z</time></trkpt><trkpt lat="43.48767113036001" lon="11.554324953154088"><ele>278.40000000000003</ele><time>2026-04-26T13:54:32Z</time></trkpt><trkpt lat="43.48764593014481" lon="11.554449495410514"><ele>277.2</ele><time>2026-04-26T13:54:33Z</time></trkpt><trkpt lat="43.48762066310776" lon="11.55456923685629"><ele>276.0</ele><time>2026-04-26T13:54:34Z</time></trkpt><trkpt lat="43.48760465920153" lon="11.554688110842775"><ele>275.5</ele><time>2026-04-26T13:54:35Z</time></trkpt><trkpt lat="43.487603690023" lon="11.554801353939503"><ele>275.0</ele><time>2026-04-26T13:54:36Z</time></trkpt><trkpt lat="43.48761593982758" lon="11.554895117509226"><ele>274.5</ele><time>2026-04-26T13:54:37Z</time></trkpt><trkpt lat="43.48760211648174" lon="11.554998285409544"><ele>274.0</ele><time>2026-04-26T13:54:39Z</time></trkpt><trkpt lat="43.48748745560963" lon="11.554997749254202"><ele>273.5</ele><time>2026-04-26T13:54:41Z</time></trkpt><trkpt lat="43.48741281258429" lon="11.555025485371491"><ele>273.0</ele><time>2026-04-26T13:54:42Z</time></trkpt><trkpt lat="43.4873497196333" lon="11.555053554087841"><ele>273.0</ele><time>2026-04-26T13:54:43Z</time></trkpt><trkpt lat="43.487253029213065" lon="11.554963463005617"><ele>273.0</ele><time>2026-04-26T13:54:45.001Z</time></trkpt><trkpt lat="43.487180643478986" lon="11.55490789488727"><ele>273.0</ele><time>2026-04-26T13:54:47.001Z</time></trkpt><trkpt lat="43.487084905653255" lon="11.554861266281243"><ele>273.0</ele><time>2026-04-26T13:54:49.001Z</time></trkpt><trkpt lat="43.48702256255199" lon="11.55484813687953"><ele>273.0</ele><time>2026-04-26T13:54:50.001Z</time></trkpt><trkpt lat="43.48695731992453" lon="11.554838251946281"><ele>273.0</ele><time>2026-04-26T13:54:51.001Z</time></trkpt><trkpt lat="43.486894449735345" lon="11.55483109246849"><ele>271.75</ele><time>2026-04-26T13:54:52.001Z</time></trkpt><trkpt lat="43.48676806973571" lon="11.55481550302634"><ele>270.5</ele><time>2026-04-26T13:54:54.001Z</time></trkpt><trkpt lat="43.486663616423726" lon="11.554797064043317"><ele>269.25</ele><time>2026-04-26T13:54:56.001Z</time></trkpt><trkpt lat="43.48655397678363" lon="11.554773797535896"><ele>268.0</ele><time>2026-04-26T13:54:58.001Z</time></trkpt><trkpt lat="43.486448963986234" lon="11.55473713411053"><ele>268.0</ele><time>2026-04-26T13:55:00.001Z</time></trkpt><trkpt lat="43.486334103768705" lon="11.554670703755361"><ele>268.0</ele><time>2026-04-26T13:55:02.001Z</time></trkpt><trkpt lat="43.4862334308356" lon="11.55459675652465"><ele>268.0</ele><time>2026-04-26T13:55:04.001Z</time></trkpt><trkpt lat="43.48613467672238" lon="11.554514197827123"><ele>268.0</ele><time>2026-04-26T13:55:06.001Z</time></trkpt><trkpt lat="43.48603451132408" lon="11.554431844393966"><ele>268.4</ele><time>2026-04-26T13:55:08.001Z</time></trkpt><trkpt lat="43.485962750883495" lon="11.554374776314758"><ele>268.8</ele><time>2026-04-26T13:55:10.001Z</time></trkpt><trkpt lat="43.48588124985788" lon="11.554313812561821"><ele>269.2</ele><time>2026-04-26T13:55:12.001Z</time></trkpt><trkpt lat="43.48578900875371" lon="11.55427678693209"><ele>269.6</ele><time>2026-04-26T13:55:14.001Z</time></trkpt><trkpt lat="43.48567610237121" lon="11.554347190196387"><ele>270.0</ele><time>2026-04-26T13:55:16.001Z</time></trkpt><trkpt lat="43.485652931897164" lon="11.554447834799896"><ele>269.4</ele><time>2026-04-26T13:55:17.001Z</time></trkpt><trkpt lat="43.48560141895675" lon="11.554559508782786"><ele>268.8</ele><time>2026-04-26T13:55:19.001Z</time></trkpt><trkpt lat="43.485533515477584" lon="11.554615840834108"><ele>268.2</ele><time>2026-04-26T13:55:21.001Z</time></trkpt><trkpt lat="43.485461581606465" lon="11.554596647721395"><ele>267.6</ele><time>2026-04-26T13:55:23.001Z</time></trkpt><trkpt lat="43.48538347565231" lon="11.554479996424856"><ele>267.0</ele><time>2026-04-26T13:55:25.001Z</time></trkpt><trkpt lat="43.48532545268522" lon="11.554338985222417"><ele>267.0</ele><time>2026-04-26T13:55:26.001Z</time></trkpt><trkpt lat="43.48523779098139" lon="11.55416719792085"><ele>267.0</ele><time>2026-04-26T13:55:27.001Z</time></trkpt><trkpt lat="43.48513244395462" lon="11.553965483836704"><ele>267.0</ele><time>2026-04-26T13:55:28.001Z</time></trkpt><trkpt lat="43.485053631684735" lon="11.553815132438057"><ele>267.2</ele><time>2026-04-26T13:55:29.001Z</time></trkpt><trkpt lat="43.48499195953219" lon="11.553697479729497"><ele>267.4</ele><time>2026-04-26T13:55:30.001Z</time></trkpt><trkpt lat="43.48492933910987" lon="11.553578017931"><ele>267.6</ele><time>2026-04-26T13:55:31.001Z</time></trkpt><trkpt lat="43.48487630218448" lon="11.553476838648434"><ele>267.8</ele><time>2026-04-26T13:55:32.001Z</time></trkpt><trkpt lat="43.48481997749525" lon="11.553369412737807"><ele>268.0</ele><time>2026-04-26T13:55:32.999Z</time></trkpt><trkpt lat="43.48476168667851" lon="11.553258473338852"><ele>268.0</ele><time>2026-04-26T13:55:33.999Z</time></trkpt><trkpt lat="43.484704673179586" lon="11.553149964687544"><ele>268.0</ele><time>2026-04-26T13:55:34.999Z</time></trkpt><trkpt lat="43.484645715950776" lon="11.553037757087203"><ele>268.0</ele><time>2026-04-26T13:55:35.999Z</time></trkpt><trkpt lat="43.484599855083886" lon="11.552946412130648"><ele>268.0</ele><time>2026-04-26T13:55:36.999Z</time></trkpt><trkpt lat="43.48455479545201" lon="11.552852777189024"><ele>268.0</ele><time>2026-04-26T13:55:37.999Z</time></trkpt><trkpt lat="43.48449969759256" lon="11.552738570619615"><ele>268.6</ele><time>2026-04-26T13:55:38.999Z</time></trkpt><trkpt lat="43.48442481703064" lon="11.552642196795002"><ele>269.20000000000005</ele><time>2026-04-26T13:55:39.999Z</time></trkpt><trkpt lat="43.48436401706913" lon="11.552544276332156"><ele>269.8</ele><time>2026-04-26T13:55:40.999Z</time></trkpt><trkpt lat="43.4843027284407" lon="11.55244928984054"><ele>270.40000000000003</ele><time>2026-04-26T13:55:41.999Z</time></trkpt><trkpt lat="43.484244549145906" lon="11.552343340058028"><ele>271.0</ele><time>2026-04-26T13:55:42.999Z</time></trkpt><trkpt lat="43.48418244957852" lon="11.552253145713745"><ele>271.0</ele><time>2026-04-26T13:55:44Z</time></trkpt><trkpt lat="43.484130572139456" lon="11.552174207730827"><ele>271.0</ele><time>2026-04-26T13:55:45Z</time></trkpt><trkpt lat="43.48407920610235" lon="11.55208707675101"><ele>271.0</ele><time>2026-04-26T13:55:46Z</time></trkpt><trkpt lat="43.48403740861252" lon="11.551978978257218"><ele>271.0</ele><time>2026-04-26T13:55:47Z</time></trkpt><trkpt lat="43.48401402485202" lon="11.551846610512651"><ele>271.0</ele><time>2026-04-26T13:55:48Z</time></trkpt><trkpt lat="43.48400221899669" lon="11.551710891830147"><ele>271.0</ele><time>2026-04-26T13:55:49Z</time></trkpt><trkpt lat="43.48399854796808" lon="11.55161676187638"><ele>271.5</ele><time>2026-04-26T13:55:50Z</time></trkpt><trkpt lat="43.48399676409427" lon="11.551519684774508"><ele>272.0</ele><time>2026-04-26T13:55:51Z</time></trkpt><trkpt lat="43.483978903429566" lon="11.55142260626823"><ele>272.5</ele><time>2026-04-26T13:55:52Z</time></trkpt><trkpt lat="43.483993327873314" lon="11.551327231221206"><ele>273.0</ele><time>2026-04-26T13:55:53Z</time></trkpt><trkpt lat="43.483974228316654" lon="11.551200758458394"><ele>273.5</ele><time>2026-04-26T13:55:55Z</time></trkpt><trkpt lat="43.48394261363525" lon="11.551083444927366"><ele>274.0</ele><time>2026-04-26T13:56:14Z</time></trkpt><trkpt lat="43.4838973694404" lon="11.55101415952204"><ele>274.4</ele><time>2026-04-26T13:56:15Z</time></trkpt><trkpt lat="43.483799872711224" lon="11.550905061302124"><ele>274.79999999999995</ele><time>2026-04-26T13:56:17Z</time></trkpt><trkpt lat="43.48372711577467" lon="11.550800419041732"><ele>275.20000000000005</ele><time>2026-04-26T13:56:19Z</time></trkpt><trkpt lat="43.48367544143571" lon="11.550663454487438"><ele>275.6</ele><time>2026-04-26T13:56:21Z</time></trkpt><trkpt lat="43.48367836304528" lon="11.550575127872126"><ele>276.0</ele><time>2026-04-26T13:56:22Z</time></trkpt><trkpt lat="43.48366366832186" lon="11.550480366363491"><ele>276.0</ele><time>2026-04-26T13:56:23Z</time></trkpt><trkpt lat="43.48364734283877" lon="11.550393171143195"><ele>276.0</ele><time>2026-04-26T13:56:24Z</time></trkpt><trkpt lat="43.48362005009975" lon="11.550296339689597"><ele>276.0</ele><time>2026-04-26T13:56:25Z</time></trkpt><trkpt lat="43.483579777092245" lon="11.55019641337804"><ele>276.0</ele><time>2026-04-26T13:56:26Z</time></trkpt><trkpt lat="43.48352687609014" lon="11.550098427825352"><ele>276.0</ele><time>2026-04-26T13:56:27Z</time></trkpt><trkpt lat="43.483463552110344" lon="11.550000321073158"><ele>276.0</ele><time>2026-04-26T13:56:28Z</time></trkpt><trkpt lat="43.4833991865749" lon="11.549910104901295"><ele>276.2</ele><time>2026-04-26T13:56:29Z</time></trkpt><trkpt lat="43.483336605003544" lon="11.549822469553803"><ele>276.40000000000003</ele><time>2026-04-26T13:56:30Z</time></trkpt><trkpt lat="43.48326301365369" lon="11.549729254978114"><ele>276.6</ele><time>2026-04-26T13:56:31Z</time></trkpt><trkpt lat="43.48319177046198" lon="11.54962756731924"><ele>276.8</ele><time>2026-04-26T13:56:32Z</time></trkpt><trkpt lat="43.483124014755795" lon="11.549528236201482"><ele>277.0</ele><time>2026-04-26T13:56:33Z</time></trkpt><trkpt lat="43.483051895033405" lon="11.549422507871897"><ele>277.6</ele><time>2026-04-26T13:56:34Z</time></trkpt><trkpt lat="43.48298289954235" lon="11.549318406607371"><ele>278.2</ele><time>2026-04-26T13:56:35Z</time></trkpt><trkpt lat="43.48292186444445" lon="11.549222180291162"><ele>278.8</ele><time>2026-04-26T13:56:36Z</time></trkpt><trkpt lat="43.482866478837586" lon="11.549129154337704"><ele>279.4</ele><time>2026-04-26T13:56:37Z</time></trkpt><trkpt lat="43.48281010484212" lon="11.549031607992548"><ele>280.0</ele><time>2026-04-26T13:56:38Z</time></trkpt><trkpt lat="43.48275936987459" lon="11.548941979821226"><ele>280.0</ele><time>2026-04-26T13:56:39Z</time></trkpt><trkpt lat="43.48270508230056" lon="11.548844133441188"><ele>280.0</ele><time>2026-04-26T13:56:40Z</time></trkpt><trkpt lat="43.48265075767211" lon="11.54874622031956"><ele>280.0</ele><time>2026-04-26T13:56:41Z</time></trkpt><trkpt lat="43.48260061894728" lon="11.548657047401141"><ele>280.0</ele><time>2026-04-26T13:56:42Z</time></trkpt><trkpt lat="43.48255795683154" lon="11.548579163549501"><ele>280.0</ele><time>2026-04-26T13:56:43Z</time></trkpt><trkpt lat="43.48251958493854" lon="11.548498722524071"><ele>280.0</ele><time>2026-04-26T13:56:44Z</time></trkpt><trkpt lat="43.48246825367771" lon="11.548385386003453"><ele>281.0</ele><time>2026-04-26T13:56:46Z</time></trkpt><trkpt lat="43.48242100435722" lon="11.548284635410925"><ele>282.0</ele><time>2026-04-26T13:56:48.001Z</time></trkpt><trkpt lat="43.48235479525633" lon="11.548262324642492"><ele>283.0</ele><time>2026-04-26T13:56:49.001Z</time></trkpt><trkpt lat="43.482281023190396" lon="11.54827814301574"><ele>284.0</ele><time>2026-04-26T13:56:50.001Z</time></trkpt><trkpt lat="43.482208074980655" lon="11.548298896371676"><ele>285.0</ele><time>2026-04-26T13:56:51.001Z</time></trkpt><trkpt lat="43.482077889695574" lon="11.548288579860259"><ele>286.0</ele><time>2026-04-26T13:56:53.001Z</time></trkpt><trkpt lat="43.482013378573775" lon="11.548254515558146"><ele>286.8333333333333</ele><time>2026-04-26T13:56:54.001Z</time></trkpt><trkpt lat="43.48194380511391" lon="11.548212310501654"><ele>287.66666666666663</ele><time>2026-04-26T13:56:55.001Z</time></trkpt><trkpt lat="43.48187366281141" lon="11.548156842239306"><ele>288.5</ele><time>2026-04-26T13:56:56.001Z</time></trkpt><trkpt lat="43.481800403072555" lon="11.548098124438495"><ele>289.3333333333333</ele><time>2026-04-26T13:56:57.001Z</time></trkpt><trkpt lat="43.4817361559153" lon="11.5480446441649"><ele>290.1666666666667</ele><time>2026-04-26T13:56:58.001Z</time></trkpt><trkpt lat="43.48164502398778" lon="11.547992093501877"><ele>291.0</ele><time>2026-04-26T13:56:59.001Z</time></trkpt><trkpt lat="43.481571171006884" lon="11.547915934682944"><ele>291.6</ele><time>2026-04-26T13:57:00.001Z</time></trkpt><trkpt lat="43.48148449954679" lon="11.54782643393271"><ele>292.20000000000005</ele><time>2026-04-26T13:57:01.001Z</time></trkpt><trkpt lat="43.481394146348826" lon="11.54775444071395"><ele>292.79999999999995</ele><time>2026-04-26T13:57:02.001Z</time></trkpt><trkpt lat="43.481314348994886" lon="11.547691445698474"><ele>293.4</ele><time>2026-04-26T13:57:03.001Z</time></trkpt><trkpt lat="43.48125080333542" lon="11.547658332839397"><ele>294.0</ele><time>2026-04-26T13:57:04.001Z</time></trkpt><trkpt lat="43.481176313116634" lon="11.547566350782095"><ele>294.0</ele><time>2026-04-26T13:57:06.001Z</time></trkpt><trkpt lat="43.481126224765084" lon="11.547506795129724"><ele>294.0</ele><time>2026-04-26T13:57:39Z</time></trkpt><trkpt lat="43.481071796802176" lon="11.547427947180438"><ele>294.0</ele><time>2026-04-26T13:57:41Z</time></trkpt><trkpt lat="43.48100299180554" lon="11.547308509998834"><ele>294.0</ele><time>2026-04-26T13:57:43Z</time></trkpt><trkpt lat="43.48095766208536" lon="11.547222187239548"><ele>294.0</ele><time>2026-04-26T13:57:44Z</time></trkpt><trkpt lat="43.48090952757559" lon="11.547131550228181"><ele>294.0</ele><time>2026-04-26T13:57:45Z</time></trkpt><trkpt lat="43.48086150158804" lon="11.547042646919836"><ele>295.5</ele><time>2026-04-26T13:57:46Z</time></trkpt><trkpt lat="43.480819719368604" lon="11.546962526835271"><ele>297.0</ele><time>2026-04-26T13:57:47Z</time></trkpt><trkpt lat="43.48077325922523" lon="11.54687286504673"><ele>298.5</ele><time>2026-04-26T13:57:48Z</time></trkpt><trkpt lat="43.48072852962737" lon="11.546782943194486"><ele>300.0</ele><time>2026-04-26T13:57:49Z</time></trkpt><trkpt lat="43.480681356934184" lon="11.546687575209818"><ele>301.5</ele><time>2026-04-26T13:57:50Z</time></trkpt><trkpt lat="43.480622768410726" lon="11.546595802907543"><ele>303.0</ele><time>2026-04-26T13:57:51Z</time></trkpt><trkpt lat="43.48059455182921" lon="11.546518104062168"><ele>303.0</ele><time>2026-04-26T13:57:52Z</time></trkpt><trkpt lat="43.480570062071536" lon="11.546434109799833"><ele>303.0</ele><time>2026-04-26T13:57:53Z</time></trkpt><trkpt lat="43.48055350375242" lon="11.546347499908181"><ele>303.0</ele><time>2026-04-26T13:57:54Z</time></trkpt><trkpt lat="43.480560580231035" lon="11.546241831770702"><ele>303.0</ele><time>2026-04-26T13:57:55Z</time></trkpt><trkpt lat="43.480542742587424" lon="11.54614193757665"><ele>303.0</ele><time>2026-04-26T13:57:56Z</time></trkpt><trkpt lat="43.48054568053046" lon="11.546038186244589"><ele>303.0</ele><time>2026-04-26T13:57:57Z</time></trkpt><trkpt lat="43.48053963917117" lon="11.545934368661442"><ele>303.0</ele><time>2026-04-26T13:57:58Z</time></trkpt><trkpt lat="43.480514693541046" lon="11.545845246311606"><ele>304.3333333333333</ele><time>2026-04-26T13:57:59Z</time></trkpt><trkpt lat="43.480515352348334" lon="11.545721659684745"><ele>305.6666666666667</ele><time>2026-04-26T13:58:00Z</time></trkpt><trkpt lat="43.480509001470026" lon="11.545632523448498"><ele>307.0</ele><time>2026-04-26T13:58:01Z</time></trkpt><trkpt lat="43.48050686384086" lon="11.545542866779641"><ele>308.33333333333337</ele><time>2026-04-26T13:58:02Z</time></trkpt><trkpt lat="43.480556665704" lon="11.545423751003602"><ele>309.6666666666667</ele><time>2026-04-26T13:58:04Z</time></trkpt><trkpt lat="43.480629311432864" lon="11.545367970186199"><ele>311.0</ele><time>2026-04-26T13:58:06Z</time></trkpt><trkpt lat="43.480693212441544" lon="11.545401677286748"><ele>311.0</ele><time>2026-04-26T13:58:07Z</time></trkpt><trkpt lat="43.480750049134514" lon="11.545465275438048"><ele>311.0</ele><time>2026-04-26T13:58:08Z</time></trkpt><trkpt lat="43.48079691526773" lon="11.545546384553557"><ele>311.0</ele><time>2026-04-26T13:58:09Z</time></trkpt><trkpt lat="43.48083703463369" lon="11.545641024761931"><ele>311.0</ele><time>2026-04-26T13:58:10Z</time></trkpt><trkpt lat="43.48088237839009" lon="11.545739305418323"><ele>311.0</ele><time>2026-04-26T13:58:11Z</time></trkpt><trkpt lat="43.48093398301829" lon="11.545793170711187"><ele>311.0</ele><time>2026-04-26T13:58:12Z</time></trkpt><trkpt lat="43.48103603337464" lon="11.545878307505845"><ele>311.0</ele><time>2026-04-26T13:58:14Z</time></trkpt><trkpt lat="43.48116348018847" lon="11.545951933712225"><ele>311.0</ele><time>2026-04-26T13:58:16Z</time></trkpt><trkpt lat="43.48125236245123" lon="11.545949411812966"><ele>311.0</ele><time>2026-04-26T13:58:17Z</time></trkpt><trkpt lat="43.48135362676796" lon="11.545954476624907"><ele>311.0</ele><time>2026-04-26T13:58:19Z</time></trkpt><trkpt lat="43.48144401291541" lon="11.54590465966504"><ele>311.0</ele><time>2026-04-26T13:58:21Z</time></trkpt><trkpt lat="43.48152619740883" lon="11.545787845388903"><ele>312.8</ele><time>2026-04-26T13:58:23Z</time></trkpt><trkpt lat="43.48150803954627" lon="11.545689170758578"><ele>314.6</ele><time>2026-04-26T13:58:24Z</time></trkpt><trkpt lat="43.48151044939518" lon="11.545580833883074"><ele>316.4</ele><time>2026-04-26T13:58:25Z</time></trkpt><trkpt lat="43.48148206026541" lon="11.545495070784037"><ele>318.2</ele><time>2026-04-26T13:58:26Z</time></trkpt><trkpt lat="43.481413391018265" lon="11.545317996247288"><ele>320.0</ele><time>2026-04-26T13:58:28Z</time></trkpt><trkpt lat="43.48136203772635" lon="11.545198604652109"><ele>319.8</ele><time>2026-04-26T13:58:29Z</time></trkpt><trkpt lat="43.48133594151969" lon="11.545117367947485"><ele>319.6</ele><time>2026-04-26T13:58:30.001Z</time></trkpt><trkpt lat="43.481289323619954" lon="11.544933519249719"><ele>319.4</ele><time>2026-04-26T13:58:32.001Z</time></trkpt><trkpt lat="43.48124547654771" lon="11.544817077128736"><ele>319.2</ele><time>2026-04-26T13:58:33.001Z</time></trkpt><trkpt lat="43.481215040814696" lon="11.544693634252877"><ele>319.0</ele><time>2026-04-26T13:58:34.001Z</time></trkpt><trkpt lat="43.481176963312016" lon="11.544586808107686"><ele>320.2857142857143</ele><time>2026-04-26T13:58:35.001Z</time></trkpt><trkpt lat="43.48114754515622" lon="11.544503014135275"><ele>321.57142857142856</ele><time>2026-04-26T13:58:36.001Z</time></trkpt><trkpt lat="43.4811337371053" lon="11.544391530755421"><ele>322.85714285714283</ele><time>2026-04-26T13:58:37.001Z</time></trkpt><trkpt lat="43.48111120504875" lon="11.544295382914195"><ele>324.1428571428571</ele><time>2026-04-26T13:58:38.001Z</time></trkpt><trkpt lat="43.481090970200654" lon="11.544199834390712"><ele>325.42857142857144</ele><time>2026-04-26T13:58:39.001Z</time></trkpt><trkpt lat="43.481070248894994" lon="11.544087228751804"><ele>326.71428571428567</ele><time>2026-04-26T13:58:40.001Z</time></trkpt><trkpt lat="43.481058990075184" lon="11.543995996466597"><ele>328.0</ele><time>2026-04-26T13:58:41.001Z</time></trkpt><trkpt lat="43.48105482662411" lon="11.54381710980904"><ele>328.0</ele><time>2026-04-26T13:58:43.001Z</time></trkpt><trkpt lat="43.48106123184009" lon="11.54371399729415"><ele>328.0</ele><time>2026-04-26T13:58:44.001Z</time></trkpt><trkpt lat="43.4810681640149" lon="11.543600772543092"><ele>328.0</ele><time>2026-04-26T13:58:45.001Z</time></trkpt><trkpt lat="43.48109085451408" lon="11.543427276644602"><ele>328.0</ele><time>2026-04-26T13:58:47.001Z</time></trkpt><trkpt lat="43.48113851484912" lon="11.543258574596035"><ele>328.0</ele><time>2026-04-26T13:58:49.001Z</time></trkpt><trkpt lat="43.48117352488656" lon="11.543178106551833"><ele>329.16666666666663</ele><time>2026-04-26T13:58:50.001Z</time></trkpt><trkpt lat="43.48120865071446" lon="11.543096883514584"><ele>330.3333333333333</ele><time>2026-04-26T13:58:51.001Z</time></trkpt><trkpt lat="43.48125324673875" lon="11.543035499035469"><ele>331.5</ele><time>2026-04-26T13:58:52.001Z</time></trkpt><trkpt lat="43.48130997404797" lon="11.542990345730184"><ele>332.6666666666667</ele><time>2026-04-26T13:58:53.001Z</time></trkpt><trkpt lat="43.48141592622006" lon="11.542883565586163"><ele>333.83333333333337</ele><time>2026-04-26T13:58:55.001Z</time></trkpt><trkpt lat="43.48148226815828" lon="11.542861108955988"><ele>335.0</ele><time>2026-04-26T13:58:56.001Z</time></trkpt><trkpt lat="43.48156251663268" lon="11.542852202890401"><ele>338.5</ele><time>2026-04-26T13:58:57.001Z</time></trkpt><trkpt lat="43.481639773195155" lon="11.542833693255568"><ele>342.0</ele><time>2026-04-26T13:58:58.001Z</time></trkpt><trkpt lat="43.48170625029437" lon="11.542804680491876"><ele>345.5</ele><time>2026-04-26T13:58:59.001Z</time></trkpt><trkpt lat="43.48179113633533" lon="11.54274253289792"><ele>349.0</ele><time>2026-04-26T13:59:01.001Z</time></trkpt><trkpt lat="43.481817277764016" lon="11.542633424752752"><ele>352.5</ele><time>2026-04-26T13:59:03.001Z</time></trkpt><trkpt lat="43.481785611025295" lon="11.542509981326445"><ele>356.0</ele><time>2026-04-26T13:59:15.001Z</time></trkpt><trkpt lat="43.48174027356538" lon="11.542355905677633"><ele>356.0</ele><time>2026-04-26T13:59:17.001Z</time></trkpt><trkpt lat="43.48167539884372" lon="11.542216877969551"><ele>356.0</ele><time>2026-04-26T13:59:19.001Z</time></trkpt><trkpt lat="43.4816358563451" lon="11.54212600864298"><ele>356.0</ele><time>2026-04-26T13:59:20.001Z</time></trkpt><trkpt lat="43.48160491212826" lon="11.542039632513754"><ele>356.0</ele><time>2026-04-26T13:59:22.001Z</time></trkpt><trkpt lat="43.48157878128534" lon="11.541942924559388"><ele>356.0</ele><time>2026-04-26T13:59:24.001Z</time></trkpt><trkpt lat="43.481566577405985" lon="11.541855491156086"><ele>356.0</ele><time>2026-04-26T13:59:28.001Z</time></trkpt><trkpt lat="43.48155077504529" lon="11.5417552365543"><ele>358.0</ele><time>2026-04-26T14:04:41.002Z</time></trkpt><trkpt lat="43.48158247292366" lon="11.541604241923404"><ele>360.0</ele><time>2026-04-26T14:04:43.002Z</time></trkpt><trkpt lat="43.48165464225065" lon="11.541512261096187"><ele>362.0</ele><time>2026-04-26T14:04:45.002Z</time></trkpt><trkpt lat="43.48172757576284" lon="11.541388840231008"><ele>364.0</ele><time>2026-04-26T14:04:47.002Z</time></trkpt><trkpt lat="43.48184361598282" lon="11.541318208793966"><ele>364.0</ele><time>2026-04-26T14:04:49.002Z</time></trkpt><trkpt lat="43.481902955845015" lon="11.54127956179995"><ele>364.0</ele><time>2026-04-26T14:04:50.002Z</time></trkpt><trkpt lat="43.48198793500323" lon="11.541175679339828"><ele>364.0</ele><time>2026-04-26T14:04:52.002Z</time></trkpt><trkpt lat="43.482083566702" lon="11.541094989396171"><ele>364.0</ele><time>2026-04-26T14:04:54.002Z</time></trkpt><trkpt lat="43.48218903578579" lon="11.54101778966001"><ele>364.0</ele><time>2026-04-26T14:04:56.002Z</time></trkpt><trkpt lat="43.48225522059469" lon="11.54097550161159"><ele>366.5</ele><time>2026-04-26T14:04:57.002Z</time></trkpt><trkpt lat="43.482313133086436" lon="11.540921087405764"><ele>369.0</ele><time>2026-04-26T14:04:58.002Z</time></trkpt><trkpt lat="43.48237940795528" lon="11.54088106131396"><ele>371.5</ele><time>2026-04-26T14:04:59.002Z</time></trkpt><trkpt lat="43.48245280402673" lon="11.540833111761332"><ele>374.0</ele><time>2026-04-26T14:05:00.002Z</time></trkpt><trkpt lat="43.482534652132955" lon="11.540820375578896"><ele>376.5</ele><time>2026-04-26T14:05:01.002Z</time></trkpt><trkpt lat="43.482644602812904" lon="11.540765813096462"><ele>379.0</ele><time>2026-04-26T14:05:03.002Z</time></trkpt><trkpt lat="43.482737763648146" lon="11.540685463968728"><ele>379.0</ele><time>2026-04-26T14:05:05.002Z</time></trkpt><trkpt lat="43.48281142819677" lon="11.540563784233594"><ele>379.0</ele><time>2026-04-26T14:05:07.002Z</time></trkpt><trkpt lat="43.48282864343262" lon="11.540457211549093"><ele>379.0</ele><time>2026-04-26T14:05:09.002Z</time></trkpt><trkpt lat="43.4828477130807" lon="11.540348124842431"><ele>379.0</ele><time>2026-04-26T14:05:18.002Z</time></trkpt><trkpt lat="43.482867913077165" lon="11.540232572010922"><ele>379.0</ele><time>2026-04-26T14:05:20.002Z</time></trkpt><trkpt lat="43.482668155393945" lon="11.540107193057736"><ele>380.4</ele><time>2026-04-26T14:05:21.002Z</time></trkpt><trkpt lat="43.48261669539776" lon="11.540000468116794"><ele>381.79999999999995</ele><time>2026-04-26T14:05:23.002Z</time></trkpt><trkpt lat="43.48254461562002" lon="11.539868663227821"><ele>383.20000000000005</ele><time>2026-04-26T14:05:25.002Z</time></trkpt><trkpt lat="43.4824768292299" lon="11.539794622439953"><ele>384.6</ele><time>2026-04-26T14:05:27.002Z</time></trkpt><trkpt lat="43.482398253775166" lon="11.539735221334093"><ele>386.0</ele><time>2026-04-26T14:05:29.002Z</time></trkpt><trkpt lat="43.482298408949774" lon="11.539663037396043"><ele>386.0</ele><time>2026-04-26T14:05:31.002Z</time></trkpt><trkpt lat="43.48220138020587" lon="11.53958928671628"><ele>386.0</ele><time>2026-04-26T14:05:33.002Z</time></trkpt><trkpt lat="43.48207247135671" lon="11.539537933724333"><ele>386.0</ele><time>2026-04-26T14:05:35.002Z</time></trkpt><trkpt lat="43.4819528301034" lon="11.539477546845267"><ele>386.0</ele><time>2026-04-26T14:05:37.002Z</time></trkpt><trkpt lat="43.481892633407796" lon="11.539435687787796"><ele>386.0</ele><time>2026-04-26T14:05:38.002Z</time></trkpt><trkpt lat="43.48183612945242" lon="11.539390407965394"><ele>387.5714285714286</ele><time>2026-04-26T14:05:39.002Z</time></trkpt><trkpt lat="43.481776129249894" lon="11.539343353283034"><ele>389.14285714285717</ele><time>2026-04-26T14:05:40.002Z</time></trkpt><trkpt lat="43.48172234276174" lon="11.539284932853331"><ele>390.7142857142857</ele><time>2026-04-26T14:05:41.002Z</time></trkpt><trkpt lat="43.4816692906796" lon="11.539214297768051"><ele>392.28571428571433</ele><time>2026-04-26T14:05:42.002Z</time></trkpt><trkpt lat="43.48161191458012" lon="11.539153532159975"><ele>393.85714285714283</ele><time>2026-04-26T14:05:43.002Z</time></trkpt><trkpt lat="43.4815514948034" lon="11.539104298524867"><ele>395.42857142857144</ele><time>2026-04-26T14:05:44.002Z</time></trkpt><trkpt lat="43.48146156817627" lon="11.539060329025025"><ele>397.0</ele><time>2026-04-26T14:05:45.002Z</time></trkpt><trkpt lat="43.48136084403831" lon="11.539018352404243"><ele>397.00000000000006</ele><time>2026-04-26T14:05:46.002Z</time></trkpt><trkpt lat="43.481289341705306" lon="11.538983987395186"><ele>397.0</ele><time>2026-04-26T14:05:47.002Z</time></trkpt><trkpt lat="43.48118754152" lon="11.538873226089201"><ele>397.0</ele><time>2026-04-26T14:05:49.002Z</time></trkpt><trkpt lat="43.48114153255968" lon="11.538794090869965"><ele>397.0</ele><time>2026-04-26T14:05:50.002Z</time></trkpt><trkpt lat="43.481108617715705" lon="11.538707152420836"><ele>397.00000000000006</ele><time>2026-04-26T14:05:51.002Z</time></trkpt><trkpt lat="43.4811042434869" lon="11.538613390264478"><ele>397.0</ele><time>2026-04-26T14:05:52.002Z</time></trkpt><trkpt lat="43.48110422629383" lon="11.538503251508496"><ele>397.83333333333337</ele><time>2026-04-26T14:05:53.002Z</time></trkpt><trkpt lat="43.481095012023005" lon="11.538389047060122"><ele>398.6666666666667</ele><time>2026-04-26T14:05:54.002Z</time></trkpt><trkpt lat="43.481089980261906" lon="11.538267145550524"><ele>399.5</ele><time>2026-04-26T14:05:55.002Z</time></trkpt><trkpt lat="43.481078965439345" lon="11.538151278573288"><ele>400.33333333333337</ele><time>2026-04-26T14:05:56.002Z</time></trkpt><trkpt lat="43.48105558826947" lon="11.538050761718349"><ele>401.1666666666667</ele><time>2026-04-26T14:05:57.002Z</time></trkpt><trkpt lat="43.481006159525975" lon="11.537914947054544"><ele>402.0</ele><time>2026-04-26T14:05:58.002Z</time></trkpt><trkpt lat="43.48095096020409" lon="11.537775805549618"><ele>402.0</ele><time>2026-04-26T14:05:59.002Z</time></trkpt><trkpt lat="43.480914386440595" lon="11.537670647134595"><ele>402.0</ele><time>2026-04-26T14:06:00.002Z</time></trkpt><trkpt lat="43.48088720752078" lon="11.53756613223813"><ele>402.0</ele><time>2026-04-26T14:06:01.002Z</time></trkpt><trkpt lat="43.48086077104781" lon="11.537457914483042"><ele>402.0</ele><time>2026-04-26T14:06:02.001Z</time></trkpt><trkpt lat="43.4808379178544" lon="11.53735313659709"><ele>402.0</ele><time>2026-04-26T14:06:03.001Z</time></trkpt><trkpt lat="43.48080677334689" lon="11.537251147661959"><ele>402.0</ele><time>2026-04-26T14:06:04.001Z</time></trkpt><trkpt lat="43.48076902528973" lon="11.53716531650907"><ele>402.0</ele><time>2026-04-26T14:06:05.001Z</time></trkpt><trkpt lat="43.48071858644778" lon="11.537064703210289"><ele>402.0</ele><time>2026-04-26T14:06:06.001Z</time></trkpt><trkpt lat="43.4806710003987" lon="11.536964858508853"><ele>402.0</ele><time>2026-04-26T14:06:07.001Z</time></trkpt><trkpt lat="43.48062221554109" lon="11.536855439683979"><ele>402.0</ele><time>2026-04-26T14:06:08.001Z</time></trkpt><trkpt lat="43.480587611090506" lon="11.536752255011391"><ele>402.0</ele><time>2026-04-26T14:06:09.001Z</time></trkpt><trkpt lat="43.48055986935025" lon="11.5366468832439"><ele>402.0</ele><time>2026-04-26T14:06:10.001Z</time></trkpt><trkpt lat="43.48051378299892" lon="11.536532797301518"><ele>402.8</ele><time>2026-04-26T14:06:11.001Z</time></trkpt><trkpt lat="43.48045916645268" lon="11.536402768524447"><ele>403.6</ele><time>2026-04-26T14:06:12.001Z</time></trkpt><trkpt lat="43.48042183300477" lon="11.536314506633719"><ele>404.40000000000003</ele><time>2026-04-26T14:06:13.001Z</time></trkpt><trkpt lat="43.48038070317188" lon="11.536172813011214"><ele>405.20000000000005</ele><time>2026-04-26T14:06:15.001Z</time></trkpt><trkpt lat="43.48037531860591" lon="11.536073492581593"><ele>406.0</ele><time>2026-04-26T14:06:19.001Z</time></trkpt><trkpt lat="43.48031728031145" lon="11.535988640599012"><ele>408.0</ele><time>2026-04-26T14:06:48.001Z</time></trkpt><trkpt lat="43.4802549958521" lon="11.535912389554678"><ele>410.0</ele><time>2026-04-26T14:06:50.001Z</time></trkpt><trkpt lat="43.480184814676555" lon="11.535794129584367"><ele>412.0</ele><time>2026-04-26T14:06:52.001Z</time></trkpt><trkpt lat="43.480107422063995" lon="11.535683087283715"><ele>414.0</ele><time>2026-04-26T14:06:54.001Z</time></trkpt><trkpt lat="43.48001471953118" lon="11.535606926073932"><ele>416.0</ele><time>2026-04-26T14:06:56.001Z</time></trkpt><trkpt lat="43.479951126193214" lon="11.535579677266371"><ele>416.0</ele><time>2026-04-26T14:06:57.001Z</time></trkpt><trkpt lat="43.47983192059142" lon="11.535597994479136"><ele>416.0</ele><time>2026-04-26T14:06:59.001Z</time></trkpt><trkpt lat="43.47972995785961" lon="11.535664609876852"><ele>416.0</ele><time>2026-04-26T14:07:01.001Z</time></trkpt><trkpt lat="43.47961499169571" lon="11.5357217958114"><ele>416.0</ele><time>2026-04-26T14:07:03.001Z</time></trkpt><trkpt lat="43.47955384050964" lon="11.535751810750336"><ele>416.0</ele><time>2026-04-26T14:07:04.001Z</time></trkpt><trkpt lat="43.47947798656366" lon="11.535778103982153"><ele>419.8</ele><time>2026-04-26T14:07:05.001Z</time></trkpt><trkpt lat="43.47937382168833" lon="11.535829355964662"><ele>423.6</ele><time>2026-04-26T14:07:07.001Z</time></trkpt><trkpt lat="43.479264701164645" lon="11.535863807448726"><ele>427.4</ele><time>2026-04-26T14:07:09.001Z</time></trkpt><trkpt lat="43.47919104502825" lon="11.535859803956098"><ele>431.2</ele><time>2026-04-26T14:07:10.001Z</time></trkpt><trkpt lat="43.479103209562936" lon="11.5358634320504"><ele>435.0</ele><time>2026-04-26T14:07:11.001Z</time></trkpt><trkpt lat="43.47902273225972" lon="11.535871192177638"><ele>435.0</ele><time>2026-04-26T14:07:12.001Z</time></trkpt><trkpt lat="43.47895444320066" lon="11.535884178931182"><ele>435.0</ele><time>2026-04-26T14:07:13.001Z</time></trkpt><trkpt lat="43.47883469730576" lon="11.535863754531361"><ele>435.0</ele><time>2026-04-26T14:07:15.001Z</time></trkpt><trkpt lat="43.47877332673575" lon="11.535837588168118"><ele>435.0</ele><time>2026-04-26T14:07:16.001Z</time></trkpt><trkpt lat="43.478700197728095" lon="11.535802622040068"><ele>435.0</ele><time>2026-04-26T14:07:17.001Z</time></trkpt><trkpt lat="43.47862082868321" lon="11.535760602432463"><ele>435.0</ele><time>2026-04-26T14:07:18.001Z</time></trkpt><trkpt lat="43.478552030254946" lon="11.53571973924219"><ele>436.2</ele><time>2026-04-26T14:07:19.001Z</time></trkpt><trkpt lat="43.47843240512525" lon="11.535672011785694"><ele>437.4</ele><time>2026-04-26T14:07:21.001Z</time></trkpt><trkpt lat="43.478330638262335" lon="11.535604521804782"><ele>438.6</ele><time>2026-04-26T14:07:23.001Z</time></trkpt><trkpt lat="43.47821854581609" lon="11.535540687842627"><ele>439.8</ele><time>2026-04-26T14:07:25.001Z</time></trkpt><trkpt lat="43.478164591305095" lon="11.53549046744376"><ele>441.0</ele><time>2026-04-26T14:07:26.001Z</time></trkpt><trkpt lat="43.478110053729516" lon="11.535434644996515"><ele>444.8</ele><time>2026-04-26T14:07:27.001Z</time></trkpt><trkpt lat="43.478055499454655" lon="11.535375367584411"><ele>448.6</ele><time>2026-04-26T14:07:28.001Z</time></trkpt><trkpt lat="43.47795789812162" lon="11.535266454532731"><ele>452.4</ele><time>2026-04-26T14:07:30.001Z</time></trkpt><trkpt lat="43.47784860630073" lon="11.53521506762558"><ele>456.2</ele><time>2026-04-26T14:07:32.001Z</time></trkpt><trkpt lat="43.47776610065029" lon="11.535221128778106"><ele>460.0</ele><time>2026-04-26T14:07:34.001Z</time></trkpt><trkpt lat="43.47770339932903" lon="11.535260567384835"><ele>460.33333333333337</ele><time>2026-04-26T14:07:35.001Z</time></trkpt><trkpt lat="43.477642567251806" lon="11.535299345066056"><ele>460.6666666666667</ele><time>2026-04-26T14:07:36.001Z</time></trkpt><trkpt lat="43.477584317095285" lon="11.535351034038465"><ele>461.0</ele><time>2026-04-26T14:07:37.001Z</time></trkpt><trkpt lat="43.47753383156295" lon="11.535420468769114"><ele>461.33333333333337</ele><time>2026-04-26T14:07:38.001Z</time></trkpt><trkpt lat="43.47746249864129" lon="11.535572986444944"><ele>461.6666666666667</ele><time>2026-04-26T14:07:40.001Z</time></trkpt><trkpt lat="43.477429850959254" lon="11.535663054560493"><ele>462.0</ele><time>2026-04-26T14:07:41.001Z</time></trkpt><trkpt lat="43.47741736943677" lon="11.53575281196646"><ele>462.0</ele><time>2026-04-26T14:07:42.001Z</time></trkpt><trkpt lat="43.47738549951371" lon="11.535836679295217"><ele>462.0</ele><time>2026-04-26T14:07:43.001Z</time></trkpt><trkpt lat="43.47734710398587" lon="11.535915130183538"><ele>462.0</ele><time>2026-04-26T14:07:44.001Z</time></trkpt><trkpt lat="43.47729839820882" lon="11.535978182783973"><ele>462.0</ele><time>2026-04-26T14:07:45.001Z</time></trkpt><trkpt lat="43.477239575800134" lon="11.536039540283863"><ele>462.0</ele><time>2026-04-26T14:07:46.001Z</time></trkpt><trkpt lat="43.47718918111081" lon="11.536108648441358"><ele>462.0</ele><time>2026-04-26T14:07:47.001Z</time></trkpt><trkpt lat="43.477134055816855" lon="11.536163897523886"><ele>462.0</ele><time>2026-04-26T14:07:48.001Z</time></trkpt><trkpt lat="43.47707264549209" lon="11.536195477174509"><ele>463.2857142857143</ele><time>2026-04-26T14:07:49.001Z</time></trkpt><trkpt lat="43.477009793057405" lon="11.536228480254197"><ele>464.57142857142856</ele><time>2026-04-26T14:07:50.001Z</time></trkpt><trkpt lat="43.47694733550375" lon="11.536267637908196"><ele>465.8571428571429</ele><time>2026-04-26T14:07:51.001Z</time></trkpt><trkpt lat="43.47688160872983" lon="11.536306834008174"><ele>467.14285714285717</ele><time>2026-04-26T14:07:52.001Z</time></trkpt><trkpt lat="43.47681075329744" lon="11.536345822333361"><ele>468.42857142857144</ele><time>2026-04-26T14:07:53.001Z</time></trkpt><trkpt lat="43.476734476888744" lon="11.536367745766958"><ele>469.7142857142858</ele><time>2026-04-26T14:07:54.001Z</time></trkpt><trkpt lat="43.47667207559431" lon="11.536384039970558"><ele>471.00000000000006</ele><time>2026-04-26T14:07:55.001Z</time></trkpt><trkpt lat="43.47654475976986" lon="11.536393453221335"><ele>471.0</ele><time>2026-04-26T14:07:57.001Z</time></trkpt><trkpt lat="43.476478813463" lon="11.536388638130884"><ele>471.0</ele><time>2026-04-26T14:07:58.001Z</time></trkpt><trkpt lat="43.476373812089555" lon="11.53635211913474"><ele>471.0</ele><time>2026-04-26T14:08:00.001Z</time></trkpt><trkpt lat="43.47624894371887" lon="11.536316247253316"><ele>471.0</ele><time>2026-04-26T14:08:02.001Z</time></trkpt><trkpt lat="43.476178610334756" lon="11.536296631701738"><ele>471.0</ele><time>2026-04-26T14:08:03.001Z</time></trkpt><trkpt lat="43.47612130116744" lon="11.536252284378179"><ele>471.0</ele><time>2026-04-26T14:08:04.001Z</time></trkpt><trkpt lat="43.47604721882908" lon="11.536131132138618"><ele>474.4</ele><time>2026-04-26T14:08:06.001Z</time></trkpt><trkpt lat="43.47596918739189" lon="11.536009879139554"><ele>477.8</ele><time>2026-04-26T14:08:08Z</time></trkpt><trkpt lat="43.47588618225802" lon="11.535922490512485"><ele>481.19999999999993</ele><time>2026-04-26T14:08:10Z</time></trkpt><trkpt lat="43.47578817606472" lon="11.535857193287901"><ele>484.59999999999997</ele><time>2026-04-26T14:08:12Z</time></trkpt><trkpt lat="43.47570674259453" lon="11.535843997689394"><ele>488.0</ele><time>2026-04-26T14:18:58.001Z</time></trkpt><trkpt lat="43.475621289589476" lon="11.535907758601054"><ele>488.0</ele><time>2026-04-26T14:19:01.001Z</time></trkpt><trkpt lat="43.47553370673813" lon="11.535947363590846"><ele>487.99999999999994</ele><time>2026-04-26T14:19:04.001Z</time></trkpt><trkpt lat="43.47544628830879" lon="11.535981881836085"><ele>487.99999999999994</ele><time>2026-04-26T14:19:06.001Z</time></trkpt><trkpt lat="43.47536346016949" lon="11.536010770892762"><ele>488.0</ele><time>2026-04-26T14:19:08.001Z</time></trkpt><trkpt lat="43.47528615005447" lon="11.53606064868584"><ele>488.0</ele><time>2026-04-26T14:19:10.001Z</time></trkpt><trkpt lat="43.4751908405935" lon="11.536107548850387"><ele>488.59999999999997</ele><time>2026-04-26T14:19:12.001Z</time></trkpt><trkpt lat="43.47509564372318" lon="11.536166087174122"><ele>489.19999999999993</ele><time>2026-04-26T14:19:14.001Z</time></trkpt><trkpt lat="43.47501864461331" lon="11.536221433388471"><ele>489.8</ele><time>2026-04-26T14:19:16.001Z</time></trkpt><trkpt lat="43.474925334897584" lon="11.536260654883854"><ele>490.4</ele><time>2026-04-26T14:19:18.001Z</time></trkpt><trkpt lat="43.47483341183607" lon="11.536316071278604"><ele>491.0</ele><time>2026-04-26T14:19:20.001Z</time></trkpt><trkpt lat="43.47476662427572" lon="11.536356688113662"><ele>492.3333333333333</ele><time>2026-04-26T14:19:22.001Z</time></trkpt><trkpt lat="43.47469286494744" lon="11.53638648753572"><ele>493.66666666666663</ele><time>2026-04-26T14:19:24.001Z</time></trkpt><trkpt lat="43.47462036215445" lon="11.53641303286449"><ele>495.0</ele><time>2026-04-26T14:19:26.001Z</time></trkpt><trkpt lat="43.47455393782338" lon="11.536446644313738"><ele>496.33333333333337</ele><time>2026-04-26T14:19:28.001Z</time></trkpt><trkpt lat="43.47447365407756" lon="11.536494622126295"><ele>497.6666666666667</ele><time>2026-04-26T14:19:30.001Z</time></trkpt><trkpt lat="43.47439545206776" lon="11.53653045679021"><ele>499.0</ele><time>2026-04-26T14:19:32.001Z</time></trkpt><trkpt lat="43.474322981021665" lon="11.536532611374586"><ele>499.00000000000006</ele><time>2026-04-26T14:19:34.001Z</time></trkpt><trkpt lat="43.47424669633427" lon="11.536512174411111"><ele>499.0</ele><time>2026-04-26T14:19:36.001Z</time></trkpt><trkpt lat="43.4741659962378" lon="11.53646251791567"><ele>499.0</ele><time>2026-04-26T14:19:38.001Z</time></trkpt><trkpt lat="43.47411598603376" lon="11.5363684462345"><ele>499.0</ele><time>2026-04-26T14:20:07.001Z</time></trkpt><trkpt lat="43.474083964899144" lon="11.536293524858522"><ele>499.00000000000006</ele><time>2026-04-26T14:20:10.001Z</time></trkpt><trkpt lat="43.47401921309" lon="11.536187817382105"><ele>499.0</ele><time>2026-04-26T14:40:59Z</time></trkpt><trkpt lat="43.47395267446455" lon="11.536096206100241"><ele>499.2</ele><time>2026-04-26T14:41:02Z</time></trkpt><trkpt lat="43.473880138370106" lon="11.535983607401532"><ele>499.4</ele><time>2026-04-26T14:41:04Z</time></trkpt><trkpt lat="43.47381828346198" lon="11.535923772451419"><ele>499.6</ele><time>2026-04-26T14:41:06Z</time></trkpt><trkpt lat="43.47374844768442" lon="11.535824261724859"><ele>499.8</ele><time>2026-04-26T14:41:08Z</time></trkpt><trkpt lat="43.473682517893366" lon="11.535726859633234"><ele>500.0</ele><time>2026-04-26T14:41:10Z</time></trkpt><trkpt lat="43.473621621436266" lon="11.535615368089532"><ele>499.99999999999994</ele><time>2026-04-26T14:41:12Z</time></trkpt><trkpt lat="43.47358148803024" lon="11.535513863060793"><ele>500.0</ele><time>2026-04-26T14:41:14Z</time></trkpt><trkpt lat="43.473533943276486" lon="11.535417823465028"><ele>500.0</ele><time>2026-04-26T14:41:16Z</time></trkpt><trkpt lat="43.473498534430234" lon="11.535311444918326"><ele>500.0</ele><time>2026-04-26T14:41:18Z</time></trkpt><trkpt lat="43.473464854729805" lon="11.535210073194262"><ele>499.99999999999994</ele><time>2026-04-26T14:41:20Z</time></trkpt><trkpt lat="43.47345805629808" lon="11.535103887803217"><ele>500.0</ele><time>2026-04-26T14:41:22Z</time></trkpt><trkpt lat="43.473446238812585" lon="11.535009425475005"><ele>501.3333333333333</ele><time>2026-04-26T14:41:24Z</time></trkpt><trkpt lat="43.47342346453572" lon="11.534919570217902"><ele>502.66666666666663</ele><time>2026-04-26T14:41:26Z</time></trkpt><trkpt lat="43.473427111272024" lon="11.534831187967537"><ele>504.0</ele><time>2026-04-26T14:41:28Z</time></trkpt><trkpt lat="43.47348167627507" lon="11.534779381442247"><ele>505.33333333333337</ele><time>2026-04-26T14:41:31Z</time></trkpt><trkpt lat="43.47356013025417" lon="11.534808726501762"><ele>506.6666666666667</ele><time>2026-04-26T14:41:34Z</time></trkpt><trkpt lat="43.47361177525039" lon="11.534915462245527"><ele>508.0</ele><time>2026-04-26T14:41:37Z</time></trkpt><trkpt lat="43.473694343124556" lon="11.534978644561548"><ele>506.00000000000006</ele><time>2026-04-26T14:41:40Z</time></trkpt><trkpt lat="43.47377765248648" lon="11.535006062966973"><ele>504.0</ele><time>2026-04-26T14:41:43Z</time></trkpt><trkpt lat="43.47384976830696" lon="11.535025641792856"><ele>502.0</ele><time>2026-04-26T14:41:45Z</time></trkpt><trkpt lat="43.47392408971139" lon="11.535030764095742"><ele>500.0</ele><time>2026-04-26T14:41:47Z</time></trkpt><trkpt lat="43.47400194015506" lon="11.535024915814612"><ele>498.00000000000006</ele><time>2026-04-26T14:41:49Z</time></trkpt><trkpt lat="43.474072655285106" lon="11.534971824401982"><ele>496.0</ele><time>2026-04-26T14:41:51Z</time></trkpt><trkpt lat="43.474108245898215" lon="11.534861521187052"><ele>496.00000000000006</ele><time>2026-04-26T14:41:53Z</time></trkpt><trkpt lat="43.47411850273572" lon="11.534750849073236"><ele>496.0</ele><time>2026-04-26T14:41:55Z</time></trkpt><trkpt lat="43.47410198813066" lon="11.53463794091134"><ele>496.0</ele><time>2026-04-26T14:41:57Z</time></trkpt><trkpt lat="43.47410263690878" lon="11.534547103715973"><ele>496.0</ele><time>2026-04-26T14:41:58Z</time></trkpt><trkpt lat="43.47411697717246" lon="11.534424188986582"><ele>496.00000000000006</ele><time>2026-04-26T14:41:59Z</time></trkpt><trkpt lat="43.47415684506009" lon="11.534293309398823"><ele>496.0</ele><time>2026-04-26T14:42:01Z</time></trkpt><trkpt lat="43.47420833397071" lon="11.534166030978634"><ele>497.6666666666667</ele><time>2026-04-26T14:42:03Z</time></trkpt><trkpt lat="43.47427218698467" lon="11.534063364866983"><ele>499.33333333333337</ele><time>2026-04-26T14:42:05Z</time></trkpt><trkpt lat="43.47425195241932" lon="11.533950376643837"><ele>501.0</ele><time>2026-04-26T14:42:07Z</time></trkpt><trkpt lat="43.47416814460705" lon="11.533927032198005"><ele>502.66666666666663</ele><time>2026-04-26T14:42:09Z</time></trkpt><trkpt lat="43.474079549770515" lon="11.533982346035978"><ele>504.3333333333333</ele><time>2026-04-26T14:42:11Z</time></trkpt><trkpt lat="43.47401277843802" lon="11.534039917677207"><ele>506.0</ele><time>2026-04-26T14:42:13Z</time></trkpt><trkpt lat="43.473922201907214" lon="11.534137900046629"><ele>506.0</ele><time>2026-04-26T14:42:15Z</time></trkpt><trkpt lat="43.473836268766824" lon="11.534182760658632"><ele>506.0</ele><time>2026-04-26T14:42:17Z</time></trkpt><trkpt lat="43.47374154827033" lon="11.534112674969762"><ele>506.0</ele><time>2026-04-26T14:42:19Z</time></trkpt><trkpt lat="43.47371783162275" lon="11.533991065659494"><ele>506.0</ele><time>2026-04-26T14:42:21Z</time></trkpt><trkpt lat="43.47372329400724" lon="11.533882395496743"><ele>506.0</ele><time>2026-04-26T14:42:23Z</time></trkpt><trkpt lat="43.47376063597894" lon="11.533751018722702"><ele>508.0</ele><time>2026-04-26T14:42:25Z</time></trkpt><trkpt lat="43.47380469440154" lon="11.53363255295398"><ele>510.0</ele><time>2026-04-26T14:42:27Z</time></trkpt><trkpt lat="43.47383825833097" lon="11.5334812176327"><ele>512.0</ele><time>2026-04-26T14:42:29Z</time></trkpt><trkpt lat="43.47387722816097" lon="11.533336139542572"><ele>514.0</ele><time>2026-04-26T14:42:31Z</time></trkpt><trkpt lat="43.47389854761769" lon="11.533217286705261"><ele>516.0</ele><time>2026-04-26T14:42:33Z</time></trkpt><trkpt lat="43.47392039522533" lon="11.533109039634095"><ele>516.0</ele><time>2026-04-26T14:42:35Z</time></trkpt><trkpt lat="43.47392106092857" lon="11.532979510687095"><ele>516.0</ele><time>2026-04-26T14:42:37Z</time></trkpt><trkpt lat="43.473907560625136" lon="11.53286278374866"><ele>516.0</ele><time>2026-04-26T14:42:39Z</time></trkpt><trkpt lat="43.47390916297482" lon="11.532729035474894"><ele>516.0</ele><time>2026-04-26T14:42:41Z</time></trkpt><trkpt lat="43.47390086809109" lon="11.532640237620056"><ele>516.0</ele><time>2026-04-26T14:42:42Z</time></trkpt><trkpt lat="43.473891261318215" lon="11.532504675753092"><ele>516.0</ele><time>2026-04-26T14:42:44Z</time></trkpt><trkpt lat="43.473869377493976" lon="11.53239927117166"><ele>516.6</ele><time>2026-04-26T14:42:46Z</time></trkpt><trkpt lat="43.473844225275386" lon="11.53228320743251"><ele>517.2</ele><time>2026-04-26T14:42:48Z</time></trkpt><trkpt lat="43.4738380603967" lon="11.532154974126458"><ele>517.8</ele><time>2026-04-26T14:42:50Z</time></trkpt><trkpt lat="43.47388167741575" lon="11.532026955256075"><ele>518.4</ele><time>2026-04-26T14:42:52Z</time></trkpt><trkpt lat="43.4739531525958" lon="11.531895128504159"><ele>519.0</ele><time>2026-04-26T14:42:54Z</time></trkpt><trkpt lat="43.47401060677686" lon="11.531758313421546"><ele>521.6</ele><time>2026-04-26T14:42:56Z</time></trkpt><trkpt lat="43.47405548784863" lon="11.53163613517885"><ele>524.2</ele><time>2026-04-26T14:42:58Z</time></trkpt><trkpt lat="43.47411451620254" lon="11.531544678288476"><ele>526.8000000000001</ele><time>2026-04-26T14:43:00Z</time></trkpt><trkpt lat="43.47414974235827" lon="11.531470447790902"><ele>529.4</ele><time>2026-04-26T14:43:01Z</time></trkpt><trkpt lat="43.474197730021245" lon="11.531331111970832"><ele>532.0</ele><time>2026-04-26T14:43:03Z</time></trkpt><trkpt lat="43.47422625153975" lon="11.53118289354017"><ele>533.6666666666667</ele><time>2026-04-26T14:43:05Z</time></trkpt><trkpt lat="43.47421525005096" lon="11.531051578755784"><ele>535.3333333333334</ele><time>2026-04-26T14:43:07Z</time></trkpt><trkpt lat="43.474188588077034" lon="11.530944902597444"><ele>537.0</ele><time>2026-04-26T14:43:09Z</time></trkpt><trkpt lat="43.47417434331816" lon="11.53083037965767"><ele>538.6666666666666</ele><time>2026-04-26T14:43:11Z</time></trkpt><trkpt lat="43.47417893567583" lon="11.530698893223258"><ele>540.3333333333333</ele><time>2026-04-26T14:43:13Z</time></trkpt><trkpt lat="43.4741826332463" lon="11.530579918472666"><ele>542.0</ele><time>2026-04-26T14:43:15Z</time></trkpt><trkpt lat="43.47419360772456" lon="11.530434868606852"><ele>542.6</ele><time>2026-04-26T14:43:17Z</time></trkpt><trkpt lat="43.47422703082867" lon="11.530300202548792"><ele>543.2</ele><time>2026-04-26T14:43:19Z</time></trkpt><trkpt lat="43.474264857107784" lon="11.530164079635728"><ele>543.8</ele><time>2026-04-26T14:43:21Z</time></trkpt><trkpt lat="43.47426403005631" lon="11.530065202963772"><ele>544.4</ele><time>2026-04-26T14:43:23Z</time></trkpt><trkpt lat="43.474242508340275" lon="11.529948487126976"><ele>545.0</ele><time>2026-04-26T14:43:25Z</time></trkpt><trkpt lat="43.474193226685735" lon="11.529829308150232"><ele>545.0</ele><time>2026-04-26T14:43:27Z</time></trkpt><trkpt lat="43.47412063287252" lon="11.52972885062835"><ele>545.0</ele><time>2026-04-26T14:43:29Z</time></trkpt><trkpt lat="43.474031979306474" lon="11.529667833185725"><ele>545.0</ele><time>2026-04-26T14:43:31Z</time></trkpt><trkpt lat="43.47393325385913" lon="11.52966092758932"><ele>545.0</ele><time>2026-04-26T14:43:33Z</time></trkpt><trkpt lat="43.473858376464975" lon="11.529605601006345"><ele>545.0</ele><time>2026-04-26T14:43:35Z</time></trkpt><trkpt lat="43.473799828595276" lon="11.52951534444455"><ele>549.2</ele><time>2026-04-26T14:43:37Z</time></trkpt><trkpt lat="43.47372655122162" lon="11.529391739036159"><ele>553.4</ele><time>2026-04-26T14:43:39Z</time></trkpt><trkpt lat="43.47369117137157" lon="11.529250124346426"><ele>557.6</ele><time>2026-04-26T14:43:41Z</time></trkpt><trkpt lat="43.47362402242436" lon="11.529125128918949"><ele>561.8</ele><time>2026-04-26T14:43:43Z</time></trkpt><trkpt lat="43.473549658281414" lon="11.52901942433379"><ele>566.0</ele><time>2026-04-26T14:43:45Z</time></trkpt><trkpt lat="43.473484879223875" lon="11.528943594498546"><ele>566.0</ele><time>2026-04-26T14:43:47Z</time></trkpt><trkpt lat="43.47343373724441" lon="11.528862407634309"><ele>566.0</ele><time>2026-04-26T14:43:49Z</time></trkpt><trkpt lat="43.47337470847538" lon="11.528797892463928"><ele>566.0</ele><time>2026-04-26T14:43:51.999Z</time></trkpt><trkpt lat="43.47327763337704" lon="11.52872657302782"><ele>566.0</ele><time>2026-04-26T14:44:05.999Z</time></trkpt><trkpt lat="43.47318669045766" lon="11.528691804868147"><ele>566.0</ele><time>2026-04-26T14:44:07.999Z</time></trkpt><trkpt lat="43.47310781662571" lon="11.528667470135805"><ele>566.0</ele><time>2026-04-26T14:44:09.999Z</time></trkpt><trkpt lat="43.47301174431047" lon="11.528629689015856"><ele>565.8</ele><time>2026-04-26T14:44:11.999Z</time></trkpt><trkpt lat="43.472940525089626" lon="11.528555277584985"><ele>565.6</ele><time>2026-04-26T14:44:13.999Z</time></trkpt><trkpt lat="43.47284785225216" lon="11.528501634631294"><ele>565.4</ele><time>2026-04-26T14:44:15.999Z</time></trkpt><trkpt lat="43.4727542140587" lon="11.528472448147046"><ele>565.2</ele><time>2026-04-26T14:44:17.999Z</time></trkpt><trkpt lat="43.47267281575247" lon="11.528397173001359"><ele>565.0</ele><time>2026-04-26T14:44:19.999Z</time></trkpt><trkpt lat="43.472595862378526" lon="11.528344517085866"><ele>565.0</ele><time>2026-04-26T14:44:21.999Z</time></trkpt><trkpt lat="43.472511461587025" lon="11.528259192465363"><ele>565.0</ele><time>2026-04-26T14:44:23.999Z</time></trkpt><trkpt lat="43.47245179917939" lon="11.528202555742636"><ele>565.0</ele><time>2026-04-26T14:44:24.999Z</time></trkpt><trkpt lat="43.47239525472717" lon="11.52815616937764"><ele>565.0</ele><time>2026-04-26T14:44:25.999Z</time></trkpt><trkpt lat="43.47231684297059" lon="11.52809094372497"><ele>565.0</ele><time>2026-04-26T14:44:27.999Z</time></trkpt><trkpt lat="43.4722470083026" lon="11.528006296347355"><ele>565.0</ele><time>2026-04-26T14:44:29.999Z</time></trkpt><trkpt lat="43.472225323290466" lon="11.527863909872464"><ele>562.4</ele><time>2026-04-26T14:44:31.999Z</time></trkpt><trkpt lat="43.472208253845515" lon="11.527720748867614"><ele>559.8</ele><time>2026-04-26T14:44:33.999Z</time></trkpt><trkpt lat="43.47215608100397" lon="11.52757361738633"><ele>557.2</ele><time>2026-04-26T14:44:35.999Z</time></trkpt><trkpt lat="43.47213821835695" lon="11.527432810469668"><ele>554.6</ele><time>2026-04-26T14:44:37.999Z</time></trkpt><trkpt lat="43.472098638721135" lon="11.527278272235378"><ele>552.0</ele><time>2026-04-26T14:44:39.999Z</time></trkpt><trkpt lat="43.472061055480395" lon="11.527140469565166"><ele>556.6</ele><time>2026-04-26T14:44:41.999Z</time></trkpt><trkpt lat="43.47207220525787" lon="11.52698825959053"><ele>561.2</ele><time>2026-04-26T14:44:43.999Z</time></trkpt><trkpt lat="43.47204993529319" lon="11.526902549257512"><ele>565.8</ele><time>2026-04-26T14:44:45Z</time></trkpt><trkpt lat="43.47203035438759" lon="11.52676628679689"><ele>570.4</ele><time>2026-04-26T14:44:47Z</time></trkpt><trkpt lat="43.4720037600632" lon="11.526647541000363"><ele>575.0</ele><time>2026-04-26T14:44:49Z</time></trkpt><trkpt lat="43.471933692751755" lon="11.526587717254388"><ele>575.0</ele><time>2026-04-26T14:44:51Z</time></trkpt><trkpt lat="43.47182634451492" lon="11.52655986512439"><ele>575.0</ele><time>2026-04-26T14:44:53Z</time></trkpt><trkpt lat="43.47172523513637" lon="11.526562088122022"><ele>575.0</ele><time>2026-04-26T14:44:55Z</time></trkpt><trkpt lat="43.4716249101428" lon="11.526596374524013"><ele>575.0</ele><time>2026-04-26T14:44:57Z</time></trkpt><trkpt lat="43.4715429441913" lon="11.526630915534302"><ele>575.0</ele><time>2026-04-26T14:44:59Z</time></trkpt><trkpt lat="43.47145956850251" lon="11.526661567689226"><ele>575.0</ele><time>2026-04-26T14:45:01Z</time></trkpt><trkpt lat="43.47138082428092" lon="11.52670013073373"><ele>575.0</ele><time>2026-04-26T14:45:03Z</time></trkpt><trkpt lat="43.471322702193625" lon="11.526759804268606"><ele>575.0</ele><time>2026-04-26T14:45:05Z</time></trkpt><trkpt lat="43.471251764510825" lon="11.52683716152962"><ele>575.0</ele><time>2026-04-26T14:45:08Z</time></trkpt><trkpt lat="43.47119646635293" lon="11.52691687342644"><ele>575.0</ele><time>2026-04-26T14:45:10Z</time></trkpt><trkpt lat="43.47115772279251" lon="11.527000186011573"><ele>575.0</ele><time>2026-04-26T14:45:12Z</time></trkpt><trkpt lat="43.471107529646794" lon="11.527082038273058"><ele>579.6666666666666</ele><time>2026-04-26T14:45:14Z</time></trkpt><trkpt lat="43.47105062734726" lon="11.527175209062449"><ele>584.3333333333333</ele><time>2026-04-26T14:45:16Z</time></trkpt><trkpt lat="43.47099438091859" lon="11.527237419161201"><ele>589.0</ele><time>2026-04-26T14:45:18Z</time></trkpt><trkpt lat="43.47093126858901" lon="11.52727718711065"><ele>593.6666666666666</ele><time>2026-04-26T14:45:20Z</time></trkpt><trkpt lat="43.470847277184" lon="11.527271775159445"><ele>598.3333333333334</ele><time>2026-04-26T14:45:22Z</time></trkpt><trkpt lat="43.47075650457489" lon="11.527159354107523"><ele>603.0</ele><time>2026-04-26T14:45:24Z</time></trkpt><trkpt lat="43.470687161044495" lon="11.527076596732567"><ele>602.25</ele><time>2026-04-26T14:45:25Z</time></trkpt><trkpt lat="43.47058198637044" lon="11.527018361335188"><ele>601.5</ele><time>2026-04-26T14:45:27Z</time></trkpt><trkpt lat="43.47046304629026" lon="11.526952165209257"><ele>600.75</ele><time>2026-04-26T14:45:29Z</time></trkpt><trkpt lat="43.4703711937724" lon="11.52688324199005"><ele>600.0</ele><time>2026-04-26T14:45:31Z</time></trkpt><trkpt lat="43.47026152590126" lon="11.526860090416935"><ele>600.0</ele><time>2026-04-26T14:45:33Z</time></trkpt><trkpt lat="43.470163126550645" lon="11.526875277041414"><ele>600.0</ele><time>2026-04-26T14:45:35Z</time></trkpt><trkpt lat="43.47007035994971" lon="11.526896433773533"><ele>600.0</ele><time>2026-04-26T14:45:37Z</time></trkpt><trkpt lat="43.47001102829438" lon="11.526822545178595"><ele>600.0</ele><time>2026-04-26T14:45:39Z</time></trkpt><trkpt lat="43.46998144729545" lon="11.526697179723012"><ele>600.0</ele><time>2026-04-26T14:45:41Z</time></trkpt><trkpt lat="43.469962023929604" lon="11.526613977068173"><ele>600.0</ele><time>2026-04-26T14:45:42Z</time></trkpt><trkpt lat="43.46990445628606" lon="11.52650187765868"><ele>600.0</ele><time>2026-04-26T14:45:44Z</time></trkpt><trkpt lat="43.46985211403548" lon="11.52638287446349"><ele>600.0</ele><time>2026-04-26T14:45:46Z</time></trkpt><trkpt lat="43.46984798882622" lon="11.526285261801682"><ele>600.0</ele><time>2026-04-26T14:45:52Z</time></trkpt><trkpt lat="43.469866546386655" lon="11.526199268985737"><ele>600.0</ele><time>2026-04-26T14:45:56.999Z</time></trkpt><trkpt lat="43.469846794897954" lon="11.526110656561276"><ele>600.0</ele><time>2026-04-26T14:46:08.999Z</time></trkpt><trkpt lat="43.469838523130775" lon="11.525962253758648"><ele>600.0</ele><time>2026-04-26T14:46:25.999Z</time></trkpt><trkpt lat="43.46984604948319" lon="11.52581690075939"><ele>599.1666666666666</ele><time>2026-04-26T14:46:27.999Z</time></trkpt><trkpt lat="43.469846798805555" lon="11.525692204142361"><ele>598.3333333333334</ele><time>2026-04-26T14:46:29.999Z</time></trkpt><trkpt lat="43.469850592917005" lon="11.525603229415324"><ele>597.5</ele><time>2026-04-26T14:46:31.999Z</time></trkpt><trkpt lat="43.46984530072504" lon="11.525512358324812"><ele>596.6666666666667</ele><time>2026-04-26T14:46:33.999Z</time></trkpt><trkpt lat="43.46983357931246" lon="11.52539250725845"><ele>595.8333333333334</ele><time>2026-04-26T14:46:35.999Z</time></trkpt><trkpt lat="43.469837644517675" lon="11.525294471437602"><ele>595.0</ele><time>2026-04-26T14:46:37.999Z</time></trkpt><trkpt lat="43.46985804410116" lon="11.525181695110282"><ele>593.6</ele><time>2026-04-26T14:46:40Z</time></trkpt><trkpt lat="43.46990397556667" lon="11.5250569041949"><ele>592.2</ele><time>2026-04-26T14:46:42Z</time></trkpt><trkpt lat="43.469939283334455" lon="11.524939608742242"><ele>590.8</ele><time>2026-04-26T14:46:44Z</time></trkpt><trkpt lat="43.469936600100624" lon="11.524793317128179"><ele>589.4</ele><time>2026-04-26T14:46:46Z</time></trkpt><trkpt lat="43.46990534228293" lon="11.524623420329524"><ele>588.0</ele><time>2026-04-26T14:46:48Z</time></trkpt><trkpt lat="43.46985991215349" lon="11.524517163350326"><ele>586.8571428571429</ele><time>2026-04-26T14:46:49Z</time></trkpt><trkpt lat="43.46981865285168" lon="11.524394363416055"><ele>585.7142857142858</ele><time>2026-04-26T14:46:50Z</time></trkpt><trkpt lat="43.46979084002995" lon="11.524303693053865"><ele>584.5714285714286</ele><time>2026-04-26T14:46:51Z</time></trkpt><trkpt lat="43.46976370435529" lon="11.524225166869918"><ele>583.4285714285714</ele><time>2026-04-26T14:46:52Z</time></trkpt><trkpt lat="43.469729882009254" lon="11.524142146867804"><ele>582.2857142857143</ele><time>2026-04-26T14:46:53Z</time></trkpt><trkpt lat="43.469691873014966" lon="11.524057731333425"><ele>581.1428571428571</ele><time>2026-04-26T14:46:54Z</time></trkpt><trkpt lat="43.46965503496046" lon="11.523977034106085"><ele>580.0</ele><time>2026-04-26T14:46:55Z</time></trkpt><trkpt lat="43.469598046939" lon="11.523843231280363"><ele>578.8333333333334</ele><time>2026-04-26T14:46:57Z</time></trkpt><trkpt lat="43.469547601077124" lon="11.523712393301494"><ele>577.6666666666667</ele><time>2026-04-26T14:46:59Z</time></trkpt><trkpt lat="43.46950114939615" lon="11.523549806057602"><ele>576.5</ele><time>2026-04-26T14:47:01Z</time></trkpt><trkpt lat="43.469496088073406" lon="11.523448096421683"><ele>575.3333333333334</ele><time>2026-04-26T14:47:02Z</time></trkpt><trkpt lat="43.46950803377969" lon="11.523351108724954"><ele>574.1666666666666</ele><time>2026-04-26T14:47:03Z</time></trkpt><trkpt lat="43.469503426257425" lon="11.523261683415512"><ele>573.0</ele><time>2026-04-26T14:47:04Z</time></trkpt><trkpt lat="43.4694886781952" lon="11.523174433978403"><ele>573.0</ele><time>2026-04-26T14:47:05Z</time></trkpt><trkpt lat="43.469449185405104" lon="11.52307893745263"><ele>573.0</ele><time>2026-04-26T14:47:06Z</time></trkpt><trkpt lat="43.469380958251485" lon="11.523003001880229"><ele>573.0</ele><time>2026-04-26T14:47:07Z</time></trkpt><trkpt lat="43.46930461156862" lon="11.522920499462519"><ele>573.0</ele><time>2026-04-26T14:47:08Z</time></trkpt><trkpt lat="43.46920149282396" lon="11.522827329223308"><ele>573.0</ele><time>2026-04-26T14:47:09Z</time></trkpt><trkpt lat="43.469136803289054" lon="11.522729720838289"><ele>573.8</ele><time>2026-04-26T14:47:10Z</time></trkpt><trkpt lat="43.46908709348557" lon="11.522661599512686"><ele>574.5999999999999</ele><time>2026-04-26T14:47:11Z</time></trkpt><trkpt lat="43.469012265772264" lon="11.52253129827879"><ele>575.4000000000001</ele><time>2026-04-26T14:47:13Z</time></trkpt><trkpt lat="43.4689446467521" lon="11.522410447087227"><ele>576.2</ele><time>2026-04-26T14:47:15Z</time></trkpt><trkpt lat="43.46887736503305" lon="11.522289640592989"><ele>577.0</ele><time>2026-04-26T14:47:17Z</time></trkpt><trkpt lat="43.46882040931739" lon="11.522189746291664"><ele>577.0</ele><time>2026-04-26T14:47:19Z</time></trkpt><trkpt lat="43.46877641556886" lon="11.522106226014534"><ele>577.0</ele><time>2026-04-26T14:47:21Z</time></trkpt><trkpt lat="43.46874423801613" lon="11.52203148056786"><ele>577.0</ele><time>2026-04-26T14:47:25Z</time></trkpt><trkpt lat="43.46866702284363" lon="11.521909843936964"><ele>577.0</ele><time>2026-04-26T14:48:36Z</time></trkpt><trkpt lat="43.46859167414901" lon="11.521852428311286"><ele>577.0</ele><time>2026-04-26T14:48:38Z</time></trkpt><trkpt lat="43.46851758515363" lon="11.521780290724376"><ele>577.0</ele><time>2026-04-26T14:48:40Z</time></trkpt><trkpt lat="43.468425650758604" lon="11.521786132319864"><ele>576.6666666666667</ele><time>2026-04-26T14:48:42Z</time></trkpt><trkpt lat="43.46837450165922" lon="11.521863800492286"><ele>576.3333333333334</ele><time>2026-04-26T14:48:43Z</time></trkpt><trkpt lat="43.46835901849516" lon="11.52195769668206"><ele>576.0</ele><time>2026-04-26T14:48:44Z</time></trkpt><trkpt lat="43.468314070458824" lon="11.522062680275543"><ele>575.6666666666666</ele><time>2026-04-26T14:48:46Z</time></trkpt><trkpt lat="43.46826069601737" lon="11.522138258036055"><ele>575.3333333333333</ele><time>2026-04-26T14:48:48Z</time></trkpt><trkpt lat="43.46822315593404" lon="11.522214194625553"><ele>575.0</ele><time>2026-04-26T14:48:50Z</time></trkpt><trkpt lat="43.46816970769013" lon="11.522306813312639"><ele>575.0</ele><time>2026-04-26T14:48:53Z</time></trkpt><trkpt lat="43.46810017110033" lon="11.522281284203418"><ele>575.0</ele><time>2026-04-26T14:48:57Z</time></trkpt><trkpt lat="43.46809964987755" lon="11.522179931821757"><ele>575.0</ele><time>2026-04-26T14:49:00Z</time></trkpt><trkpt lat="43.46810135020005" lon="11.522057749453671"><ele>575.0</ele><time>2026-04-26T14:49:02Z</time></trkpt><trkpt lat="43.46812241012738" lon="11.521923820002556"><ele>575.0</ele><time>2026-04-26T14:49:04Z</time></trkpt><trkpt lat="43.468139695200605" lon="11.521784091180605"><ele>575.0</ele><time>2026-04-26T14:49:06Z</time></trkpt><trkpt lat="43.46812774900779" lon="11.521688451552187"><ele>575.0</ele><time>2026-04-26T14:49:07Z</time></trkpt><trkpt lat="43.468109220784974" lon="11.521602288985523"><ele>575.0</ele><time>2026-04-26T14:49:08Z</time></trkpt><trkpt lat="43.46808468969048" lon="11.521518625874"><ele>575.0</ele><time>2026-04-26T14:49:09Z</time></trkpt><trkpt lat="43.46804540842458" lon="11.521448856279509"><ele>575.0</ele><time>2026-04-26T14:49:10Z</time></trkpt><trkpt lat="43.46803513008326" lon="11.521361101908107"><ele>575.0</ele><time>2026-04-26T14:49:11Z</time></trkpt><trkpt lat="43.46798720003395" lon="11.521209802170173"><ele>575.0</ele><time>2026-04-26T14:49:13Z</time></trkpt><trkpt lat="43.467939925519204" lon="11.521062939661594"><ele>570.8</ele><time>2026-04-26T14:49:15Z</time></trkpt><trkpt lat="43.467893641550624" lon="11.520919772005719"><ele>566.6</ele><time>2026-04-26T14:49:17Z</time></trkpt><trkpt lat="43.46783891742626" lon="11.520795530601603"><ele>562.4</ele><time>2026-04-26T14:49:19Z</time></trkpt><trkpt lat="43.46779752690347" lon="11.520675058050323"><ele>558.2</ele><time>2026-04-26T14:49:21Z</time></trkpt><trkpt lat="43.467755920539595" lon="11.520548018667519"><ele>554.0</ele><time>2026-04-26T14:49:23Z</time></trkpt><trkpt lat="43.46774246048513" lon="11.520410169674115"><ele>553.6</ele><time>2026-04-26T14:49:25Z</time></trkpt><trkpt lat="43.46773432432313" lon="11.52028247163899"><ele>553.2</ele><time>2026-04-26T14:49:27Z</time></trkpt><trkpt lat="43.46774522619095" lon="11.520146301139132"><ele>552.8000000000001</ele><time>2026-04-26T14:49:29Z</time></trkpt><trkpt lat="43.467757889548594" lon="11.52001287582217"><ele>552.4</ele><time>2026-04-26T14:49:31Z</time></trkpt><trkpt lat="43.46778789538495" lon="11.519899246648773"><ele>552.0</ele><time>2026-04-26T14:49:33Z</time></trkpt><trkpt lat="43.46781895395467" lon="11.519794437202469"><ele>552.0</ele><time>2026-04-26T14:49:35Z</time></trkpt><trkpt lat="43.46786380057945" lon="11.519701428696969"><ele>552.0</ele><time>2026-04-26T14:49:37Z</time></trkpt><trkpt lat="43.46786450686685" lon="11.51958791918028"><ele>552.0</ele><time>2026-04-26T14:49:39Z</time></trkpt><trkpt lat="43.467801576304325" lon="11.519493815188254"><ele>552.0</ele><time>2026-04-26T14:49:41Z</time></trkpt><trkpt lat="43.46768222943479" lon="11.519509162253497"><ele>552.0</ele><time>2026-04-26T14:49:43Z</time></trkpt><trkpt lat="43.467580443524845" lon="11.519526944214219"><ele>550.4</ele><time>2026-04-26T14:49:45Z</time></trkpt><trkpt lat="43.46747131421706" lon="11.519529617267658"><ele>548.8000000000001</ele><time>2026-04-26T14:49:47Z</time></trkpt><trkpt lat="43.467364423674866" lon="11.519478053894694"><ele>547.2</ele><time>2026-04-26T14:49:49Z</time></trkpt><trkpt lat="43.46726199073849" lon="11.51943706607148"><ele>545.6</ele><time>2026-04-26T14:49:51Z</time></trkpt><trkpt lat="43.46716249523864" lon="11.519386739506691"><ele>544.0</ele><time>2026-04-26T14:49:53Z</time></trkpt><trkpt lat="43.46708024525187" lon="11.519331420838542"><ele>544.0</ele><time>2026-04-26T14:49:55Z</time></trkpt><trkpt lat="43.46701278001496" lon="11.519270300880908"><ele>544.0</ele><time>2026-04-26T14:49:57Z</time></trkpt><trkpt lat="43.466993933660476" lon="11.519138334543587"><ele>544.0</ele><time>2026-04-26T14:49:59Z</time></trkpt><trkpt lat="43.466970199189724" lon="11.519015123143886"><ele>544.0</ele><time>2026-04-26T14:50:01Z</time></trkpt><trkpt lat="43.46690696398453" lon="11.51895746526915"><ele>544.0</ele><time>2026-04-26T14:50:03Z</time></trkpt><trkpt lat="43.46681076400781" lon="11.518986218223437"><ele>544.0</ele><time>2026-04-26T14:50:05Z</time></trkpt><trkpt lat="43.46674316308169" lon="11.51904265726324"><ele>544.0</ele><time>2026-04-26T14:50:07Z</time></trkpt><trkpt lat="43.466639865278225" lon="11.519112903515978"><ele>544.0</ele><time>2026-04-26T14:50:08.999Z</time></trkpt><trkpt lat="43.466527799007274" lon="11.519163447188223"><ele>544.0</ele><time>2026-04-26T14:50:10.999Z</time></trkpt><trkpt lat="43.466417600738005" lon="11.519200399974299"><ele>544.0</ele><time>2026-04-26T14:50:12.999Z</time></trkpt><trkpt lat="43.46630896148196" lon="11.519246929602636"><ele>541.4</ele><time>2026-04-26T14:50:14.999Z</time></trkpt><trkpt lat="43.466198650395874" lon="11.519276444556"><ele>538.8</ele><time>2026-04-26T14:50:16.999Z</time></trkpt><trkpt lat="43.466092659937004" lon="11.519312246273005"><ele>536.2</ele><time>2026-04-26T14:50:18.999Z</time></trkpt><trkpt lat="43.46598588708834" lon="11.519368098248838"><ele>533.6</ele><time>2026-04-26T14:50:20.999Z</time></trkpt><trkpt lat="43.46589565447702" lon="11.519432632629012"><ele>531.0</ele><time>2026-04-26T14:50:22.999Z</time></trkpt><trkpt lat="43.4658018679559" lon="11.519482764034477"><ele>531.0</ele><time>2026-04-26T14:50:25Z</time></trkpt><trkpt lat="43.465715184222304" lon="11.51949326947542"><ele>531.0</ele><time>2026-04-26T14:50:27Z</time></trkpt><trkpt lat="43.46562757586079" lon="11.519469342833887"><ele>531.0</ele><time>2026-04-26T14:50:29Z</time></trkpt><trkpt lat="43.465581007344525" lon="11.519408478012323"><ele>531.0</ele><time>2026-04-26T14:50:30Z</time></trkpt><trkpt lat="43.46551470588751" lon="11.519370232191608"><ele>531.0</ele><time>2026-04-26T14:50:31Z</time></trkpt><trkpt lat="43.465428177639595" lon="11.519257024267834"><ele>531.0</ele><time>2026-04-26T14:50:33Z</time></trkpt><trkpt lat="43.46535941415472" lon="11.519121309517098"><ele>527.5</ele><time>2026-04-26T14:50:35Z</time></trkpt><trkpt lat="43.46531969841941" lon="11.519051004636607"><ele>524.0</ele><time>2026-04-26T14:50:36Z</time></trkpt><trkpt lat="43.46526621003415" lon="11.518911054919784"><ele>520.5</ele><time>2026-04-26T14:50:38Z</time></trkpt><trkpt lat="43.465247736964464" lon="11.518827158812476"><ele>517.0</ele><time>2026-04-26T14:50:39Z</time></trkpt><trkpt lat="43.46523979971792" lon="11.518740482708193"><ele>513.5</ele><time>2026-04-26T14:50:40Z</time></trkpt><trkpt lat="43.46520903766456" lon="11.518566785191124"><ele>510.0</ele><time>2026-04-26T14:50:42Z</time></trkpt><trkpt lat="43.46520859875228" lon="11.518479472131515"><ele>510.0</ele><time>2026-04-26T14:50:43Z</time></trkpt><trkpt lat="43.46518813447438" lon="11.518337944216942"><ele>510.0</ele><time>2026-04-26T14:50:45Z</time></trkpt><trkpt lat="43.46511334612247" lon="11.518226846324431"><ele>510.0</ele><time>2026-04-26T14:50:47Z</time></trkpt><trkpt lat="43.46501049489793" lon="11.518139910409076"><ele>510.0</ele><time>2026-04-26T14:50:49Z</time></trkpt><trkpt lat="43.464946658868605" lon="11.518090763390877"><ele>510.0</ele><time>2026-04-26T14:50:50Z</time></trkpt><trkpt lat="43.46488040476258" lon="11.518041161396239"><ele>510.0</ele><time>2026-04-26T14:50:51Z</time></trkpt><trkpt lat="43.46480813504878" lon="11.51798961652757"><ele>510.0</ele><time>2026-04-26T14:50:52Z</time></trkpt><trkpt lat="43.46473788432472" lon="11.517936928274034"><ele>510.0</ele><time>2026-04-26T14:50:53Z</time></trkpt><trkpt lat="43.46467036405521" lon="11.517881796602207"><ele>510.0</ele><time>2026-04-26T14:50:54Z</time></trkpt><trkpt lat="43.46460638371046" lon="11.517817180488953"><ele>510.0</ele><time>2026-04-26T14:50:55Z</time></trkpt><trkpt lat="43.46454746286736" lon="11.517743376706658"><ele>510.0</ele><time>2026-04-26T14:50:56Z</time></trkpt><trkpt lat="43.46449650234366" lon="11.517655379065664"><ele>509.25</ele><time>2026-04-26T14:50:57Z</time></trkpt><trkpt lat="43.46445881936259" lon="11.517524626779569"><ele>508.5</ele><time>2026-04-26T14:50:58Z</time></trkpt><trkpt lat="43.46437696817769" lon="11.517354772526742"><ele>507.75</ele><time>2026-04-26T14:50:59Z</time></trkpt><trkpt lat="43.46431682565725" lon="11.517180274109798"><ele>507.0</ele><time>2026-04-26T14:51:00Z</time></trkpt><trkpt lat="43.46426165974525" lon="11.517032075587526"><ele>508.0</ele><time>2026-04-26T14:51:01Z</time></trkpt><trkpt lat="43.464205995357354" lon="11.51691061518105"><ele>509.0</ele><time>2026-04-26T14:51:02Z</time></trkpt><trkpt lat="43.46416011891291" lon="11.516816239161534"><ele>510.0</ele><time>2026-04-26T14:51:03Z</time></trkpt><trkpt lat="43.46411160164617" lon="11.516726091658985"><ele>511.0</ele><time>2026-04-26T14:51:04Z</time></trkpt><trkpt lat="43.46405950551812" lon="11.516643466834253"><ele>512.0</ele><time>2026-04-26T14:51:05Z</time></trkpt><trkpt lat="43.463998705702366" lon="11.51658597233171"><ele>513.0</ele><time>2026-04-26T14:51:06Z</time></trkpt><trkpt lat="43.46391990674182" lon="11.516561675827242"><ele>513.0</ele><time>2026-04-26T14:51:07Z</time></trkpt><trkpt lat="43.463824285619836" lon="11.516563945950228"><ele>513.0</ele><time>2026-04-26T14:51:08Z</time></trkpt><trkpt lat="43.46371347184594" lon="11.516590780092065"><ele>513.0</ele><time>2026-04-26T14:51:09Z</time></trkpt><trkpt lat="43.46359184457995" lon="11.516631371586904"><ele>513.0</ele><time>2026-04-26T14:51:10Z</time></trkpt><trkpt lat="43.463495703213795" lon="11.516632050827967"><ele>513.0</ele><time>2026-04-26T14:51:11Z</time></trkpt><trkpt lat="43.46340937226349" lon="11.516656179630234"><ele>514.0</ele><time>2026-04-26T14:51:12Z</time></trkpt><trkpt lat="43.463325389384984" lon="11.51663143602918"><ele>515.0</ele><time>2026-04-26T14:51:13Z</time></trkpt><trkpt lat="43.46324168442733" lon="11.51658752244337"><ele>516.0</ele><time>2026-04-26T14:51:14Z</time></trkpt><trkpt lat="43.46319145009666" lon="11.516515799893156"><ele>517.0</ele><time>2026-04-26T14:51:15Z</time></trkpt><trkpt lat="43.46314278683006" lon="11.516446382614996"><ele>518.0</ele><time>2026-04-26T14:51:16Z</time></trkpt><trkpt lat="43.46310305468023" lon="11.51635732244615"><ele>519.0</ele><time>2026-04-26T14:51:17Z</time></trkpt><trkpt lat="43.46305293235936" lon="11.516235857097548"><ele>523.0</ele><time>2026-04-26T14:51:18Z</time></trkpt><trkpt lat="43.46304863961458" lon="11.516057098447876"><ele>527.0</ele><time>2026-04-26T14:51:19Z</time></trkpt><trkpt lat="43.46304935850051" lon="11.515884519636316"><ele>531.0</ele><time>2026-04-26T14:51:20Z</time></trkpt><trkpt lat="43.46304805239306" lon="11.5157226544101"><ele>535.0</ele><time>2026-04-26T14:51:21Z</time></trkpt><trkpt lat="43.46305008152903" lon="11.515567861459981"><ele>535.0</ele><time>2026-04-26T14:51:22Z</time></trkpt><trkpt lat="43.46305644438278" lon="11.515411981689022"><ele>535.0</ele><time>2026-04-26T14:51:23Z</time></trkpt><trkpt lat="43.46304846262102" lon="11.515260887070372"><ele>535.0</ele><time>2026-04-26T14:51:24Z</time></trkpt><trkpt lat="43.46306484498593" lon="11.515112278423238"><ele>535.0</ele><time>2026-04-26T14:51:25Z</time></trkpt><trkpt lat="43.463053119935374" lon="11.514952981306934"><ele>535.0</ele><time>2026-04-26T14:51:26Z</time></trkpt><trkpt lat="43.463030693943224" lon="11.514762435125018"><ele>537.25</ele><time>2026-04-26T14:51:27Z</time></trkpt><trkpt lat="43.46300597629071" lon="11.514587108008605"><ele>539.5</ele><time>2026-04-26T14:51:28Z</time></trkpt><trkpt lat="43.46298663938205" lon="11.514436322120794"><ele>541.75</ele><time>2026-04-26T14:51:29Z</time></trkpt><trkpt lat="43.462972524684744" lon="11.514240777879852"><ele>544.0</ele><time>2026-04-26T14:51:30Z</time></trkpt><trkpt lat="43.46296149886369" lon="11.514048372503527"><ele>544.0</ele><time>2026-04-26T14:51:31Z</time></trkpt><trkpt lat="43.462945571577436" lon="11.513907984806757"><ele>544.0</ele><time>2026-04-26T14:51:32Z</time></trkpt><trkpt lat="43.46294179684078" lon="11.513780687062996"><ele>544.0</ele><time>2026-04-26T14:51:33Z</time></trkpt><trkpt lat="43.46292555497748" lon="11.513690297563418"><ele>544.0</ele><time>2026-04-26T14:51:34Z</time></trkpt><trkpt lat="43.4629052589006" lon="11.513577345272237"><ele>544.0</ele><time>2026-04-26T14:51:35Z</time></trkpt><trkpt lat="43.46288683506988" lon="11.513474812393591"><ele>544.0</ele><time>2026-04-26T14:51:36Z</time></trkpt><trkpt lat="43.46286987200111" lon="11.513380408990786"><ele>544.4285714285713</ele><time>2026-04-26T14:51:37Z</time></trkpt><trkpt lat="43.46281785140564" lon="11.513298465382341"><ele>544.8571428571429</ele><time>2026-04-26T14:51:38Z</time></trkpt><trkpt lat="43.462813042450755" lon="11.513205644586016"><ele>545.2857142857142</ele><time>2026-04-26T14:51:39Z</time></trkpt><trkpt lat="43.4627995539206" lon="11.513111105249244"><ele>545.7142857142857</ele><time>2026-04-26T14:51:40Z</time></trkpt><trkpt lat="43.46277498311079" lon="11.513020044891144"><ele>546.1428571428571</ele><time>2026-04-26T14:51:41Z</time></trkpt><trkpt lat="43.4627462857436" lon="11.512931849998152"><ele>546.5714285714286</ele><time>2026-04-26T14:51:42Z</time></trkpt><trkpt lat="43.4627140355409" lon="11.512839968163439"><ele>547.0</ele><time>2026-04-26T14:51:43Z</time></trkpt><trkpt lat="43.4626785737555" lon="11.512756818336971"><ele>547.3333333333334</ele><time>2026-04-26T14:51:44Z</time></trkpt><trkpt lat="43.46264193741729" lon="11.512673149017951"><ele>547.6666666666667</ele><time>2026-04-26T14:51:45Z</time></trkpt><trkpt lat="43.46260383932183" lon="11.5125923061581"><ele>548.0</ele><time>2026-04-26T14:51:46Z</time></trkpt><trkpt lat="43.4625671885295" lon="11.512516102803174"><ele>548.3333333333334</ele><time>2026-04-26T14:51:47Z</time></trkpt><trkpt lat="43.46249594255795" lon="11.512386652326978"><ele>548.6666666666666</ele><time>2026-04-26T14:51:49Z</time></trkpt><trkpt lat="43.46243877099" lon="11.512302975924296"><ele>549.0</ele><time>2026-04-26T14:51:51Z</time></trkpt><trkpt lat="43.46238822065309" lon="11.51223188914711"><ele>549.0</ele><time>2026-04-26T14:51:53Z</time></trkpt><trkpt lat="43.462326237016164" lon="11.512170243323906"><ele>549.0</ele><time>2026-04-26T14:51:56Z</time></trkpt><trkpt lat="43.46227319530732" lon="11.512116366390513"><ele>549.0</ele><time>2026-04-26T14:52:00Z</time></trkpt><trkpt lat="43.46219908718737" lon="11.512100224900738"><ele>549.0</ele><time>2026-04-26T14:52:07Z</time></trkpt><trkpt lat="43.46210818034537" lon="11.512117695487103"><ele>549.0</ele><time>2026-04-26T14:52:09Z</time></trkpt><trkpt lat="43.46203501350517" lon="11.512164789925558"><ele>549.0</ele><time>2026-04-26T14:52:11Z</time></trkpt><trkpt lat="43.46197836846273" lon="11.512254022418043"><ele>552.2</ele><time>2026-04-26T14:52:14Z</time></trkpt><trkpt lat="43.46194134223552" lon="11.512362050709251"><ele>555.4</ele><time>2026-04-26T14:52:16Z</time></trkpt><trkpt lat="43.46194606485824" lon="11.512495636262301"><ele>558.6</ele><time>2026-04-26T14:52:18Z</time></trkpt><trkpt lat="43.46196518821954" lon="11.512642699542623"><ele>561.8</ele><time>2026-04-26T14:52:20Z</time></trkpt><trkpt lat="43.46197614445524" lon="11.512791936613617"><ele>565.0</ele><time>2026-04-26T14:52:22Z</time></trkpt><trkpt lat="43.46199272277961" lon="11.512942378698272"><ele>565.2</ele><time>2026-04-26T14:52:24Z</time></trkpt><trkpt lat="43.46199845525465" lon="11.513085727456751"><ele>565.4</ele><time>2026-04-26T14:52:26Z</time></trkpt><trkpt lat="43.461959279590644" lon="11.513184265877246"><ele>565.6</ele><time>2026-04-26T14:52:28Z</time></trkpt><trkpt lat="43.46188211687008" lon="11.513242447239765"><ele>565.8</ele><time>2026-04-26T14:52:30Z</time></trkpt><trkpt lat="43.46180571017855" lon="11.513202542032493"><ele>566.0</ele><time>2026-04-26T14:52:32Z</time></trkpt><trkpt lat="43.4617383105565" lon="11.513084616760837"><ele>566.0</ele><time>2026-04-26T14:52:34Z</time></trkpt><trkpt lat="43.461714292908304" lon="11.512946959505701"><ele>566.0</ele><time>2026-04-26T14:52:36Z</time></trkpt><trkpt lat="43.4616495833405" lon="11.512853329628914"><ele>566.0</ele><time>2026-04-26T14:52:38Z</time></trkpt><trkpt lat="43.46155511553243" lon="11.512867679127545"><ele>566.0</ele><time>2026-04-26T14:52:40Z</time></trkpt><trkpt lat="43.461486096454706" lon="11.512975677893657"><ele>566.0</ele><time>2026-04-26T14:52:42Z</time></trkpt><trkpt lat="43.46147168498548" lon="11.513060377799702"><ele>566.0</ele><time>2026-04-26T14:52:43Z</time></trkpt><trkpt lat="43.46147951496968" lon="11.51315103403339"><ele>566.0</ele><time>2026-04-26T14:52:44Z</time></trkpt><trkpt lat="43.46150713496463" lon="11.513243050698524"><ele>566.0</ele><time>2026-04-26T14:52:45Z</time></trkpt><trkpt lat="43.46154920082734" lon="11.513338062796617"><ele>566.0</ele><time>2026-04-26T14:52:46Z</time></trkpt><trkpt lat="43.46159746409706" lon="11.513440670695955"><ele>566.0</ele><time>2026-04-26T14:52:47Z</time></trkpt><trkpt lat="43.46165037950426" lon="11.513531976271437"><ele>566.0</ele><time>2026-04-26T14:52:48Z</time></trkpt><trkpt lat="43.46170735770118" lon="11.513599486834975"><ele>566.0</ele><time>2026-04-26T14:52:49Z</time></trkpt><trkpt lat="43.46176650171542" lon="11.51363237602256"><ele>566.0</ele><time>2026-04-26T14:52:50Z</time></trkpt><trkpt lat="43.46183335985825" lon="11.513655720873054"><ele>566.0</ele><time>2026-04-26T14:52:51Z</time></trkpt><trkpt lat="43.46193540104746" lon="11.513713944978646"><ele>566.0</ele><time>2026-04-26T14:52:53Z</time></trkpt><trkpt lat="43.461991069193814" lon="11.513832652296234"><ele>566.0</ele><time>2026-04-26T14:52:55Z</time></trkpt><trkpt lat="43.46198372839599" lon="11.513965569044014"><ele>566.0</ele><time>2026-04-26T14:52:57Z</time></trkpt><trkpt lat="43.46191180720309" lon="11.514034418667872"><ele>566.3333333333333</ele><time>2026-04-26T14:52:59Z</time></trkpt><trkpt lat="43.46178950907406" lon="11.514053887339138"><ele>566.6666666666666</ele><time>2026-04-26T14:53:01Z</time></trkpt><trkpt lat="43.461716164627" lon="11.514040748266794"><ele>567.0</ele><time>2026-04-26T14:53:02Z</time></trkpt><trkpt lat="43.46163365573064" lon="11.514014383156029"><ele>567.3333333333334</ele><time>2026-04-26T14:53:03Z</time></trkpt><trkpt lat="43.461556545839464" lon="11.514004710085782"><ele>567.6666666666667</ele><time>2026-04-26T14:53:04Z</time></trkpt><trkpt lat="43.46148656698453" lon="11.514019568604953"><ele>568.0</ele><time>2026-04-26T14:53:05Z</time></trkpt><trkpt lat="43.4614190436207" lon="11.514053728829651"><ele>568.0</ele><time>2026-04-26T14:53:06Z</time></trkpt><trkpt lat="43.461328470511646" lon="11.51414850655738"><ele>568.0</ele><time>2026-04-26T14:53:08Z</time></trkpt><trkpt lat="43.461288794892816" lon="11.5142178776299"><ele>568.0</ele><time>2026-04-26T14:53:09Z</time></trkpt><trkpt lat="43.461262439706914" lon="11.514302358116755"><ele>568.0</ele><time>2026-04-26T14:53:10Z</time></trkpt><trkpt lat="43.461248108127386" lon="11.514402025971075"><ele>568.0</ele><time>2026-04-26T14:53:11Z</time></trkpt><trkpt lat="43.46124550179139" lon="11.51451266421636"><ele>568.0</ele><time>2026-04-26T14:53:12Z</time></trkpt><trkpt lat="43.461236217615934" lon="11.514626843863665"><ele>570.8</ele><time>2026-04-26T14:53:13Z</time></trkpt><trkpt lat="43.46121250538809" lon="11.51473881624637"><ele>573.5999999999999</ele><time>2026-04-26T14:53:14Z</time></trkpt><trkpt lat="43.4611771904739" lon="11.514840804955167"><ele>576.4000000000001</ele><time>2026-04-26T14:53:15Z</time></trkpt><trkpt lat="43.46108443540467" lon="11.514941459277216"><ele>579.2</ele><time>2026-04-26T14:53:17Z</time></trkpt><trkpt lat="43.46096955950954" lon="11.515026841893945"><ele>582.0</ele><time>2026-04-26T14:53:19Z</time></trkpt><trkpt lat="43.460888674376214" lon="11.515081012936815"><ele>582.0</ele><time>2026-04-26T14:53:20Z</time></trkpt><trkpt lat="43.460806925729834" lon="11.515130368777115"><ele>582.0</ele><time>2026-04-26T14:53:21Z</time></trkpt><trkpt lat="43.46072894294933" lon="11.515179798326358"><ele>582.0</ele><time>2026-04-26T14:53:22Z</time></trkpt><trkpt lat="43.46064830812133" lon="11.515236247605797"><ele>582.0</ele><time>2026-04-26T14:53:23Z</time></trkpt><trkpt lat="43.460575229494744" lon="11.515292305576896"><ele>582.0</ele><time>2026-04-26T14:53:24Z</time></trkpt><trkpt lat="43.46051490911525" lon="11.51535173438238"><ele>582.0</ele><time>2026-04-26T14:53:25Z</time></trkpt><trkpt lat="43.46046436848195" lon="11.515413116161684"><ele>583.8333333333334</ele><time>2026-04-26T14:53:26Z</time></trkpt><trkpt lat="43.46042289254188" lon="11.515486970415889"><ele>585.6666666666666</ele><time>2026-04-26T14:53:27Z</time></trkpt><trkpt lat="43.46038943207581" lon="11.515575323705452"><ele>587.5</ele><time>2026-04-26T14:53:28Z</time></trkpt><trkpt lat="43.46037299386385" lon="11.51567532447603"><ele>589.3333333333333</ele><time>2026-04-26T14:53:29Z</time></trkpt><trkpt lat="43.46036836566332" lon="11.515791201305657"><ele>591.1666666666666</ele><time>2026-04-26T14:53:30Z</time></trkpt><trkpt lat="43.46037662971054" lon="11.515913736587416"><ele>593.0</ele><time>2026-04-26T14:53:31Z</time></trkpt><trkpt lat="43.46037869462874" lon="11.516049670652926"><ele>592.9999999999999</ele><time>2026-04-26T14:53:32Z</time></trkpt><trkpt lat="43.4603805905008" lon="11.516173335809105"><ele>593.0</ele><time>2026-04-26T14:53:33Z</time></trkpt><trkpt lat="43.46038112568263" lon="11.51626174213426"><ele>593.0</ele><time>2026-04-26T14:53:34Z</time></trkpt><trkpt lat="43.46038331811895" lon="11.516350140117476"><ele>593.0</ele><time>2026-04-26T14:53:35Z</time></trkpt><trkpt lat="43.46038341591763" lon="11.516440538458772"><ele>593.0</ele><time>2026-04-26T14:53:36Z</time></trkpt><trkpt lat="43.46036545226896" lon="11.516534324042189"><ele>592.9999999999999</ele><time>2026-04-26T14:53:37Z</time></trkpt><trkpt lat="43.46032239725537" lon="11.51661644520021"><ele>593.0</ele><time>2026-04-26T14:53:38Z</time></trkpt><trkpt lat="43.46026379097108" lon="11.516687590228168"><ele>592.8333333333333</ele><time>2026-04-26T14:53:39Z</time></trkpt><trkpt lat="43.46019209755447" lon="11.516746103630963"><ele>592.6666666666666</ele><time>2026-04-26T14:53:40Z</time></trkpt><trkpt lat="43.46011616290034" lon="11.516794457966892"><ele>592.5</ele><time>2026-04-26T14:53:41Z</time></trkpt><trkpt lat="43.46003584519329" lon="11.516830907335958"><ele>592.3333333333334</ele><time>2026-04-26T14:53:42Z</time></trkpt><trkpt lat="43.45996109418451" lon="11.5168576665799"><ele>592.1666666666667</ele><time>2026-04-26T14:53:43Z</time></trkpt><trkpt lat="43.45988617851569" lon="11.51688306180879"><ele>592.0</ele><time>2026-04-26T14:53:44Z</time></trkpt><trkpt lat="43.459814477991415" lon="11.516907217858702"><ele>592.0</ele><time>2026-04-26T14:53:45Z</time></trkpt><trkpt lat="43.45971672180803" lon="11.516911294046224"><ele>592.0</ele><time>2026-04-26T14:53:47Z</time></trkpt><trkpt lat="43.45963125310748" lon="11.516836730533388"><ele>592.0</ele><time>2026-04-26T14:53:49Z</time></trkpt><trkpt lat="43.45959142852303" lon="11.51668820675808"><ele>592.0</ele><time>2026-04-26T14:53:51Z</time></trkpt><trkpt lat="43.45960723032892" lon="11.516532627174024"><ele>592.0</ele><time>2026-04-26T14:53:53Z</time></trkpt><trkpt lat="43.45963227519326" lon="11.516405575679665"><ele>592.0</ele><time>2026-04-26T14:53:55Z</time></trkpt><trkpt lat="43.4596455721661" lon="11.516295646175521"><ele>592.0</ele><time>2026-04-26T14:53:57Z</time></trkpt><trkpt lat="43.45960486905488" lon="11.516222230178418"><ele>592.0</ele><time>2026-04-26T14:56:51Z</time></trkpt><trkpt lat="43.459644729463825" lon="11.516154191153143"><ele>592.0</ele><time>2026-04-26T15:08:07Z</time></trkpt><trkpt lat="43.45968981256304" lon="11.516076442354874"><ele>592.0</ele><time>2026-04-26T15:08:17Z</time></trkpt><trkpt lat="43.4596630185526" lon="11.516160890896417"><ele>592.0</ele><time>2026-04-26T15:08:27Z</time></trkpt><trkpt lat="43.45964590418832" lon="11.51624597242826"><ele>592.0</ele><time>2026-04-26T15:08:33Z</time></trkpt><trkpt lat="43.45960678187382" lon="11.51633152150018"><ele>592.0</ele><time>2026-04-26T15:11:08.001Z</time></trkpt><trkpt lat="43.45958535667017" lon="11.516473550077606"><ele>592.0</ele><time>2026-04-26T15:11:11.001Z</time></trkpt><trkpt lat="43.45957284159654" lon="11.51656474451148"><ele>592.0</ele><time>2026-04-26T15:11:12.001Z</time></trkpt><trkpt lat="43.45957957109553" lon="11.516667724811803"><ele>592.0</ele><time>2026-04-26T15:11:14.001Z</time></trkpt><trkpt lat="43.45959428055534" lon="11.516757414379866"><ele>592.0</ele><time>2026-04-26T15:11:16.001Z</time></trkpt><trkpt lat="43.45962322220909" lon="11.516854038800895"><ele>592.0</ele><time>2026-04-26T15:11:19.001Z</time></trkpt><trkpt lat="43.459670513212984" lon="11.516911336990612"><ele>592.0</ele><time>2026-04-26T15:11:22.001Z</time></trkpt><trkpt lat="43.45974521856079" lon="11.516934241070484"><ele>592.0</ele><time>2026-04-26T15:11:26.001Z</time></trkpt><trkpt lat="43.45982382412072" lon="11.516913709695437"><ele>592.0</ele><time>2026-04-26T15:11:28.001Z</time></trkpt><trkpt lat="43.45993225594019" lon="11.516864665284544"><ele>592.0</ele><time>2026-04-26T15:11:30.001Z</time></trkpt><trkpt lat="43.460044657501115" lon="11.516852426363748"><ele>592.0</ele><time>2026-04-26T15:11:32.001Z</time></trkpt><trkpt lat="43.46014373720952" lon="11.516796367368059"><ele>592.0</ele><time>2026-04-26T15:11:34.001Z</time></trkpt><trkpt lat="43.460249367091635" lon="11.516734659190258"><ele>592.0</ele><time>2026-04-26T15:11:36.001Z</time></trkpt><trkpt lat="43.46034553965657" lon="11.516636411680956"><ele>592.0</ele><time>2026-04-26T15:11:38.001Z</time></trkpt><trkpt lat="43.46037799764737" lon="11.516560034311471"><ele>592.0</ele><time>2026-04-26T15:11:39.001Z</time></trkpt><trkpt lat="43.46039969750936" lon="11.516478287881181"><ele>592.0</ele><time>2026-04-26T15:11:40.001Z</time></trkpt><trkpt lat="43.46041464480707" lon="11.51638707254752"><ele>592.0</ele><time>2026-04-26T15:11:42Z</time></trkpt><trkpt lat="43.46042246104069" lon="11.516247457864864"><ele>592.1666666666667</ele><time>2026-04-26T15:13:07Z</time></trkpt><trkpt lat="43.46041620065318" lon="11.516139190758539"><ele>592.3333333333334</ele><time>2026-04-26T15:13:09Z</time></trkpt><trkpt lat="43.46040923052561" lon="11.516019996378855"><ele>592.5</ele><time>2026-04-26T15:13:11Z</time></trkpt><trkpt lat="43.46040831115416" lon="11.515884524719171"><ele>592.6666666666666</ele><time>2026-04-26T15:13:13Z</time></trkpt><trkpt lat="43.460409170768585" lon="11.515757064049227"><ele>592.8333333333333</ele><time>2026-04-26T15:13:15Z</time></trkpt><trkpt lat="43.46041749273269" lon="11.51564725565136"><ele>593.0</ele><time>2026-04-26T15:13:17Z</time></trkpt><trkpt lat="43.460443752403116" lon="11.515552692330324"><ele>591.1666666666666</ele><time>2026-04-26T15:13:19Z</time></trkpt><trkpt lat="43.46049593931157" lon="11.515442741034581"><ele>589.3333333333333</ele><time>2026-04-26T15:13:21Z</time></trkpt><trkpt lat="43.46056855463812" lon="11.515350306344192"><ele>587.5</ele><time>2026-04-26T15:13:23Z</time></trkpt><trkpt lat="43.46063039731213" lon="11.515291719197768"><ele>585.6666666666666</ele><time>2026-04-26T15:13:25Z</time></trkpt><trkpt lat="43.460688269196055" lon="11.515251041324808"><ele>583.8333333333334</ele><time>2026-04-26T15:13:27Z</time></trkpt><trkpt lat="43.460775178222335" lon="11.515194328942648"><ele>582.0</ele><time>2026-04-26T15:13:29Z</time></trkpt><trkpt lat="43.46086959259264" lon="11.515129332085307"><ele>582.0</ele><time>2026-04-26T15:13:31Z</time></trkpt><trkpt lat="43.460959410575384" lon="11.515044943587522"><ele>582.0</ele><time>2026-04-26T15:13:33Z</time></trkpt><trkpt lat="43.46104453192431" lon="11.514993761565057"><ele>582.0</ele><time>2026-04-26T15:13:35Z</time></trkpt><trkpt lat="43.461133421418864" lon="11.514940170048506"><ele>582.0</ele><time>2026-04-26T15:13:36.999Z</time></trkpt><trkpt lat="43.46120591690468" lon="11.514837072285877"><ele>582.0</ele><time>2026-04-26T15:13:38.999Z</time></trkpt><trkpt lat="43.461244385657515" lon="11.514691235224264"><ele>583.4</ele><time>2026-04-26T15:13:40.999Z</time></trkpt><trkpt lat="43.46127870343314" lon="11.514542583031291"><ele>584.8000000000001</ele><time>2026-04-26T15:13:42.999Z</time></trkpt><trkpt lat="43.461307526982964" lon="11.514388983443522"><ele>586.2</ele><time>2026-04-26T15:13:44.999Z</time></trkpt><trkpt lat="43.46133376962522" lon="11.51426627975665"><ele>587.6</ele><time>2026-04-26T15:13:46.999Z</time></trkpt><trkpt lat="43.46137659846676" lon="11.514157091226211"><ele>589.0</ele><time>2026-04-26T15:13:48.999Z</time></trkpt><trkpt lat="43.46144741447781" lon="11.514055214473629"><ele>584.8</ele><time>2026-04-26T15:13:50.999Z</time></trkpt><trkpt lat="43.46155713176014" lon="11.51401786539531"><ele>580.5999999999999</ele><time>2026-04-26T15:13:52.999Z</time></trkpt><trkpt lat="43.46162809777326" lon="11.51402481359167"><ele>576.4</ele><time>2026-04-26T15:13:53.999Z</time></trkpt><trkpt lat="43.461697973095596" lon="11.514039095502058"><ele>572.1999999999999</ele><time>2026-04-26T15:13:54.999Z</time></trkpt><trkpt lat="43.461813255987686" lon="11.514060798851295"><ele>568.0</ele><time>2026-04-26T15:13:56.999Z</time></trkpt><trkpt lat="43.46189915364561" lon="11.514048327021834"><ele>568.0</ele><time>2026-04-26T15:13:58.999Z</time></trkpt><trkpt lat="43.46197675291938" lon="11.513981748779383"><ele>568.0</ele><time>2026-04-26T15:14:00.999Z</time></trkpt><trkpt lat="43.462030111763944" lon="11.513856616219021"><ele>568.0</ele><time>2026-04-26T15:14:02.999Z</time></trkpt><trkpt lat="43.46202265326499" lon="11.513764643237883"><ele>568.0</ele><time>2026-04-26T15:14:03.999Z</time></trkpt><trkpt lat="43.46198586148297" lon="11.513675381760494"><ele>568.0</ele><time>2026-04-26T15:14:04.999Z</time></trkpt><trkpt lat="43.461917983609226" lon="11.513624468543485"><ele>568.0</ele><time>2026-04-26T15:14:05.999Z</time></trkpt><trkpt lat="43.461834259803815" lon="11.51362485630764"><ele>567.6</ele><time>2026-04-26T15:14:06.999Z</time></trkpt><trkpt lat="43.46177046631173" lon="11.51359427462542"><ele>567.1999999999999</ele><time>2026-04-26T15:14:07.999Z</time></trkpt><trkpt lat="43.461695098228155" lon="11.513518730804586"><ele>566.8</ele><time>2026-04-26T15:14:09.999Z</time></trkpt><trkpt lat="43.46161307939359" lon="11.513400340132717"><ele>566.4</ele><time>2026-04-26T15:14:11.999Z</time></trkpt><trkpt lat="43.461574945161935" lon="11.513321252531204"><ele>566.0</ele><time>2026-04-26T15:14:12.999Z</time></trkpt><trkpt lat="43.461532022659824" lon="11.513185736644086"><ele>566.0</ele><time>2026-04-26T15:14:14.999Z</time></trkpt><trkpt lat="43.46151698681884" lon="11.513070678219147"><ele>566.0</ele><time>2026-04-26T15:14:16.999Z</time></trkpt><trkpt lat="43.461520559708624" lon="11.51295182583419"><ele>566.0</ele><time>2026-04-26T15:14:18.999Z</time></trkpt><trkpt lat="43.4615771767826" lon="11.512881000659103"><ele>566.0</ele><time>2026-04-26T15:14:20.999Z</time></trkpt><trkpt lat="43.461666814763404" lon="11.51291167291594"><ele>566.0</ele><time>2026-04-26T15:14:22.999Z</time></trkpt><trkpt lat="43.46172495238772" lon="11.513040343087921"><ele>566.0</ele><time>2026-04-26T15:14:24.999Z</time></trkpt><trkpt lat="43.46175280035979" lon="11.513167455969072"><ele>566.0</ele><time>2026-04-26T15:14:26.999Z</time></trkpt><trkpt lat="43.46182928477908" lon="11.51325609024087"><ele>566.0</ele><time>2026-04-26T15:14:28.999Z</time></trkpt><trkpt lat="43.46193677769068" lon="11.513267304835809"><ele>566.0</ele><time>2026-04-26T15:14:30.999Z</time></trkpt><trkpt lat="43.462034993690466" lon="11.513165941030513"><ele>566.0</ele><time>2026-04-26T15:14:32.999Z</time></trkpt><trkpt lat="43.46204306548813" lon="11.513059918940176"><ele>566.0</ele><time>2026-04-26T15:14:33.999Z</time></trkpt><trkpt lat="43.46202475869218" lon="11.51297560686755"><ele>566.0</ele><time>2026-04-26T15:14:34.999Z</time></trkpt><trkpt lat="43.46202067241085" lon="11.51288099396134"><ele>566.0</ele><time>2026-04-26T15:14:35.999Z</time></trkpt><trkpt lat="43.46201737495002" lon="11.512789743937422"><ele>566.0</ele><time>2026-04-26T15:14:36.999Z</time></trkpt><trkpt lat="43.462003982549895" lon="11.512627292097292"><ele>566.0</ele><time>2026-04-26T15:14:38.999Z</time></trkpt><trkpt lat="43.46199392357828" lon="11.512473288409248"><ele>566.0</ele><time>2026-04-26T15:14:40.999Z</time></trkpt><trkpt lat="43.46200493511215" lon="11.512323214271154"><ele>565.8</ele><time>2026-04-26T15:14:42.999Z</time></trkpt><trkpt lat="43.462040498431605" lon="11.512212154708696"><ele>565.6</ele><time>2026-04-26T15:14:44.999Z</time></trkpt><trkpt lat="43.462107464497734" lon="11.51211883313166"><ele>565.4</ele><time>2026-04-26T15:14:46.999Z</time></trkpt><trkpt lat="43.46217657763772" lon="11.512103632319112"><ele>565.2</ele><time>2026-04-26T15:14:47.999Z</time></trkpt><trkpt lat="43.46229556976474" lon="11.51216423582914"><ele>565.0</ele><time>2026-04-26T15:14:49.999Z</time></trkpt><trkpt lat="43.46236510639045" lon="11.512228746254893"><ele>562.3333333333334</ele><time>2026-04-26T15:14:50.999Z</time></trkpt><trkpt lat="43.462419016978394" lon="11.512309342984928"><ele>559.6666666666667</ele><time>2026-04-26T15:14:51.999Z</time></trkpt><trkpt lat="43.462476099476966" lon="11.512397899283274"><ele>557.0</ele><time>2026-04-26T15:14:52.999Z</time></trkpt><trkpt lat="43.462534064050864" lon="11.51250013081285"><ele>554.3333333333334</ele><time>2026-04-26T15:14:53.999Z</time></trkpt><trkpt lat="43.46259084714805" lon="11.512602783484695"><ele>551.6666666666666</ele><time>2026-04-26T15:14:54.999Z</time></trkpt><trkpt lat="43.4626428884857" lon="11.512713898837363"><ele>549.0</ele><time>2026-04-26T15:14:55.999Z</time></trkpt><trkpt lat="43.46268935865998" lon="11.512826181372786"><ele>548.6666666666666</ele><time>2026-04-26T15:14:56.999Z</time></trkpt><trkpt lat="43.46273501526071" lon="11.512938078061154"><ele>548.3333333333334</ele><time>2026-04-26T15:14:57.999Z</time></trkpt><trkpt lat="43.462765928225764" lon="11.513056120604102"><ele>548.0</ele><time>2026-04-26T15:14:58.999Z</time></trkpt><trkpt lat="43.462788516640984" lon="11.51318028840954"><ele>547.6666666666667</ele><time>2026-04-26T15:14:59.999Z</time></trkpt><trkpt lat="43.46280253094959" lon="11.513299115663678"><ele>547.3333333333334</ele><time>2026-04-26T15:15:00.999Z</time></trkpt><trkpt lat="43.46281100164632" lon="11.513408508496983"><ele>547.0</ele><time>2026-04-26T15:15:01.999Z</time></trkpt><trkpt lat="43.46284523907649" lon="11.51357240392119"><ele>547.0</ele><time>2026-04-26T15:15:03.999Z</time></trkpt><trkpt lat="43.462890238592976" lon="11.513721867172372"><ele>547.0</ele><time>2026-04-26T15:15:05.999Z</time></trkpt><trkpt lat="43.462922255371865" lon="11.513858056041371"><ele>547.0</ele><time>2026-04-26T15:15:07.999Z</time></trkpt><trkpt lat="43.46294415171536" lon="11.514020628109968"><ele>547.0</ele><time>2026-04-26T15:15:09.999Z</time></trkpt><trkpt lat="43.46294894344193" lon="11.51418208145824"><ele>547.6</ele><time>2026-04-26T15:15:11.999Z</time></trkpt><trkpt lat="43.46295936975369" lon="11.514340896329895"><ele>548.2</ele><time>2026-04-26T15:15:13.999Z</time></trkpt><trkpt lat="43.46297536087899" lon="11.51449877585677"><ele>548.8</ele><time>2026-04-26T15:15:15.999Z</time></trkpt><trkpt lat="43.46299520386332" lon="11.514660143262823"><ele>549.4</ele><time>2026-04-26T15:15:17.999Z</time></trkpt><trkpt lat="43.46300899053157" lon="11.514745232594732"><ele>550.0</ele><time>2026-04-26T15:15:18.999Z</time></trkpt><trkpt lat="43.46302927442665" lon="11.514909944485126"><ele>549.0</ele><time>2026-04-26T15:15:20.999Z</time></trkpt><trkpt lat="43.46303823837164" lon="11.515083847354761"><ele>548.0</ele><time>2026-04-26T15:15:22.999Z</time></trkpt><trkpt lat="43.46303426761973" lon="11.515175822514557"><ele>547.0</ele><time>2026-04-26T15:15:23.999Z</time></trkpt><trkpt lat="43.46302309370726" lon="11.515281757950051"><ele>546.0</ele><time>2026-04-26T15:15:24.999Z</time></trkpt><trkpt lat="43.463008324864205" lon="11.515384232828573"><ele>545.0</ele><time>2026-04-26T15:15:25.999Z</time></trkpt><trkpt lat="43.46299430915779" lon="11.515487270832386"><ele>544.0</ele><time>2026-04-26T15:15:26.999Z</time></trkpt><trkpt lat="43.462982895473424" lon="11.515585744688822"><ele>542.5</ele><time>2026-04-26T15:15:27.999Z</time></trkpt><trkpt lat="43.462997204836036" lon="11.515689860801237"><ele>541.0</ele><time>2026-04-26T15:15:28.999Z</time></trkpt><trkpt lat="43.4629988082434" lon="11.515798841029884"><ele>539.5</ele><time>2026-04-26T15:15:29.999Z</time></trkpt><trkpt lat="43.46298948331597" lon="11.515920628398824"><ele>538.0</ele><time>2026-04-26T15:15:31Z</time></trkpt><trkpt lat="43.4630012815952" lon="11.516033017029443"><ele>536.5</ele><time>2026-04-26T15:15:32Z</time></trkpt><trkpt lat="43.46302413414394" lon="11.516142604329037"><ele>535.0</ele><time>2026-04-26T15:15:33Z</time></trkpt><trkpt lat="43.46305157052719" lon="11.516253927797388"><ele>532.7142857142857</ele><time>2026-04-26T15:15:34Z</time></trkpt><trkpt lat="43.4630830421099" lon="11.516357216704126"><ele>530.4285714285714</ele><time>2026-04-26T15:15:35Z</time></trkpt><trkpt lat="43.46312005258478" lon="11.516441212981919"><ele>528.1428571428571</ele><time>2026-04-26T15:15:36Z</time></trkpt><trkpt lat="43.46316489487805" lon="11.516517219627936"><ele>525.8571428571429</ele><time>2026-04-26T15:15:37Z</time></trkpt><trkpt lat="43.463220099995986" lon="11.516581023070357"><ele>523.5714285714286</ele><time>2026-04-26T15:15:38Z</time></trkpt><trkpt lat="43.463267899085686" lon="11.516645832414985"><ele>521.2857142857142</ele><time>2026-04-26T15:15:39Z</time></trkpt><trkpt lat="43.463337166143035" lon="11.516684073016945"><ele>519.0</ele><time>2026-04-26T15:15:40Z</time></trkpt><trkpt lat="43.46342522477139" lon="11.51668693711857"><ele>519.0</ele><time>2026-04-26T15:15:41Z</time></trkpt><trkpt lat="43.46349823788861" lon="11.516658141403711"><ele>519.0</ele><time>2026-04-26T15:15:42Z</time></trkpt><trkpt lat="43.463567827468495" lon="11.516673165722624"><ele>519.0</ele><time>2026-04-26T15:15:43Z</time></trkpt><trkpt lat="43.46363647647659" lon="11.516667752060572"><ele>519.0</ele><time>2026-04-26T15:15:44Z</time></trkpt><trkpt lat="43.463699533383476" lon="11.516655722687423"><ele>519.0</ele><time>2026-04-26T15:15:45Z</time></trkpt><trkpt lat="43.46376634627788" lon="11.516640575875538"><ele>519.0</ele><time>2026-04-26T15:15:46Z</time></trkpt><trkpt lat="43.46387887686649" lon="11.516623002117825"><ele>518.0</ele><time>2026-04-26T15:15:48Z</time></trkpt><trkpt lat="43.4639986374459" lon="11.51665765161357"><ele>517.0</ele><time>2026-04-26T15:15:50Z</time></trkpt><trkpt lat="43.46405336523585" lon="11.51671447743544"><ele>516.0</ele><time>2026-04-26T15:15:51Z</time></trkpt><trkpt lat="43.464094191318424" lon="11.516796733894285"><ele>515.0</ele><time>2026-04-26T15:15:52Z</time></trkpt><trkpt lat="43.46414559904454" lon="11.516891168564728"><ele>514.0</ele><time>2026-04-26T15:15:53Z</time></trkpt><trkpt lat="43.46419392773623" lon="11.516994509969523"><ele>513.0</ele><time>2026-04-26T15:15:54Z</time></trkpt><trkpt lat="43.464241048901734" lon="11.517104894962044"><ele>512.0</ele><time>2026-04-26T15:15:55Z</time></trkpt><trkpt lat="43.464284902022136" lon="11.517211073962176"><ele>511.0</ele><time>2026-04-26T15:15:56Z</time></trkpt><trkpt lat="43.464339792442225" lon="11.517304931906093"><ele>510.0</ele><time>2026-04-26T15:15:57Z</time></trkpt><trkpt lat="43.46437865636872" lon="11.517410579712408"><ele>509.0</ele><time>2026-04-26T15:15:58Z</time></trkpt><trkpt lat="43.46441673915217" lon="11.517518991375539"><ele>508.0</ele><time>2026-04-26T15:15:59Z</time></trkpt><trkpt lat="43.46445756057752" lon="11.517623282048774"><ele>507.0</ele><time>2026-04-26T15:16:00Z</time></trkpt><trkpt lat="43.46450606817054" lon="11.517716829859072"><ele>507.0</ele><time>2026-04-26T15:16:01Z</time></trkpt><trkpt lat="43.46455930710263" lon="11.517794586274"><ele>507.00000000000006</ele><time>2026-04-26T15:16:02Z</time></trkpt><trkpt lat="43.46461619649481" lon="11.517881266118032"><ele>507.00000000000006</ele><time>2026-04-26T15:16:03Z</time></trkpt><trkpt lat="43.46469656502655" lon="11.51795557280105"><ele>507.0</ele><time>2026-04-26T15:16:04Z</time></trkpt><trkpt lat="43.46478029671778" lon="11.51801468576903"><ele>507.0</ele><time>2026-04-26T15:16:05Z</time></trkpt><trkpt lat="43.464875190577885" lon="11.51806239566434"><ele>507.5</ele><time>2026-04-26T15:16:06Z</time></trkpt><trkpt lat="43.46495258361369" lon="11.518152195078752"><ele>508.0</ele><time>2026-04-26T15:16:07Z</time></trkpt><trkpt lat="43.46502812245183" lon="11.518225437746585"><ele>508.5</ele><time>2026-04-26T15:16:08Z</time></trkpt><trkpt lat="43.46508803909171" lon="11.51828956069305"><ele>509.0</ele><time>2026-04-26T15:16:09Z</time></trkpt><trkpt lat="43.46513249727012" lon="11.518351678389378"><ele>509.5</ele><time>2026-04-26T15:16:10Z</time></trkpt><trkpt lat="43.46516966317796" lon="11.518439712369288"><ele>510.0</ele><time>2026-04-26T15:16:11Z</time></trkpt><trkpt lat="43.46520069521015" lon="11.5185294429006"><ele>510.0</ele><time>2026-04-26T15:16:12Z</time></trkpt><trkpt lat="43.46520296876433" lon="11.518658245513723"><ele>510.0</ele><time>2026-04-26T15:16:13Z</time></trkpt><trkpt lat="43.4652074318649" lon="11.518797099001791"><ele>510.0</ele><time>2026-04-26T15:16:14Z</time></trkpt><trkpt lat="43.4652215074806" lon="11.518911539843165"><ele>510.0</ele><time>2026-04-26T15:16:15Z</time></trkpt><trkpt lat="43.465245869174446" lon="11.51900056482018"><ele>510.0</ele><time>2026-04-26T15:16:16Z</time></trkpt><trkpt lat="43.46528412429019" lon="11.519087214574226"><ele>510.0</ele><time>2026-04-26T15:16:17Z</time></trkpt><trkpt lat="43.46533335695771" lon="11.519176888918222"><ele>509.3333333333333</ele><time>2026-04-26T15:16:18Z</time></trkpt><trkpt lat="43.465392617027184" lon="11.519257893241427"><ele>508.66666666666663</ele><time>2026-04-26T15:16:19Z</time></trkpt><trkpt lat="43.46545589814742" lon="11.51933674545004"><ele>508.0</ele><time>2026-04-26T15:16:20Z</time></trkpt><trkpt lat="43.465516278628414" lon="11.519405451146694"><ele>507.3333333333333</ele><time>2026-04-26T15:16:21Z</time></trkpt><trkpt lat="43.46558015233466" lon="11.519464730243897"><ele>506.66666666666663</ele><time>2026-04-26T15:16:22Z</time></trkpt><trkpt lat="43.46564498934746" lon="11.519498428183987"><ele>506.0</ele><time>2026-04-26T15:16:23Z</time></trkpt><trkpt lat="43.465713858673766" lon="11.519514322548686"><ele>511.0</ele><time>2026-04-26T15:16:24Z</time></trkpt><trkpt lat="43.46578301206886" lon="11.519529795106692"><ele>516.0</ele><time>2026-04-26T15:16:25Z</time></trkpt><trkpt lat="43.465862231802234" lon="11.519497112003025"><ele>521.0</ele><time>2026-04-26T15:16:26Z</time></trkpt><trkpt lat="43.46594422561646" lon="11.519443544561948"><ele>526.0</ele><time>2026-04-26T15:16:27Z</time></trkpt><trkpt lat="43.46603884303139" lon="11.5193862032804"><ele>531.0</ele><time>2026-04-26T15:16:28Z</time></trkpt><trkpt lat="43.46614323590601" lon="11.519341665935665"><ele>531.0</ele><time>2026-04-26T15:16:29Z</time></trkpt><trkpt lat="43.4662423780742" lon="11.519304946785631"><ele>531.0</ele><time>2026-04-26T15:16:30Z</time></trkpt><trkpt lat="43.46633263571345" lon="11.519273710901295"><ele>531.0</ele><time>2026-04-26T15:16:31Z</time></trkpt><trkpt lat="43.46642041285887" lon="11.51924636772117"><ele>531.0</ele><time>2026-04-26T15:16:32Z</time></trkpt><trkpt lat="43.46650427534945" lon="11.519206672002289"><ele>531.0</ele><time>2026-04-26T15:16:33Z</time></trkpt><trkpt lat="43.46658641059249" lon="11.51917472716837"><ele>533.1666666666666</ele><time>2026-04-26T15:16:34Z</time></trkpt><trkpt lat="43.4666575977567" lon="11.519139157711564"><ele>535.3333333333334</ele><time>2026-04-26T15:16:35Z</time></trkpt><trkpt lat="43.46672356309759" lon="11.519096378544543"><ele>537.5</ele><time>2026-04-26T15:16:36Z</time></trkpt><trkpt lat="43.46678067759962" lon="11.519040705194437"><ele>539.6666666666667</ele><time>2026-04-26T15:16:37Z</time></trkpt><trkpt lat="43.46687790945896" lon="11.51899278992087"><ele>541.8333333333334</ele><time>2026-04-26T15:16:39Z</time></trkpt><trkpt lat="43.466955045156" lon="11.519005279642037"><ele>544.0</ele><time>2026-04-26T15:16:41Z</time></trkpt><trkpt lat="43.46699169576126" lon="11.519111881597423"><ele>544.0</ele><time>2026-04-26T15:16:43Z</time></trkpt><trkpt lat="43.466982921134054" lon="11.519198883623929"><ele>544.0</ele><time>2026-04-26T15:16:44Z</time></trkpt><trkpt lat="43.46701681646682" lon="11.51932969061881"><ele>544.0</ele><time>2026-04-26T15:16:46Z</time></trkpt><trkpt lat="43.46710748694694" lon="11.519407677832929"><ele>544.0</ele><time>2026-04-26T15:16:48Z</time></trkpt><trkpt lat="43.4671725902138" lon="11.51943816579689"><ele>544.0</ele><time>2026-04-26T15:16:49Z</time></trkpt><trkpt lat="43.46725893476713" lon="11.519466473385542"><ele>544.0</ele><time>2026-04-26T15:16:50Z</time></trkpt><trkpt lat="43.46734678758008" lon="11.51950127321851"><ele>545.3333333333334</ele><time>2026-04-26T15:16:51Z</time></trkpt><trkpt lat="43.46742250690517" lon="11.519532166746263"><ele>546.6666666666667</ele><time>2026-04-26T15:16:52Z</time></trkpt><trkpt lat="43.467499207250754" lon="11.51953813082303"><ele>548.0</ele><time>2026-04-26T15:16:53Z</time></trkpt><trkpt lat="43.46757702585982" lon="11.519533398406692"><ele>549.3333333333334</ele><time>2026-04-26T15:16:54Z</time></trkpt><trkpt lat="43.467652308939414" lon="11.519549039863938"><ele>550.6666666666666</ele><time>2026-04-26T15:16:55Z</time></trkpt><trkpt lat="43.46776347660792" lon="11.519552486255556"><ele>552.0</ele><time>2026-04-26T15:16:57Z</time></trkpt><trkpt lat="43.46782627810527" lon="11.519616510296562"><ele>552.0</ele><time>2026-04-26T15:16:59Z</time></trkpt><trkpt lat="43.46781710420964" lon="11.519751684246737"><ele>552.0</ele><time>2026-04-26T15:17:01Z</time></trkpt><trkpt lat="43.467786926075874" lon="11.519837066589579"><ele>552.0</ele><time>2026-04-26T15:17:02Z</time></trkpt><trkpt lat="43.46775614521875" lon="11.519937831457943"><ele>552.0</ele><time>2026-04-26T15:17:03Z</time></trkpt><trkpt lat="43.46773363593907" lon="11.520039341400507"><ele>552.0</ele><time>2026-04-26T15:17:04Z</time></trkpt><trkpt lat="43.467710012250315" lon="11.520137127141119"><ele>552.0</ele><time>2026-04-26T15:17:05Z</time></trkpt><trkpt lat="43.467696926593" lon="11.52022987078585"><ele>552.0</ele><time>2026-04-26T15:17:06Z</time></trkpt><trkpt lat="43.46769504346254" lon="11.52033267521588"><ele>552.0</ele><time>2026-04-26T15:17:07Z</time></trkpt><trkpt lat="43.46771060041843" lon="11.520433411614013"><ele>552.0</ele><time>2026-04-26T15:17:08Z</time></trkpt><trkpt lat="43.467739758786756" lon="11.5205431160019"><ele>552.0</ele><time>2026-04-26T15:17:09Z</time></trkpt><trkpt lat="43.467791281883336" lon="11.520699705500492"><ele>552.0</ele><time>2026-04-26T15:17:10Z</time></trkpt><trkpt lat="43.467845636869576" lon="11.520861868015793"><ele>552.4</ele><time>2026-04-26T15:17:11Z</time></trkpt><trkpt lat="43.46789311433304" lon="11.521013065250921"><ele>552.8000000000001</ele><time>2026-04-26T15:17:12Z</time></trkpt><trkpt lat="43.46793651689096" lon="11.521158836129805"><ele>553.2</ele><time>2026-04-26T15:17:13Z</time></trkpt><trkpt lat="43.46797989128789" lon="11.52129173799545"><ele>553.6</ele><time>2026-04-26T15:17:14Z</time></trkpt><trkpt lat="43.46802129025094" lon="11.521410506133728"><ele>554.0</ele><time>2026-04-26T15:17:15Z</time></trkpt><trkpt lat="43.46805643212087" lon="11.521520782460751"><ele>557.3333333333333</ele><time>2026-04-26T15:17:16Z</time></trkpt><trkpt lat="43.46808312836181" lon="11.52162233422082"><ele>560.6666666666666</ele><time>2026-04-26T15:17:17Z</time></trkpt><trkpt lat="43.46810245775546" lon="11.521717195109291"><ele>564.0</ele><time>2026-04-26T15:17:18Z</time></trkpt><trkpt lat="43.468110913208115" lon="11.521825084235429"><ele>567.3333333333334</ele><time>2026-04-26T15:17:19Z</time></trkpt><trkpt lat="43.46810471863557" lon="11.521934952176805"><ele>570.6666666666667</ele><time>2026-04-26T15:17:20Z</time></trkpt><trkpt lat="43.468088857922325" lon="11.522043120515571"><ele>574.0</ele><time>2026-04-26T15:17:21Z</time></trkpt><trkpt lat="43.46805557572094" lon="11.522192821524966"><ele>574.0</ele><time>2026-04-26T15:17:23Z</time></trkpt><trkpt lat="43.46807918666584" lon="11.522313478651697"><ele>574.0</ele><time>2026-04-26T15:17:25Z</time></trkpt><trkpt lat="43.46816592038365" lon="11.522355763818322"><ele>574.0</ele><time>2026-04-26T15:17:27Z</time></trkpt><trkpt lat="43.46823495967917" lon="11.522274607039632"><ele>574.0</ele><time>2026-04-26T15:17:29Z</time></trkpt><trkpt lat="43.46828461975403" lon="11.522133286466373"><ele>574.0</ele><time>2026-04-26T15:17:31Z</time></trkpt><trkpt lat="43.46833363870307" lon="11.522070467728254"><ele>574.1666666666667</ele><time>2026-04-26T15:17:32Z</time></trkpt><trkpt lat="43.468370553061405" lon="11.521992973484723"><ele>574.3333333333334</ele><time>2026-04-26T15:17:33Z</time></trkpt><trkpt lat="43.46842055763703" lon="11.521891901851575"><ele>574.5</ele><time>2026-04-26T15:17:35Z</time></trkpt><trkpt lat="43.46846896347434" lon="11.521819373951478"><ele>574.6666666666666</ele><time>2026-04-26T15:17:37Z</time></trkpt><trkpt lat="43.46855671979389" lon="11.521860087754114"><ele>574.8333333333333</ele><time>2026-04-26T15:17:40Z</time></trkpt><trkpt lat="43.468619408327655" lon="11.521923761795051"><ele>575.0</ele><time>2026-04-26T15:17:42Z</time></trkpt><trkpt lat="43.4686878454077" lon="11.521978912318678"><ele>575.3333333333333</ele><time>2026-04-26T15:17:44Z</time></trkpt><trkpt lat="43.4687776561795" lon="11.522016192023452"><ele>575.6666666666666</ele><time>2026-04-26T15:17:46Z</time></trkpt><trkpt lat="43.468842315464194" lon="11.522028361815726"><ele>576.0</ele><time>2026-04-26T15:17:47Z</time></trkpt><trkpt lat="43.46890541152764" lon="11.52204928197569"><ele>576.3333333333334</ele><time>2026-04-26T15:17:48Z</time></trkpt><trkpt lat="43.469019813860825" lon="11.522081115041168"><ele>576.6666666666667</ele><time>2026-04-26T15:17:50Z</time></trkpt><trkpt lat="43.46911348702696" lon="11.522103983147177"><ele>577.0</ele><time>2026-04-26T15:17:52Z</time></trkpt><trkpt lat="43.469186408825784" lon="11.522125449108472"><ele>577.0</ele><time>2026-04-26T15:17:54Z</time></trkpt><trkpt lat="43.469255764270024" lon="11.522124838713731"><ele>577.0</ele><time>2026-04-26T15:17:56Z</time></trkpt><trkpt lat="43.46933487071046" lon="11.522081735035455"><ele>577.0</ele><time>2026-04-26T15:17:58Z</time></trkpt><trkpt lat="43.469343316097415" lon="11.52192180116698"><ele>577.0</ele><time>2026-04-26T15:18:00Z</time></trkpt><trkpt lat="43.46929379852451" lon="11.521797895773004"><ele>577.0</ele><time>2026-04-26T15:18:02Z</time></trkpt><trkpt lat="43.46930717024349" lon="11.521692733510294"><ele>576.1666666666667</ele><time>2026-04-26T15:18:04Z</time></trkpt><trkpt lat="43.46935690093163" lon="11.52159093265578"><ele>575.3333333333334</ele><time>2026-04-26T15:18:06Z</time></trkpt><trkpt lat="43.46942028714279" lon="11.52156511731744"><ele>574.5</ele><time>2026-04-26T15:18:07Z</time></trkpt><trkpt lat="43.469471616352536" lon="11.521496412633146"><ele>573.6666666666666</ele><time>2026-04-26T15:18:08Z</time></trkpt><trkpt lat="43.46953361421733" lon="11.521453682504367"><ele>572.8333333333333</ele><time>2026-04-26T15:18:09Z</time></trkpt><trkpt lat="43.46964237934059" lon="11.521387695563542"><ele>572.0</ele><time>2026-04-26T15:18:11Z</time></trkpt><trkpt lat="43.46970735371014" lon="11.52133894207561"><ele>569.6666666666666</ele><time>2026-04-26T15:18:12Z</time></trkpt><trkpt lat="43.46978147987421" lon="11.521280638685452"><ele>567.3333333333333</ele><time>2026-04-26T15:18:13Z</time></trkpt><trkpt lat="43.46985189528829" lon="11.52122161657984"><ele>565.0</ele><time>2026-04-26T15:18:14Z</time></trkpt><trkpt lat="43.46991441946091" lon="11.521164909838108"><ele>562.6666666666666</ele><time>2026-04-26T15:18:15Z</time></trkpt><trkpt lat="43.46998300132718" lon="11.521099172777806"><ele>560.3333333333334</ele><time>2026-04-26T15:18:16Z</time></trkpt><trkpt lat="43.470045675131495" lon="11.521039098727343"><ele>558.0</ele><time>2026-04-26T15:18:17Z</time></trkpt><trkpt lat="43.470109849452356" lon="11.520981225260446"><ele>557.9999999999999</ele><time>2026-04-26T15:18:18Z</time></trkpt><trkpt lat="43.47017458007099" lon="11.520923335698685"><ele>558.0</ele><time>2026-04-26T15:18:19Z</time></trkpt><trkpt lat="43.47023912411022" lon="11.520869304328265"><ele>558.0</ele><time>2026-04-26T15:18:20Z</time></trkpt><trkpt lat="43.470297133411115" lon="11.520806380167796"><ele>558.0</ele><time>2026-04-26T15:18:21Z</time></trkpt><trkpt lat="43.47036011126967" lon="11.520774204890698"><ele>558.0</ele><time>2026-04-26T15:18:22Z</time></trkpt><trkpt lat="43.47041838889818" lon="11.520737716550562"><ele>557.9999999999999</ele><time>2026-04-26T15:18:23Z</time></trkpt><trkpt lat="43.47048142548289" lon="11.520705125192944"><ele>558.0</ele><time>2026-04-26T15:18:24Z</time></trkpt><trkpt lat="43.47053571755267" lon="11.520656273119604"><ele>555.6666666666666</ele><time>2026-04-26T15:18:25Z</time></trkpt><trkpt lat="43.47058843281331" lon="11.520595036733813"><ele>553.3333333333334</ele><time>2026-04-26T15:18:26Z</time></trkpt><trkpt lat="43.47063641327857" lon="11.520501472660076"><ele>551.0</ele><time>2026-04-26T15:18:27Z</time></trkpt><trkpt lat="43.47067929489498" lon="11.520410189871663"><ele>548.6666666666667</ele><time>2026-04-26T15:18:28Z</time></trkpt><trkpt lat="43.47071534313364" lon="11.520317422538394"><ele>546.3333333333334</ele><time>2026-04-26T15:18:29Z</time></trkpt><trkpt lat="43.470747435535195" lon="11.52022756378776"><ele>544.0</ele><time>2026-04-26T15:18:30Z</time></trkpt><trkpt lat="43.47077524569849" lon="11.52012082046415"><ele>544.0</ele><time>2026-04-26T15:18:31Z</time></trkpt><trkpt lat="43.47079639646427" lon="11.520021396506944"><ele>544.0</ele><time>2026-04-26T15:18:32Z</time></trkpt><trkpt lat="43.47080497873919" lon="11.519914384108061"><ele>544.0</ele><time>2026-04-26T15:18:33Z</time></trkpt><trkpt lat="43.47086018292689" lon="11.519822281639689"><ele>544.0</ele><time>2026-04-26T15:18:34Z</time></trkpt><trkpt lat="43.47090942853237" lon="11.519734315089389"><ele>544.0</ele><time>2026-04-26T15:18:35Z</time></trkpt><trkpt lat="43.47096486308295" lon="11.519687081389298"><ele>544.0</ele><time>2026-04-26T15:18:36Z</time></trkpt><trkpt lat="43.47101135438253" lon="11.519626407208007"><ele>544.0</ele><time>2026-04-26T15:18:37Z</time></trkpt><trkpt lat="43.471078221286874" lon="11.519616615291381"><ele>544.0</ele><time>2026-04-26T15:18:38Z</time></trkpt><trkpt lat="43.47118120002204" lon="11.519604968485492"><ele>544.0</ele><time>2026-04-26T15:18:40Z</time></trkpt><trkpt lat="43.471265971247554" lon="11.519522662832259"><ele>544.0</ele><time>2026-04-26T15:18:42Z</time></trkpt><trkpt lat="43.47129560726798" lon="11.519445432938841"><ele>544.0</ele><time>2026-04-26T15:18:43Z</time></trkpt><trkpt lat="43.47133779232074" lon="11.519362036931097"><ele>544.0</ele><time>2026-04-26T15:18:44Z</time></trkpt><trkpt lat="43.47136063684343" lon="11.519269761168973"><ele>542.5</ele><time>2026-04-26T15:18:45Z</time></trkpt><trkpt lat="43.47138907393842" lon="11.51912601747462"><ele>541.0</ele><time>2026-04-26T15:18:47Z</time></trkpt><trkpt lat="43.47141363293925" lon="11.519042090481538"><ele>539.5</ele><time>2026-04-26T15:18:49Z</time></trkpt><trkpt lat="43.47152044228499" lon="11.519083556033554"><ele>538.0</ele><time>2026-04-26T15:18:51Z</time></trkpt><trkpt lat="43.471581970572224" lon="11.519141513749434"><ele>536.5</ele><time>2026-04-26T15:18:52Z</time></trkpt><trkpt lat="43.471631671616514" lon="11.519206263624353"><ele>535.0</ele><time>2026-04-26T15:18:53Z</time></trkpt><trkpt lat="43.47173977988168" lon="11.519288343432907"><ele>535.0</ele><time>2026-04-26T15:18:55Z</time></trkpt><trkpt lat="43.47180812972715" lon="11.519305714015207"><ele>535.0</ele><time>2026-04-26T15:18:56Z</time></trkpt><trkpt lat="43.47187909708553" lon="11.519298067743172"><ele>535.0</ele><time>2026-04-26T15:18:57Z</time></trkpt><trkpt lat="43.47195675709992" lon="11.519291660010195"><ele>535.0</ele><time>2026-04-26T15:18:58Z</time></trkpt><trkpt lat="43.47202288765979" lon="11.519213978994289"><ele>535.0</ele><time>2026-04-26T15:18:59Z</time></trkpt><trkpt lat="43.47209787858195" lon="11.519142089127625"><ele>535.0</ele><time>2026-04-26T15:19:00Z</time></trkpt><trkpt lat="43.472188623431045" lon="11.519084056449817"><ele>535.5</ele><time>2026-04-26T15:19:01Z</time></trkpt><trkpt lat="43.472270258024075" lon="11.519003334000132"><ele>536.0</ele><time>2026-04-26T15:19:02Z</time></trkpt><trkpt lat="43.47236781408392" lon="11.518900126077359"><ele>536.5</ele><time>2026-04-26T15:19:03Z</time></trkpt><trkpt lat="43.47246296035576" lon="11.518777836865766"><ele>537.0</ele><time>2026-04-26T15:19:04Z</time></trkpt><trkpt lat="43.47257279981157" lon="11.518668520098261"><ele>537.0</ele><time>2026-04-26T15:19:05Z</time></trkpt><trkpt lat="43.472677942359425" lon="11.518566492075378"><ele>537.0</ele><time>2026-04-26T15:19:06Z</time></trkpt><trkpt lat="43.472785614188304" lon="11.518462277859838"><ele>537.0</ele><time>2026-04-26T15:19:07Z</time></trkpt><trkpt lat="43.472879495054585" lon="11.518367112280256"><ele>537.0</ele><time>2026-04-26T15:19:08Z</time></trkpt><trkpt lat="43.47297373578787" lon="11.518271874916792"><ele>539.6</ele><time>2026-04-26T15:19:09Z</time></trkpt><trkpt lat="43.47306599107804" lon="11.518185247069217"><ele>542.2</ele><time>2026-04-26T15:19:10Z</time></trkpt><trkpt lat="43.47314937316048" lon="11.518105157798823"><ele>544.8</ele><time>2026-04-26T15:19:11Z</time></trkpt><trkpt lat="43.47322829871807" lon="11.518030246314398"><ele>547.4</ele><time>2026-04-26T15:19:12Z</time></trkpt><trkpt lat="43.47330874231707" lon="11.517962060150222"><ele>550.0</ele><time>2026-04-26T15:19:13Z</time></trkpt><trkpt lat="43.47340224218923" lon="11.517901100626412"><ele>550.0</ele><time>2026-04-26T15:19:14Z</time></trkpt><trkpt lat="43.47351447533212" lon="11.517854717406278"><ele>550.0</ele><time>2026-04-26T15:19:15Z</time></trkpt><trkpt lat="43.47363191162451" lon="11.51782040251323"><ele>550.0</ele><time>2026-04-26T15:19:16Z</time></trkpt><trkpt lat="43.47375210534378" lon="11.517793959690001"><ele>550.0</ele><time>2026-04-26T15:19:17Z</time></trkpt><trkpt lat="43.473868963464184" lon="11.517767898273485"><ele>547.6666666666667</ele><time>2026-04-26T15:19:18Z</time></trkpt><trkpt lat="43.473973192175194" lon="11.517754046022816"><ele>545.3333333333334</ele><time>2026-04-26T15:19:19Z</time></trkpt><trkpt lat="43.47406289886449" lon="11.51773975607291"><ele>543.0</ele><time>2026-04-26T15:19:20Z</time></trkpt><trkpt lat="43.474148900249915" lon="11.517728242700356"><ele>540.6666666666666</ele><time>2026-04-26T15:19:21Z</time></trkpt><trkpt lat="43.47422190469068" lon="11.517728631531817"><ele>538.3333333333333</ele><time>2026-04-26T15:19:22Z</time></trkpt><trkpt lat="43.474305612795945" lon="11.517739433291153"><ele>536.0</ele><time>2026-04-26T15:19:23Z</time></trkpt><trkpt lat="43.474401819588294" lon="11.517766544384354"><ele>536.0</ele><time>2026-04-26T15:19:24Z</time></trkpt><trkpt lat="43.47449217868286" lon="11.517803001877015"><ele>536.0</ele><time>2026-04-26T15:19:25Z</time></trkpt><trkpt lat="43.47458247968231" lon="11.517820204279635"><ele>536.0</ele><time>2026-04-26T15:19:26Z</time></trkpt><trkpt lat="43.47464995184021" lon="11.517824602003236"><ele>536.0</ele><time>2026-04-26T15:19:27Z</time></trkpt><trkpt lat="43.47474846119337" lon="11.517754321764833"><ele>536.0</ele><time>2026-04-26T15:19:29Z</time></trkpt><trkpt lat="43.4747832871076" lon="11.51767484675"><ele>536.0</ele><time>2026-04-26T15:19:30Z</time></trkpt><trkpt lat="43.474769892072686" lon="11.51753745094584"><ele>536.0</ele><time>2026-04-26T15:19:31Z</time></trkpt><trkpt lat="43.474691095483784" lon="11.517424366273332"><ele>536.0</ele><time>2026-04-26T15:19:32Z</time></trkpt><trkpt lat="43.474630545159" lon="11.517320738621182"><ele>536.0</ele><time>2026-04-26T15:19:33Z</time></trkpt><trkpt lat="43.4745533819705" lon="11.517224945477944"><ele>536.0</ele><time>2026-04-26T15:19:34Z</time></trkpt><trkpt lat="43.47449403938" lon="11.517149989501947"><ele>536.0</ele><time>2026-04-26T15:19:35Z</time></trkpt><trkpt lat="43.47442572204493" lon="11.517025994610648"><ele>537.4</ele><time>2026-04-26T15:19:36Z</time></trkpt><trkpt lat="43.47438687725276" lon="11.516900591730323"><ele>538.8</ele><time>2026-04-26T15:19:37Z</time></trkpt><trkpt lat="43.474354049444734" lon="11.516773407358363"><ele>540.1999999999999</ele><time>2026-04-26T15:19:38Z</time></trkpt><trkpt lat="43.47431684337995" lon="11.516650328345458"><ele>541.6</ele><time>2026-04-26T15:19:39Z</time></trkpt><trkpt lat="43.47427686570362" lon="11.516524478619283"><ele>543.0</ele><time>2026-04-26T15:19:40Z</time></trkpt><trkpt lat="43.474239165949264" lon="11.516395912395543"><ele>543.0</ele><time>2026-04-26T15:19:41Z</time></trkpt><trkpt lat="43.474195228182694" lon="11.516268622268003"><ele>543.0</ele><time>2026-04-26T15:19:42Z</time></trkpt><trkpt lat="43.474161669866284" lon="11.516136745386286"><ele>543.0</ele><time>2026-04-26T15:19:43Z</time></trkpt><trkpt lat="43.47414327724609" lon="11.516014793777321"><ele>543.0</ele><time>2026-04-26T15:19:44Z</time></trkpt><trkpt lat="43.47411811830143" lon="11.51590177179175"><ele>543.0</ele><time>2026-04-26T15:19:45Z</time></trkpt><trkpt lat="43.474093974411275" lon="11.515802788221524"><ele>540.8333333333334</ele><time>2026-04-26T15:19:46Z</time></trkpt><trkpt lat="43.47406038600199" lon="11.515714285501366"><ele>538.6666666666666</ele><time>2026-04-26T15:19:47Z</time></trkpt><trkpt lat="43.474012179705994" lon="11.515634196017906"><ele>536.5</ele><time>2026-04-26T15:19:48Z</time></trkpt><trkpt lat="43.47394886588389" lon="11.515569987845499"><ele>534.3333333333333</ele><time>2026-04-26T15:19:49Z</time></trkpt><trkpt lat="43.47387106848086" lon="11.51550940802266"><ele>532.1666666666666</ele><time>2026-04-26T15:19:50Z</time></trkpt><trkpt lat="43.47379618376821" lon="11.515452663258284"><ele>530.0</ele><time>2026-04-26T15:19:51Z</time></trkpt><trkpt lat="43.47371797140683" lon="11.515420940854128"><ele>532.1666666666666</ele><time>2026-04-26T15:19:52Z</time></trkpt><trkpt lat="43.473636514774114" lon="11.515410583747643"><ele>534.3333333333333</ele><time>2026-04-26T15:19:53Z</time></trkpt><trkpt lat="43.473545592479084" lon="11.515400619740063"><ele>536.5</ele><time>2026-04-26T15:19:54Z</time></trkpt><trkpt lat="43.473457830408954" lon="11.515405052190566"><ele>538.6666666666666</ele><time>2026-04-26T15:19:55Z</time></trkpt><trkpt lat="43.47338123290086" lon="11.515408730155881"><ele>540.8333333333334</ele><time>2026-04-26T15:19:56Z</time></trkpt><trkpt lat="43.473312094842676" lon="11.515409328608568"><ele>543.0</ele><time>2026-04-26T15:19:57Z</time></trkpt><trkpt lat="43.4732284327117" lon="11.515410506686564"><ele>543.0</ele><time>2026-04-26T15:19:58Z</time></trkpt><trkpt lat="43.47313856440154" lon="11.515403239353478"><ele>543.0</ele><time>2026-04-26T15:19:59Z</time></trkpt><trkpt lat="43.473053020695716" lon="11.515369284146082"><ele>543.0</ele><time>2026-04-26T15:20:00Z</time></trkpt><trkpt lat="43.4729612494527" lon="11.515339344681747"><ele>543.0</ele><time>2026-04-26T15:20:02Z</time></trkpt><trkpt lat="43.47290438358605" lon="11.515293845436654"><ele>543.0</ele><time>2026-04-26T15:20:03Z</time></trkpt><trkpt lat="43.47291504996912" lon="11.515128513444118"><ele>543.0</ele><time>2026-04-26T15:20:05Z</time></trkpt><trkpt lat="43.47302071781134" lon="11.514993691189586"><ele>543.0</ele><time>2026-04-26T15:20:07Z</time></trkpt><trkpt lat="43.473064473711666" lon="11.514913768225124"><ele>543.0</ele><time>2026-04-26T15:20:08Z</time></trkpt><trkpt lat="43.473135250965214" lon="11.514898366453094"><ele>543.0</ele><time>2026-04-26T15:20:09Z</time></trkpt><trkpt lat="43.47318760584132" lon="11.51483084317504"><ele>543.0</ele><time>2026-04-26T15:20:10Z</time></trkpt><trkpt lat="43.473242244073184" lon="11.514781480740334"><ele>543.0</ele><time>2026-04-26T15:20:11Z</time></trkpt><trkpt lat="43.4732989976593" lon="11.514665593045398"><ele>543.0</ele><time>2026-04-26T15:20:12Z</time></trkpt><trkpt lat="43.47335090611168" lon="11.5145980371039"><ele>543.0</ele><time>2026-04-26T15:20:13Z</time></trkpt><trkpt lat="43.473376503897335" lon="11.514496917391247"><ele>543.0</ele><time>2026-04-26T15:20:14Z</time></trkpt><trkpt lat="43.473392357878616" lon="11.51439349129273"><ele>543.0</ele><time>2026-04-26T15:20:15Z</time></trkpt><trkpt lat="43.473397765171796" lon="11.514287810602475"><ele>543.0</ele><time>2026-04-26T15:20:16Z</time></trkpt><trkpt lat="43.47339331814237" lon="11.514170897763007"><ele>543.0</ele><time>2026-04-26T15:20:17Z</time></trkpt><trkpt lat="43.4733810812898" lon="11.514060041192318"><ele>542.6</ele><time>2026-04-26T15:20:18Z</time></trkpt><trkpt lat="43.473360752479884" lon="11.513949068401583"><ele>542.1999999999999</ele><time>2026-04-26T15:20:19Z</time></trkpt><trkpt lat="43.47333022428577" lon="11.513831380749062"><ele>541.8</ele><time>2026-04-26T15:20:20Z</time></trkpt><trkpt lat="43.4732776364838" lon="11.513706613632019"><ele>541.4</ele><time>2026-04-26T15:20:21Z</time></trkpt><trkpt lat="43.47321953543614" lon="11.513594604522318"><ele>541.0</ele><time>2026-04-26T15:20:22Z</time></trkpt><trkpt lat="43.473156298457425" lon="11.51349018172169"><ele>540.6666666666667</ele><time>2026-04-26T15:20:23Z</time></trkpt><trkpt lat="43.47308829254443" lon="11.513404758708553"><ele>540.3333333333334</ele><time>2026-04-26T15:20:24Z</time></trkpt><trkpt lat="43.47303134218537" lon="11.513312923166444"><ele>540.0</ele><time>2026-04-26T15:20:25Z</time></trkpt><trkpt lat="43.472981510397275" lon="11.51322619824747"><ele>539.6666666666666</ele><time>2026-04-26T15:20:26Z</time></trkpt><trkpt lat="43.472919687122904" lon="11.513150311093412"><ele>539.3333333333333</ele><time>2026-04-26T15:20:27Z</time></trkpt><trkpt lat="43.47285263591052" lon="11.513082271536298"><ele>539.0</ele><time>2026-04-26T15:20:28Z</time></trkpt><trkpt lat="43.4727751758015" lon="11.51303940901517"><ele>544.6666666666666</ele><time>2026-04-26T15:20:29Z</time></trkpt><trkpt lat="43.472708980499604" lon="11.513009232463324"><ele>550.3333333333333</ele><time>2026-04-26T15:20:30Z</time></trkpt><trkpt lat="43.472644213015855" lon="11.512976108137233"><ele>556.0</ele><time>2026-04-26T15:20:31Z</time></trkpt><trkpt lat="43.47256125528672" lon="11.512897711200443"><ele>561.6666666666666</ele><time>2026-04-26T15:20:33Z</time></trkpt><trkpt lat="43.472562413283654" lon="11.512777909997308"><ele>567.3333333333334</ele><time>2026-04-26T15:20:35Z</time></trkpt><trkpt lat="43.472617034434194" lon="11.51272931710385"><ele>573.0</ele><time>2026-04-26T15:20:36Z</time></trkpt><trkpt lat="43.47271218856521" lon="11.51264964548293"><ele>573.0</ele><time>2026-04-26T15:20:38Z</time></trkpt><trkpt lat="43.4727793376692" lon="11.512623319257802"><ele>573.0</ele><time>2026-04-26T15:20:39Z</time></trkpt><trkpt lat="43.47286368702582" lon="11.512636091321223"><ele>573.0</ele><time>2026-04-26T15:20:40Z</time></trkpt><trkpt lat="43.47293902927422" lon="11.512593601455302"><ele>573.0</ele><time>2026-04-26T15:20:41Z</time></trkpt><trkpt lat="43.473006815222206" lon="11.512585081597088"><ele>573.0</ele><time>2026-04-26T15:20:42Z</time></trkpt><trkpt lat="43.473113412747864" lon="11.512492288174371"><ele>573.0</ele><time>2026-04-26T15:20:44Z</time></trkpt><trkpt lat="43.473193028378056" lon="11.512413206252791"><ele>569.4</ele><time>2026-04-26T15:20:46Z</time></trkpt><trkpt lat="43.473276107743224" lon="11.512430362213733"><ele>565.8</ele><time>2026-04-26T15:20:48Z</time></trkpt><trkpt lat="43.473385990136805" lon="11.512527358706722"><ele>562.2</ele><time>2026-04-26T15:20:50Z</time></trkpt><trkpt lat="43.473467570235904" lon="11.512583960884118"><ele>558.6</ele><time>2026-04-26T15:20:51Z</time></trkpt><trkpt lat="43.47354502803956" lon="11.512581833582031"><ele>555.0</ele><time>2026-04-26T15:20:52Z</time></trkpt><trkpt lat="43.4736337364913" lon="11.512547400181553"><ele>555.0</ele><time>2026-04-26T15:20:53Z</time></trkpt><trkpt lat="43.473739283755094" lon="11.512490424178917"><ele>555.0</ele><time>2026-04-26T15:20:54Z</time></trkpt><trkpt lat="43.47384425814455" lon="11.512437752238029"><ele>555.0</ele><time>2026-04-26T15:20:55Z</time></trkpt><trkpt lat="43.47394236664815" lon="11.512390523504525"><ele>555.0</ele><time>2026-04-26T15:20:56Z</time></trkpt><trkpt lat="43.474027529350984" lon="11.512335887973276"><ele>555.0</ele><time>2026-04-26T15:20:57Z</time></trkpt><trkpt lat="43.47411203594537" lon="11.512242830583272"><ele>556.6666666666666</ele><time>2026-04-26T15:20:58Z</time></trkpt><trkpt lat="43.47419073925377" lon="11.512138037994955"><ele>558.3333333333334</ele><time>2026-04-26T15:20:59Z</time></trkpt><trkpt lat="43.474260094094255" lon="11.512037428527695"><ele>560.0</ele><time>2026-04-26T15:21:00Z</time></trkpt><trkpt lat="43.47430802781658" lon="11.511948137663056"><ele>561.6666666666667</ele><time>2026-04-26T15:21:01Z</time></trkpt><trkpt lat="43.47433813213071" lon="11.511865266559012"><ele>563.3333333333334</ele><time>2026-04-26T15:21:02Z</time></trkpt><trkpt lat="43.47435287898225" lon="11.511777094120335"><ele>565.0</ele><time>2026-04-26T15:21:03Z</time></trkpt><trkpt lat="43.474356581289925" lon="11.511668633797234"><ele>565.0</ele><time>2026-04-26T15:21:04Z</time></trkpt><trkpt lat="43.47437437628337" lon="11.511561307042614"><ele>565.0</ele><time>2026-04-26T15:21:05Z</time></trkpt><trkpt lat="43.47437962237324" lon="11.511469059777639"><ele>565.0</ele><time>2026-04-26T15:21:06Z</time></trkpt><trkpt lat="43.47439320887688" lon="11.511380988749282"><ele>565.0</ele><time>2026-04-26T15:21:07Z</time></trkpt><trkpt lat="43.47449445597879" lon="11.511342233498555"><ele>565.0</ele><time>2026-04-26T15:21:09Z</time></trkpt><trkpt lat="43.47456474985537" lon="11.511285861047117"><ele>565.0</ele><time>2026-04-26T15:21:10Z</time></trkpt><trkpt lat="43.474658101682905" lon="11.51126861871281"><ele>562.8</ele><time>2026-04-26T15:21:11Z</time></trkpt><trkpt lat="43.474750860389875" lon="11.51121280570244"><ele>560.6</ele><time>2026-04-26T15:21:12Z</time></trkpt><trkpt lat="43.47483454257854" lon="11.511122286066787"><ele>558.4</ele><time>2026-04-26T15:21:13Z</time></trkpt><trkpt lat="43.47490441225972" lon="11.511020144334893"><ele>556.2</ele><time>2026-04-26T15:21:14Z</time></trkpt><trkpt lat="43.474959168295996" lon="11.510913270505307"><ele>554.0</ele><time>2026-04-26T15:21:15Z</time></trkpt><trkpt lat="43.47500103724185" lon="11.51079018299717"><ele>554.0</ele><time>2026-04-26T15:21:16Z</time></trkpt><trkpt lat="43.47502655512996" lon="11.510677130154582"><ele>554.0</ele><time>2026-04-26T15:21:17Z</time></trkpt><trkpt lat="43.475036643369826" lon="11.510578247821387"><ele>554.0</ele><time>2026-04-26T15:21:18Z</time></trkpt><trkpt lat="43.47502212455061" lon="11.510493284848206"><ele>554.0</ele><time>2026-04-26T15:21:19Z</time></trkpt><trkpt lat="43.47504287865605" lon="11.510405362977997"><ele>554.0</ele><time>2026-04-26T15:21:20Z</time></trkpt><trkpt lat="43.475124424742305" lon="11.51028075783481"><ele>554.0</ele><time>2026-04-26T15:21:22Z</time></trkpt><trkpt lat="43.47517447884518" lon="11.510213284725777"><ele>552.6</ele><time>2026-04-26T15:21:23Z</time></trkpt><trkpt lat="43.475255519270775" lon="11.51015209882569"><ele>551.2</ele><time>2026-04-26T15:21:24Z</time></trkpt><trkpt lat="43.475338501730825" lon="11.510057974236625"><ele>549.8000000000001</ele><time>2026-04-26T15:21:25Z</time></trkpt><trkpt lat="43.47541745075282" lon="11.50994994669936"><ele>548.4</ele><time>2026-04-26T15:21:26Z</time></trkpt><trkpt lat="43.47549649492049" lon="11.509851295684989"><ele>547.0</ele><time>2026-04-26T15:21:27Z</time></trkpt><trkpt lat="43.47557396882025" lon="11.509769727675256"><ele>547.0</ele><time>2026-04-26T15:21:28Z</time></trkpt><trkpt lat="43.47565564178968" lon="11.509695150742665"><ele>547.0</ele><time>2026-04-26T15:21:29Z</time></trkpt><trkpt lat="43.4757413725749" lon="11.50962719042086"><ele>547.0</ele><time>2026-04-26T15:21:30Z</time></trkpt><trkpt lat="43.475835495378696" lon="11.509573134870662"><ele>547.0</ele><time>2026-04-26T15:21:31Z</time></trkpt><trkpt lat="43.4759194289753" lon="11.509542501323473"><ele>547.0</ele><time>2026-04-26T15:21:32Z</time></trkpt><trkpt lat="43.4760008570557" lon="11.5095265561418"><ele>549.2</ele><time>2026-04-26T15:21:33Z</time></trkpt><trkpt lat="43.47607992281737" lon="11.509518305055613"><ele>551.4000000000001</ele><time>2026-04-26T15:21:34Z</time></trkpt><trkpt lat="43.47616768138177" lon="11.50953250505153"><ele>553.5999999999999</ele><time>2026-04-26T15:21:35Z</time></trkpt><trkpt lat="43.47626666431058" lon="11.50954762945886"><ele>555.8</ele><time>2026-04-26T15:21:36Z</time></trkpt><trkpt lat="43.476374711646656" lon="11.509548518857848"><ele>558.0</ele><time>2026-04-26T15:21:37Z</time></trkpt><trkpt lat="43.47648269273246" lon="11.509519247575431"><ele>558.0</ele><time>2026-04-26T15:21:38Z</time></trkpt><trkpt lat="43.47659337041233" lon="11.50948767533973"><ele>558.0</ele><time>2026-04-26T15:21:39Z</time></trkpt><trkpt lat="43.476689139660344" lon="11.509457291844727"><ele>558.0</ele><time>2026-04-26T15:21:40Z</time></trkpt><trkpt lat="43.47676933645387" lon="11.509380740583866"><ele>558.0</ele><time>2026-04-26T15:21:41Z</time></trkpt><trkpt lat="43.47683251572302" lon="11.509255751227155"><ele>558.0</ele><time>2026-04-26T15:21:42Z</time></trkpt><trkpt lat="43.47687651312874" lon="11.509106985585438"><ele>558.0</ele><time>2026-04-26T15:21:43Z</time></trkpt><trkpt lat="43.47692197210901" lon="11.508981683028217"><ele>558.0</ele><time>2026-04-26T15:21:44Z</time></trkpt><trkpt lat="43.476989592628776" lon="11.508891886801681"><ele>558.0</ele><time>2026-04-26T15:21:45Z</time></trkpt><trkpt lat="43.47708531624235" lon="11.508836325633895"><ele>558.0</ele><time>2026-04-26T15:21:46Z</time></trkpt><trkpt lat="43.4771896450354" lon="11.508826445134845"><ele>558.0</ele><time>2026-04-26T15:21:47Z</time></trkpt><trkpt lat="43.47729590040508" lon="11.50885922530255"><ele>557.4</ele><time>2026-04-26T15:21:48Z</time></trkpt><trkpt lat="43.47739163995153" lon="11.508912335573207"><ele>556.8</ele><time>2026-04-26T15:21:49Z</time></trkpt><trkpt lat="43.47747364654197" lon="11.508989355868799"><ele>556.2</ele><time>2026-04-26T15:21:50Z</time></trkpt><trkpt lat="43.47754488261445" lon="11.509091453896872"><ele>555.6</ele><time>2026-04-26T15:21:51Z</time></trkpt><trkpt lat="43.47761793482041" lon="11.509215926701762"><ele>555.0</ele><time>2026-04-26T15:21:52Z</time></trkpt><trkpt lat="43.47768798996739" lon="11.509362993568004"><ele>555.0</ele><time>2026-04-26T15:21:53Z</time></trkpt><trkpt lat="43.47776485294776" lon="11.509553397361657"><ele>555.0</ele><time>2026-04-26T15:21:54Z</time></trkpt><trkpt lat="43.4778406316823" lon="11.509751931372755"><ele>555.0</ele><time>2026-04-26T15:21:55Z</time></trkpt><trkpt lat="43.47791310793418" lon="11.509962671984269"><ele>555.75</ele><time>2026-04-26T15:21:56Z</time></trkpt><trkpt lat="43.4779728404701" lon="11.51015565962286"><ele>556.5</ele><time>2026-04-26T15:21:57Z</time></trkpt><trkpt lat="43.478019957722324" lon="11.510299631761095"><ele>557.25</ele><time>2026-04-26T15:21:58Z</time></trkpt><trkpt lat="43.47807647535786" lon="11.51041700111002"><ele>558.0</ele><time>2026-04-26T15:21:59Z</time></trkpt><trkpt lat="43.47815035423304" lon="11.510507396208373"><ele>558.0</ele><time>2026-04-26T15:22:00Z</time></trkpt><trkpt lat="43.47824197165622" lon="11.510569561693364"><ele>558.0</ele><time>2026-04-26T15:22:01Z</time></trkpt><trkpt lat="43.478326186752064" lon="11.510612700195134"><ele>558.0</ele><time>2026-04-26T15:22:02Z</time></trkpt><trkpt lat="43.47841375629749" lon="11.51060449095562"><ele>558.0</ele><time>2026-04-26T15:22:03Z</time></trkpt><trkpt lat="43.47848629390624" lon="11.510530942340674"><ele>558.0</ele><time>2026-04-26T15:22:04Z</time></trkpt><trkpt lat="43.4785335630191" lon="11.51047227992029"><ele>558.0</ele><time>2026-04-26T15:22:05Z</time></trkpt><trkpt lat="43.47856129215081" lon="11.510375061635193"><ele>558.0</ele><time>2026-04-26T15:22:06Z</time></trkpt><trkpt lat="43.478573182709205" lon="11.510252738070006"><ele>558.0</ele><time>2026-04-26T15:22:07Z</time></trkpt><trkpt lat="43.4785977172398" lon="11.510128006235302"><ele>558.0</ele><time>2026-04-26T15:22:08Z</time></trkpt><trkpt lat="43.478611572405136" lon="11.510009313861168"><ele>558.0</ele><time>2026-04-26T15:22:09Z</time></trkpt><trkpt lat="43.47863515948998" lon="11.509904847803577"><ele>558.0</ele><time>2026-04-26T15:22:10Z</time></trkpt><trkpt lat="43.478673145723306" lon="11.509812314869777"><ele>558.0</ele><time>2026-04-26T15:22:11Z</time></trkpt><trkpt lat="43.4787182350023" lon="11.509709875966912"><ele>554.25</ele><time>2026-04-26T15:22:12Z</time></trkpt><trkpt lat="43.478816266042195" lon="11.509641041023874"><ele>550.5</ele><time>2026-04-26T15:22:13Z</time></trkpt><trkpt lat="43.47894003796401" lon="11.509575113821906"><ele>546.75</ele><time>2026-04-26T15:22:14Z</time></trkpt><trkpt lat="43.47907703070337" lon="11.509487312272872"><ele>543.0</ele><time>2026-04-26T15:22:15Z</time></trkpt><trkpt lat="43.479207035375666" lon="11.509389287158475"><ele>543.0</ele><time>2026-04-26T15:22:16Z</time></trkpt><trkpt lat="43.47932484319631" lon="11.509280028403184"><ele>543.0</ele><time>2026-04-26T15:22:17Z</time></trkpt><trkpt lat="43.47944509864118" lon="11.509182897402072"><ele>543.0</ele><time>2026-04-26T15:22:18Z</time></trkpt><trkpt lat="43.479566010938946" lon="11.509128611666261"><ele>543.0</ele><time>2026-04-26T15:22:19Z</time></trkpt><trkpt lat="43.479692443259864" lon="11.509084247706463"><ele>535.6666666666666</ele><time>2026-04-26T15:22:20Z</time></trkpt><trkpt lat="43.47980592784893" lon="11.50902025383"><ele>528.3333333333333</ele><time>2026-04-26T15:22:21Z</time></trkpt><trkpt lat="43.47992355226377" lon="11.508988566479566"><ele>521.0</ele><time>2026-04-26T15:22:22Z</time></trkpt><trkpt lat="43.48011232283196" lon="11.508858022278943"><ele>521.0</ele><time>2026-04-26T15:22:24Z</time></trkpt><trkpt lat="43.48021240320725" lon="11.508785087360176"><ele>521.0</ele><time>2026-04-26T15:22:25Z</time></trkpt><trkpt lat="43.48031034309038" lon="11.508707736465965"><ele>521.0</ele><time>2026-04-26T15:22:26Z</time></trkpt><trkpt lat="43.480401338725954" lon="11.508640684562565"><ele>521.0</ele><time>2026-04-26T15:22:27Z</time></trkpt><trkpt lat="43.48049131963503" lon="11.50860327140793"><ele>521.0</ele><time>2026-04-26T15:22:28Z</time></trkpt><trkpt lat="43.48057395725929" lon="11.508559016374042"><ele>521.1666666666666</ele><time>2026-04-26T15:22:29Z</time></trkpt><trkpt lat="43.480652091321986" lon="11.50852463071279"><ele>521.3333333333333</ele><time>2026-04-26T15:22:30Z</time></trkpt><trkpt lat="43.480734652745724" lon="11.508497715180704"><ele>521.5</ele><time>2026-04-26T15:22:31Z</time></trkpt><trkpt lat="43.48081346830069" lon="11.508479493133141"><ele>521.6666666666666</ele><time>2026-04-26T15:22:32Z</time></trkpt><trkpt lat="43.480901518280895" lon="11.508474741523532"><ele>521.8333333333334</ele><time>2026-04-26T15:22:33Z</time></trkpt><trkpt lat="43.481010825527335" lon="11.508467123885506"><ele>522.0</ele><time>2026-04-26T15:22:34Z</time></trkpt><trkpt lat="43.48113464711792" lon="11.508426914125838"><ele>522.0</ele><time>2026-04-26T15:22:35Z</time></trkpt><trkpt lat="43.481254180497636" lon="11.508331498055666"><ele>522.0</ele><time>2026-04-26T15:22:36Z</time></trkpt><trkpt lat="43.48137648158375" lon="11.508277213484853"><ele>522.0</ele><time>2026-04-26T15:22:37Z</time></trkpt><trkpt lat="43.48148743527368" lon="11.508259837726646"><ele>522.0</ele><time>2026-04-26T15:22:38Z</time></trkpt><trkpt lat="43.48159681778316" lon="11.508297820791311"><ele>521.0</ele><time>2026-04-26T15:22:39Z</time></trkpt><trkpt lat="43.48171180790375" lon="11.508299888251738"><ele>520.0</ele><time>2026-04-26T15:22:40Z</time></trkpt><trkpt lat="43.481827415605736" lon="11.50834599919881"><ele>519.0</ele><time>2026-04-26T15:22:41Z</time></trkpt><trkpt lat="43.481942059882016" lon="11.508356641740091"><ele>518.0</ele><time>2026-04-26T15:22:42Z</time></trkpt><trkpt lat="43.48205789801604" lon="11.508389911006043"><ele>516.0</ele><time>2026-04-26T15:22:43Z</time></trkpt><trkpt lat="43.48218472858536" lon="11.508424389877083"><ele>514.0</ele><time>2026-04-26T15:22:44Z</time></trkpt><trkpt lat="43.48231846221379" lon="11.508440143609294"><ele>512.0</ele><time>2026-04-26T15:22:45Z</time></trkpt><trkpt lat="43.48246418467246" lon="11.508450739432364"><ele>510.0</ele><time>2026-04-26T15:22:46Z</time></trkpt><trkpt lat="43.4826162065656" lon="11.508484960242152"><ele>510.0</ele><time>2026-04-26T15:22:47Z</time></trkpt><trkpt lat="43.48278829433028" lon="11.508569622633418"><ele>510.0</ele><time>2026-04-26T15:22:48Z</time></trkpt><trkpt lat="43.48295447153261" lon="11.50868157423278"><ele>510.0</ele><time>2026-04-26T15:22:49Z</time></trkpt><trkpt lat="43.48309602758482" lon="11.5087921674799"><ele>508.33333333333337</ele><time>2026-04-26T15:22:50Z</time></trkpt><trkpt lat="43.483232691071244" lon="11.508891838146145"><ele>506.6666666666667</ele><time>2026-04-26T15:22:51Z</time></trkpt><trkpt lat="43.483376753314694" lon="11.508993841547326"><ele>505.0</ele><time>2026-04-26T15:22:52Z</time></trkpt><trkpt lat="43.48352295497011" lon="11.50908889953252"><ele>505.0</ele><time>2026-04-26T15:22:53Z</time></trkpt><trkpt lat="43.48366209864994" lon="11.509181542794817"><ele>505.0</ele><time>2026-04-26T15:22:54Z</time></trkpt><trkpt lat="43.48379864670975" lon="11.509270238500612"><ele>505.0</ele><time>2026-04-26T15:22:55Z</time></trkpt><trkpt lat="43.48392191545716" lon="11.509356689858881"><ele>505.0</ele><time>2026-04-26T15:22:56Z</time></trkpt><trkpt lat="43.48403809744373" lon="11.509422820951313"><ele>505.6</ele><time>2026-04-26T15:22:57Z</time></trkpt><trkpt lat="43.484138530683815" lon="11.509483072861732"><ele>506.2</ele><time>2026-04-26T15:22:58Z</time></trkpt><trkpt lat="43.484230984417785" lon="11.509543780255207"><ele>506.79999999999995</ele><time>2026-04-26T15:22:59Z</time></trkpt><trkpt lat="43.48431860839549" lon="11.509602275891696"><ele>507.4</ele><time>2026-04-26T15:23:00Z</time></trkpt><trkpt lat="43.48439252680738" lon="11.509650449814952"><ele>508.0</ele><time>2026-04-26T15:23:01Z</time></trkpt><trkpt lat="43.4844537816306" lon="11.509690149602354"><ele>508.00000000000006</ele><time>2026-04-26T15:23:02Z</time></trkpt><trkpt lat="43.4845225497076" lon="11.509711813334368"><ele>508.0</ele><time>2026-04-26T15:23:03Z</time></trkpt><trkpt lat="43.484590362129445" lon="11.509729043339442"><ele>508.0</ele><time>2026-04-26T15:23:04Z</time></trkpt><trkpt lat="43.484669243583014" lon="11.50968019312363"><ele>508.0</ele><time>2026-04-26T15:23:05Z</time></trkpt><trkpt lat="43.484747459723486" lon="11.509642225719203"><ele>508.00000000000006</ele><time>2026-04-26T15:23:06Z</time></trkpt><trkpt lat="43.48483356127221" lon="11.50960382971828"><ele>508.0</ele><time>2026-04-26T15:23:07Z</time></trkpt><trkpt lat="43.48493021978863" lon="11.509580696002947"><ele>509.33333333333337</ele><time>2026-04-26T15:23:08Z</time></trkpt><trkpt lat="43.485031573918185" lon="11.509583462060494"><ele>510.6666666666667</ele><time>2026-04-26T15:23:09Z</time></trkpt><trkpt lat="43.48512599386023" lon="11.509551127424052"><ele>512.0</ele><time>2026-04-26T15:23:10Z</time></trkpt><trkpt lat="43.485205395595784" lon="11.509525606828563"><ele>513.3333333333334</ele><time>2026-04-26T15:23:11Z</time></trkpt><trkpt lat="43.48527223024768" lon="11.509516820308644"><ele>514.6666666666666</ele><time>2026-04-26T15:23:12Z</time></trkpt><trkpt lat="43.485321366032714" lon="11.509572683397128"><ele>516.0</ele><time>2026-04-26T15:23:13Z</time></trkpt><trkpt lat="43.485353346119936" lon="11.50965404039823"><ele>516.0</ele><time>2026-04-26T15:23:14Z</time></trkpt><trkpt lat="43.48538443141523" lon="11.509762381335849"><ele>516.0</ele><time>2026-04-26T15:23:15Z</time></trkpt><trkpt lat="43.485414268920174" lon="11.509873160148029"><ele>516.0</ele><time>2026-04-26T15:23:16Z</time></trkpt><trkpt lat="43.48545634749396" lon="11.50996808309593"><ele>516.0</ele><time>2026-04-26T15:23:17Z</time></trkpt><trkpt lat="43.485511757863506" lon="11.51002601142945"><ele>516.0</ele><time>2026-04-26T15:23:18Z</time></trkpt><trkpt lat="43.48558152994388" lon="11.510049794807843"><ele>516.0</ele><time>2026-04-26T15:23:19Z</time></trkpt><trkpt lat="43.48568972845008" lon="11.510037485123771"><ele>516.3333333333334</ele><time>2026-04-26T15:23:21Z</time></trkpt><trkpt lat="43.48577828611337" lon="11.510035685679812"><ele>516.6666666666666</ele><time>2026-04-26T15:23:24Z</time></trkpt><trkpt lat="43.48584248339764" lon="11.510027383098105"><ele>517.0</ele><time>2026-04-26T15:23:26Z</time></trkpt><trkpt lat="43.48592917841995" lon="11.509989505021672"><ele>517.3333333333333</ele><time>2026-04-26T15:23:29Z</time></trkpt><trkpt lat="43.48601812409444" lon="11.50997120147078"><ele>517.6666666666666</ele><time>2026-04-26T15:23:32Z</time></trkpt><trkpt lat="43.48609146107306" lon="11.509961639081622"><ele>518.0</ele><time>2026-04-26T15:23:35Z</time></trkpt><trkpt lat="43.48616011714254" lon="11.509918413581941"><ele>518.0</ele><time>2026-04-26T15:23:42Z</time></trkpt><trkpt lat="43.48622311393566" lon="11.509901125621713"><ele>518.0</ele><time>2026-04-26T15:23:43Z</time></trkpt><trkpt lat="43.48630266767284" lon="11.509774173516938"><ele>518.0</ele><time>2026-04-26T15:23:45Z</time></trkpt><trkpt lat="43.48638412206589" lon="11.509712361537964"><ele>518.0</ele><time>2026-04-26T15:23:47Z</time></trkpt><trkpt lat="43.48644567396655" lon="11.509745314250406"><ele>518.0</ele><time>2026-04-26T15:23:48Z</time></trkpt><trkpt lat="43.48651362295714" lon="11.509800406502476"><ele>518.0</ele><time>2026-04-26T15:23:49Z</time></trkpt><trkpt lat="43.48659458362716" lon="11.509851716061679"><ele>515.25</ele><time>2026-04-26T15:23:50Z</time></trkpt><trkpt lat="43.48667855047798" lon="11.509956836174466"><ele>512.5</ele><time>2026-04-26T15:23:51Z</time></trkpt><trkpt lat="43.48677156125665" lon="11.510052175743553"><ele>509.75</ele><time>2026-04-26T15:23:52Z</time></trkpt><trkpt lat="43.48686558949492" lon="11.510152155956934"><ele>507.0</ele><time>2026-04-26T15:23:53Z</time></trkpt><trkpt lat="43.4869546125108" lon="11.510246077124139"><ele>507.0</ele><time>2026-04-26T15:23:54Z</time></trkpt><trkpt lat="43.48704414272568" lon="11.51033603163504"><ele>507.00000000000006</ele><time>2026-04-26T15:23:55Z</time></trkpt><trkpt lat="43.48712733049019" lon="11.510424712057066"><ele>507.00000000000006</ele><time>2026-04-26T15:23:56Z</time></trkpt><trkpt lat="43.48720463801769" lon="11.510508861914735"><ele>507.0</ele><time>2026-04-26T15:23:57Z</time></trkpt><trkpt lat="43.487279372826045" lon="11.510582751686737"><ele>507.0</ele><time>2026-04-26T15:23:58Z</time></trkpt><trkpt lat="43.48734598135911" lon="11.510654985075288"><ele>505.6666666666667</ele><time>2026-04-26T15:23:59Z</time></trkpt><trkpt lat="43.487410348044335" lon="11.510730934118143"><ele>504.33333333333337</ele><time>2026-04-26T15:24:00Z</time></trkpt><trkpt lat="43.48747636042034" lon="11.510806293138774"><ele>503.0</ele><time>2026-04-26T15:24:01Z</time></trkpt><trkpt lat="43.487533126578015" lon="11.510868496076023"><ele>501.6666666666667</ele><time>2026-04-26T15:24:02Z</time></trkpt><trkpt lat="43.48760057674821" lon="11.510982521928502"><ele>500.33333333333337</ele><time>2026-04-26T15:24:03Z</time></trkpt><trkpt lat="43.487651243695176" lon="11.511091975907709"><ele>499.0</ele><time>2026-04-26T15:24:04Z</time></trkpt><trkpt lat="43.48769226018216" lon="11.511215892473782"><ele>498.4</ele><time>2026-04-26T15:24:05Z</time></trkpt><trkpt lat="43.487723186562434" lon="11.511349798780087"><ele>497.79999999999995</ele><time>2026-04-26T15:24:06Z</time></trkpt><trkpt lat="43.48775083270606" lon="11.511489184376563"><ele>497.20000000000005</ele><time>2026-04-26T15:24:07Z</time></trkpt><trkpt lat="43.48775884616972" lon="11.511617870650062"><ele>496.6</ele><time>2026-04-26T15:24:08Z</time></trkpt><trkpt lat="43.48778295921382" lon="11.511757268525674"><ele>496.0</ele><time>2026-04-26T15:24:09Z</time></trkpt><trkpt lat="43.487809627835986" lon="11.511894383906013"><ele>496.0</ele><time>2026-04-26T15:24:10Z</time></trkpt><trkpt lat="43.487827258374516" lon="11.512016634199838"><ele>496.0</ele><time>2026-04-26T15:24:11Z</time></trkpt><trkpt lat="43.487865219349295" lon="11.512140099740613"><ele>496.0</ele><time>2026-04-26T15:24:12Z</time></trkpt><trkpt lat="43.48792154648457" lon="11.512263534546996"><ele>496.0</ele><time>2026-04-26T15:24:13Z</time></trkpt><trkpt lat="43.48797656680647" lon="11.51238942180869"><ele>496.0</ele><time>2026-04-26T15:24:14Z</time></trkpt><trkpt lat="43.48803546285465" lon="11.512513084196499"><ele>493.4</ele><time>2026-04-26T15:24:15Z</time></trkpt><trkpt lat="43.488085522192605" lon="11.512631572690738"><ele>490.8</ele><time>2026-04-26T15:24:16Z</time></trkpt><trkpt lat="43.488129337697735" lon="11.51274067468734"><ele>488.19999999999993</ele><time>2026-04-26T15:24:17Z</time></trkpt><trkpt lat="43.48815500720085" lon="11.512864977812495"><ele>485.59999999999997</ele><time>2026-04-26T15:24:18Z</time></trkpt><trkpt lat="43.48817365338773" lon="11.512985694674612"><ele>483.0</ele><time>2026-04-26T15:24:19Z</time></trkpt><trkpt lat="43.488184956483906" lon="11.513091856864481"><ele>483.0</ele><time>2026-04-26T15:24:20Z</time></trkpt><trkpt lat="43.48818715158416" lon="11.513230824461113"><ele>482.99999999999994</ele><time>2026-04-26T15:24:22Z</time></trkpt><trkpt lat="43.48829183763817" lon="11.513274025886577"><ele>482.99999999999994</ele><time>2026-04-26T15:24:26Z</time></trkpt><trkpt lat="43.488296894190725" lon="11.51311605768608"><ele>483.0</ele><time>2026-04-26T15:24:28Z</time></trkpt><trkpt lat="43.4882942631964" lon="11.513003164942901"><ele>483.0</ele><time>2026-04-26T15:24:29Z</time></trkpt><trkpt lat="43.488282596885625" lon="11.512889091242068"><ele>482.79999999999995</ele><time>2026-04-26T15:24:30Z</time></trkpt><trkpt lat="43.48826618353996" lon="11.512775376257412"><ele>482.59999999999997</ele><time>2026-04-26T15:24:31Z</time></trkpt><trkpt lat="43.488248641743816" lon="11.512645029451315"><ele>482.40000000000003</ele><time>2026-04-26T15:24:32Z</time></trkpt><trkpt lat="43.48823043307764" lon="11.512506480223214"><ele>482.20000000000005</ele><time>2026-04-26T15:24:33Z</time></trkpt><trkpt lat="43.488199440015606" lon="11.512350901652155"><ele>482.0</ele><time>2026-04-26T15:24:34Z</time></trkpt><trkpt lat="43.488142314198015" lon="11.512227090282837"><ele>482.0</ele><time>2026-04-26T15:24:35Z</time></trkpt><trkpt lat="43.488119245635495" lon="11.51208934854877"><ele>482.00000000000006</ele><time>2026-04-26T15:24:36Z</time></trkpt><trkpt lat="43.48808725074629" lon="11.51196010513432"><ele>482.00000000000006</ele><time>2026-04-26T15:24:37Z</time></trkpt><trkpt lat="43.488061490995065" lon="11.511829335605992"><ele>482.0</ele><time>2026-04-26T15:24:38Z</time></trkpt><trkpt lat="43.48805101885562" lon="11.51169244012279"><ele>482.0</ele><time>2026-04-26T15:24:39Z</time></trkpt><trkpt lat="43.488055319011806" lon="11.511542289757402"><ele>480.0</ele><time>2026-04-26T15:24:40Z</time></trkpt><trkpt lat="43.488071292667904" lon="11.511384905399938"><ele>478.00000000000006</ele><time>2026-04-26T15:24:41Z</time></trkpt><trkpt lat="43.48810281553111" lon="11.511234967490818"><ele>476.00000000000006</ele><time>2026-04-26T15:24:42Z</time></trkpt><trkpt lat="43.48815308621143" lon="11.511116734114827"><ele>474.0</ele><time>2026-04-26T15:24:43Z</time></trkpt><trkpt lat="43.48819909470591" lon="11.51099872107824"><ele>472.0</ele><time>2026-04-26T15:24:44Z</time></trkpt><trkpt lat="43.48823153456798" lon="11.510900904638348"><ele>471.0</ele><time>2026-04-26T15:24:45Z</time></trkpt><trkpt lat="43.48823941351145" lon="11.510783504846335"><ele>470.00000000000006</ele><time>2026-04-26T15:24:46Z</time></trkpt><trkpt lat="43.488178394079995" lon="11.51063033803378"><ele>469.00000000000006</ele><time>2026-04-26T15:24:47Z</time></trkpt><trkpt lat="43.48817074969428" lon="11.510472543503207"><ele>468.0</ele><time>2026-04-26T15:24:48Z</time></trkpt><trkpt lat="43.48818565915598" lon="11.510317627812539"><ele>467.0</ele><time>2026-04-26T15:24:49Z</time></trkpt><trkpt lat="43.48821173128313" lon="11.510172436274658"><ele>466.20000000000005</ele><time>2026-04-26T15:24:50Z</time></trkpt><trkpt lat="43.488224589281685" lon="11.510047608702513"><ele>465.40000000000003</ele><time>2026-04-26T15:24:51Z</time></trkpt><trkpt lat="43.488208911507684" lon="11.509909478556146"><ele>464.59999999999997</ele><time>2026-04-26T15:24:52Z</time></trkpt><trkpt lat="43.488182652188726" lon="11.50978126044542"><ele>463.79999999999995</ele><time>2026-04-26T15:24:53Z</time></trkpt><trkpt lat="43.48818025010446" lon="11.509658279465848"><ele>463.0</ele><time>2026-04-26T15:24:54Z</time></trkpt><trkpt lat="43.488217048361" lon="11.509542694831618"><ele>462.2</ele><time>2026-04-26T15:24:55Z</time></trkpt><trkpt lat="43.48826941565589" lon="11.50942890732682"><ele>461.4</ele><time>2026-04-26T15:24:56Z</time></trkpt><trkpt lat="43.488334596569665" lon="11.509327287908523"><ele>460.59999999999997</ele><time>2026-04-26T15:24:57Z</time></trkpt><trkpt lat="43.48840866709842" lon="11.509234297370428"><ele>459.79999999999995</ele><time>2026-04-26T15:24:58Z</time></trkpt><trkpt lat="43.48848932581472" lon="11.509154984987031"><ele>459.0</ele><time>2026-04-26T15:24:59Z</time></trkpt><trkpt lat="43.488579297796235" lon="11.509091761418386"><ele>459.0</ele><time>2026-04-26T15:25:00Z</time></trkpt><trkpt lat="43.48867263359778" lon="11.509035105783576"><ele>459.0</ele><time>2026-04-26T15:25:01Z</time></trkpt><trkpt lat="43.488760105104916" lon="11.508960815766994"><ele>459.0</ele><time>2026-04-26T15:25:02Z</time></trkpt><trkpt lat="43.48885362164464" lon="11.508909757752457"><ele>459.0</ele><time>2026-04-26T15:25:03Z</time></trkpt><trkpt lat="43.4889464617837" lon="11.50885429727622"><ele>459.0</ele><time>2026-04-26T15:25:04Z</time></trkpt><trkpt lat="43.48903849202485" lon="11.508790427581669"><ele>456.0</ele><time>2026-04-26T15:25:05Z</time></trkpt><trkpt lat="43.48910443558309" lon="11.508675767494173"><ele>453.0</ele><time>2026-04-26T15:25:06Z</time></trkpt><trkpt lat="43.48912117949687" lon="11.508521923934468"><ele>450.0</ele><time>2026-04-26T15:25:07Z</time></trkpt><trkpt lat="43.489130259650004" lon="11.508394561419943"><ele>447.0</ele><time>2026-04-26T15:25:08Z</time></trkpt><trkpt lat="43.48915700408801" lon="11.508284883598089"><ele>444.0</ele><time>2026-04-26T15:25:09Z</time></trkpt><trkpt lat="43.48920587795555" lon="11.508187979775105"><ele>444.0</ele><time>2026-04-26T15:25:10Z</time></trkpt><trkpt lat="43.489281612365566" lon="11.508115170139865"><ele>444.0</ele><time>2026-04-26T15:25:11Z</time></trkpt><trkpt lat="43.48936975692661" lon="11.508059066604801"><ele>444.0</ele><time>2026-04-26T15:25:12Z</time></trkpt><trkpt lat="43.48946361687205" lon="11.508030316371595"><ele>444.0</ele><time>2026-04-26T15:25:13Z</time></trkpt><trkpt lat="43.48958441520539" lon="11.507996941647132"><ele>444.0</ele><time>2026-04-26T15:25:14Z</time></trkpt><trkpt lat="43.48971383075673" lon="11.507955881841768"><ele>438.33333333333337</ele><time>2026-04-26T15:25:15Z</time></trkpt><trkpt lat="43.48986280123505" lon="11.507886752762802"><ele>432.6666666666667</ele><time>2026-04-26T15:25:16Z</time></trkpt><trkpt lat="43.490014030793226" lon="11.507827048415727"><ele>427.0</ele><time>2026-04-26T15:25:17Z</time></trkpt><trkpt lat="43.49016063174909" lon="11.507794789781887"><ele>427.0</ele><time>2026-04-26T15:25:18Z</time></trkpt><trkpt lat="43.49029708379421" lon="11.507742253638193"><ele>427.0</ele><time>2026-04-26T15:25:19Z</time></trkpt><trkpt lat="43.49041952834576" lon="11.507673560840024"><ele>427.0</ele><time>2026-04-26T15:25:20Z</time></trkpt><trkpt lat="43.49054171152631" lon="11.507621114444834"><ele>427.0</ele><time>2026-04-26T15:25:21Z</time></trkpt><trkpt lat="43.49066309537011" lon="11.507592425980322"><ele>427.6</ele><time>2026-04-26T15:25:22Z</time></trkpt><trkpt lat="43.49077296101598" lon="11.507546545290959"><ele>428.20000000000005</ele><time>2026-04-26T15:25:23Z</time></trkpt><trkpt lat="43.49088202380019" lon="11.507497374604712"><ele>428.8</ele><time>2026-04-26T15:25:24Z</time></trkpt><trkpt lat="43.49098701024832" lon="11.507533840355748"><ele>429.4</ele><time>2026-04-26T15:25:25Z</time></trkpt><trkpt lat="43.49108644532813" lon="11.507578535904395"><ele>430.0</ele><time>2026-04-26T15:25:26Z</time></trkpt><trkpt lat="43.491217852514154" lon="11.507628959315355"><ele>428.25</ele><time>2026-04-26T15:25:27Z</time></trkpt><trkpt lat="43.49136262760335" lon="11.507647436827286"><ele>426.5</ele><time>2026-04-26T15:25:28Z</time></trkpt><trkpt lat="43.49150035438603" lon="11.50763744383409"><ele>424.75</ele><time>2026-04-26T15:25:29Z</time></trkpt><trkpt lat="43.491624500661885" lon="11.507615646330137"><ele>423.0</ele><time>2026-04-26T15:25:30Z</time></trkpt><trkpt lat="43.49174540067875" lon="11.507586768721142"><ele>423.0</ele><time>2026-04-26T15:25:31Z</time></trkpt><trkpt lat="43.49185420185134" lon="11.50756508989448"><ele>423.0</ele><time>2026-04-26T15:25:32Z</time></trkpt><trkpt lat="43.491959340606854" lon="11.507571566919925"><ele>423.0</ele><time>2026-04-26T15:25:33Z</time></trkpt><trkpt lat="43.49204956435075" lon="11.507611289259415"><ele>423.0</ele><time>2026-04-26T15:25:34Z</time></trkpt><trkpt lat="43.49212588190214" lon="11.50769028037282"><ele>423.0</ele><time>2026-04-26T15:25:35Z</time></trkpt><trkpt lat="43.49218922310578" lon="11.50780114163633"><ele>422.0</ele><time>2026-04-26T15:25:36Z</time></trkpt><trkpt lat="43.492248644558344" lon="11.507929257452817"><ele>421.0</ele><time>2026-04-26T15:25:37Z</time></trkpt><trkpt lat="43.492315431653594" lon="11.508082357038386"><ele>420.0</ele><time>2026-04-26T15:25:38Z</time></trkpt><trkpt lat="43.49239424569906" lon="11.50821806780248"><ele>419.0</ele><time>2026-04-26T15:25:39Z</time></trkpt><trkpt lat="43.49246570538904" lon="11.50834200230503"><ele>419.0</ele><time>2026-04-26T15:25:40Z</time></trkpt><trkpt lat="43.49254901596004" lon="11.50842665086545"><ele>419.0</ele><time>2026-04-26T15:25:41Z</time></trkpt><trkpt lat="43.49266721533429" lon="11.508455332956128"><ele>419.0</ele><time>2026-04-26T15:25:42Z</time></trkpt><trkpt lat="43.49280633266648" lon="11.508418482467855"><ele>419.0</ele><time>2026-04-26T15:25:43Z</time></trkpt><trkpt lat="43.49295277088464" lon="11.508410509456253"><ele>417.75</ele><time>2026-04-26T15:25:44Z</time></trkpt><trkpt lat="43.493086268889115" lon="11.508369640476742"><ele>416.5</ele><time>2026-04-26T15:25:45Z</time></trkpt><trkpt lat="43.49322039351836" lon="11.508293320538268"><ele>415.25</ele><time>2026-04-26T15:25:46Z</time></trkpt><trkpt lat="43.493364660164595" lon="11.508256425638935"><ele>414.0</ele><time>2026-04-26T15:25:47Z</time></trkpt><trkpt lat="43.493499850459436" lon="11.508199704607058"><ele>414.0</ele><time>2026-04-26T15:25:48Z</time></trkpt><trkpt lat="43.493622544147506" lon="11.50814841705313"><ele>414.0</ele><time>2026-04-26T15:25:49Z</time></trkpt><trkpt lat="43.493734546321384" lon="11.508102204618098"><ele>414.0</ele><time>2026-04-26T15:25:50Z</time></trkpt><trkpt lat="43.49383990357967" lon="11.508058733847456"><ele>414.0</ele><time>2026-04-26T15:25:51Z</time></trkpt><trkpt lat="43.49394146706787" lon="11.508014154391274"><ele>413.6</ele><time>2026-04-26T15:25:52Z</time></trkpt><trkpt lat="43.49403950569672" lon="11.50796832083706"><ele>413.2</ele><time>2026-04-26T15:25:53Z</time></trkpt><trkpt lat="43.49413309620584" lon="11.507923182378574"><ele>412.8</ele><time>2026-04-26T15:25:54Z</time></trkpt><trkpt lat="43.49423232596637" lon="11.507866528134155"><ele>412.40000000000003</ele><time>2026-04-26T15:25:55Z</time></trkpt><trkpt lat="43.49432307443027" lon="11.507787366591035"><ele>412.0</ele><time>2026-04-26T15:25:56Z</time></trkpt><trkpt lat="43.494419785707045" lon="11.50769408303097"><ele>413.5</ele><time>2026-04-26T15:25:57Z</time></trkpt><trkpt lat="43.49451900190054" lon="11.507596944365295"><ele>415.0</ele><time>2026-04-26T15:25:58Z</time></trkpt><trkpt lat="43.49461216586755" lon="11.507509773304129"><ele>416.5</ele><time>2026-04-26T15:25:59Z</time></trkpt><trkpt lat="43.494706308140955" lon="11.50743282958084"><ele>418.0</ele><time>2026-04-26T15:26:00Z</time></trkpt><trkpt lat="43.494802401076925" lon="11.507363848586914"><ele>418.0</ele><time>2026-04-26T15:26:01Z</time></trkpt><trkpt lat="43.494908689652604" lon="11.507329830443883"><ele>418.0</ele><time>2026-04-26T15:26:02Z</time></trkpt><trkpt lat="43.49502710978027" lon="11.507321613034815"><ele>418.0</ele><time>2026-04-26T15:26:03Z</time></trkpt><trkpt lat="43.495151074014004" lon="11.507324662196623"><ele>418.0</ele><time>2026-04-26T15:26:04Z</time></trkpt><trkpt lat="43.49526676184463" lon="11.507313749228969"><ele>418.0</ele><time>2026-04-26T15:26:05Z</time></trkpt><trkpt lat="43.49537032362367" lon="11.50734379995851"><ele>418.0</ele><time>2026-04-26T15:26:06Z</time></trkpt><trkpt lat="43.4954661454157" lon="11.507399370503059"><ele>418.0</ele><time>2026-04-26T15:26:07Z</time></trkpt><trkpt lat="43.49556310788915" lon="11.507468169679564"><ele>418.0</ele><time>2026-04-26T15:26:08Z</time></trkpt><trkpt lat="43.495660510416236" lon="11.507545349501093"><ele>418.0</ele><time>2026-04-26T15:26:09Z</time></trkpt><trkpt lat="43.495754674970684" lon="11.507639565588947"><ele>416.75</ele><time>2026-04-26T15:26:10Z</time></trkpt><trkpt lat="43.49584101331006" lon="11.507747737436711"><ele>415.5</ele><time>2026-04-26T15:26:11Z</time></trkpt><trkpt lat="43.49592126129304" lon="11.507863036473013"><ele>414.25</ele><time>2026-04-26T15:26:12Z</time></trkpt><trkpt lat="43.49599987204404" lon="11.507980842066578"><ele>413.0</ele><time>2026-04-26T15:26:13Z</time></trkpt><trkpt lat="43.4960829160999" lon="11.508098739398866"><ele>412.75</ele><time>2026-04-26T15:26:14Z</time></trkpt><trkpt lat="43.49616922333643" lon="11.508213257359932"><ele>412.5</ele><time>2026-04-26T15:26:15Z</time></trkpt><trkpt lat="43.49625249334785" lon="11.50831715836077"><ele>412.25</ele><time>2026-04-26T15:26:16Z</time></trkpt><trkpt lat="43.49633766320183" lon="11.508419839038611"><ele>412.0</ele><time>2026-04-26T15:26:17Z</time></trkpt><trkpt lat="43.49641511305205" lon="11.508520072533225"><ele>409.8</ele><time>2026-04-26T15:26:18Z</time></trkpt><trkpt lat="43.49648416665993" lon="11.508624214725709"><ele>407.6</ele><time>2026-04-26T15:26:19Z</time></trkpt><trkpt lat="43.496546343214845" lon="11.508717924431721"><ele>405.40000000000003</ele><time>2026-04-26T15:26:20Z</time></trkpt><trkpt lat="43.49661400580607" lon="11.508801003757366"><ele>403.20000000000005</ele><time>2026-04-26T15:26:21Z</time></trkpt><trkpt lat="43.49669917556846" lon="11.508859480430191"><ele>401.0</ele><time>2026-04-26T15:26:22Z</time></trkpt><trkpt lat="43.49679941094151" lon="11.508921468664031"><ele>399.5</ele><time>2026-04-26T15:26:23Z</time></trkpt><trkpt lat="43.4969167927391" lon="11.508945715517072"><ele>398.0</ele><time>2026-04-26T15:26:24Z</time></trkpt><trkpt lat="43.497033626890705" lon="11.50897372143978"><ele>396.5</ele><time>2026-04-26T15:26:25Z</time></trkpt><trkpt lat="43.497149140212116" lon="11.509007182342634"><ele>395.0</ele><time>2026-04-26T15:26:26Z</time></trkpt><trkpt lat="43.49727123929069" lon="11.509023554972885"><ele>393.2</ele><time>2026-04-26T15:26:27Z</time></trkpt><trkpt lat="43.497378082855015" lon="11.50909690959188"><ele>391.4</ele><time>2026-04-26T15:26:28Z</time></trkpt><trkpt lat="43.497483879780404" lon="11.509144796442285"><ele>389.6</ele><time>2026-04-26T15:26:29Z</time></trkpt><trkpt lat="43.497580670153866" lon="11.509194158583798"><ele>387.8</ele><time>2026-04-26T15:26:30Z</time></trkpt><trkpt lat="43.49766146784406" lon="11.50924411989321"><ele>386.0</ele><time>2026-04-26T15:26:31Z</time></trkpt><trkpt lat="43.49774449434165" lon="11.509284170262772"><ele>385.99999999999994</ele><time>2026-04-26T15:26:32Z</time></trkpt><trkpt lat="43.497806114710535" lon="11.509397221629541"><ele>386.0</ele><time>2026-04-26T15:26:33Z</time></trkpt><trkpt lat="43.497833587195764" lon="11.509512350811166"><ele>386.0</ele><time>2026-04-26T15:26:34Z</time></trkpt><trkpt lat="43.49784735725116" lon="11.509616966680486"><ele>386.0</ele><time>2026-04-26T15:26:35Z</time></trkpt><trkpt lat="43.497885696130716" lon="11.509688820497436"><ele>385.99999999999994</ele><time>2026-04-26T15:26:36Z</time></trkpt><trkpt lat="43.49794644324884" lon="11.509731264063904"><ele>386.0</ele><time>2026-04-26T15:26:37Z</time></trkpt><trkpt lat="43.49803992275289" lon="11.509688796275912"><ele>382.6</ele><time>2026-04-26T15:26:38Z</time></trkpt><trkpt lat="43.49813253223876" lon="11.50968298492523"><ele>379.20000000000005</ele><time>2026-04-26T15:26:39Z</time></trkpt><trkpt lat="43.498223946398525" lon="11.509639212232678"><ele>375.79999999999995</ele><time>2026-04-26T15:26:40Z</time></trkpt><trkpt lat="43.498306647229526" lon="11.50955367277996"><ele>372.4</ele><time>2026-04-26T15:26:41Z</time></trkpt><trkpt lat="43.49837477104883" lon="11.50944176634385"><ele>369.0</ele><time>2026-04-26T15:26:42Z</time></trkpt><trkpt lat="43.49842338723024" lon="11.509307978891488"><ele>369.0</ele><time>2026-04-26T15:26:43Z</time></trkpt><trkpt lat="43.498482068912985" lon="11.509204664100404"><ele>369.0</ele><time>2026-04-26T15:26:44Z</time></trkpt><trkpt lat="43.49855542090557" lon="11.509127258667649"><ele>369.0</ele><time>2026-04-26T15:26:45Z</time></trkpt><trkpt lat="43.49864752874339" lon="11.509130966452338"><ele>369.0</ele><time>2026-04-26T15:26:46Z</time></trkpt><trkpt lat="43.49874318708973" lon="11.509138026772494"><ele>369.0</ele><time>2026-04-26T15:26:47Z</time></trkpt><trkpt lat="43.49884602337693" lon="11.509151165918212"><ele>364.0</ele><time>2026-04-26T15:26:48Z</time></trkpt><trkpt lat="43.49895354664656" lon="11.50920608962039"><ele>359.0</ele><time>2026-04-26T15:26:49Z</time></trkpt><trkpt lat="43.4990731137596" lon="11.509284907698385"><ele>354.0</ele><time>2026-04-26T15:26:50Z</time></trkpt><trkpt lat="43.49920162561353" lon="11.50936020324084"><ele>349.0</ele><time>2026-04-26T15:26:51Z</time></trkpt><trkpt lat="43.49932065814572" lon="11.509451085269687"><ele>349.0</ele><time>2026-04-26T15:26:52Z</time></trkpt><trkpt lat="43.49943774939753" lon="11.509512423364063"><ele>349.0</ele><time>2026-04-26T15:26:53Z</time></trkpt><trkpt lat="43.49954809514719" lon="11.509560951320438"><ele>349.0</ele><time>2026-04-26T15:26:54Z</time></trkpt><trkpt lat="43.49965947126716" lon="11.509617084836584"><ele>349.0</ele><time>2026-04-26T15:26:55Z</time></trkpt><trkpt lat="43.49976859819043" lon="11.509676795174766"><ele>349.25</ele><time>2026-04-26T15:26:56Z</time></trkpt><trkpt lat="43.49987002903577" lon="11.509741596792319"><ele>349.5</ele><time>2026-04-26T15:26:57Z</time></trkpt><trkpt lat="43.4999664308678" lon="11.509808223624463"><ele>349.75</ele><time>2026-04-26T15:26:58Z</time></trkpt><trkpt lat="43.50007429618734" lon="11.509878132621642"><ele>350.0</ele><time>2026-04-26T15:26:59Z</time></trkpt><trkpt lat="43.500177860853185" lon="11.509940602208387"><ele>350.0</ele><time>2026-04-26T15:27:00Z</time></trkpt><trkpt lat="43.50029081040454" lon="11.509980932867627"><ele>350.0</ele><time>2026-04-26T15:27:01Z</time></trkpt><trkpt lat="43.50040898956772" lon="11.510005555256361"><ele>350.0</ele><time>2026-04-26T15:27:02Z</time></trkpt><trkpt lat="43.50052892217667" lon="11.510024467920717"><ele>350.0</ele><time>2026-04-26T15:27:03Z</time></trkpt><trkpt lat="43.50065520245348" lon="11.510036091967761"><ele>349.25</ele><time>2026-04-26T15:27:04Z</time></trkpt><trkpt lat="43.50078046857021" lon="11.51005371228367"><ele>348.5</ele><time>2026-04-26T15:27:05Z</time></trkpt><trkpt lat="43.50090190899918" lon="11.51007800379108"><ele>347.75</ele><time>2026-04-26T15:27:06Z</time></trkpt><trkpt lat="43.501021618524845" lon="11.51012045871693"><ele>347.0</ele><time>2026-04-26T15:27:07Z</time></trkpt><trkpt lat="43.50113188985419" lon="11.510172247897668"><ele>347.0</ele><time>2026-04-26T15:27:08Z</time></trkpt><trkpt lat="43.501243821697244" lon="11.510241015982972"><ele>347.0</ele><time>2026-04-26T15:27:09Z</time></trkpt><trkpt lat="43.50135369796591" lon="11.510321266336287"><ele>347.0</ele><time>2026-04-26T15:27:10Z</time></trkpt><trkpt lat="43.501463571281064" lon="11.510408154067457"><ele>347.0</ele><time>2026-04-26T15:27:11Z</time></trkpt><trkpt lat="43.501583732821615" lon="11.510495408009946"><ele>346.5</ele><time>2026-04-26T15:27:12Z</time></trkpt><trkpt lat="43.50171604925266" lon="11.510560612487074"><ele>346.0</ele><time>2026-04-26T15:27:13Z</time></trkpt><trkpt lat="43.501853756484785" lon="11.510618891741666"><ele>345.5</ele><time>2026-04-26T15:27:14Z</time></trkpt><trkpt lat="43.50199846274757" lon="11.510671043369436"><ele>345.0</ele><time>2026-04-26T15:27:15Z</time></trkpt><trkpt lat="43.50214323347301" lon="11.510731019984224"><ele>340.25</ele><time>2026-04-26T15:27:16Z</time></trkpt><trkpt lat="43.50228456789269" lon="11.51079105803752"><ele>335.5</ele><time>2026-04-26T15:27:17Z</time></trkpt><trkpt lat="43.50242366631301" lon="11.510859621121623"><ele>330.75</ele><time>2026-04-26T15:27:18Z</time></trkpt><trkpt lat="43.50254585693009" lon="11.51093823161603"><ele>326.0</ele><time>2026-04-26T15:27:19Z</time></trkpt><trkpt lat="43.50265057296565" lon="11.511021096235124"><ele>326.0</ele><time>2026-04-26T15:27:20Z</time></trkpt><trkpt lat="43.502743197502255" lon="11.511127609206588"><ele>326.0</ele><time>2026-04-26T15:27:21Z</time></trkpt><trkpt lat="43.502835804061" lon="11.511243313640483"><ele>326.0</ele><time>2026-04-26T15:27:22Z</time></trkpt><trkpt lat="43.50292877777928" lon="11.511359882189913"><ele>326.0</ele><time>2026-04-26T15:27:23Z</time></trkpt><trkpt lat="43.50302851904892" lon="11.511466264589519"><ele>322.75</ele><time>2026-04-26T15:27:24Z</time></trkpt><trkpt lat="43.50312565155818" lon="11.511572261734797"><ele>319.5</ele><time>2026-04-26T15:27:25Z</time></trkpt><trkpt lat="43.503206973854894" lon="11.511706934552903"><ele>316.25</ele><time>2026-04-26T15:27:26Z</time></trkpt><trkpt lat="43.50328492152554" lon="11.511861535503606"><ele>313.0</ele><time>2026-04-26T15:27:27Z</time></trkpt><trkpt lat="43.50336965476159" lon="11.512024594038047"><ele>313.5</ele><time>2026-04-26T15:27:28Z</time></trkpt><trkpt lat="43.50345192278578" lon="11.512190273150331"><ele>314.0</ele><time>2026-04-26T15:27:29Z</time></trkpt><trkpt lat="43.50353488255287" lon="11.512348597685598"><ele>314.5</ele><time>2026-04-26T15:27:30Z</time></trkpt><trkpt lat="43.503615598065174" lon="11.512488542987203"><ele>315.0</ele><time>2026-04-26T15:27:31Z</time></trkpt><trkpt lat="43.50370414836981" lon="11.512627953997418"><ele>312.25</ele><time>2026-04-26T15:27:32Z</time></trkpt><trkpt lat="43.50379663112912" lon="11.512759212385886"><ele>309.5</ele><time>2026-04-26T15:27:33Z</time></trkpt><trkpt lat="43.50388823564185" lon="11.51288595219982"><ele>306.75</ele><time>2026-04-26T15:27:34Z</time></trkpt><trkpt lat="43.50398907264538" lon="11.513018764224286"><ele>304.0</ele><time>2026-04-26T15:27:35Z</time></trkpt><trkpt lat="43.50410381843133" lon="11.51315352774013"><ele>304.0</ele><time>2026-04-26T15:27:36Z</time></trkpt><trkpt lat="43.504229429698896" lon="11.513287461011561"><ele>304.0</ele><time>2026-04-26T15:27:37Z</time></trkpt><trkpt lat="43.504343553217815" lon="11.513437150922314"><ele>304.0</ele><time>2026-04-26T15:27:38Z</time></trkpt><trkpt lat="43.50443998772849" lon="11.51359891237526"><ele>301.66666666666663</ele><time>2026-04-26T15:27:39Z</time></trkpt><trkpt lat="43.504530963595826" lon="11.513756526435419"><ele>299.3333333333333</ele><time>2026-04-26T15:27:40Z</time></trkpt><trkpt lat="43.50462842890852" lon="11.513934481344997"><ele>297.0</ele><time>2026-04-26T15:27:41Z</time></trkpt><trkpt lat="43.50472932918656" lon="11.514122925791511"><ele>297.0</ele><time>2026-04-26T15:27:42Z</time></trkpt><trkpt lat="43.504830785997115" lon="11.514316517615649"><ele>297.0</ele><time>2026-04-26T15:27:43Z</time></trkpt><trkpt lat="43.504930520027195" lon="11.514508277055414"><ele>297.0</ele><time>2026-04-26T15:27:44Z</time></trkpt><trkpt lat="43.505030877626155" lon="11.514697452979366"><ele>297.0</ele><time>2026-04-26T15:27:45Z</time></trkpt><trkpt lat="43.505128216815706" lon="11.514872028010661"><ele>297.0</ele><time>2026-04-26T15:27:46Z</time></trkpt><trkpt lat="43.50522648566935" lon="11.515040771175668"><ele>297.0</ele><time>2026-04-26T15:27:47Z</time></trkpt><trkpt lat="43.50532218795095" lon="11.515208870369237"><ele>295.6666666666667</ele><time>2026-04-26T15:27:48Z</time></trkpt><trkpt lat="43.505415883030224" lon="11.515382237673535"><ele>294.33333333333337</ele><time>2026-04-26T15:27:49Z</time></trkpt><trkpt lat="43.50550703522893" lon="11.51557440187356"><ele>293.0</ele><time>2026-04-26T15:27:50Z</time></trkpt><trkpt lat="43.5055942030016" lon="11.515769459458365"><ele>293.0</ele><time>2026-04-26T15:27:51Z</time></trkpt><trkpt lat="43.50567336119003" lon="11.515945348145252"><ele>293.0</ele><time>2026-04-26T15:27:52Z</time></trkpt><trkpt lat="43.50575224819904" lon="11.516108913401919"><ele>293.0</ele><time>2026-04-26T15:27:53Z</time></trkpt><trkpt lat="43.50583614023712" lon="11.516254026879059"><ele>293.0</ele><time>2026-04-26T15:27:54Z</time></trkpt><trkpt lat="43.505927506242436" lon="11.516392721006985"><ele>292.75</ele><time>2026-04-26T15:27:55Z</time></trkpt><trkpt lat="43.506017301366796" lon="11.516514940889397"><ele>292.5</ele><time>2026-04-26T15:27:56Z</time></trkpt><trkpt lat="43.50610318210375" lon="11.516619634295967"><ele>292.25</ele><time>2026-04-26T15:27:57Z</time></trkpt><trkpt lat="43.506195526053695" lon="11.516700901913254"><ele>292.0</ele><time>2026-04-26T15:27:58Z</time></trkpt><trkpt lat="43.50630253516739" lon="11.516765541370907"><ele>290.25</ele><time>2026-04-26T15:27:59Z</time></trkpt><trkpt lat="43.50641653715802" lon="11.516829774194969"><ele>288.5</ele><time>2026-04-26T15:28:00Z</time></trkpt><trkpt lat="43.506551310798365" lon="11.516859535727043"><ele>286.75</ele><time>2026-04-26T15:28:01Z</time></trkpt><trkpt lat="43.50669773056595" lon="11.516858086240491"><ele>285.0</ele><time>2026-04-26T15:28:02Z</time></trkpt><trkpt lat="43.506841968803805" lon="11.516896265777008"><ele>285.0</ele><time>2026-04-26T15:28:03Z</time></trkpt><trkpt lat="43.50698247245005" lon="11.516966223642445"><ele>285.0</ele><time>2026-04-26T15:28:04Z</time></trkpt><trkpt lat="43.50712355935665" lon="11.51706468819951"><ele>285.0</ele><time>2026-04-26T15:28:05Z</time></trkpt><trkpt lat="43.507264686638784" lon="11.51716818268185"><ele>283.75</ele><time>2026-04-26T15:28:06Z</time></trkpt><trkpt lat="43.507412747851916" lon="11.517251979143014"><ele>282.5</ele><time>2026-04-26T15:28:07Z</time></trkpt><trkpt lat="43.50755655198063" lon="11.517311890950928"><ele>281.25</ele><time>2026-04-26T15:28:08Z</time></trkpt><trkpt lat="43.50766436912499" lon="11.517343617483048"><ele>280.0</ele><time>2026-04-26T15:28:09Z</time></trkpt><trkpt lat="43.507734201874925" lon="11.51739575280714"><ele>279.0</ele><time>2026-04-26T15:28:10Z</time></trkpt><trkpt lat="43.50792498903517" lon="11.517455157614952"><ele>278.0</ele><time>2026-04-26T15:28:11Z</time></trkpt><trkpt lat="43.50801590606565" lon="11.517479373804141"><ele>277.0</ele><time>2026-04-26T15:28:12Z</time></trkpt><trkpt lat="43.50809811570159" lon="11.517475023628183"><ele>276.0</ele><time>2026-04-26T15:28:13Z</time></trkpt><trkpt lat="43.50817083733045" lon="11.517437915756275"><ele>275.0</ele><time>2026-04-26T15:28:14Z</time></trkpt><trkpt lat="43.5082287879179" lon="11.517360900280414"><ele>275.0</ele><time>2026-04-26T15:28:15Z</time></trkpt><trkpt lat="43.50828930827885" lon="11.517268918071109"><ele>275.0</ele><time>2026-04-26T15:28:16Z</time></trkpt><trkpt lat="43.50835586625561" lon="11.517205304702642"><ele>275.0</ele><time>2026-04-26T15:28:17Z</time></trkpt><trkpt lat="43.508413664268446" lon="11.517075012734756"><ele>275.0</ele><time>2026-04-26T15:28:18Z</time></trkpt><trkpt lat="43.50847311892416" lon="11.516994865238008"><ele>275.0</ele><time>2026-04-26T15:28:19Z</time></trkpt><trkpt lat="43.50853080692338" lon="11.516932472607762"><ele>275.0</ele><time>2026-04-26T15:28:20Z</time></trkpt><trkpt lat="43.50864695045518" lon="11.516869761405495"><ele>275.1666666666667</ele><time>2026-04-26T15:28:22Z</time></trkpt><trkpt lat="43.508725570767915" lon="11.516855879209864"><ele>275.33333333333337</ele><time>2026-04-26T15:28:23Z</time></trkpt><trkpt lat="43.50878964140426" lon="11.516891306802751"><ele>275.5</ele><time>2026-04-26T15:28:24Z</time></trkpt><trkpt lat="43.508858780697274" lon="11.516916585016704"><ele>275.6666666666667</ele><time>2026-04-26T15:28:25Z</time></trkpt><trkpt lat="43.50893910462677" lon="11.516982769253175"><ele>275.8333333333333</ele><time>2026-04-26T15:28:27Z</time></trkpt><trkpt lat="43.50898991400554" lon="11.51683259754455"><ele>276.0</ele><time>2026-04-26T15:28:30Z</time></trkpt><trkpt lat="43.5090140770838" lon="11.516661337806532"><ele>275.5</ele><time>2026-04-26T15:28:32Z</time></trkpt><trkpt lat="43.509030618974165" lon="11.516538709951368"><ele>275.0</ele><time>2026-04-26T15:28:33Z</time></trkpt><trkpt lat="43.50904802054843" lon="11.51640970943155"><ele>274.5</ele><time>2026-04-26T15:28:34Z</time></trkpt><trkpt lat="43.50906961016754" lon="11.51628259734189"><ele>274.0</ele><time>2026-04-26T15:28:35Z</time></trkpt><trkpt lat="43.509089953330445" lon="11.516171116823378"><ele>273.5</ele><time>2026-04-26T15:28:36Z</time></trkpt><trkpt lat="43.509108949143005" lon="11.516056733081564"><ele>273.0</ele><time>2026-04-26T15:28:37Z</time></trkpt><trkpt lat="43.5091060857551" lon="11.515933439106034"><ele>272.6</ele><time>2026-04-26T15:28:38Z</time></trkpt><trkpt lat="43.50910507949037" lon="11.515806537150992"><ele>272.20000000000005</ele><time>2026-04-26T15:28:39Z</time></trkpt><trkpt lat="43.509078412370776" lon="11.515670838881487"><ele>271.8</ele><time>2026-04-26T15:28:40Z</time></trkpt><trkpt lat="43.50906696765016" lon="11.515521313597004"><ele>271.40000000000003</ele><time>2026-04-26T15:28:41Z</time></trkpt><trkpt lat="43.50903975319503" lon="11.515374369704224"><ele>271.0</ele><time>2026-04-26T15:28:42Z</time></trkpt><trkpt lat="43.509017076139585" lon="11.515237083385665"><ele>270.0</ele><time>2026-04-26T15:28:43Z</time></trkpt><trkpt lat="43.50899588449875" lon="11.515098374481196"><ele>269.0</ele><time>2026-04-26T15:28:44Z</time></trkpt><trkpt lat="43.50897028241992" lon="11.514957949619355"><ele>268.0</ele><time>2026-04-26T15:28:45Z</time></trkpt><trkpt lat="43.508924479171476" lon="11.514826607630138"><ele>267.0</ele><time>2026-04-26T15:28:46Z</time></trkpt><trkpt lat="43.50885499038874" lon="11.514722326549395"><ele>266.0</ele><time>2026-04-26T15:28:47Z</time></trkpt><trkpt lat="43.508774966496745" lon="11.514655874260935"><ele>267.0</ele><time>2026-04-26T15:28:48Z</time></trkpt><trkpt lat="43.50868273191087" lon="11.514600766384776"><ele>268.0</ele><time>2026-04-26T15:28:49Z</time></trkpt><trkpt lat="43.508584697755126" lon="11.514510617200386"><ele>269.0</ele><time>2026-04-26T15:28:50Z</time></trkpt><trkpt lat="43.50849034062669" lon="11.514423481186704"><ele>270.0</ele><time>2026-04-26T15:28:51Z</time></trkpt><trkpt lat="43.5083999867319" lon="11.514312603591167"><ele>267.25</ele><time>2026-04-26T15:28:52Z</time></trkpt><trkpt lat="43.50829766870896" lon="11.514192040504282"><ele>264.5</ele><time>2026-04-26T15:28:53Z</time></trkpt><trkpt lat="43.508194889936476" lon="11.51407144687493"><ele>261.75</ele><time>2026-04-26T15:28:54Z</time></trkpt><trkpt lat="43.508099791671576" lon="11.513962349521735"><ele>259.0</ele><time>2026-04-26T15:28:55Z</time></trkpt><trkpt lat="43.508010126419556" lon="11.513862252049185"><ele>259.0</ele><time>2026-04-26T15:28:56Z</time></trkpt><trkpt lat="43.50792133905236" lon="11.513763486928557"><ele>259.0</ele><time>2026-04-26T15:28:57Z</time></trkpt><trkpt lat="43.50783199282893" lon="11.513671533182738"><ele>259.0</ele><time>2026-04-26T15:28:58Z</time></trkpt><trkpt lat="43.50775168929717" lon="11.513580787601216"><ele>259.0</ele><time>2026-04-26T15:28:59Z</time></trkpt><trkpt lat="43.507674693828214" lon="11.513470422026982"><ele>259.0</ele><time>2026-04-26T15:29:00Z</time></trkpt><trkpt lat="43.5076124620744" lon="11.513342728800826"><ele>260.0</ele><time>2026-04-26T15:29:01Z</time></trkpt><trkpt lat="43.50756173066684" lon="11.513199824646872"><ele>261.0</ele><time>2026-04-26T15:29:02Z</time></trkpt><trkpt lat="43.507516093251276" lon="11.513059329521347"><ele>262.0</ele><time>2026-04-26T15:29:03Z</time></trkpt><trkpt lat="43.50747420578474" lon="11.512922652846546"><ele>263.0</ele><time>2026-04-26T15:29:04Z</time></trkpt><trkpt lat="43.50743611653669" lon="11.512794262426413"><ele>264.0</ele><time>2026-04-26T15:29:05Z</time></trkpt><trkpt lat="43.50739015690303" lon="11.512644022690859"><ele>264.0</ele><time>2026-04-26T15:29:06Z</time></trkpt><trkpt lat="43.50734231282291" lon="11.51249643338664"><ele>264.0</ele><time>2026-04-26T15:29:07Z</time></trkpt><trkpt lat="43.507296177806296" lon="11.5123806622936"><ele>264.0</ele><time>2026-04-26T15:29:08Z</time></trkpt><trkpt lat="43.50722843485722" lon="11.512276239981782"><ele>264.0</ele><time>2026-04-26T15:29:09Z</time></trkpt><trkpt lat="43.5071423574355" lon="11.512227526450637"><ele>264.0</ele><time>2026-04-26T15:29:10Z</time></trkpt><trkpt lat="43.50705234615923" lon="11.512155508543904"><ele>265.25</ele><time>2026-04-26T15:29:11Z</time></trkpt><trkpt lat="43.506963784130804" lon="11.512056821509926"><ele>266.5</ele><time>2026-04-26T15:29:12Z</time></trkpt><trkpt lat="43.50689136757711" lon="11.511920559604397"><ele>267.75</ele><time>2026-04-26T15:29:13Z</time></trkpt><trkpt lat="43.50684970844692" lon="11.511760910973855"><ele>269.0</ele><time>2026-04-26T15:29:14Z</time></trkpt><trkpt lat="43.5068104255071" lon="11.511610692775363"><ele>269.0</ele><time>2026-04-26T15:29:15Z</time></trkpt><trkpt lat="43.50679138182075" lon="11.511461881587472"><ele>269.0</ele><time>2026-04-26T15:29:16Z</time></trkpt><trkpt lat="43.50677899378222" lon="11.511281951742836"><ele>269.0</ele><time>2026-04-26T15:29:17Z</time></trkpt><trkpt lat="43.5067565464702" lon="11.511092876371281"><ele>269.0</ele><time>2026-04-26T15:29:18Z</time></trkpt><trkpt lat="43.50676221033011" lon="11.51087112982989"><ele>270.33333333333337</ele><time>2026-04-26T15:29:19Z</time></trkpt><trkpt lat="43.50675660813511" lon="11.510637295613826"><ele>271.6666666666667</ele><time>2026-04-26T15:29:20Z</time></trkpt><trkpt lat="43.506752935379815" lon="11.510411084039735"><ele>273.0</ele><time>2026-04-26T15:29:21Z</time></trkpt><trkpt lat="43.50674273462562" lon="11.510199255702327"><ele>274.0</ele><time>2026-04-26T15:29:22Z</time></trkpt><trkpt lat="43.50673889733521" lon="11.510017922068073"><ele>275.0</ele><time>2026-04-26T15:29:23Z</time></trkpt><trkpt lat="43.50673907074599" lon="11.509844881977127"><ele>276.0</ele><time>2026-04-26T15:29:24Z</time></trkpt><trkpt lat="43.506724624213085" lon="11.50966062259118"><ele>277.0</ele><time>2026-04-26T15:29:25Z</time></trkpt><trkpt lat="43.50671630692173" lon="11.509457814938811"><ele>277.66666666666663</ele><time>2026-04-26T15:29:26Z</time></trkpt><trkpt lat="43.506693406021704" lon="11.509239744249454"><ele>278.3333333333333</ele><time>2026-04-26T15:29:27Z</time></trkpt><trkpt lat="43.506668120985935" lon="11.509021651848943"><ele>279.0</ele><time>2026-04-26T15:29:28Z</time></trkpt><trkpt lat="43.50663824858053" lon="11.50880861350949"><ele>280.0</ele><time>2026-04-26T15:29:29Z</time></trkpt><trkpt lat="43.506602978382894" lon="11.508583407328212"><ele>281.0</ele><time>2026-04-26T15:29:30Z</time></trkpt><trkpt lat="43.506553292440344" lon="11.50838074395432"><ele>282.0</ele><time>2026-04-26T15:29:31Z</time></trkpt><trkpt lat="43.50651034117578" lon="11.508185208134057"><ele>282.0</ele><time>2026-04-26T15:29:32Z</time></trkpt><trkpt lat="43.50648035560118" lon="11.507993222823854"><ele>282.0</ele><time>2026-04-26T15:29:33Z</time></trkpt><trkpt lat="43.50642656423734" lon="11.507820841353741"><ele>282.0</ele><time>2026-04-26T15:29:34Z</time></trkpt><trkpt lat="43.50635095369254" lon="11.507683254755552"><ele>282.0</ele><time>2026-04-26T15:29:35Z</time></trkpt><trkpt lat="43.50626727539727" lon="11.507550500810607"><ele>284.0</ele><time>2026-04-26T15:29:36Z</time></trkpt><trkpt lat="43.506203604534136" lon="11.507383561825229"><ele>286.0</ele><time>2026-04-26T15:29:37Z</time></trkpt><trkpt lat="43.506125021824445" lon="11.507221726294032"><ele>288.0</ele><time>2026-04-26T15:29:38Z</time></trkpt><trkpt lat="43.50605062662632" lon="11.507039733741838"><ele>290.0</ele><time>2026-04-26T15:29:39Z</time></trkpt><trkpt lat="43.5060006832732" lon="11.50684509245534"><ele>291.33333333333337</ele><time>2026-04-26T15:29:40Z</time></trkpt><trkpt lat="43.505967550567156" lon="11.50663248196551"><ele>292.6666666666667</ele><time>2026-04-26T15:29:41Z</time></trkpt><trkpt lat="43.50592519159436" lon="11.506414567069012"><ele>294.0</ele><time>2026-04-26T15:29:42Z</time></trkpt><trkpt lat="43.505869374504535" lon="11.506212155084517"><ele>294.6666666666667</ele><time>2026-04-26T15:29:43Z</time></trkpt><trkpt lat="43.505799615776574" lon="11.506022667114218"><ele>295.33333333333337</ele><time>2026-04-26T15:29:44Z</time></trkpt><trkpt lat="43.50572417323902" lon="11.505832870268938"><ele>296.0</ele><time>2026-04-26T15:29:45Z</time></trkpt><trkpt lat="43.505655550999755" lon="11.505646347285776"><ele>296.0</ele><time>2026-04-26T15:29:46Z</time></trkpt><trkpt lat="43.505594633610066" lon="11.505471699124145"><ele>296.0</ele><time>2026-04-26T15:29:47Z</time></trkpt><trkpt lat="43.505529774037065" lon="11.505335205823103"><ele>296.0</ele><time>2026-04-26T15:29:48Z</time></trkpt><trkpt lat="43.505454131934805" lon="11.505230192607053"><ele>296.0</ele><time>2026-04-26T15:29:49Z</time></trkpt><trkpt lat="43.50537007715769" lon="11.505135534068305"><ele>299.5</ele><time>2026-04-26T15:29:50Z</time></trkpt><trkpt lat="43.50526550709623" lon="11.505029665622928"><ele>303.0</ele><time>2026-04-26T15:29:51Z</time></trkpt><trkpt lat="43.50515684829109" lon="11.504919851989376"><ele>306.5</ele><time>2026-04-26T15:29:52Z</time></trkpt><trkpt lat="43.50506413894768" lon="11.504806638205121"><ele>310.0</ele><time>2026-04-26T15:29:53Z</time></trkpt><trkpt lat="43.50498255475887" lon="11.50468327322055"><ele>311.25</ele><time>2026-04-26T15:29:54Z</time></trkpt><trkpt lat="43.504925643655845" lon="11.50455757144872"><ele>312.5</ele><time>2026-04-26T15:29:55Z</time></trkpt><trkpt lat="43.50490942073414" lon="11.504424057358486"><ele>313.75</ele><time>2026-04-26T15:29:56Z</time></trkpt><trkpt lat="43.504894503089524" lon="11.504254941002245"><ele>315.0</ele><time>2026-04-26T15:29:57Z</time></trkpt><trkpt lat="43.5048681570912" lon="11.504071523321116"><ele>315.0</ele><time>2026-04-26T15:29:58Z</time></trkpt><trkpt lat="43.50484051935018" lon="11.50387911363032"><ele>315.0</ele><time>2026-04-26T15:29:59Z</time></trkpt><trkpt lat="43.50481473573138" lon="11.503690591223954"><ele>315.0</ele><time>2026-04-26T15:30:00Z</time></trkpt><trkpt lat="43.504787034544215" lon="11.503502052056204"><ele>315.0</ele><time>2026-04-26T15:30:01Z</time></trkpt><trkpt lat="43.50475065927594" lon="11.503310730183381"><ele>317.0</ele><time>2026-04-26T15:30:02Z</time></trkpt><trkpt lat="43.50471112161718" lon="11.50312071183806"><ele>319.0</ele><time>2026-04-26T15:30:03Z</time></trkpt><trkpt lat="43.504681318731436" lon="11.502926825523332"><ele>321.0</ele><time>2026-04-26T15:30:04Z</time></trkpt><trkpt lat="43.5046595754286" lon="11.50272954525899"><ele>323.0</ele><time>2026-04-26T15:30:05Z</time></trkpt><trkpt lat="43.50464099172422" lon="11.502530905801713"><ele>324.25</ele><time>2026-04-26T15:30:06Z</time></trkpt><trkpt lat="43.5046274915399" lon="11.50236459299803"><ele>325.5</ele><time>2026-04-26T15:30:07Z</time></trkpt><trkpt lat="43.50461728577303" lon="11.502216664017505"><ele>326.75</ele><time>2026-04-26T15:30:08Z</time></trkpt><trkpt lat="43.50463298132523" lon="11.502073529466001"><ele>328.0</ele><time>2026-04-26T15:30:09Z</time></trkpt><trkpt lat="43.50465670827486" lon="11.501905255837059"><ele>330.0</ele><time>2026-04-26T15:30:10Z</time></trkpt><trkpt lat="43.504686820637744" lon="11.501717205949188"><ele>332.0</ele><time>2026-04-26T15:30:11Z</time></trkpt><trkpt lat="43.504715711187394" lon="11.501532631772596"><ele>334.0</ele><time>2026-04-26T15:30:12Z</time></trkpt><trkpt lat="43.50474527660403" lon="11.501354720104763"><ele>336.0</ele><time>2026-04-26T15:30:13Z</time></trkpt><trkpt lat="43.50477804077964" lon="11.501201024262558"><ele>338.8</ele><time>2026-04-26T15:30:14Z</time></trkpt><trkpt lat="43.504799881150554" lon="11.501068561273334"><ele>341.6</ele><time>2026-04-26T15:30:15Z</time></trkpt><trkpt lat="43.50479875035184" lon="11.500917359901289"><ele>344.4</ele><time>2026-04-26T15:30:17Z</time></trkpt><trkpt lat="43.50469902215909" lon="11.500859312108037"><ele>347.2</ele><time>2026-04-26T15:30:18Z</time></trkpt><trkpt lat="43.50460383430423" lon="11.500874279484078"><ele>350.0</ele><time>2026-04-26T15:30:19Z</time></trkpt><trkpt lat="43.504517869669016" lon="11.500912531768327"><ele>351.8</ele><time>2026-04-26T15:30:20Z</time></trkpt><trkpt lat="43.50443215803507" lon="11.500984514137278"><ele>353.6</ele><time>2026-04-26T15:30:21Z</time></trkpt><trkpt lat="43.50433518678584" lon="11.50106051067459"><ele>355.4</ele><time>2026-04-26T15:30:22Z</time></trkpt><trkpt lat="43.50424282671833" lon="11.501092579936996"><ele>357.2</ele><time>2026-04-26T15:30:23Z</time></trkpt><trkpt lat="43.504169263388725" lon="11.501084850235008"><ele>359.0</ele><time>2026-04-26T15:30:24Z</time></trkpt><trkpt lat="43.50410429369463" lon="11.501041552522437"><ele>359.0</ele><time>2026-04-26T15:30:25Z</time></trkpt><trkpt lat="43.50404330889115" lon="11.50096355602547"><ele>359.0</ele><time>2026-04-26T15:30:26Z</time></trkpt><trkpt lat="43.503986844965276" lon="11.500872728926572"><ele>359.0</ele><time>2026-04-26T15:30:27Z</time></trkpt><trkpt lat="43.50395242061848" lon="11.500784895304799"><ele>359.0</ele><time>2026-04-26T15:30:28Z</time></trkpt><trkpt lat="43.50392000148527" lon="11.50070368041852"><ele>359.0</ele><time>2026-04-26T15:30:29Z</time></trkpt><trkpt lat="43.503891919739935" lon="11.50060549418112"><ele>359.0</ele><time>2026-04-26T15:30:30Z</time></trkpt><trkpt lat="43.50386729802904" lon="11.50049507836964"><ele>361.6</ele><time>2026-04-26T15:30:31Z</time></trkpt><trkpt lat="43.50386072796453" lon="11.500387250459166"><ele>364.2</ele><time>2026-04-26T15:30:32Z</time></trkpt><trkpt lat="43.50384995888114" lon="11.500253879569705"><ele>366.8</ele><time>2026-04-26T15:30:33Z</time></trkpt><trkpt lat="43.503835640400645" lon="11.500118668495324"><ele>369.40000000000003</ele><time>2026-04-26T15:30:34Z</time></trkpt><trkpt lat="43.5038193400558" lon="11.499987128867264"><ele>372.0</ele><time>2026-04-26T15:30:35Z</time></trkpt><trkpt lat="43.503799926196876" lon="11.499831703351877"><ele>372.0</ele><time>2026-04-26T15:30:36Z</time></trkpt><trkpt lat="43.503778048478296" lon="11.499664887213994"><ele>372.0</ele><time>2026-04-26T15:30:37Z</time></trkpt><trkpt lat="43.50375553410379" lon="11.49950658912641"><ele>372.0</ele><time>2026-04-26T15:30:38Z</time></trkpt><trkpt lat="43.50373463197561" lon="11.499359626877862"><ele>372.0</ele><time>2026-04-26T15:30:39Z</time></trkpt><trkpt lat="43.503713499868766" lon="11.499211047408961"><ele>371.6666666666667</ele><time>2026-04-26T15:30:40Z</time></trkpt><trkpt lat="43.50369769155424" lon="11.49909380093479"><ele>371.3333333333333</ele><time>2026-04-26T15:30:41Z</time></trkpt><trkpt lat="43.50368419414779" lon="11.498983634688727"><ele>371.0</ele><time>2026-04-26T15:30:42Z</time></trkpt><trkpt lat="43.50367114159954" lon="11.498877096846511"><ele>370.66666666666663</ele><time>2026-04-26T15:30:43Z</time></trkpt><trkpt lat="43.503644404435164" lon="11.498791234052625"><ele>370.3333333333333</ele><time>2026-04-26T15:30:44Z</time></trkpt><trkpt lat="43.50356267939139" lon="11.498693608147082"><ele>370.0</ele><time>2026-04-26T15:30:46Z</time></trkpt><trkpt lat="43.5034931105302" lon="11.49864214258964"><ele>370.0</ele><time>2026-04-26T15:30:49Z</time></trkpt><trkpt lat="43.50356486887542" lon="11.498657421721306"><ele>370.0</ele><time>2026-04-26T15:30:55Z</time></trkpt><trkpt lat="43.503627374928904" lon="11.498733328733415"><ele>370.0</ele><time>2026-04-26T15:31:19Z</time></trkpt><trkpt lat="43.50371206417847" lon="11.498751224146984"><ele>369.0</ele><time>2026-04-26T15:31:22Z</time></trkpt><trkpt lat="43.5037781791169" lon="11.498586108200247"><ele>370.0</ele><time>2026-04-26T15:31:24Z</time></trkpt></trkseg></trk></gpx>